<?xml version="1.0" encoding="UTF-8" standalone="no" ?>
<gpx xmlns="http://www.topografix.com/GPX/1/1" xmlns:xsi="http://www.w3.org/2001/XMLSchema-instance" xsi:schemaLocation="http://www.topografix.com/GPX/1/1 http://www.topografix.com/GPX/1/1/gpx.xsd" version="1.1" creator="VisuGPX - https://www.visugpx.com">
  <metadata>
    <name>Pornichet 10/04/2022</name>
    <desc><![CDATA[Sortie dimanche 10 avril 2022]]></desc>
  </metadata>
  <trk>
    <name><![CDATA[Pornichet Cyclisme]]></name>
    <trkseg>
      <trkpt lat="47.25636" lon="-2.32657">
        <ele>12.6</ele>
        <time>2022-04-10T07:04:08.000Z</time>
      </trkpt>
      <trkpt lat="47.25628" lon="-2.3266">
        <ele>12.5</ele>
        <time>2022-04-10T07:04:11.000Z</time>
      </trkpt>
      <trkpt lat="47.25625" lon="-2.32661">
        <ele>1.3999999761581</ele>
        <time>2022-04-10T07:04:12.000Z</time>
      </trkpt>
      <trkpt lat="47.25621" lon="-2.32663">
        <ele>2.5999999046326</ele>
        <time>2022-04-10T07:04:13.000Z</time>
      </trkpt>
      <trkpt lat="47.25618" lon="-2.32664">
        <ele>3.7999999523163</ele>
        <time>2022-04-10T07:04:14.000Z</time>
      </trkpt>
      <trkpt lat="47.25615" lon="-2.32666">
        <ele>3.7999999523163</ele>
        <time>2022-04-10T07:04:15.000Z</time>
      </trkpt>
      <trkpt lat="47.25587" lon="-2.32678">
        <ele>3.7999999523163</ele>
        <time>2022-04-10T07:04:22.000Z</time>
      </trkpt>
      <trkpt lat="47.25557" lon="-2.32688">
        <ele>3.7999999523163</ele>
        <time>2022-04-10T07:04:29.000Z</time>
      </trkpt>
      <trkpt lat="47.2553" lon="-2.327">
        <ele>3.7999999523163</ele>
        <time>2022-04-10T07:04:35.000Z</time>
      </trkpt>
      <trkpt lat="47.2552" lon="-2.32704">
        <ele>3.7999999523163</ele>
        <time>2022-04-10T07:04:37.000Z</time>
      </trkpt>
      <trkpt lat="47.25506" lon="-2.32705">
        <ele>2.5999999046326</ele>
        <time>2022-04-10T07:04:40.000Z</time>
      </trkpt>
      <trkpt lat="47.25502" lon="-2.32705">
        <ele>2.2000000476837</ele>
        <time>2022-04-10T07:04:41.000Z</time>
      </trkpt>
      <trkpt lat="47.25498" lon="-2.32705">
        <ele>2.4000000953674</ele>
        <time>2022-04-10T07:04:42.000Z</time>
      </trkpt>
      <trkpt lat="47.25494" lon="-2.32705">
        <ele>2.5999999046326</ele>
        <time>2022-04-10T07:04:43.000Z</time>
      </trkpt>
      <trkpt lat="47.25491" lon="-2.32706">
        <ele>2.2000000476837</ele>
        <time>2022-04-10T07:04:44.000Z</time>
      </trkpt>
      <trkpt lat="47.25487" lon="-2.32707">
        <ele>1.7999999523163</ele>
        <time>2022-04-10T07:04:45.000Z</time>
      </trkpt>
      <trkpt lat="47.25484" lon="-2.32708">
        <ele>1.3999999761581</ele>
        <time>2022-04-10T07:04:46.000Z</time>
      </trkpt>
      <trkpt lat="47.2548" lon="-2.3271">
        <ele>1</ele>
        <time>2022-04-10T07:04:47.000Z</time>
      </trkpt>
      <trkpt lat="47.25476" lon="-2.32713">
        <ele>0.60000002384186</ele>
        <time>2022-04-10T07:04:48.000Z</time>
      </trkpt>
      <trkpt lat="47.25469" lon="-2.3272">
        <ele>0.60000002384186</ele>
        <time>2022-04-10T07:04:50.000Z</time>
      </trkpt>
      <trkpt lat="47.25465" lon="-2.32724">
        <ele>0.60000002384186</ele>
        <time>2022-04-10T07:04:51.000Z</time>
      </trkpt>
      <trkpt lat="47.25451" lon="-2.32746">
        <ele>0.60000002384186</ele>
        <time>2022-04-10T07:04:56.000Z</time>
      </trkpt>
      <trkpt lat="47.25432" lon="-2.32782">
        <ele>0.60000002384186</ele>
        <time>2022-04-10T07:05:04.000Z</time>
      </trkpt>
      <trkpt lat="47.2543" lon="-2.32787">
        <ele>0.60000002384186</ele>
        <time>2022-04-10T07:05:05.000Z</time>
      </trkpt>
      <trkpt lat="47.25424" lon="-2.32795">
        <ele>0.60000002384186</ele>
        <time>2022-04-10T07:05:07.000Z</time>
      </trkpt>
      <trkpt lat="47.25418" lon="-2.32802">
        <ele>0.60000002384186</ele>
        <time>2022-04-10T07:05:09.000Z</time>
      </trkpt>
      <trkpt lat="47.25415" lon="-2.32807">
        <ele>0.20000000298023</ele>
        <time>2022-04-10T07:05:10.000Z</time>
      </trkpt>
      <trkpt lat="47.25412" lon="-2.32811">
        <ele>-0.40000000596046</ele>
        <time>2022-04-10T07:05:11.000Z</time>
      </trkpt>
      <trkpt lat="47.25409" lon="-2.32815">
        <ele>-1</ele>
        <time>2022-04-10T07:05:12.000Z</time>
      </trkpt>
      <trkpt lat="47.25406" lon="-2.32819">
        <ele>-1.3999999761581</ele>
        <time>2022-04-10T07:05:13.000Z</time>
      </trkpt>
      <trkpt lat="47.25403" lon="-2.32823">
        <ele>-2</ele>
        <time>2022-04-10T07:05:14.000Z</time>
      </trkpt>
      <trkpt lat="47.25384" lon="-2.32847">
        <ele>-2</ele>
        <time>2022-04-10T07:05:19.000Z</time>
      </trkpt>
      <trkpt lat="47.25355" lon="-2.3288">
        <ele>-2</ele>
        <time>2022-04-10T07:05:27.000Z</time>
      </trkpt>
      <trkpt lat="47.25324" lon="-2.32911">
        <ele>-2</ele>
        <time>2022-04-10T07:05:35.000Z</time>
      </trkpt>
      <trkpt lat="47.2532" lon="-2.32914">
        <ele>-2</ele>
        <time>2022-04-10T07:05:36.000Z</time>
      </trkpt>
      <trkpt lat="47.25313" lon="-2.32922">
        <ele>-2</ele>
        <time>2022-04-10T07:05:38.000Z</time>
      </trkpt>
      <trkpt lat="47.25311" lon="-2.32927">
        <ele>-2</ele>
        <time>2022-04-10T07:05:39.000Z</time>
      </trkpt>
      <trkpt lat="47.25309" lon="-2.32946">
        <ele>-2</ele>
        <time>2022-04-10T07:05:42.000Z</time>
      </trkpt>
      <trkpt lat="47.25314" lon="-2.32962">
        <ele>-2</ele>
        <time>2022-04-10T07:05:45.000Z</time>
      </trkpt>
      <trkpt lat="47.25316" lon="-2.32968">
        <ele>-2</ele>
        <time>2022-04-10T07:05:46.000Z</time>
      </trkpt>
      <trkpt lat="47.25334" lon="-2.33017">
        <ele>-2</ele>
        <time>2022-04-10T07:05:54.000Z</time>
      </trkpt>
      <trkpt lat="47.25349" lon="-2.33051">
        <ele>-2</ele>
        <time>2022-04-10T07:06:00.000Z</time>
      </trkpt>
      <trkpt lat="47.25356" lon="-2.33068">
        <ele>-2</ele>
        <time>2022-04-10T07:06:03.000Z</time>
      </trkpt>
      <trkpt lat="47.25365" lon="-2.33079">
        <ele>-2</ele>
        <time>2022-04-10T07:06:06.000Z</time>
      </trkpt>
      <trkpt lat="47.2537" lon="-2.33091">
        <ele>-2</ele>
        <time>2022-04-10T07:06:10.000Z</time>
      </trkpt>
      <trkpt lat="47.25371" lon="-2.33095">
        <ele>-2</ele>
        <time>2022-04-10T07:06:14.000Z</time>
      </trkpt>
      <trkpt lat="47.2537" lon="-2.33096">
        <ele>-2</ele>
        <time>2022-04-10T07:06:15.000Z</time>
      </trkpt>
      <trkpt lat="47.25372" lon="-2.33107">
        <ele>-2</ele>
        <time>2022-04-10T07:08:35.000Z</time>
      </trkpt>
      <trkpt lat="47.25375" lon="-2.33113">
        <ele>-2</ele>
        <time>2022-04-10T07:08:38.000Z</time>
      </trkpt>
      <trkpt lat="47.25381" lon="-2.33128">
        <ele>-2</ele>
        <time>2022-04-10T07:08:45.000Z</time>
      </trkpt>
      <trkpt lat="47.25388" lon="-2.33138">
        <ele>-2</ele>
        <time>2022-04-10T07:08:48.000Z</time>
      </trkpt>
      <trkpt lat="47.25391" lon="-2.33138">
        <ele>-2</ele>
        <time>2022-04-10T07:08:49.000Z</time>
      </trkpt>
      <trkpt lat="47.25402" lon="-2.33132">
        <ele>-2</ele>
        <time>2022-04-10T07:08:52.000Z</time>
      </trkpt>
      <trkpt lat="47.25405" lon="-2.3313">
        <ele>-2</ele>
        <time>2022-04-10T07:08:53.000Z</time>
      </trkpt>
      <trkpt lat="47.25432" lon="-2.33117">
        <ele>-2</ele>
        <time>2022-04-10T07:09:00.000Z</time>
      </trkpt>
      <trkpt lat="47.25458" lon="-2.33105">
        <ele>-2</ele>
        <time>2022-04-10T07:09:06.000Z</time>
      </trkpt>
      <trkpt lat="47.25472" lon="-2.33098">
        <ele>-2.4000000953674</ele>
        <time>2022-04-10T07:09:09.000Z</time>
      </trkpt>
      <trkpt lat="47.25476" lon="-2.33095">
        <ele>-2.7999999523163</ele>
        <time>2022-04-10T07:09:10.000Z</time>
      </trkpt>
      <trkpt lat="47.25479" lon="-2.33093">
        <ele>-3.2000000476837</ele>
        <time>2022-04-10T07:09:11.000Z</time>
      </trkpt>
      <trkpt lat="47.25483" lon="-2.3309">
        <ele>-3.5999999046326</ele>
        <time>2022-04-10T07:09:12.000Z</time>
      </trkpt>
      <trkpt lat="47.25487" lon="-2.33086">
        <ele>-4</ele>
        <time>2022-04-10T07:09:13.000Z</time>
      </trkpt>
      <trkpt lat="47.25511" lon="-2.33058">
        <ele>-4</ele>
        <time>2022-04-10T07:09:20.000Z</time>
      </trkpt>
      <trkpt lat="47.25519" lon="-2.33051">
        <ele>-4</ele>
        <time>2022-04-10T07:09:22.000Z</time>
      </trkpt>
      <trkpt lat="47.25532" lon="-2.33043">
        <ele>-4</ele>
        <time>2022-04-10T07:09:25.000Z</time>
      </trkpt>
      <trkpt lat="47.25537" lon="-2.33042">
        <ele>-4</ele>
        <time>2022-04-10T07:09:26.000Z</time>
      </trkpt>
      <trkpt lat="47.2556" lon="-2.33037">
        <ele>-4</ele>
        <time>2022-04-10T07:09:31.000Z</time>
      </trkpt>
      <trkpt lat="47.25574" lon="-2.33035">
        <ele>-4</ele>
        <time>2022-04-10T07:09:34.000Z</time>
      </trkpt>
      <trkpt lat="47.25578" lon="-2.33034">
        <ele>-3.5999999046326</ele>
        <time>2022-04-10T07:09:35.000Z</time>
      </trkpt>
      <trkpt lat="47.25582" lon="-2.33033">
        <ele>-3.2000000476837</ele>
        <time>2022-04-10T07:09:36.000Z</time>
      </trkpt>
      <trkpt lat="47.25587" lon="-2.33033">
        <ele>-2.7999999523163</ele>
        <time>2022-04-10T07:09:37.000Z</time>
      </trkpt>
      <trkpt lat="47.25592" lon="-2.33032">
        <ele>-2</ele>
        <time>2022-04-10T07:09:38.000Z</time>
      </trkpt>
      <trkpt lat="47.25609" lon="-2.33028">
        <ele>-2</ele>
        <time>2022-04-10T07:09:42.000Z</time>
      </trkpt>
      <trkpt lat="47.25613" lon="-2.33025">
        <ele>-2</ele>
        <time>2022-04-10T07:09:43.000Z</time>
      </trkpt>
      <trkpt lat="47.25616" lon="-2.33007">
        <ele>-2</ele>
        <time>2022-04-10T07:09:46.000Z</time>
      </trkpt>
      <trkpt lat="47.25613" lon="-2.32994">
        <ele>-2</ele>
        <time>2022-04-10T07:09:48.000Z</time>
      </trkpt>
      <trkpt lat="47.25612" lon="-2.32987">
        <ele>-1.6000000238419</ele>
        <time>2022-04-10T07:09:49.000Z</time>
      </trkpt>
      <trkpt lat="47.25611" lon="-2.32981">
        <ele>-1</ele>
        <time>2022-04-10T07:09:50.000Z</time>
      </trkpt>
      <trkpt lat="47.2561" lon="-2.32974">
        <ele>-0.60000002384186</ele>
        <time>2022-04-10T07:09:51.000Z</time>
      </trkpt>
      <trkpt lat="47.25609" lon="-2.32968">
        <ele>-0.20000000298023</ele>
        <time>2022-04-10T07:09:52.000Z</time>
      </trkpt>
      <trkpt lat="47.25608" lon="-2.32962">
        <ele>0.20000000298023</ele>
        <time>2022-04-10T07:09:53.000Z</time>
      </trkpt>
      <trkpt lat="47.25605" lon="-2.32949">
        <ele>0.20000000298023</ele>
        <time>2022-04-10T07:09:56.000Z</time>
      </trkpt>
      <trkpt lat="47.25601" lon="-2.32926">
        <ele>0.20000000298023</ele>
        <time>2022-04-10T07:10:02.000Z</time>
      </trkpt>
      <trkpt lat="47.25596" lon="-2.32891">
        <ele>0.20000000298023</ele>
        <time>2022-04-10T07:10:09.000Z</time>
      </trkpt>
      <trkpt lat="47.2559" lon="-2.32846">
        <ele>0.20000000298023</ele>
        <time>2022-04-10T07:10:17.000Z</time>
      </trkpt>
      <trkpt lat="47.25589" lon="-2.32834">
        <ele>0.20000000298023</ele>
        <time>2022-04-10T07:10:19.000Z</time>
      </trkpt>
      <trkpt lat="47.25592" lon="-2.32815">
        <ele>0.20000000298023</ele>
        <time>2022-04-10T07:10:22.000Z</time>
      </trkpt>
      <trkpt lat="47.25598" lon="-2.32776">
        <ele>0.20000000298023</ele>
        <time>2022-04-10T07:10:28.000Z</time>
      </trkpt>
      <trkpt lat="47.25601" lon="-2.32728">
        <ele>0.20000000298023</ele>
        <time>2022-04-10T07:10:35.000Z</time>
      </trkpt>
      <trkpt lat="47.25602" lon="-2.32681">
        <ele>0.20000000298023</ele>
        <time>2022-04-10T07:10:42.000Z</time>
      </trkpt>
      <trkpt lat="47.25606" lon="-2.32666">
        <ele>0.20000000298023</ele>
        <time>2022-04-10T07:10:45.000Z</time>
      </trkpt>
      <trkpt lat="47.2561" lon="-2.32662">
        <ele>0.20000000298023</ele>
        <time>2022-04-10T07:10:46.000Z</time>
      </trkpt>
      <trkpt lat="47.25628" lon="-2.32652">
        <ele>0.20000000298023</ele>
        <time>2022-04-10T07:10:50.000Z</time>
      </trkpt>
      <trkpt lat="47.25633" lon="-2.3265">
        <ele>0.20000000298023</ele>
        <time>2022-04-10T07:10:51.000Z</time>
      </trkpt>
      <trkpt lat="47.25675" lon="-2.32634">
        <ele>0.20000000298023</ele>
        <time>2022-04-10T07:10:59.000Z</time>
      </trkpt>
      <trkpt lat="47.25702" lon="-2.32621">
        <ele>0.20000000298023</ele>
        <time>2022-04-10T07:11:04.000Z</time>
      </trkpt>
      <trkpt lat="47.25707" lon="-2.32616">
        <ele>-0.20000000298023</ele>
        <time>2022-04-10T07:11:05.000Z</time>
      </trkpt>
      <trkpt lat="47.25709" lon="-2.32609">
        <ele>-0.60000002384186</ele>
        <time>2022-04-10T07:11:06.000Z</time>
      </trkpt>
      <trkpt lat="47.25709" lon="-2.32602">
        <ele>-1</ele>
        <time>2022-04-10T07:11:07.000Z</time>
      </trkpt>
      <trkpt lat="47.25708" lon="-2.32595">
        <ele>-1.3999999761581</ele>
        <time>2022-04-10T07:11:08.000Z</time>
      </trkpt>
      <trkpt lat="47.25706" lon="-2.32588">
        <ele>-1.7999999523163</ele>
        <time>2022-04-10T07:11:09.000Z</time>
      </trkpt>
      <trkpt lat="47.25701" lon="-2.32574">
        <ele>-1.7999999523163</ele>
        <time>2022-04-10T07:11:11.000Z</time>
      </trkpt>
      <trkpt lat="47.25681" lon="-2.32514">
        <ele>-1.7999999523163</ele>
        <time>2022-04-10T07:11:19.000Z</time>
      </trkpt>
      <trkpt lat="47.25674" lon="-2.32491">
        <ele>-2.2000000476837</ele>
        <time>2022-04-10T07:11:22.000Z</time>
      </trkpt>
      <trkpt lat="47.25671" lon="-2.32483">
        <ele>-2.5999999046326</ele>
        <time>2022-04-10T07:11:23.000Z</time>
      </trkpt>
      <trkpt lat="47.25668" lon="-2.32476">
        <ele>-3.2000000476837</ele>
        <time>2022-04-10T07:11:24.000Z</time>
      </trkpt>
      <trkpt lat="47.25665" lon="-2.32468">
        <ele>-3.5999999046326</ele>
        <time>2022-04-10T07:11:25.000Z</time>
      </trkpt>
      <trkpt lat="47.25663" lon="-2.3246">
        <ele>-4</ele>
        <time>2022-04-10T07:11:26.000Z</time>
      </trkpt>
      <trkpt lat="47.25661" lon="-2.32451">
        <ele>-4</ele>
        <time>2022-04-10T07:11:27.000Z</time>
      </trkpt>
      <trkpt lat="47.2566" lon="-2.32443">
        <ele>-4</ele>
        <time>2022-04-10T07:11:28.000Z</time>
      </trkpt>
      <trkpt lat="47.25664" lon="-2.32418">
        <ele>-4.4000000953674</ele>
        <time>2022-04-10T07:11:32.000Z</time>
      </trkpt>
      <trkpt lat="47.25669" lon="-2.32416">
        <ele>-4.8000001907349</ele>
        <time>2022-04-10T07:11:33.000Z</time>
      </trkpt>
      <trkpt lat="47.25674" lon="-2.32416">
        <ele>-5.1999998092651</ele>
        <time>2022-04-10T07:11:34.000Z</time>
      </trkpt>
      <trkpt lat="47.25679" lon="-2.32418">
        <ele>-5.5999999046326</ele>
        <time>2022-04-10T07:11:35.000Z</time>
      </trkpt>
      <trkpt lat="47.25685" lon="-2.3242">
        <ele>-6</ele>
        <time>2022-04-10T07:11:36.000Z</time>
      </trkpt>
      <trkpt lat="47.2569" lon="-2.32422">
        <ele>-6</ele>
        <time>2022-04-10T07:11:37.000Z</time>
      </trkpt>
      <trkpt lat="47.25709" lon="-2.32423">
        <ele>-6</ele>
        <time>2022-04-10T07:11:40.000Z</time>
      </trkpt>
      <trkpt lat="47.25752" lon="-2.32426">
        <ele>-6</ele>
        <time>2022-04-10T07:11:47.000Z</time>
      </trkpt>
      <trkpt lat="47.25758" lon="-2.32425">
        <ele>-6</ele>
        <time>2022-04-10T07:11:48.000Z</time>
      </trkpt>
      <trkpt lat="47.2577" lon="-2.32421">
        <ele>-6</ele>
        <time>2022-04-10T07:11:51.000Z</time>
      </trkpt>
      <trkpt lat="47.25773" lon="-2.32418">
        <ele>-6</ele>
        <time>2022-04-10T07:11:55.000Z</time>
      </trkpt>
      <trkpt lat="47.25783" lon="-2.32418">
        <ele>-6</ele>
        <time>2022-04-10T07:11:59.000Z</time>
      </trkpt>
      <trkpt lat="47.25789" lon="-2.32426">
        <ele>-6</ele>
        <time>2022-04-10T07:12:01.000Z</time>
      </trkpt>
      <trkpt lat="47.25792" lon="-2.32432">
        <ele>-6</ele>
        <time>2022-04-10T07:12:02.000Z</time>
      </trkpt>
      <trkpt lat="47.25802" lon="-2.3245">
        <ele>-6</ele>
        <time>2022-04-10T07:12:05.000Z</time>
      </trkpt>
      <trkpt lat="47.25809" lon="-2.32457">
        <ele>-6</ele>
        <time>2022-04-10T07:12:07.000Z</time>
      </trkpt>
      <trkpt lat="47.25822" lon="-2.32463">
        <ele>-6</ele>
        <time>2022-04-10T07:12:10.000Z</time>
      </trkpt>
      <trkpt lat="47.25831" lon="-2.32469">
        <ele>-6</ele>
        <time>2022-04-10T07:12:12.000Z</time>
      </trkpt>
      <trkpt lat="47.25853" lon="-2.32476">
        <ele>-6</ele>
        <time>2022-04-10T07:12:17.000Z</time>
      </trkpt>
      <trkpt lat="47.25885" lon="-2.32473">
        <ele>-6</ele>
        <time>2022-04-10T07:12:24.000Z</time>
      </trkpt>
      <trkpt lat="47.25895" lon="-2.32468">
        <ele>-6</ele>
        <time>2022-04-10T07:12:26.000Z</time>
      </trkpt>
      <trkpt lat="47.25904" lon="-2.32458">
        <ele>-6</ele>
        <time>2022-04-10T07:12:28.000Z</time>
      </trkpt>
      <trkpt lat="47.25941" lon="-2.32411">
        <ele>-6</ele>
        <time>2022-04-10T07:12:36.000Z</time>
      </trkpt>
      <trkpt lat="47.25976" lon="-2.32364">
        <ele>-6</ele>
        <time>2022-04-10T07:12:44.000Z</time>
      </trkpt>
      <trkpt lat="47.26009" lon="-2.32321">
        <ele>-6</ele>
        <time>2022-04-10T07:12:51.000Z</time>
      </trkpt>
      <trkpt lat="47.26042" lon="-2.32282">
        <ele>-6</ele>
        <time>2022-04-10T07:12:58.000Z</time>
      </trkpt>
      <trkpt lat="47.26079" lon="-2.32237">
        <ele>-6</ele>
        <time>2022-04-10T07:13:06.000Z</time>
      </trkpt>
      <trkpt lat="47.26107" lon="-2.3219">
        <ele>-6</ele>
        <time>2022-04-10T07:13:13.000Z</time>
      </trkpt>
      <trkpt lat="47.26123" lon="-2.32143">
        <ele>-6</ele>
        <time>2022-04-10T07:13:19.000Z</time>
      </trkpt>
      <trkpt lat="47.26143" lon="-2.32079">
        <ele>-6</ele>
        <time>2022-04-10T07:13:27.000Z</time>
      </trkpt>
      <trkpt lat="47.26145" lon="-2.32072">
        <ele>-6.4000000953674</ele>
        <time>2022-04-10T07:13:28.000Z</time>
      </trkpt>
      <trkpt lat="47.26147" lon="-2.32064">
        <ele>-6.8000001907349</ele>
        <time>2022-04-10T07:13:29.000Z</time>
      </trkpt>
      <trkpt lat="47.26149" lon="-2.32057">
        <ele>-7.1999998092651</ele>
        <time>2022-04-10T07:13:30.000Z</time>
      </trkpt>
      <trkpt lat="47.26151" lon="-2.3205">
        <ele>-7.5999999046326</ele>
        <time>2022-04-10T07:13:31.000Z</time>
      </trkpt>
      <trkpt lat="47.26153" lon="-2.32043">
        <ele>-8</ele>
        <time>2022-04-10T07:13:32.000Z</time>
      </trkpt>
      <trkpt lat="47.26158" lon="-2.3203">
        <ele>-8</ele>
        <time>2022-04-10T07:13:34.000Z</time>
      </trkpt>
      <trkpt lat="47.26168" lon="-2.3202">
        <ele>-8</ele>
        <time>2022-04-10T07:13:37.000Z</time>
      </trkpt>
      <trkpt lat="47.26172" lon="-2.32019">
        <ele>-8</ele>
        <time>2022-04-10T07:13:39.000Z</time>
      </trkpt>
      <trkpt lat="47.26174" lon="-2.32019">
        <ele>-8</ele>
        <time>2022-04-10T07:13:40.000Z</time>
      </trkpt>
      <trkpt lat="47.26176" lon="-2.32019">
        <ele>-8</ele>
        <time>2022-04-10T07:13:41.000Z</time>
      </trkpt>
      <trkpt lat="47.26189" lon="-2.32023">
        <ele>-8</ele>
        <time>2022-04-10T07:13:47.000Z</time>
      </trkpt>
      <trkpt lat="47.26194" lon="-2.32024">
        <ele>-8</ele>
        <time>2022-04-10T07:13:50.000Z</time>
      </trkpt>
      <trkpt lat="47.26197" lon="-2.32019">
        <ele>-8</ele>
        <time>2022-04-10T07:13:52.000Z</time>
      </trkpt>
      <trkpt lat="47.26201" lon="-2.32007">
        <ele>-8</ele>
        <time>2022-04-10T07:13:56.000Z</time>
      </trkpt>
      <trkpt lat="47.2621" lon="-2.31996">
        <ele>-8</ele>
        <time>2022-04-10T07:14:00.000Z</time>
      </trkpt>
      <trkpt lat="47.26212" lon="-2.31993">
        <ele>-8</ele>
        <time>2022-04-10T07:14:01.000Z</time>
      </trkpt>
      <trkpt lat="47.26223" lon="-2.3198">
        <ele>-8</ele>
        <time>2022-04-10T07:14:05.000Z</time>
      </trkpt>
      <trkpt lat="47.26226" lon="-2.3198">
        <ele>-8</ele>
        <time>2022-04-10T07:14:06.000Z</time>
      </trkpt>
      <trkpt lat="47.26232" lon="-2.31977">
        <ele>-8</ele>
        <time>2022-04-10T07:14:08.000Z</time>
      </trkpt>
      <trkpt lat="47.26238" lon="-2.31969">
        <ele>-8</ele>
        <time>2022-04-10T07:14:10.000Z</time>
      </trkpt>
      <trkpt lat="47.26254" lon="-2.31938">
        <ele>-8</ele>
        <time>2022-04-10T07:14:17.000Z</time>
      </trkpt>
      <trkpt lat="47.26264" lon="-2.31923">
        <ele>-8</ele>
        <time>2022-04-10T07:14:20.000Z</time>
      </trkpt>
      <trkpt lat="47.26267" lon="-2.31919">
        <ele>-8</ele>
        <time>2022-04-10T07:14:21.000Z</time>
      </trkpt>
      <trkpt lat="47.26275" lon="-2.3191">
        <ele>-8</ele>
        <time>2022-04-10T07:14:23.000Z</time>
      </trkpt>
      <trkpt lat="47.26291" lon="-2.31901">
        <ele>-8</ele>
        <time>2022-04-10T07:14:27.000Z</time>
      </trkpt>
      <trkpt lat="47.26297" lon="-2.31905">
        <ele>-8</ele>
        <time>2022-04-10T07:14:30.000Z</time>
      </trkpt>
      <trkpt lat="47.26297" lon="-2.31912">
        <ele>-8</ele>
        <time>2022-04-10T07:14:32.000Z</time>
      </trkpt>
      <trkpt lat="47.263" lon="-2.31927">
        <ele>-8</ele>
        <time>2022-04-10T07:14:35.000Z</time>
      </trkpt>
      <trkpt lat="47.26302" lon="-2.3193">
        <ele>-8</ele>
        <time>2022-04-10T07:14:36.000Z</time>
      </trkpt>
      <trkpt lat="47.26308" lon="-2.31932">
        <ele>-8</ele>
        <time>2022-04-10T07:14:39.000Z</time>
      </trkpt>
      <trkpt lat="47.26312" lon="-2.31932">
        <ele>-8</ele>
        <time>2022-04-10T07:14:40.000Z</time>
      </trkpt>
      <trkpt lat="47.26327" lon="-2.31932">
        <ele>-8</ele>
        <time>2022-04-10T07:14:44.000Z</time>
      </trkpt>
      <trkpt lat="47.26342" lon="-2.31941">
        <ele>-8</ele>
        <time>2022-04-10T07:14:48.000Z</time>
      </trkpt>
      <trkpt lat="47.26344" lon="-2.31945">
        <ele>-8</ele>
        <time>2022-04-10T07:14:49.000Z</time>
      </trkpt>
      <trkpt lat="47.26358" lon="-2.31974">
        <ele>-8</ele>
        <time>2022-04-10T07:14:55.000Z</time>
      </trkpt>
      <trkpt lat="47.26364" lon="-2.31981">
        <ele>-8</ele>
        <time>2022-04-10T07:14:57.000Z</time>
      </trkpt>
      <trkpt lat="47.26367" lon="-2.31983">
        <ele>-7.5999999046326</ele>
        <time>2022-04-10T07:14:58.000Z</time>
      </trkpt>
      <trkpt lat="47.2637" lon="-2.31985">
        <ele>-6.8000001907349</ele>
        <time>2022-04-10T07:14:59.000Z</time>
      </trkpt>
      <trkpt lat="47.26374" lon="-2.31986">
        <ele>-6.4000000953674</ele>
        <time>2022-04-10T07:15:00.000Z</time>
      </trkpt>
      <trkpt lat="47.26377" lon="-2.31986">
        <ele>-5.8000001907349</ele>
        <time>2022-04-10T07:15:01.000Z</time>
      </trkpt>
      <trkpt lat="47.26381" lon="-2.31987">
        <ele>-5.8000001907349</ele>
        <time>2022-04-10T07:15:02.000Z</time>
      </trkpt>
      <trkpt lat="47.26388" lon="-2.31988">
        <ele>-5.8000001907349</ele>
        <time>2022-04-10T07:15:04.000Z</time>
      </trkpt>
      <trkpt lat="47.26399" lon="-2.31991">
        <ele>-5.4000000953674</ele>
        <time>2022-04-10T07:15:08.000Z</time>
      </trkpt>
      <trkpt lat="47.26402" lon="-2.31991">
        <ele>-5</ele>
        <time>2022-04-10T07:15:09.000Z</time>
      </trkpt>
      <trkpt lat="47.26405" lon="-2.31992">
        <ele>-4.4000000953674</ele>
        <time>2022-04-10T07:15:10.000Z</time>
      </trkpt>
      <trkpt lat="47.26408" lon="-2.31994">
        <ele>-4</ele>
        <time>2022-04-10T07:15:11.000Z</time>
      </trkpt>
      <trkpt lat="47.26411" lon="-2.31995">
        <ele>-3.5999999046326</ele>
        <time>2022-04-10T07:15:12.000Z</time>
      </trkpt>
      <trkpt lat="47.2642" lon="-2.31996">
        <ele>-3.5999999046326</ele>
        <time>2022-04-10T07:15:15.000Z</time>
      </trkpt>
      <trkpt lat="47.2643" lon="-2.31998">
        <ele>-3.2000000476837</ele>
        <time>2022-04-10T07:15:18.000Z</time>
      </trkpt>
      <trkpt lat="47.26434" lon="-2.31997">
        <ele>-2.5999999046326</ele>
        <time>2022-04-10T07:15:19.000Z</time>
      </trkpt>
      <trkpt lat="47.26437" lon="-2.31998">
        <ele>-2.2000000476837</ele>
        <time>2022-04-10T07:15:20.000Z</time>
      </trkpt>
      <trkpt lat="47.26441" lon="-2.31998">
        <ele>-1.7999999523163</ele>
        <time>2022-04-10T07:15:21.000Z</time>
      </trkpt>
      <trkpt lat="47.26444" lon="-2.31999">
        <ele>-1.3999999761581</ele>
        <time>2022-04-10T07:15:22.000Z</time>
      </trkpt>
      <trkpt lat="47.2646" lon="-2.31998">
        <ele>-1.3999999761581</ele>
        <time>2022-04-10T07:15:27.000Z</time>
      </trkpt>
      <trkpt lat="47.26463" lon="-2.31998">
        <ele>-1</ele>
        <time>2022-04-10T07:15:28.000Z</time>
      </trkpt>
      <trkpt lat="47.26466" lon="-2.31998">
        <ele>-0.60000002384186</ele>
        <time>2022-04-10T07:15:29.000Z</time>
      </trkpt>
      <trkpt lat="47.26468" lon="-2.31998">
        <ele>-0.20000000298023</ele>
        <time>2022-04-10T07:15:30.000Z</time>
      </trkpt>
      <trkpt lat="47.26472" lon="-2.31998">
        <ele>0.20000000298023</ele>
        <time>2022-04-10T07:15:31.000Z</time>
      </trkpt>
      <trkpt lat="47.26475" lon="-2.31998">
        <ele>0.80000001192093</ele>
        <time>2022-04-10T07:15:32.000Z</time>
      </trkpt>
      <trkpt lat="47.26478" lon="-2.31998">
        <ele>0.80000001192093</ele>
        <time>2022-04-10T07:15:33.000Z</time>
      </trkpt>
      <trkpt lat="47.26495" lon="-2.31999">
        <ele>0.80000001192093</ele>
        <time>2022-04-10T07:15:39.000Z</time>
      </trkpt>
      <trkpt lat="47.26498" lon="-2.31998">
        <ele>1.2000000476837</ele>
        <time>2022-04-10T07:15:41.000Z</time>
      </trkpt>
      <trkpt lat="47.26499" lon="-2.31998">
        <ele>1.6000000238419</ele>
        <time>2022-04-10T07:15:42.000Z</time>
      </trkpt>
      <trkpt lat="47.265" lon="-2.31998">
        <ele>2</ele>
        <time>2022-04-10T07:15:43.000Z</time>
      </trkpt>
      <trkpt lat="47.26501" lon="-2.31998">
        <ele>2.4000000953674</ele>
        <time>2022-04-10T07:15:44.000Z</time>
      </trkpt>
      <trkpt lat="47.26503" lon="-2.31998">
        <ele>2.7999999523163</ele>
        <time>2022-04-10T07:15:45.000Z</time>
      </trkpt>
      <trkpt lat="47.26512" lon="-2.31998">
        <ele>2.7999999523163</ele>
        <time>2022-04-10T07:15:51.000Z</time>
      </trkpt>
      <trkpt lat="47.26514" lon="-2.31997">
        <ele>3.2000000476837</ele>
        <time>2022-04-10T07:15:52.000Z</time>
      </trkpt>
      <trkpt lat="47.26516" lon="-2.31997">
        <ele>3.5999999046326</ele>
        <time>2022-04-10T07:15:53.000Z</time>
      </trkpt>
      <trkpt lat="47.26519" lon="-2.31998">
        <ele>4</ele>
        <time>2022-04-10T07:15:54.000Z</time>
      </trkpt>
      <trkpt lat="47.26522" lon="-2.31999">
        <ele>4.5999999046326</ele>
        <time>2022-04-10T07:15:55.000Z</time>
      </trkpt>
      <trkpt lat="47.26524" lon="-2.32">
        <ele>5</ele>
        <time>2022-04-10T07:15:56.000Z</time>
      </trkpt>
      <trkpt lat="47.26534" lon="-2.32009">
        <ele>5</ele>
        <time>2022-04-10T07:16:01.000Z</time>
      </trkpt>
      <trkpt lat="47.26541" lon="-2.32021">
        <ele>5</ele>
        <time>2022-04-10T07:16:06.000Z</time>
      </trkpt>
      <trkpt lat="47.26543" lon="-2.32031">
        <ele>5.4000000953674</ele>
        <time>2022-04-10T07:16:09.000Z</time>
      </trkpt>
      <trkpt lat="47.26544" lon="-2.32033">
        <ele>5.8000001907349</ele>
        <time>2022-04-10T07:16:10.000Z</time>
      </trkpt>
      <trkpt lat="47.26546" lon="-2.32036">
        <ele>6.1999998092651</ele>
        <time>2022-04-10T07:16:11.000Z</time>
      </trkpt>
      <trkpt lat="47.26549" lon="-2.32038">
        <ele>6.5999999046326</ele>
        <time>2022-04-10T07:16:12.000Z</time>
      </trkpt>
      <trkpt lat="47.26551" lon="-2.32038">
        <ele>7</ele>
        <time>2022-04-10T07:16:13.000Z</time>
      </trkpt>
      <trkpt lat="47.26554" lon="-2.32037">
        <ele>7</ele>
        <time>2022-04-10T07:16:14.000Z</time>
      </trkpt>
      <trkpt lat="47.26576" lon="-2.32028">
        <ele>7.4000000953674</ele>
        <time>2022-04-10T07:16:20.000Z</time>
      </trkpt>
      <trkpt lat="47.2658" lon="-2.32027">
        <ele>7.8000001907349</ele>
        <time>2022-04-10T07:16:21.000Z</time>
      </trkpt>
      <trkpt lat="47.26583" lon="-2.32026">
        <ele>8.1999998092651</ele>
        <time>2022-04-10T07:16:22.000Z</time>
      </trkpt>
      <trkpt lat="47.26587" lon="-2.32025">
        <ele>8.6000003814697</ele>
        <time>2022-04-10T07:16:23.000Z</time>
      </trkpt>
      <trkpt lat="47.2659" lon="-2.32023">
        <ele>9</ele>
        <time>2022-04-10T07:16:24.000Z</time>
      </trkpt>
      <trkpt lat="47.26604" lon="-2.32019">
        <ele>9</ele>
        <time>2022-04-10T07:16:28.000Z</time>
      </trkpt>
      <trkpt lat="47.26622" lon="-2.32014">
        <ele>9.6000003814697</ele>
        <time>2022-04-10T07:16:34.000Z</time>
      </trkpt>
      <trkpt lat="47.26626" lon="-2.32013">
        <ele>10</ele>
        <time>2022-04-10T07:16:35.000Z</time>
      </trkpt>
      <trkpt lat="47.26629" lon="-2.32012">
        <ele>10.39999961853</ele>
        <time>2022-04-10T07:16:36.000Z</time>
      </trkpt>
      <trkpt lat="47.26631" lon="-2.32011">
        <ele>10.800000190735</ele>
        <time>2022-04-10T07:16:37.000Z</time>
      </trkpt>
      <trkpt lat="47.26633" lon="-2.3201">
        <ele>11.199999809265</ele>
        <time>2022-04-10T07:16:38.000Z</time>
      </trkpt>
      <trkpt lat="47.26638" lon="-2.32008">
        <ele>11.199999809265</ele>
        <time>2022-04-10T07:16:42.000Z</time>
      </trkpt>
      <trkpt lat="47.26639" lon="-2.32008">
        <ele>11.199999809265</ele>
        <time>2022-04-10T07:16:43.000Z</time>
      </trkpt>
      <trkpt lat="47.26642" lon="-2.32004">
        <ele>11.199999809265</ele>
        <time>2022-04-10T07:17:16.000Z</time>
      </trkpt>
      <trkpt lat="47.26645" lon="-2.31998">
        <ele>11.199999809265</ele>
        <time>2022-04-10T07:17:18.000Z</time>
      </trkpt>
      <trkpt lat="47.26644" lon="-2.3198">
        <ele>11.199999809265</ele>
        <time>2022-04-10T07:17:22.000Z</time>
      </trkpt>
      <trkpt lat="47.2665" lon="-2.31949">
        <ele>11.199999809265</ele>
        <time>2022-04-10T07:17:27.000Z</time>
      </trkpt>
      <trkpt lat="47.26665" lon="-2.31929">
        <ele>11.199999809265</ele>
        <time>2022-04-10T07:17:31.000Z</time>
      </trkpt>
      <trkpt lat="47.26694" lon="-2.319">
        <ele>11.199999809265</ele>
        <time>2022-04-10T07:17:38.000Z</time>
      </trkpt>
      <trkpt lat="47.2673" lon="-2.31867">
        <ele>11.199999809265</ele>
        <time>2022-04-10T07:17:46.000Z</time>
      </trkpt>
      <trkpt lat="47.26772" lon="-2.31831">
        <ele>11.199999809265</ele>
        <time>2022-04-10T07:17:55.000Z</time>
      </trkpt>
      <trkpt lat="47.26804" lon="-2.31812">
        <ele>11.199999809265</ele>
        <time>2022-04-10T07:18:01.000Z</time>
      </trkpt>
      <trkpt lat="47.26808" lon="-2.3181">
        <ele>11.199999809265</ele>
        <time>2022-04-10T07:18:02.000Z</time>
      </trkpt>
      <trkpt lat="47.26813" lon="-2.31808">
        <ele>11.199999809265</ele>
        <time>2022-04-10T07:18:04.000Z</time>
      </trkpt>
      <trkpt lat="47.2682" lon="-2.31809">
        <ele>11.199999809265</ele>
        <time>2022-04-10T07:18:09.000Z</time>
      </trkpt>
      <trkpt lat="47.2682" lon="-2.31819">
        <ele>11.199999809265</ele>
        <time>2022-04-10T07:18:12.000Z</time>
      </trkpt>
      <trkpt lat="47.26824" lon="-2.31834">
        <ele>11.199999809265</ele>
        <time>2022-04-10T07:18:15.000Z</time>
      </trkpt>
      <trkpt lat="47.26826" lon="-2.3184">
        <ele>11.199999809265</ele>
        <time>2022-04-10T07:18:16.000Z</time>
      </trkpt>
      <trkpt lat="47.26828" lon="-2.31846">
        <ele>10.39999961853</ele>
        <time>2022-04-10T07:18:17.000Z</time>
      </trkpt>
      <trkpt lat="47.2683" lon="-2.31853">
        <ele>9.8000001907349</ele>
        <time>2022-04-10T07:18:18.000Z</time>
      </trkpt>
      <trkpt lat="47.26833" lon="-2.3186">
        <ele>9.3999996185303</ele>
        <time>2022-04-10T07:18:19.000Z</time>
      </trkpt>
      <trkpt lat="47.26835" lon="-2.31868">
        <ele>9</ele>
        <time>2022-04-10T07:18:20.000Z</time>
      </trkpt>
      <trkpt lat="47.26838" lon="-2.31875">
        <ele>9</ele>
        <time>2022-04-10T07:18:21.000Z</time>
      </trkpt>
      <trkpt lat="47.26851" lon="-2.31893">
        <ele>8.6000003814697</ele>
        <time>2022-04-10T07:18:24.000Z</time>
      </trkpt>
      <trkpt lat="47.26857" lon="-2.31895">
        <ele>8.1999998092651</ele>
        <time>2022-04-10T07:18:25.000Z</time>
      </trkpt>
      <trkpt lat="47.26863" lon="-2.31896">
        <ele>7.8000001907349</ele>
        <time>2022-04-10T07:18:26.000Z</time>
      </trkpt>
      <trkpt lat="47.26869" lon="-2.31897">
        <ele>7.1999998092651</ele>
        <time>2022-04-10T07:18:27.000Z</time>
      </trkpt>
      <trkpt lat="47.26875" lon="-2.31899">
        <ele>6.8000001907349</ele>
        <time>2022-04-10T07:18:28.000Z</time>
      </trkpt>
      <trkpt lat="47.26881" lon="-2.31901">
        <ele>6.8000001907349</ele>
        <time>2022-04-10T07:18:29.000Z</time>
      </trkpt>
      <trkpt lat="47.26886" lon="-2.31906">
        <ele>6.8000001907349</ele>
        <time>2022-04-10T07:18:30.000Z</time>
      </trkpt>
      <trkpt lat="47.26893" lon="-2.31921">
        <ele>6.4000000953674</ele>
        <time>2022-04-10T07:18:32.000Z</time>
      </trkpt>
      <trkpt lat="47.26897" lon="-2.31929">
        <ele>6</ele>
        <time>2022-04-10T07:18:33.000Z</time>
      </trkpt>
      <trkpt lat="47.26902" lon="-2.31938">
        <ele>5.5999999046326</ele>
        <time>2022-04-10T07:18:34.000Z</time>
      </trkpt>
      <trkpt lat="47.26907" lon="-2.31945">
        <ele>5.1999998092651</ele>
        <time>2022-04-10T07:18:35.000Z</time>
      </trkpt>
      <trkpt lat="47.26914" lon="-2.31952">
        <ele>4.8000001907349</ele>
        <time>2022-04-10T07:18:36.000Z</time>
      </trkpt>
      <trkpt lat="47.2692" lon="-2.31958">
        <ele>4.8000001907349</ele>
        <time>2022-04-10T07:18:37.000Z</time>
      </trkpt>
      <trkpt lat="47.26926" lon="-2.31963">
        <ele>4.1999998092651</ele>
        <time>2022-04-10T07:18:38.000Z</time>
      </trkpt>
      <trkpt lat="47.26931" lon="-2.3197">
        <ele>3.7999999523163</ele>
        <time>2022-04-10T07:18:39.000Z</time>
      </trkpt>
      <trkpt lat="47.26936" lon="-2.31978">
        <ele>3.4000000953674</ele>
        <time>2022-04-10T07:18:40.000Z</time>
      </trkpt>
      <trkpt lat="47.26941" lon="-2.31986">
        <ele>2.7999999523163</ele>
        <time>2022-04-10T07:18:41.000Z</time>
      </trkpt>
      <trkpt lat="47.26946" lon="-2.31993">
        <ele>2.4000000953674</ele>
        <time>2022-04-10T07:18:42.000Z</time>
      </trkpt>
      <trkpt lat="47.26951" lon="-2.31999">
        <ele>1.7999999523163</ele>
        <time>2022-04-10T07:18:43.000Z</time>
      </trkpt>
      <trkpt lat="47.26955" lon="-2.32003">
        <ele>1.3999999761581</ele>
        <time>2022-04-10T07:18:44.000Z</time>
      </trkpt>
      <trkpt lat="47.2696" lon="-2.32004">
        <ele>1</ele>
        <time>2022-04-10T07:18:45.000Z</time>
      </trkpt>
      <trkpt lat="47.26964" lon="-2.32003">
        <ele>0.40000000596046</ele>
        <time>2022-04-10T07:18:46.000Z</time>
      </trkpt>
      <trkpt lat="47.26969" lon="-2.32002">
        <ele>10</ele>
        <time>2022-04-10T07:18:47.000Z</time>
      </trkpt>
      <trkpt lat="47.26975" lon="-2.32">
        <ele>9.9</ele>
        <time>2022-04-10T07:18:48.000Z</time>
      </trkpt>
      <trkpt lat="47.26979" lon="-2.31998">
        <ele>9.8</ele>
        <time>2022-04-10T07:18:49.000Z</time>
      </trkpt>
      <trkpt lat="47.27005" lon="-2.31986">
        <ele>-0.40000000596046</ele>
        <time>2022-04-10T07:18:54.000Z</time>
      </trkpt>
      <trkpt lat="47.27009" lon="-2.31983">
        <ele>-0.80000001192093</ele>
        <time>2022-04-10T07:18:55.000Z</time>
      </trkpt>
      <trkpt lat="47.27013" lon="-2.3198">
        <ele>-1.2000000476837</ele>
        <time>2022-04-10T07:18:56.000Z</time>
      </trkpt>
      <trkpt lat="47.27017" lon="-2.31977">
        <ele>-1.6000000238419</ele>
        <time>2022-04-10T07:18:57.000Z</time>
      </trkpt>
      <trkpt lat="47.27021" lon="-2.31975">
        <ele>-2</ele>
        <time>2022-04-10T07:18:58.000Z</time>
      </trkpt>
      <trkpt lat="47.27025" lon="-2.31973">
        <ele>-2</ele>
        <time>2022-04-10T07:18:59.000Z</time>
      </trkpt>
      <trkpt lat="47.27033" lon="-2.31968">
        <ele>-2</ele>
        <time>2022-04-10T07:19:01.000Z</time>
      </trkpt>
      <trkpt lat="47.27043" lon="-2.3196">
        <ele>-2</ele>
        <time>2022-04-10T07:19:04.000Z</time>
      </trkpt>
      <trkpt lat="47.27062" lon="-2.31959">
        <ele>-2</ele>
        <time>2022-04-10T07:19:08.000Z</time>
      </trkpt>
      <trkpt lat="47.27092" lon="-2.31958">
        <ele>-2</ele>
        <time>2022-04-10T07:19:13.000Z</time>
      </trkpt>
      <trkpt lat="47.27104" lon="-2.31959">
        <ele>-2</ele>
        <time>2022-04-10T07:19:15.000Z</time>
      </trkpt>
      <trkpt lat="47.27116" lon="-2.31963">
        <ele>-2.5999999046326</ele>
        <time>2022-04-10T07:19:17.000Z</time>
      </trkpt>
      <trkpt lat="47.27122" lon="-2.31966">
        <ele>-3</ele>
        <time>2022-04-10T07:19:18.000Z</time>
      </trkpt>
      <trkpt lat="47.27127" lon="-2.31969">
        <ele>-3.4000000953674</ele>
        <time>2022-04-10T07:19:19.000Z</time>
      </trkpt>
      <trkpt lat="47.27133" lon="-2.31972">
        <ele>-3.7999999523163</ele>
        <time>2022-04-10T07:19:20.000Z</time>
      </trkpt>
      <trkpt lat="47.27138" lon="-2.31976">
        <ele>-4.1999998092651</ele>
        <time>2022-04-10T07:19:21.000Z</time>
      </trkpt>
      <trkpt lat="47.27142" lon="-2.3198">
        <ele>-4.1999998092651</ele>
        <time>2022-04-10T07:19:22.000Z</time>
      </trkpt>
      <trkpt lat="47.27151" lon="-2.31986">
        <ele>-4.1999998092651</ele>
        <time>2022-04-10T07:19:24.000Z</time>
      </trkpt>
      <trkpt lat="47.27158" lon="-2.31991">
        <ele>-4.1999998092651</ele>
        <time>2022-04-10T07:19:26.000Z</time>
      </trkpt>
      <trkpt lat="47.27171" lon="-2.31987">
        <ele>-4.1999998092651</ele>
        <time>2022-04-10T07:19:30.000Z</time>
      </trkpt>
      <trkpt lat="47.27183" lon="-2.31968">
        <ele>-4.1999998092651</ele>
        <time>2022-04-10T07:19:34.000Z</time>
      </trkpt>
      <trkpt lat="47.27196" lon="-2.31955">
        <ele>-4.1999998092651</ele>
        <time>2022-04-10T07:19:37.000Z</time>
      </trkpt>
      <trkpt lat="47.27204" lon="-2.31947">
        <ele>-4.1999998092651</ele>
        <time>2022-04-10T07:19:39.000Z</time>
      </trkpt>
      <trkpt lat="47.27214" lon="-2.31929">
        <ele>-4.1999998092651</ele>
        <time>2022-04-10T07:19:43.000Z</time>
      </trkpt>
      <trkpt lat="47.27226" lon="-2.31922">
        <ele>-4.1999998092651</ele>
        <time>2022-04-10T07:19:47.000Z</time>
      </trkpt>
      <trkpt lat="47.27244" lon="-2.3193">
        <ele>-4.1999998092651</ele>
        <time>2022-04-10T07:19:51.000Z</time>
      </trkpt>
      <trkpt lat="47.27265" lon="-2.31936">
        <ele>-4.1999998092651</ele>
        <time>2022-04-10T07:19:55.000Z</time>
      </trkpt>
      <trkpt lat="47.27276" lon="-2.31939">
        <ele>-4.1999998092651</ele>
        <time>2022-04-10T07:19:57.000Z</time>
      </trkpt>
      <trkpt lat="47.27298" lon="-2.3195">
        <ele>-4.1999998092651</ele>
        <time>2022-04-10T07:20:01.000Z</time>
      </trkpt>
      <trkpt lat="47.27308" lon="-2.31957">
        <ele>-4.1999998092651</ele>
        <time>2022-04-10T07:20:03.000Z</time>
      </trkpt>
      <trkpt lat="47.27342" lon="-2.3199">
        <ele>-4.1999998092651</ele>
        <time>2022-04-10T07:20:09.000Z</time>
      </trkpt>
      <trkpt lat="47.27383" lon="-2.32033">
        <ele>-4.1999998092651</ele>
        <time>2022-04-10T07:20:16.000Z</time>
      </trkpt>
      <trkpt lat="47.2741" lon="-2.32063">
        <ele>-3.7999999523163</ele>
        <time>2022-04-10T07:20:22.000Z</time>
      </trkpt>
      <trkpt lat="47.27414" lon="-2.32068">
        <ele>-3.4000000953674</ele>
        <time>2022-04-10T07:20:23.000Z</time>
      </trkpt>
      <trkpt lat="47.27418" lon="-2.32072">
        <ele>-3</ele>
        <time>2022-04-10T07:20:24.000Z</time>
      </trkpt>
      <trkpt lat="47.27422" lon="-2.32076">
        <ele>-2.5999999046326</ele>
        <time>2022-04-10T07:20:25.000Z</time>
      </trkpt>
      <trkpt lat="47.27427" lon="-2.32079">
        <ele>-2.2000000476837</ele>
        <time>2022-04-10T07:20:26.000Z</time>
      </trkpt>
      <trkpt lat="47.27435" lon="-2.32088">
        <ele>-2.2000000476837</ele>
        <time>2022-04-10T07:20:28.000Z</time>
      </trkpt>
      <trkpt lat="47.27457" lon="-2.32117">
        <ele>-1.7999999523163</ele>
        <time>2022-04-10T07:20:34.000Z</time>
      </trkpt>
      <trkpt lat="47.27461" lon="-2.32123">
        <ele>-1.3999999761581</ele>
        <time>2022-04-10T07:20:35.000Z</time>
      </trkpt>
      <trkpt lat="47.27465" lon="-2.32128">
        <ele>-1</ele>
        <time>2022-04-10T07:20:36.000Z</time>
      </trkpt>
      <trkpt lat="47.27469" lon="-2.32134">
        <ele>-0.60000002384186</ele>
        <time>2022-04-10T07:20:37.000Z</time>
      </trkpt>
      <trkpt lat="47.27473" lon="-2.32139">
        <ele>-0.20000000298023</ele>
        <time>2022-04-10T07:20:38.000Z</time>
      </trkpt>
      <trkpt lat="47.27494" lon="-2.32166">
        <ele>-0.20000000298023</ele>
        <time>2022-04-10T07:20:43.000Z</time>
      </trkpt>
      <trkpt lat="47.27525" lon="-2.32206">
        <ele>-0.20000000298023</ele>
        <time>2022-04-10T07:20:51.000Z</time>
      </trkpt>
      <trkpt lat="47.27529" lon="-2.32211">
        <ele>0.20000000298023</ele>
        <time>2022-04-10T07:20:52.000Z</time>
      </trkpt>
      <trkpt lat="47.27533" lon="-2.32214">
        <ele>0.60000002384186</ele>
        <time>2022-04-10T07:20:53.000Z</time>
      </trkpt>
      <trkpt lat="47.27538" lon="-2.32219">
        <ele>1.2000000476837</ele>
        <time>2022-04-10T07:20:54.000Z</time>
      </trkpt>
      <trkpt lat="47.27542" lon="-2.32222">
        <ele>1.6000000238419</ele>
        <time>2022-04-10T07:20:55.000Z</time>
      </trkpt>
      <trkpt lat="47.27546" lon="-2.32227">
        <ele>2</ele>
        <time>2022-04-10T07:20:56.000Z</time>
      </trkpt>
      <trkpt lat="47.27554" lon="-2.32235">
        <ele>2</ele>
        <time>2022-04-10T07:20:58.000Z</time>
      </trkpt>
      <trkpt lat="47.27563" lon="-2.32242">
        <ele>2.4000000953674</ele>
        <time>2022-04-10T07:21:00.000Z</time>
      </trkpt>
      <trkpt lat="47.27567" lon="-2.32245">
        <ele>2.7999999523163</ele>
        <time>2022-04-10T07:21:01.000Z</time>
      </trkpt>
      <trkpt lat="47.27571" lon="-2.32249">
        <ele>3.2000000476837</ele>
        <time>2022-04-10T07:21:02.000Z</time>
      </trkpt>
      <trkpt lat="47.27575" lon="-2.32252">
        <ele>3.5999999046326</ele>
        <time>2022-04-10T07:21:03.000Z</time>
      </trkpt>
      <trkpt lat="47.27579" lon="-2.32255">
        <ele>4</ele>
        <time>2022-04-10T07:21:04.000Z</time>
      </trkpt>
      <trkpt lat="47.27587" lon="-2.32262">
        <ele>4</ele>
        <time>2022-04-10T07:21:06.000Z</time>
      </trkpt>
      <trkpt lat="47.27591" lon="-2.32266">
        <ele>4</ele>
        <time>2022-04-10T07:21:07.000Z</time>
      </trkpt>
      <trkpt lat="47.27594" lon="-2.3227">
        <ele>4.4000000953674</ele>
        <time>2022-04-10T07:21:08.000Z</time>
      </trkpt>
      <trkpt lat="47.27598" lon="-2.32274">
        <ele>5</ele>
        <time>2022-04-10T07:21:09.000Z</time>
      </trkpt>
      <trkpt lat="47.27601" lon="-2.32277">
        <ele>5.4000000953674</ele>
        <time>2022-04-10T07:21:10.000Z</time>
      </trkpt>
      <trkpt lat="47.27605" lon="-2.3228">
        <ele>6.1999998092651</ele>
        <time>2022-04-10T07:21:11.000Z</time>
      </trkpt>
      <trkpt lat="47.27608" lon="-2.32284">
        <ele>6.1999998092651</ele>
        <time>2022-04-10T07:21:12.000Z</time>
      </trkpt>
      <trkpt lat="47.27611" lon="-2.32288">
        <ele>6.1999998092651</ele>
        <time>2022-04-10T07:21:13.000Z</time>
      </trkpt>
      <trkpt lat="47.27611" lon="-2.32301">
        <ele>6.1999998092651</ele>
        <time>2022-04-10T07:21:15.000Z</time>
      </trkpt>
      <trkpt lat="47.27606" lon="-2.32321">
        <ele>6.1999998092651</ele>
        <time>2022-04-10T07:21:18.000Z</time>
      </trkpt>
      <trkpt lat="47.27603" lon="-2.32327">
        <ele>6.1999998092651</ele>
        <time>2022-04-10T07:21:19.000Z</time>
      </trkpt>
      <trkpt lat="47.2759" lon="-2.3236">
        <ele>6.1999998092651</ele>
        <time>2022-04-10T07:21:25.000Z</time>
      </trkpt>
      <trkpt lat="47.2758" lon="-2.32382">
        <ele>6.1999998092651</ele>
        <time>2022-04-10T07:21:31.000Z</time>
      </trkpt>
      <trkpt lat="47.27577" lon="-2.32396">
        <ele>6.1999998092651</ele>
        <time>2022-04-10T07:21:36.000Z</time>
      </trkpt>
      <trkpt lat="47.27576" lon="-2.32414">
        <ele>6.1999998092651</ele>
        <time>2022-04-10T07:21:42.000Z</time>
      </trkpt>
      <trkpt lat="47.27574" lon="-2.32421">
        <ele>6.1999998092651</ele>
        <time>2022-04-10T07:21:48.000Z</time>
      </trkpt>
      <trkpt lat="47.2757" lon="-2.32421">
        <ele>6.1999998092651</ele>
        <time>2022-04-10T07:21:52.000Z</time>
      </trkpt>
      <trkpt lat="47.27566" lon="-2.32431">
        <ele>6.1999998092651</ele>
        <time>2022-04-10T07:21:56.000Z</time>
      </trkpt>
      <trkpt lat="47.27561" lon="-2.32448">
        <ele>6.1999998092651</ele>
        <time>2022-04-10T07:22:01.000Z</time>
      </trkpt>
      <trkpt lat="47.2756" lon="-2.32452">
        <ele>6.1999998092651</ele>
        <time>2022-04-10T07:22:02.000Z</time>
      </trkpt>
      <trkpt lat="47.27553" lon="-2.32482">
        <ele>6.1999998092651</ele>
        <time>2022-04-10T07:22:08.000Z</time>
      </trkpt>
      <trkpt lat="47.27547" lon="-2.32493">
        <ele>6.1999998092651</ele>
        <time>2022-04-10T07:22:10.000Z</time>
      </trkpt>
      <trkpt lat="47.27544" lon="-2.32498">
        <ele>5.8000001907349</ele>
        <time>2022-04-10T07:22:11.000Z</time>
      </trkpt>
      <trkpt lat="47.27542" lon="-2.32504">
        <ele>5.1999998092651</ele>
        <time>2022-04-10T07:22:12.000Z</time>
      </trkpt>
      <trkpt lat="47.2754" lon="-2.3251">
        <ele>4.8000001907349</ele>
        <time>2022-04-10T07:22:13.000Z</time>
      </trkpt>
      <trkpt lat="47.27538" lon="-2.32516">
        <ele>4.1999998092651</ele>
        <time>2022-04-10T07:22:14.000Z</time>
      </trkpt>
      <trkpt lat="47.27537" lon="-2.32524">
        <ele>3.5999999046326</ele>
        <time>2022-04-10T07:22:15.000Z</time>
      </trkpt>
      <trkpt lat="47.27536" lon="-2.3253">
        <ele>3</ele>
        <time>2022-04-10T07:22:16.000Z</time>
      </trkpt>
      <trkpt lat="47.27535" lon="-2.32537">
        <ele>2.4000000953674</ele>
        <time>2022-04-10T07:22:17.000Z</time>
      </trkpt>
      <trkpt lat="47.27536" lon="-2.32542">
        <ele>1.7999999523163</ele>
        <time>2022-04-10T07:22:18.000Z</time>
      </trkpt>
      <trkpt lat="47.27538" lon="-2.32548">
        <ele>1</ele>
        <time>2022-04-10T07:22:19.000Z</time>
      </trkpt>
      <trkpt lat="47.27542" lon="-2.32555">
        <ele>0.40000000596046</ele>
        <time>2022-04-10T07:22:20.000Z</time>
      </trkpt>
      <trkpt lat="47.27546" lon="-2.32563">
        <ele>-0.20000000298023</ele>
        <time>2022-04-10T07:22:21.000Z</time>
      </trkpt>
      <trkpt lat="47.27549" lon="-2.3257">
        <ele>-0.80000001192093</ele>
        <time>2022-04-10T07:22:22.000Z</time>
      </trkpt>
      <trkpt lat="47.27553" lon="-2.32583">
        <ele>-0.80000001192093</ele>
        <time>2022-04-10T07:22:24.000Z</time>
      </trkpt>
      <trkpt lat="47.27551" lon="-2.3259">
        <ele>-1.6000000238419</ele>
        <time>2022-04-10T07:22:25.000Z</time>
      </trkpt>
      <trkpt lat="47.27549" lon="-2.32595">
        <ele>-2.2000000476837</ele>
        <time>2022-04-10T07:22:26.000Z</time>
      </trkpt>
      <trkpt lat="47.27547" lon="-2.32601">
        <ele>-2.5999999046326</ele>
        <time>2022-04-10T07:22:27.000Z</time>
      </trkpt>
      <trkpt lat="47.27544" lon="-2.32608">
        <ele>-3</ele>
        <time>2022-04-10T07:22:28.000Z</time>
      </trkpt>
      <trkpt lat="47.27535" lon="-2.32614">
        <ele>-3</ele>
        <time>2022-04-10T07:22:30.000Z</time>
      </trkpt>
      <trkpt lat="47.27515" lon="-2.32632">
        <ele>-3</ele>
        <time>2022-04-10T07:22:34.000Z</time>
      </trkpt>
      <trkpt lat="47.27509" lon="-2.32655">
        <ele>-3</ele>
        <time>2022-04-10T07:22:37.000Z</time>
      </trkpt>
      <trkpt lat="47.27493" lon="-2.32677">
        <ele>-3</ele>
        <time>2022-04-10T07:22:41.000Z</time>
      </trkpt>
      <trkpt lat="47.27488" lon="-2.32681">
        <ele>-3</ele>
        <time>2022-04-10T07:22:42.000Z</time>
      </trkpt>
      <trkpt lat="47.27483" lon="-2.32683">
        <ele>-3</ele>
        <time>2022-04-10T07:22:43.000Z</time>
      </trkpt>
      <trkpt lat="47.27475" lon="-2.32687">
        <ele>-3</ele>
        <time>2022-04-10T07:22:45.000Z</time>
      </trkpt>
      <trkpt lat="47.27471" lon="-2.32691">
        <ele>-3</ele>
        <time>2022-04-10T07:22:46.000Z</time>
      </trkpt>
      <trkpt lat="47.27468" lon="-2.32696">
        <ele>-2.5999999046326</ele>
        <time>2022-04-10T07:22:47.000Z</time>
      </trkpt>
      <trkpt lat="47.27464" lon="-2.327">
        <ele>-2.2000000476837</ele>
        <time>2022-04-10T07:22:48.000Z</time>
      </trkpt>
      <trkpt lat="47.27462" lon="-2.32706">
        <ele>-1.6000000238419</ele>
        <time>2022-04-10T07:22:49.000Z</time>
      </trkpt>
      <trkpt lat="47.27459" lon="-2.32712">
        <ele>-0.80000001192093</ele>
        <time>2022-04-10T07:22:50.000Z</time>
      </trkpt>
      <trkpt lat="47.2745" lon="-2.32733">
        <ele>-0.40000000596046</ele>
        <time>2022-04-10T07:22:54.000Z</time>
      </trkpt>
      <trkpt lat="47.27448" lon="-2.32738">
        <ele>0.20000000298023</ele>
        <time>2022-04-10T07:22:55.000Z</time>
      </trkpt>
      <trkpt lat="47.27446" lon="-2.32742">
        <ele>0.60000002384186</ele>
        <time>2022-04-10T07:22:56.000Z</time>
      </trkpt>
      <trkpt lat="47.27444" lon="-2.32747">
        <ele>1</ele>
        <time>2022-04-10T07:22:57.000Z</time>
      </trkpt>
      <trkpt lat="47.27442" lon="-2.32752">
        <ele>1.3999999761581</ele>
        <time>2022-04-10T07:22:58.000Z</time>
      </trkpt>
      <trkpt lat="47.27439" lon="-2.32763">
        <ele>1.7999999523163</ele>
        <time>2022-04-10T07:23:00.000Z</time>
      </trkpt>
      <trkpt lat="47.27438" lon="-2.32768">
        <ele>2.2000000476837</ele>
        <time>2022-04-10T07:23:01.000Z</time>
      </trkpt>
      <trkpt lat="47.27437" lon="-2.32774">
        <ele>2.5999999046326</ele>
        <time>2022-04-10T07:23:02.000Z</time>
      </trkpt>
      <trkpt lat="47.27436" lon="-2.32779">
        <ele>3</ele>
        <time>2022-04-10T07:23:03.000Z</time>
      </trkpt>
      <trkpt lat="47.27435" lon="-2.32784">
        <ele>3.4000000953674</ele>
        <time>2022-04-10T07:23:04.000Z</time>
      </trkpt>
      <trkpt lat="47.27433" lon="-2.32799">
        <ele>3.4000000953674</ele>
        <time>2022-04-10T07:23:07.000Z</time>
      </trkpt>
      <trkpt lat="47.27424" lon="-2.32844">
        <ele>3.7999999523163</ele>
        <time>2022-04-10T07:23:14.000Z</time>
      </trkpt>
      <trkpt lat="47.27421" lon="-2.32849">
        <ele>4.1999998092651</ele>
        <time>2022-04-10T07:23:15.000Z</time>
      </trkpt>
      <trkpt lat="47.27419" lon="-2.32854">
        <ele>4.8000001907349</ele>
        <time>2022-04-10T07:23:16.000Z</time>
      </trkpt>
      <trkpt lat="47.27417" lon="-2.3286">
        <ele>5.1999998092651</ele>
        <time>2022-04-10T07:23:17.000Z</time>
      </trkpt>
      <trkpt lat="47.27415" lon="-2.32864">
        <ele>5.5999999046326</ele>
        <time>2022-04-10T07:23:18.000Z</time>
      </trkpt>
      <trkpt lat="47.27414" lon="-2.32869">
        <ele>5.5999999046326</ele>
        <time>2022-04-10T07:23:19.000Z</time>
      </trkpt>
      <trkpt lat="47.27405" lon="-2.32893">
        <ele>5.5999999046326</ele>
        <time>2022-04-10T07:23:25.000Z</time>
      </trkpt>
      <trkpt lat="47.27397" lon="-2.32912">
        <ele>5.5999999046326</ele>
        <time>2022-04-10T07:23:30.000Z</time>
      </trkpt>
      <trkpt lat="47.27391" lon="-2.32923">
        <ele>6</ele>
        <time>2022-04-10T07:23:33.000Z</time>
      </trkpt>
      <trkpt lat="47.2739" lon="-2.32927">
        <ele>6.4000000953674</ele>
        <time>2022-04-10T07:23:34.000Z</time>
      </trkpt>
      <trkpt lat="47.27388" lon="-2.32931">
        <ele>6.8000001907349</ele>
        <time>2022-04-10T07:23:35.000Z</time>
      </trkpt>
      <trkpt lat="47.27385" lon="-2.32935">
        <ele>7.1999998092651</ele>
        <time>2022-04-10T07:23:36.000Z</time>
      </trkpt>
      <trkpt lat="47.27383" lon="-2.32939">
        <ele>7.5999999046326</ele>
        <time>2022-04-10T07:23:37.000Z</time>
      </trkpt>
      <trkpt lat="47.27378" lon="-2.32948">
        <ele>7.5999999046326</ele>
        <time>2022-04-10T07:23:39.000Z</time>
      </trkpt>
      <trkpt lat="47.27364" lon="-2.32978">
        <ele>7.5999999046326</ele>
        <time>2022-04-10T07:23:46.000Z</time>
      </trkpt>
      <trkpt lat="47.27349" lon="-2.33017">
        <ele>7.5999999046326</ele>
        <time>2022-04-10T07:23:54.000Z</time>
      </trkpt>
      <trkpt lat="47.27338" lon="-2.3305">
        <ele>8</ele>
        <time>2022-04-10T07:24:00.000Z</time>
      </trkpt>
      <trkpt lat="47.27336" lon="-2.33056">
        <ele>8.3999996185303</ele>
        <time>2022-04-10T07:24:01.000Z</time>
      </trkpt>
      <trkpt lat="47.27334" lon="-2.33061">
        <ele>9.3999996185303</ele>
        <time>2022-04-10T07:24:02.000Z</time>
      </trkpt>
      <trkpt lat="47.27332" lon="-2.33066">
        <ele>9.8000001907349</ele>
        <time>2022-04-10T07:24:03.000Z</time>
      </trkpt>
      <trkpt lat="47.27323" lon="-2.33089">
        <ele>9.8000001907349</ele>
        <time>2022-04-10T07:24:08.000Z</time>
      </trkpt>
      <trkpt lat="47.27309" lon="-2.33114">
        <ele>9.8000001907349</ele>
        <time>2022-04-10T07:24:14.000Z</time>
      </trkpt>
      <trkpt lat="47.27306" lon="-2.33123">
        <ele>9.8000001907349</ele>
        <time>2022-04-10T07:24:16.000Z</time>
      </trkpt>
      <trkpt lat="47.27308" lon="-2.33128">
        <ele>9.8000001907349</ele>
        <time>2022-04-10T07:24:17.000Z</time>
      </trkpt>
      <trkpt lat="47.27318" lon="-2.33145">
        <ele>9.8000001907349</ele>
        <time>2022-04-10T07:24:20.000Z</time>
      </trkpt>
      <trkpt lat="47.27325" lon="-2.33155">
        <ele>9.8000001907349</ele>
        <time>2022-04-10T07:24:22.000Z</time>
      </trkpt>
      <trkpt lat="47.27342" lon="-2.33171">
        <ele>9.8000001907349</ele>
        <time>2022-04-10T07:24:26.000Z</time>
      </trkpt>
      <trkpt lat="47.27346" lon="-2.33175">
        <ele>10.60000038147</ele>
        <time>2022-04-10T07:24:27.000Z</time>
      </trkpt>
      <trkpt lat="47.27351" lon="-2.33179">
        <ele>11</ele>
        <time>2022-04-10T07:24:28.000Z</time>
      </trkpt>
      <trkpt lat="47.27355" lon="-2.33183">
        <ele>11.39999961853</ele>
        <time>2022-04-10T07:24:29.000Z</time>
      </trkpt>
      <trkpt lat="47.27359" lon="-2.33188">
        <ele>11.800000190735</ele>
        <time>2022-04-10T07:24:30.000Z</time>
      </trkpt>
      <trkpt lat="47.27375" lon="-2.33203">
        <ele>11.800000190735</ele>
        <time>2022-04-10T07:24:34.000Z</time>
      </trkpt>
      <trkpt lat="47.27383" lon="-2.3321">
        <ele>12.199999809265</ele>
        <time>2022-04-10T07:24:36.000Z</time>
      </trkpt>
      <trkpt lat="47.27387" lon="-2.33214">
        <ele>12.60000038147</ele>
        <time>2022-04-10T07:24:37.000Z</time>
      </trkpt>
      <trkpt lat="47.27391" lon="-2.33218">
        <ele>13</ele>
        <time>2022-04-10T07:24:38.000Z</time>
      </trkpt>
      <trkpt lat="47.27395" lon="-2.33221">
        <ele>13.39999961853</ele>
        <time>2022-04-10T07:24:39.000Z</time>
      </trkpt>
      <trkpt lat="47.27399" lon="-2.33224">
        <ele>13.800000190735</ele>
        <time>2022-04-10T07:24:40.000Z</time>
      </trkpt>
      <trkpt lat="47.27407" lon="-2.33231">
        <ele>13.800000190735</ele>
        <time>2022-04-10T07:24:42.000Z</time>
      </trkpt>
      <trkpt lat="47.27411" lon="-2.33232">
        <ele>13.800000190735</ele>
        <time>2022-04-10T07:24:43.000Z</time>
      </trkpt>
      <trkpt lat="47.27419" lon="-2.33229">
        <ele>13.800000190735</ele>
        <time>2022-04-10T07:24:45.000Z</time>
      </trkpt>
      <trkpt lat="47.27425" lon="-2.33212">
        <ele>14.199999809265</ele>
        <time>2022-04-10T07:24:48.000Z</time>
      </trkpt>
      <trkpt lat="47.27427" lon="-2.33205">
        <ele>14.60000038147</ele>
        <time>2022-04-10T07:24:49.000Z</time>
      </trkpt>
      <trkpt lat="47.27429" lon="-2.33198">
        <ele>15</ele>
        <time>2022-04-10T07:24:50.000Z</time>
      </trkpt>
      <trkpt lat="47.27431" lon="-2.33192">
        <ele>16</ele>
        <time>2022-04-10T07:24:51.000Z</time>
      </trkpt>
      <trkpt lat="47.27432" lon="-2.33185">
        <ele>16</ele>
        <time>2022-04-10T07:24:52.000Z</time>
      </trkpt>
      <trkpt lat="47.27435" lon="-2.33165">
        <ele>16</ele>
        <time>2022-04-10T07:24:55.000Z</time>
      </trkpt>
      <trkpt lat="47.27443" lon="-2.33122">
        <ele>16</ele>
        <time>2022-04-10T07:25:01.000Z</time>
      </trkpt>
      <trkpt lat="47.27448" lon="-2.33081">
        <ele>16</ele>
        <time>2022-04-10T07:25:06.000Z</time>
      </trkpt>
      <trkpt lat="47.27447" lon="-2.33065">
        <ele>16</ele>
        <time>2022-04-10T07:25:08.000Z</time>
      </trkpt>
      <trkpt lat="47.27454" lon="-2.33045">
        <ele>15.39999961853</ele>
        <time>2022-04-10T07:25:11.000Z</time>
      </trkpt>
      <trkpt lat="47.27459" lon="-2.33041">
        <ele>15</ele>
        <time>2022-04-10T07:25:12.000Z</time>
      </trkpt>
      <trkpt lat="47.27464" lon="-2.33037">
        <ele>14.60000038147</ele>
        <time>2022-04-10T07:25:13.000Z</time>
      </trkpt>
      <trkpt lat="47.27469" lon="-2.33032">
        <ele>14.199999809265</ele>
        <time>2022-04-10T07:25:14.000Z</time>
      </trkpt>
      <trkpt lat="47.27473" lon="-2.33027">
        <ele>13.800000190735</ele>
        <time>2022-04-10T07:25:15.000Z</time>
      </trkpt>
      <trkpt lat="47.27481" lon="-2.33013">
        <ele>13.800000190735</ele>
        <time>2022-04-10T07:25:18.000Z</time>
      </trkpt>
      <trkpt lat="47.27485" lon="-2.33011">
        <ele>13.39999961853</ele>
        <time>2022-04-10T07:25:19.000Z</time>
      </trkpt>
      <trkpt lat="47.27488" lon="-2.33009">
        <ele>13</ele>
        <time>2022-04-10T07:25:20.000Z</time>
      </trkpt>
      <trkpt lat="47.27491" lon="-2.33005">
        <ele>12.60000038147</ele>
        <time>2022-04-10T07:25:21.000Z</time>
      </trkpt>
      <trkpt lat="47.27493" lon="-2.33001">
        <ele>12.199999809265</ele>
        <time>2022-04-10T07:25:22.000Z</time>
      </trkpt>
      <trkpt lat="47.27494" lon="-2.32995">
        <ele>11.60000038147</ele>
        <time>2022-04-10T07:25:23.000Z</time>
      </trkpt>
      <trkpt lat="47.27501" lon="-2.32981">
        <ele>11.60000038147</ele>
        <time>2022-04-10T07:25:26.000Z</time>
      </trkpt>
      <trkpt lat="47.27505" lon="-2.32975">
        <ele>11.60000038147</ele>
        <time>2022-04-10T07:25:28.000Z</time>
      </trkpt>
      <trkpt lat="47.27508" lon="-2.3297">
        <ele>11.60000038147</ele>
        <time>2022-04-10T07:25:30.000Z</time>
      </trkpt>
      <trkpt lat="47.27512" lon="-2.32951">
        <ele>11.60000038147</ele>
        <time>2022-04-10T07:25:35.000Z</time>
      </trkpt>
      <trkpt lat="47.2751" lon="-2.32945">
        <ele>11.199999809265</ele>
        <time>2022-04-10T07:25:36.000Z</time>
      </trkpt>
      <trkpt lat="47.27508" lon="-2.3294">
        <ele>10.800000190735</ele>
        <time>2022-04-10T07:25:37.000Z</time>
      </trkpt>
      <trkpt lat="47.27506" lon="-2.32936">
        <ele>10.199999809265</ele>
        <time>2022-04-10T07:25:38.000Z</time>
      </trkpt>
      <trkpt lat="47.27504" lon="-2.32932">
        <ele>9.8000001907349</ele>
        <time>2022-04-10T07:25:39.000Z</time>
      </trkpt>
      <trkpt lat="47.27503" lon="-2.32927">
        <ele>9.1999998092651</ele>
        <time>2022-04-10T07:25:40.000Z</time>
      </trkpt>
      <trkpt lat="47.27505" lon="-2.32909">
        <ele>9.1999998092651</ele>
        <time>2022-04-10T07:25:43.000Z</time>
      </trkpt>
      <trkpt lat="47.27511" lon="-2.32885">
        <ele>9.1999998092651</ele>
        <time>2022-04-10T07:25:47.000Z</time>
      </trkpt>
      <trkpt lat="47.27511" lon="-2.3288">
        <ele>9.1999998092651</ele>
        <time>2022-04-10T07:25:48.000Z</time>
      </trkpt>
      <trkpt lat="47.27517" lon="-2.32869">
        <ele>9.1999998092651</ele>
        <time>2022-04-10T07:25:51.000Z</time>
      </trkpt>
      <trkpt lat="47.27522" lon="-2.32861">
        <ele>8.8000001907349</ele>
        <time>2022-04-10T07:25:53.000Z</time>
      </trkpt>
      <trkpt lat="47.27525" lon="-2.32857">
        <ele>8.3999996185303</ele>
        <time>2022-04-10T07:25:54.000Z</time>
      </trkpt>
      <trkpt lat="47.27528" lon="-2.32854">
        <ele>8</ele>
        <time>2022-04-10T07:25:55.000Z</time>
      </trkpt>
      <trkpt lat="47.27531" lon="-2.32851">
        <ele>7.5999999046326</ele>
        <time>2022-04-10T07:25:56.000Z</time>
      </trkpt>
      <trkpt lat="47.27535" lon="-2.32848">
        <ele>7.1999998092651</ele>
        <time>2022-04-10T07:25:57.000Z</time>
      </trkpt>
      <trkpt lat="47.27538" lon="-2.32846">
        <ele>7.1999998092651</ele>
        <time>2022-04-10T07:25:58.000Z</time>
      </trkpt>
      <trkpt lat="47.27555" lon="-2.32835">
        <ele>7.1999998092651</ele>
        <time>2022-04-10T07:26:04.000Z</time>
      </trkpt>
      <trkpt lat="47.27565" lon="-2.3283">
        <ele>7.1999998092651</ele>
        <time>2022-04-10T07:26:09.000Z</time>
      </trkpt>
      <trkpt lat="47.27566" lon="-2.32829">
        <ele>7.1999998092651</ele>
        <time>2022-04-10T07:26:12.000Z</time>
      </trkpt>
      <trkpt lat="47.27568" lon="-2.3282">
        <ele>5.1999998092651</ele>
        <time>2022-04-10T07:30:24.000Z</time>
      </trkpt>
      <trkpt lat="47.27569" lon="-2.32817">
        <ele>5.1999998092651</ele>
        <time>2022-04-10T07:30:25.000Z</time>
      </trkpt>
      <trkpt lat="47.27574" lon="-2.32801">
        <ele>5.1999998092651</ele>
        <time>2022-04-10T07:30:28.000Z</time>
      </trkpt>
      <trkpt lat="47.27581" lon="-2.32778">
        <ele>4.8000001907349</ele>
        <time>2022-04-10T07:30:33.000Z</time>
      </trkpt>
      <trkpt lat="47.27583" lon="-2.32774">
        <ele>4.4000000953674</ele>
        <time>2022-04-10T07:30:34.000Z</time>
      </trkpt>
      <trkpt lat="47.27584" lon="-2.32771">
        <ele>4</ele>
        <time>2022-04-10T07:30:35.000Z</time>
      </trkpt>
      <trkpt lat="47.27585" lon="-2.32767">
        <ele>3.5999999046326</ele>
        <time>2022-04-10T07:30:36.000Z</time>
      </trkpt>
      <trkpt lat="47.27587" lon="-2.32763">
        <ele>3.2000000476837</ele>
        <time>2022-04-10T07:30:37.000Z</time>
      </trkpt>
      <trkpt lat="47.27587" lon="-2.32753">
        <ele>3.2000000476837</ele>
        <time>2022-04-10T07:30:39.000Z</time>
      </trkpt>
      <trkpt lat="47.27588" lon="-2.3274">
        <ele>2.7999999523163</ele>
        <time>2022-04-10T07:30:41.000Z</time>
      </trkpt>
      <trkpt lat="47.27589" lon="-2.32733">
        <ele>2.2000000476837</ele>
        <time>2022-04-10T07:30:42.000Z</time>
      </trkpt>
      <trkpt lat="47.2759" lon="-2.32726">
        <ele>1.7999999523163</ele>
        <time>2022-04-10T07:30:43.000Z</time>
      </trkpt>
      <trkpt lat="47.27592" lon="-2.32719">
        <ele>1.2000000476837</ele>
        <time>2022-04-10T07:30:44.000Z</time>
      </trkpt>
      <trkpt lat="47.27594" lon="-2.3271">
        <ele>0.60000002384186</ele>
        <time>2022-04-10T07:30:45.000Z</time>
      </trkpt>
      <trkpt lat="47.27597" lon="-2.32704">
        <ele>0.20000000298023</ele>
        <time>2022-04-10T07:30:46.000Z</time>
      </trkpt>
      <trkpt lat="47.27599" lon="-2.32698">
        <ele>-0.40000000596046</ele>
        <time>2022-04-10T07:30:47.000Z</time>
      </trkpt>
      <trkpt lat="47.27603" lon="-2.32692">
        <ele>-1</ele>
        <time>2022-04-10T07:30:48.000Z</time>
      </trkpt>
      <trkpt lat="47.27614" lon="-2.32689">
        <ele>-1</ele>
        <time>2022-04-10T07:30:51.000Z</time>
      </trkpt>
      <trkpt lat="47.27626" lon="-2.32703">
        <ele>-1</ele>
        <time>2022-04-10T07:30:55.000Z</time>
      </trkpt>
      <trkpt lat="47.27638" lon="-2.32708">
        <ele>-1</ele>
        <time>2022-04-10T07:30:58.000Z</time>
      </trkpt>
      <trkpt lat="47.27642" lon="-2.3271">
        <ele>-1</ele>
        <time>2022-04-10T07:30:59.000Z</time>
      </trkpt>
      <trkpt lat="47.27668" lon="-2.32726">
        <ele>-1</ele>
        <time>2022-04-10T07:31:05.000Z</time>
      </trkpt>
      <trkpt lat="47.27681" lon="-2.32728">
        <ele>-1</ele>
        <time>2022-04-10T07:31:08.000Z</time>
      </trkpt>
      <trkpt lat="47.27684" lon="-2.32727">
        <ele>-1</ele>
        <time>2022-04-10T07:31:09.000Z</time>
      </trkpt>
      <trkpt lat="47.27687" lon="-2.32725">
        <ele>-1.3999999761581</ele>
        <time>2022-04-10T07:31:10.000Z</time>
      </trkpt>
      <trkpt lat="47.27691" lon="-2.32724">
        <ele>-1.7999999523163</ele>
        <time>2022-04-10T07:31:11.000Z</time>
      </trkpt>
      <trkpt lat="47.27693" lon="-2.32722">
        <ele>-2.4000000953674</ele>
        <time>2022-04-10T07:31:12.000Z</time>
      </trkpt>
      <trkpt lat="47.27697" lon="-2.3272">
        <ele>-2.7999999523163</ele>
        <time>2022-04-10T07:31:13.000Z</time>
      </trkpt>
      <trkpt lat="47.277" lon="-2.32717">
        <ele>-3.2000000476837</ele>
        <time>2022-04-10T07:31:14.000Z</time>
      </trkpt>
      <trkpt lat="47.27703" lon="-2.32713">
        <ele>-3.2000000476837</ele>
        <time>2022-04-10T07:31:15.000Z</time>
      </trkpt>
      <trkpt lat="47.27711" lon="-2.327">
        <ele>-3.2000000476837</ele>
        <time>2022-04-10T07:31:18.000Z</time>
      </trkpt>
      <trkpt lat="47.27715" lon="-2.32691">
        <ele>-3.2000000476837</ele>
        <time>2022-04-10T07:31:20.000Z</time>
      </trkpt>
      <trkpt lat="47.27721" lon="-2.32681">
        <ele>-2.7999999523163</ele>
        <time>2022-04-10T07:31:22.000Z</time>
      </trkpt>
      <trkpt lat="47.27723" lon="-2.32677">
        <ele>-2.4000000953674</ele>
        <time>2022-04-10T07:31:23.000Z</time>
      </trkpt>
      <trkpt lat="47.27725" lon="-2.32674">
        <ele>-2</ele>
        <time>2022-04-10T07:31:24.000Z</time>
      </trkpt>
      <trkpt lat="47.27727" lon="-2.3267">
        <ele>-1.6000000238419</ele>
        <time>2022-04-10T07:31:25.000Z</time>
      </trkpt>
      <trkpt lat="47.27729" lon="-2.32666">
        <ele>-1</ele>
        <time>2022-04-10T07:31:26.000Z</time>
      </trkpt>
      <trkpt lat="47.27731" lon="-2.32662">
        <ele>14.9</ele>
        <time>2022-04-10T07:31:27.000Z</time>
      </trkpt>
      <trkpt lat="47.27732" lon="-2.32659">
        <ele>0.60000002384186</ele>
        <time>2022-04-10T07:31:28.000Z</time>
      </trkpt>
      <trkpt lat="47.27734" lon="-2.32655">
        <ele>1</ele>
        <time>2022-04-10T07:31:29.000Z</time>
      </trkpt>
      <trkpt lat="47.27735" lon="-2.32652">
        <ele>1.3999999761581</ele>
        <time>2022-04-10T07:31:30.000Z</time>
      </trkpt>
      <trkpt lat="47.27737" lon="-2.32648">
        <ele>2</ele>
        <time>2022-04-10T07:31:31.000Z</time>
      </trkpt>
      <trkpt lat="47.27738" lon="-2.32644">
        <ele>2.4000000953674</ele>
        <time>2022-04-10T07:31:32.000Z</time>
      </trkpt>
      <trkpt lat="47.2774" lon="-2.3264">
        <ele>2.7999999523163</ele>
        <time>2022-04-10T07:31:33.000Z</time>
      </trkpt>
      <trkpt lat="47.27742" lon="-2.32637">
        <ele>3.4000000953674</ele>
        <time>2022-04-10T07:31:34.000Z</time>
      </trkpt>
      <trkpt lat="47.27744" lon="-2.32633">
        <ele>3.7999999523163</ele>
        <time>2022-04-10T07:31:35.000Z</time>
      </trkpt>
      <trkpt lat="47.27745" lon="-2.3263">
        <ele>4.1999998092651</ele>
        <time>2022-04-10T07:31:36.000Z</time>
      </trkpt>
      <trkpt lat="47.27747" lon="-2.32626">
        <ele>4.5999999046326</ele>
        <time>2022-04-10T07:31:37.000Z</time>
      </trkpt>
      <trkpt lat="47.27749" lon="-2.32622">
        <ele>5</ele>
        <time>2022-04-10T07:31:38.000Z</time>
      </trkpt>
      <trkpt lat="47.27751" lon="-2.32619">
        <ele>5.4000000953674</ele>
        <time>2022-04-10T07:31:39.000Z</time>
      </trkpt>
      <trkpt lat="47.27764" lon="-2.32599">
        <ele>5.4000000953674</ele>
        <time>2022-04-10T07:31:44.000Z</time>
      </trkpt>
      <trkpt lat="47.27782" lon="-2.32577">
        <ele>5.8000001907349</ele>
        <time>2022-04-10T07:31:49.000Z</time>
      </trkpt>
      <trkpt lat="47.27785" lon="-2.32572">
        <ele>6.1999998092651</ele>
        <time>2022-04-10T07:31:50.000Z</time>
      </trkpt>
      <trkpt lat="47.27788" lon="-2.32567">
        <ele>6.5999999046326</ele>
        <time>2022-04-10T07:31:51.000Z</time>
      </trkpt>
      <trkpt lat="47.2779" lon="-2.32563">
        <ele>7.4000000953674</ele>
        <time>2022-04-10T07:31:52.000Z</time>
      </trkpt>
      <trkpt lat="47.27803" lon="-2.32546">
        <ele>7.4000000953674</ele>
        <time>2022-04-10T07:31:57.000Z</time>
      </trkpt>
      <trkpt lat="47.2782" lon="-2.32521">
        <ele>7.4000000953674</ele>
        <time>2022-04-10T07:32:04.000Z</time>
      </trkpt>
      <trkpt lat="47.27836" lon="-2.32495">
        <ele>7.4000000953674</ele>
        <time>2022-04-10T07:32:11.000Z</time>
      </trkpt>
      <trkpt lat="47.27848" lon="-2.32475">
        <ele>7.4000000953674</ele>
        <time>2022-04-10T07:32:17.000Z</time>
      </trkpt>
      <trkpt lat="47.27863" lon="-2.32459">
        <ele>7.4000000953674</ele>
        <time>2022-04-10T07:32:24.000Z</time>
      </trkpt>
      <trkpt lat="47.2787" lon="-2.32453">
        <ele>7.4000000953674</ele>
        <time>2022-04-10T07:32:28.000Z</time>
      </trkpt>
      <trkpt lat="47.27873" lon="-2.32447">
        <ele>7.4000000953674</ele>
        <time>2022-04-10T07:32:30.000Z</time>
      </trkpt>
      <trkpt lat="47.27875" lon="-2.32442">
        <ele>7.4000000953674</ele>
        <time>2022-04-10T07:32:32.000Z</time>
      </trkpt>
      <trkpt lat="47.27886" lon="-2.32423">
        <ele>7.4000000953674</ele>
        <time>2022-04-10T07:32:38.000Z</time>
      </trkpt>
      <trkpt lat="47.27895" lon="-2.32408">
        <ele>7.4000000953674</ele>
        <time>2022-04-10T07:32:44.000Z</time>
      </trkpt>
      <trkpt lat="47.27898" lon="-2.32406">
        <ele>7.4000000953674</ele>
        <time>2022-04-10T07:32:46.000Z</time>
      </trkpt>
      <trkpt lat="47.27919" lon="-2.32392">
        <ele>7.4000000953674</ele>
        <time>2022-04-10T07:33:30.000Z</time>
      </trkpt>
      <trkpt lat="47.27921" lon="-2.32393">
        <ele>7.4000000953674</ele>
        <time>2022-04-10T07:33:31.000Z</time>
      </trkpt>
      <trkpt lat="47.2793" lon="-2.32397">
        <ele>7.4000000953674</ele>
        <time>2022-04-10T07:33:36.000Z</time>
      </trkpt>
      <trkpt lat="47.2794" lon="-2.32399">
        <ele>7.4000000953674</ele>
        <time>2022-04-10T07:33:40.000Z</time>
      </trkpt>
      <trkpt lat="47.27957" lon="-2.32402">
        <ele>7.4000000953674</ele>
        <time>2022-04-10T07:33:45.000Z</time>
      </trkpt>
      <trkpt lat="47.27983" lon="-2.32416">
        <ele>7.4000000953674</ele>
        <time>2022-04-10T07:33:51.000Z</time>
      </trkpt>
      <trkpt lat="47.28005" lon="-2.32423">
        <ele>7.4000000953674</ele>
        <time>2022-04-10T07:33:57.000Z</time>
      </trkpt>
      <trkpt lat="47.28021" lon="-2.32428">
        <ele>7.4000000953674</ele>
        <time>2022-04-10T07:34:03.000Z</time>
      </trkpt>
      <trkpt lat="47.28034" lon="-2.32429">
        <ele>7.4000000953674</ele>
        <time>2022-04-10T07:34:10.000Z</time>
      </trkpt>
      <trkpt lat="47.28045" lon="-2.32431">
        <ele>7.4000000953674</ele>
        <time>2022-04-10T07:34:16.000Z</time>
      </trkpt>
      <trkpt lat="47.2806" lon="-2.32432">
        <ele>7.4000000953674</ele>
        <time>2022-04-10T07:34:24.000Z</time>
      </trkpt>
      <trkpt lat="47.28075" lon="-2.32431">
        <ele>7.4000000953674</ele>
        <time>2022-04-10T07:34:31.000Z</time>
      </trkpt>
      <trkpt lat="47.28087" lon="-2.32433">
        <ele>7.4000000953674</ele>
        <time>2022-04-10T07:34:38.000Z</time>
      </trkpt>
      <trkpt lat="47.2809" lon="-2.32435">
        <ele>7.4000000953674</ele>
        <time>2022-04-10T07:34:41.000Z</time>
      </trkpt>
      <trkpt lat="47.28093" lon="-2.32436">
        <ele>7.4000000953674</ele>
        <time>2022-04-10T07:34:44.000Z</time>
      </trkpt>
      <trkpt lat="47.281" lon="-2.32437">
        <ele>7.4000000953674</ele>
        <time>2022-04-10T07:34:49.000Z</time>
      </trkpt>
      <trkpt lat="47.28101" lon="-2.32439">
        <ele>7.4000000953674</ele>
        <time>2022-04-10T07:34:50.000Z</time>
      </trkpt>
      <trkpt lat="47.28113" lon="-2.3245">
        <ele>7.4000000953674</ele>
        <time>2022-04-10T07:34:55.000Z</time>
      </trkpt>
      <trkpt lat="47.28127" lon="-2.32454">
        <ele>7.4000000953674</ele>
        <time>2022-04-10T07:34:58.000Z</time>
      </trkpt>
      <trkpt lat="47.28138" lon="-2.32454">
        <ele>7.4000000953674</ele>
        <time>2022-04-10T07:35:00.000Z</time>
      </trkpt>
      <trkpt lat="47.28154" lon="-2.32451">
        <ele>7.4000000953674</ele>
        <time>2022-04-10T07:35:03.000Z</time>
      </trkpt>
      <trkpt lat="47.28164" lon="-2.3245">
        <ele>7.4000000953674</ele>
        <time>2022-04-10T07:35:05.000Z</time>
      </trkpt>
      <trkpt lat="47.28182" lon="-2.32452">
        <ele>7.4000000953674</ele>
        <time>2022-04-10T07:35:08.000Z</time>
      </trkpt>
      <trkpt lat="47.28207" lon="-2.32456">
        <ele>7.4000000953674</ele>
        <time>2022-04-10T07:35:12.000Z</time>
      </trkpt>
      <trkpt lat="47.28219" lon="-2.32462">
        <ele>7.4000000953674</ele>
        <time>2022-04-10T07:35:14.000Z</time>
      </trkpt>
      <trkpt lat="47.28225" lon="-2.32466">
        <ele>7.4000000953674</ele>
        <time>2022-04-10T07:35:15.000Z</time>
      </trkpt>
      <trkpt lat="47.28244" lon="-2.32489">
        <ele>7.4000000953674</ele>
        <time>2022-04-10T07:35:19.000Z</time>
      </trkpt>
      <trkpt lat="47.28258" lon="-2.32504">
        <ele>7.4000000953674</ele>
        <time>2022-04-10T07:35:22.000Z</time>
      </trkpt>
      <trkpt lat="47.28264" lon="-2.32509">
        <ele>7</ele>
        <time>2022-04-10T07:35:23.000Z</time>
      </trkpt>
      <trkpt lat="47.28269" lon="-2.32512">
        <ele>6.5999999046326</ele>
        <time>2022-04-10T07:35:24.000Z</time>
      </trkpt>
      <trkpt lat="47.28276" lon="-2.32515">
        <ele>6.1999998092651</ele>
        <time>2022-04-10T07:35:25.000Z</time>
      </trkpt>
      <trkpt lat="47.28282" lon="-2.32516">
        <ele>5.8000001907349</ele>
        <time>2022-04-10T07:35:26.000Z</time>
      </trkpt>
      <trkpt lat="47.28288" lon="-2.32516">
        <ele>5.4000000953674</ele>
        <time>2022-04-10T07:35:27.000Z</time>
      </trkpt>
      <trkpt lat="47.28294" lon="-2.32517">
        <ele>5.4000000953674</ele>
        <time>2022-04-10T07:35:28.000Z</time>
      </trkpt>
      <trkpt lat="47.28338" lon="-2.3252">
        <ele>5.4000000953674</ele>
        <time>2022-04-10T07:35:35.000Z</time>
      </trkpt>
      <trkpt lat="47.28357" lon="-2.32521">
        <ele>5.4000000953674</ele>
        <time>2022-04-10T07:35:39.000Z</time>
      </trkpt>
      <trkpt lat="47.28383" lon="-2.32522">
        <ele>5.4000000953674</ele>
        <time>2022-04-10T07:35:45.000Z</time>
      </trkpt>
      <trkpt lat="47.28385" lon="-2.32507">
        <ele>5.4000000953674</ele>
        <time>2022-04-10T07:35:49.000Z</time>
      </trkpt>
      <trkpt lat="47.28379" lon="-2.32473">
        <ele>5.4000000953674</ele>
        <time>2022-04-10T07:35:54.000Z</time>
      </trkpt>
      <trkpt lat="47.28377" lon="-2.32459">
        <ele>5.4000000953674</ele>
        <time>2022-04-10T07:35:56.000Z</time>
      </trkpt>
      <trkpt lat="47.28376" lon="-2.32452">
        <ele>5.8000001907349</ele>
        <time>2022-04-10T07:35:57.000Z</time>
      </trkpt>
      <trkpt lat="47.28376" lon="-2.32446">
        <ele>6.1999998092651</ele>
        <time>2022-04-10T07:35:58.000Z</time>
      </trkpt>
      <trkpt lat="47.28375" lon="-2.32439">
        <ele>6.8000001907349</ele>
        <time>2022-04-10T07:35:59.000Z</time>
      </trkpt>
      <trkpt lat="47.28375" lon="-2.32433">
        <ele>7.5999999046326</ele>
        <time>2022-04-10T07:36:00.000Z</time>
      </trkpt>
      <trkpt lat="47.28377" lon="-2.32423">
        <ele>7.5999999046326</ele>
        <time>2022-04-10T07:36:02.000Z</time>
      </trkpt>
      <trkpt lat="47.2838" lon="-2.3242">
        <ele>7.5999999046326</ele>
        <time>2022-04-10T07:36:03.000Z</time>
      </trkpt>
      <trkpt lat="47.28392" lon="-2.32411">
        <ele>7.5999999046326</ele>
        <time>2022-04-10T07:36:06.000Z</time>
      </trkpt>
      <trkpt lat="47.28397" lon="-2.32408">
        <ele>7.5999999046326</ele>
        <time>2022-04-10T07:36:07.000Z</time>
      </trkpt>
      <trkpt lat="47.28431" lon="-2.32385">
        <ele>7.5999999046326</ele>
        <time>2022-04-10T07:36:14.000Z</time>
      </trkpt>
      <trkpt lat="47.28473" lon="-2.32359">
        <ele>7.5999999046326</ele>
        <time>2022-04-10T07:36:22.000Z</time>
      </trkpt>
      <trkpt lat="47.28507" lon="-2.32337">
        <ele>7.5999999046326</ele>
        <time>2022-04-10T07:36:29.000Z</time>
      </trkpt>
      <trkpt lat="47.28536" lon="-2.32314">
        <ele>7.5999999046326</ele>
        <time>2022-04-10T07:36:35.000Z</time>
      </trkpt>
      <trkpt lat="47.28565" lon="-2.32282">
        <ele>7.5999999046326</ele>
        <time>2022-04-10T07:36:42.000Z</time>
      </trkpt>
      <trkpt lat="47.2858" lon="-2.32266">
        <ele>8</ele>
        <time>2022-04-10T07:36:46.000Z</time>
      </trkpt>
      <trkpt lat="47.28584" lon="-2.32262">
        <ele>8.3999996185303</ele>
        <time>2022-04-10T07:36:47.000Z</time>
      </trkpt>
      <trkpt lat="47.28588" lon="-2.32258">
        <ele>8.8000001907349</ele>
        <time>2022-04-10T07:36:48.000Z</time>
      </trkpt>
      <trkpt lat="47.28592" lon="-2.32254">
        <ele>9.6000003814697</ele>
        <time>2022-04-10T07:36:49.000Z</time>
      </trkpt>
      <trkpt lat="47.286" lon="-2.32248">
        <ele>9.6000003814697</ele>
        <time>2022-04-10T07:36:51.000Z</time>
      </trkpt>
      <trkpt lat="47.28628" lon="-2.3223">
        <ele>9.6000003814697</ele>
        <time>2022-04-10T07:36:57.000Z</time>
      </trkpt>
      <trkpt lat="47.2865" lon="-2.32213">
        <ele>10</ele>
        <time>2022-04-10T07:37:01.000Z</time>
      </trkpt>
      <trkpt lat="47.28654" lon="-2.32208">
        <ele>10.39999961853</ele>
        <time>2022-04-10T07:37:02.000Z</time>
      </trkpt>
      <trkpt lat="47.28658" lon="-2.32203">
        <ele>10.800000190735</ele>
        <time>2022-04-10T07:37:03.000Z</time>
      </trkpt>
      <trkpt lat="47.28662" lon="-2.32198">
        <ele>11.199999809265</ele>
        <time>2022-04-10T07:37:04.000Z</time>
      </trkpt>
      <trkpt lat="47.28665" lon="-2.32192">
        <ele>11.60000038147</ele>
        <time>2022-04-10T07:37:05.000Z</time>
      </trkpt>
      <trkpt lat="47.28681" lon="-2.32162">
        <ele>11.60000038147</ele>
        <time>2022-04-10T07:37:10.000Z</time>
      </trkpt>
      <trkpt lat="47.28684" lon="-2.32155">
        <ele>12</ele>
        <time>2022-04-10T07:37:11.000Z</time>
      </trkpt>
      <trkpt lat="47.28686" lon="-2.32149">
        <ele>12.39999961853</ele>
        <time>2022-04-10T07:37:12.000Z</time>
      </trkpt>
      <trkpt lat="47.28688" lon="-2.32142">
        <ele>13</ele>
        <time>2022-04-10T07:37:13.000Z</time>
      </trkpt>
      <trkpt lat="47.28689" lon="-2.32134">
        <ele>13.800000190735</ele>
        <time>2022-04-10T07:37:14.000Z</time>
      </trkpt>
      <trkpt lat="47.28691" lon="-2.3212">
        <ele>13.800000190735</ele>
        <time>2022-04-10T07:37:16.000Z</time>
      </trkpt>
      <trkpt lat="47.28689" lon="-2.32098">
        <ele>13.800000190735</ele>
        <time>2022-04-10T07:37:19.000Z</time>
      </trkpt>
      <trkpt lat="47.28688" lon="-2.32091">
        <ele>13.800000190735</ele>
        <time>2022-04-10T07:37:20.000Z</time>
      </trkpt>
      <trkpt lat="47.28677" lon="-2.32037">
        <ele>13.800000190735</ele>
        <time>2022-04-10T07:37:27.000Z</time>
      </trkpt>
      <trkpt lat="47.28665" lon="-2.31982">
        <ele>13.800000190735</ele>
        <time>2022-04-10T07:37:34.000Z</time>
      </trkpt>
      <trkpt lat="47.28657" lon="-2.31929">
        <ele>14.199999809265</ele>
        <time>2022-04-10T07:37:41.000Z</time>
      </trkpt>
      <trkpt lat="47.28656" lon="-2.31921">
        <ele>14.60000038147</ele>
        <time>2022-04-10T07:37:42.000Z</time>
      </trkpt>
      <trkpt lat="47.28655" lon="-2.31913">
        <ele>15</ele>
        <time>2022-04-10T07:37:43.000Z</time>
      </trkpt>
      <trkpt lat="47.28655" lon="-2.31905">
        <ele>15.39999961853</ele>
        <time>2022-04-10T07:37:44.000Z</time>
      </trkpt>
      <trkpt lat="47.28654" lon="-2.31897">
        <ele>15.800000190735</ele>
        <time>2022-04-10T07:37:45.000Z</time>
      </trkpt>
      <trkpt lat="47.28651" lon="-2.31873">
        <ele>15.800000190735</ele>
        <time>2022-04-10T07:37:48.000Z</time>
      </trkpt>
      <trkpt lat="47.28644" lon="-2.31809">
        <ele>15.800000190735</ele>
        <time>2022-04-10T07:37:56.000Z</time>
      </trkpt>
      <trkpt lat="47.28637" lon="-2.31754">
        <ele>16.200000762939</ele>
        <time>2022-04-10T07:38:03.000Z</time>
      </trkpt>
      <trkpt lat="47.28636" lon="-2.31746">
        <ele>16.60000038147</ele>
        <time>2022-04-10T07:38:04.000Z</time>
      </trkpt>
      <trkpt lat="47.28635" lon="-2.31737">
        <ele>17</ele>
        <time>2022-04-10T07:38:05.000Z</time>
      </trkpt>
      <trkpt lat="47.28633" lon="-2.31729">
        <ele>17.39999961853</ele>
        <time>2022-04-10T07:38:06.000Z</time>
      </trkpt>
      <trkpt lat="47.28632" lon="-2.31721">
        <ele>17.799999237061</ele>
        <time>2022-04-10T07:38:07.000Z</time>
      </trkpt>
      <trkpt lat="47.28627" lon="-2.31689">
        <ele>17.799999237061</ele>
        <time>2022-04-10T07:38:11.000Z</time>
      </trkpt>
      <trkpt lat="47.28623" lon="-2.31622">
        <ele>17.799999237061</ele>
        <time>2022-04-10T07:38:19.000Z</time>
      </trkpt>
      <trkpt lat="47.28625" lon="-2.3155">
        <ele>17.799999237061</ele>
        <time>2022-04-10T07:38:28.000Z</time>
      </trkpt>
      <trkpt lat="47.28625" lon="-2.31525">
        <ele>17.799999237061</ele>
        <time>2022-04-10T07:38:31.000Z</time>
      </trkpt>
      <trkpt lat="47.28623" lon="-2.31502">
        <ele>17.799999237061</ele>
        <time>2022-04-10T07:38:34.000Z</time>
      </trkpt>
      <trkpt lat="47.28619" lon="-2.31482">
        <ele>17.799999237061</ele>
        <time>2022-04-10T07:38:38.000Z</time>
      </trkpt>
      <trkpt lat="47.2862" lon="-2.31475">
        <ele>17.799999237061</ele>
        <time>2022-04-10T07:38:40.000Z</time>
      </trkpt>
      <trkpt lat="47.28624" lon="-2.31469">
        <ele>17.799999237061</ele>
        <time>2022-04-10T07:38:42.000Z</time>
      </trkpt>
      <trkpt lat="47.28632" lon="-2.31465">
        <ele>17.799999237061</ele>
        <time>2022-04-10T07:38:44.000Z</time>
      </trkpt>
      <trkpt lat="47.28636" lon="-2.31464">
        <ele>17.799999237061</ele>
        <time>2022-04-10T07:38:45.000Z</time>
      </trkpt>
      <trkpt lat="47.28644" lon="-2.3146">
        <ele>17.799999237061</ele>
        <time>2022-04-10T07:38:47.000Z</time>
      </trkpt>
      <trkpt lat="47.28668" lon="-2.31454">
        <ele>17.799999237061</ele>
        <time>2022-04-10T07:38:53.000Z</time>
      </trkpt>
      <trkpt lat="47.28674" lon="-2.31469">
        <ele>17.799999237061</ele>
        <time>2022-04-10T07:38:56.000Z</time>
      </trkpt>
      <trkpt lat="47.28675" lon="-2.31474">
        <ele>17.799999237061</ele>
        <time>2022-04-10T07:38:57.000Z</time>
      </trkpt>
      <trkpt lat="47.28685" lon="-2.31489">
        <ele>17.39999961853</ele>
        <time>2022-04-10T07:39:00.000Z</time>
      </trkpt>
      <trkpt lat="47.28689" lon="-2.31492">
        <ele>17</ele>
        <time>2022-04-10T07:39:01.000Z</time>
      </trkpt>
      <trkpt lat="47.28694" lon="-2.31494">
        <ele>16.60000038147</ele>
        <time>2022-04-10T07:39:02.000Z</time>
      </trkpt>
      <trkpt lat="47.28699" lon="-2.31494">
        <ele>16.200000762939</ele>
        <time>2022-04-10T07:39:03.000Z</time>
      </trkpt>
      <trkpt lat="47.28704" lon="-2.31493">
        <ele>15.800000190735</ele>
        <time>2022-04-10T07:39:04.000Z</time>
      </trkpt>
      <trkpt lat="47.28713" lon="-2.3149">
        <ele>15.800000190735</ele>
        <time>2022-04-10T07:39:06.000Z</time>
      </trkpt>
      <trkpt lat="47.28723" lon="-2.31485">
        <ele>15.800000190735</ele>
        <time>2022-04-10T07:39:08.000Z</time>
      </trkpt>
      <trkpt lat="47.28756" lon="-2.31466">
        <ele>15.800000190735</ele>
        <time>2022-04-10T07:39:15.000Z</time>
      </trkpt>
      <trkpt lat="47.28789" lon="-2.31448">
        <ele>15.800000190735</ele>
        <time>2022-04-10T07:39:22.000Z</time>
      </trkpt>
      <trkpt lat="47.28833" lon="-2.31417">
        <ele>15.800000190735</ele>
        <time>2022-04-10T07:39:31.000Z</time>
      </trkpt>
      <trkpt lat="47.28874" lon="-2.31397">
        <ele>15.800000190735</ele>
        <time>2022-04-10T07:39:39.000Z</time>
      </trkpt>
      <trkpt lat="47.28896" lon="-2.31392">
        <ele>15.800000190735</ele>
        <time>2022-04-10T07:39:43.000Z</time>
      </trkpt>
      <trkpt lat="47.28907" lon="-2.31392">
        <ele>15.800000190735</ele>
        <time>2022-04-10T07:39:45.000Z</time>
      </trkpt>
      <trkpt lat="47.28951" lon="-2.31385">
        <ele>15.800000190735</ele>
        <time>2022-04-10T07:39:53.000Z</time>
      </trkpt>
      <trkpt lat="47.28974" lon="-2.31364">
        <ele>15.800000190735</ele>
        <time>2022-04-10T07:39:58.000Z</time>
      </trkpt>
      <trkpt lat="47.28979" lon="-2.31359">
        <ele>15.800000190735</ele>
        <time>2022-04-10T07:39:59.000Z</time>
      </trkpt>
      <trkpt lat="47.28998" lon="-2.31327">
        <ele>15.39999961853</ele>
        <time>2022-04-10T07:40:04.000Z</time>
      </trkpt>
      <trkpt lat="47.29002" lon="-2.3132">
        <ele>15</ele>
        <time>2022-04-10T07:40:05.000Z</time>
      </trkpt>
      <trkpt lat="47.29006" lon="-2.31312">
        <ele>14.60000038147</ele>
        <time>2022-04-10T07:40:06.000Z</time>
      </trkpt>
      <trkpt lat="47.29009" lon="-2.31304">
        <ele>13.800000190735</ele>
        <time>2022-04-10T07:40:07.000Z</time>
      </trkpt>
      <trkpt lat="47.29019" lon="-2.3128">
        <ele>13.800000190735</ele>
        <time>2022-04-10T07:40:10.000Z</time>
      </trkpt>
      <trkpt lat="47.29042" lon="-2.31222">
        <ele>13.800000190735</ele>
        <time>2022-04-10T07:40:17.000Z</time>
      </trkpt>
      <trkpt lat="47.29042" lon="-2.31183">
        <ele>13.800000190735</ele>
        <time>2022-04-10T07:40:21.000Z</time>
      </trkpt>
      <trkpt lat="47.29041" lon="-2.31174">
        <ele>13.800000190735</ele>
        <time>2022-04-10T07:40:22.000Z</time>
      </trkpt>
      <trkpt lat="47.29035" lon="-2.31115">
        <ele>13.800000190735</ele>
        <time>2022-04-10T07:40:28.000Z</time>
      </trkpt>
      <trkpt lat="47.29033" lon="-2.31072">
        <ele>12.800000190735</ele>
        <time>2022-04-10T07:40:32.000Z</time>
      </trkpt>
      <trkpt lat="47.29032" lon="-2.3106">
        <ele>12.39999961853</ele>
        <time>2022-04-10T07:40:33.000Z</time>
      </trkpt>
      <trkpt lat="47.29032" lon="-2.31049">
        <ele>12</ele>
        <time>2022-04-10T07:40:34.000Z</time>
      </trkpt>
      <trkpt lat="47.29032" lon="-2.31037">
        <ele>11.39999961853</ele>
        <time>2022-04-10T07:40:35.000Z</time>
      </trkpt>
      <trkpt lat="47.29033" lon="-2.30991">
        <ele>11</ele>
        <time>2022-04-10T07:40:39.000Z</time>
      </trkpt>
      <trkpt lat="47.29033" lon="-2.30979">
        <ele>10.60000038147</ele>
        <time>2022-04-10T07:40:40.000Z</time>
      </trkpt>
      <trkpt lat="47.29033" lon="-2.30967">
        <ele>10.199999809265</ele>
        <time>2022-04-10T07:40:41.000Z</time>
      </trkpt>
      <trkpt lat="47.29033" lon="-2.30955">
        <ele>9.8000001907349</ele>
        <time>2022-04-10T07:40:42.000Z</time>
      </trkpt>
      <trkpt lat="47.29032" lon="-2.30944">
        <ele>9.3999996185303</ele>
        <time>2022-04-10T07:40:43.000Z</time>
      </trkpt>
      <trkpt lat="47.29032" lon="-2.3092">
        <ele>8.8000001907349</ele>
        <time>2022-04-10T07:40:45.000Z</time>
      </trkpt>
      <trkpt lat="47.29031" lon="-2.30909">
        <ele>8.3999996185303</ele>
        <time>2022-04-10T07:40:46.000Z</time>
      </trkpt>
      <trkpt lat="47.2903" lon="-2.30897">
        <ele>8</ele>
        <time>2022-04-10T07:40:47.000Z</time>
      </trkpt>
      <trkpt lat="47.29029" lon="-2.30884">
        <ele>7.5999999046326</ele>
        <time>2022-04-10T07:40:48.000Z</time>
      </trkpt>
      <trkpt lat="47.29028" lon="-2.30872">
        <ele>7</ele>
        <time>2022-04-10T07:40:49.000Z</time>
      </trkpt>
      <trkpt lat="47.29027" lon="-2.3086">
        <ele>6.4000000953674</ele>
        <time>2022-04-10T07:40:50.000Z</time>
      </trkpt>
      <trkpt lat="47.29025" lon="-2.30848">
        <ele>6</ele>
        <time>2022-04-10T07:40:51.000Z</time>
      </trkpt>
      <trkpt lat="47.29024" lon="-2.30836">
        <ele>5.4000000953674</ele>
        <time>2022-04-10T07:40:52.000Z</time>
      </trkpt>
      <trkpt lat="47.29022" lon="-2.30825">
        <ele>5</ele>
        <time>2022-04-10T07:40:53.000Z</time>
      </trkpt>
      <trkpt lat="47.29019" lon="-2.30802">
        <ele>4.4000000953674</ele>
        <time>2022-04-10T07:40:55.000Z</time>
      </trkpt>
      <trkpt lat="47.29017" lon="-2.30791">
        <ele>3.5999999046326</ele>
        <time>2022-04-10T07:40:56.000Z</time>
      </trkpt>
      <trkpt lat="47.29014" lon="-2.3078">
        <ele>3.2000000476837</ele>
        <time>2022-04-10T07:40:57.000Z</time>
      </trkpt>
      <trkpt lat="47.29011" lon="-2.3077">
        <ele>2.7999999523163</ele>
        <time>2022-04-10T07:40:58.000Z</time>
      </trkpt>
      <trkpt lat="47.29008" lon="-2.3076">
        <ele>2.7999999523163</ele>
        <time>2022-04-10T07:40:59.000Z</time>
      </trkpt>
      <trkpt lat="47.29006" lon="-2.30749">
        <ele>2.7999999523163</ele>
        <time>2022-04-10T07:41:00.000Z</time>
      </trkpt>
      <trkpt lat="47.29004" lon="-2.30717">
        <ele>2.7999999523163</ele>
        <time>2022-04-10T07:41:03.000Z</time>
      </trkpt>
      <trkpt lat="47.29004" lon="-2.30707">
        <ele>2.4000000953674</ele>
        <time>2022-04-10T07:41:04.000Z</time>
      </trkpt>
      <trkpt lat="47.29004" lon="-2.30697">
        <ele>2</ele>
        <time>2022-04-10T07:41:05.000Z</time>
      </trkpt>
      <trkpt lat="47.29004" lon="-2.30688">
        <ele>1.3999999761581</ele>
        <time>2022-04-10T07:41:06.000Z</time>
      </trkpt>
      <trkpt lat="47.29004" lon="-2.30679">
        <ele>1</ele>
        <time>2022-04-10T07:41:07.000Z</time>
      </trkpt>
      <trkpt lat="47.29004" lon="-2.3067">
        <ele>0.60000002384186</ele>
        <time>2022-04-10T07:41:08.000Z</time>
      </trkpt>
      <trkpt lat="47.29004" lon="-2.30653">
        <ele>0.60000002384186</ele>
        <time>2022-04-10T07:41:10.000Z</time>
      </trkpt>
      <trkpt lat="47.29003" lon="-2.30646">
        <ele>0.60000002384186</ele>
        <time>2022-04-10T07:41:11.000Z</time>
      </trkpt>
      <trkpt lat="47.28999" lon="-2.30628">
        <ele>0.60000002384186</ele>
        <time>2022-04-10T07:41:14.000Z</time>
      </trkpt>
      <trkpt lat="47.29002" lon="-2.30614">
        <ele>0.60000002384186</ele>
        <time>2022-04-10T07:41:17.000Z</time>
      </trkpt>
      <trkpt lat="47.29003" lon="-2.30598">
        <ele>0.60000002384186</ele>
        <time>2022-04-10T07:41:21.000Z</time>
      </trkpt>
      <trkpt lat="47.28998" lon="-2.30571">
        <ele>0.60000002384186</ele>
        <time>2022-04-10T07:41:27.000Z</time>
      </trkpt>
      <trkpt lat="47.28993" lon="-2.30526">
        <ele>0.60000002384186</ele>
        <time>2022-04-10T07:41:34.000Z</time>
      </trkpt>
      <trkpt lat="47.28987" lon="-2.30471">
        <ele>0.60000002384186</ele>
        <time>2022-04-10T07:41:42.000Z</time>
      </trkpt>
      <trkpt lat="47.28983" lon="-2.30448">
        <ele>0.60000002384186</ele>
        <time>2022-04-10T07:41:45.000Z</time>
      </trkpt>
      <trkpt lat="47.28982" lon="-2.3044">
        <ele>0.60000002384186</ele>
        <time>2022-04-10T07:41:46.000Z</time>
      </trkpt>
      <trkpt lat="47.2898" lon="-2.30422">
        <ele>0.60000002384186</ele>
        <time>2022-04-10T07:41:48.000Z</time>
      </trkpt>
      <trkpt lat="47.28977" lon="-2.30396">
        <ele>0.60000002384186</ele>
        <time>2022-04-10T07:41:51.000Z</time>
      </trkpt>
      <trkpt lat="47.28977" lon="-2.30387">
        <ele>0.60000002384186</ele>
        <time>2022-04-10T07:41:52.000Z</time>
      </trkpt>
      <trkpt lat="47.28976" lon="-2.30332">
        <ele>0.60000002384186</ele>
        <time>2022-04-10T07:41:58.000Z</time>
      </trkpt>
      <trkpt lat="47.28973" lon="-2.30268">
        <ele>0.60000002384186</ele>
        <time>2022-04-10T07:42:05.000Z</time>
      </trkpt>
      <trkpt lat="47.28985" lon="-2.30256">
        <ele>0.60000002384186</ele>
        <time>2022-04-10T07:42:08.000Z</time>
      </trkpt>
      <trkpt lat="47.29001" lon="-2.30255">
        <ele>0.60000002384186</ele>
        <time>2022-04-10T07:42:11.000Z</time>
      </trkpt>
      <trkpt lat="47.29007" lon="-2.30254">
        <ele>0.60000002384186</ele>
        <time>2022-04-10T07:42:12.000Z</time>
      </trkpt>
      <trkpt lat="47.29013" lon="-2.30253">
        <ele>0.20000000298023</ele>
        <time>2022-04-10T07:42:13.000Z</time>
      </trkpt>
      <trkpt lat="47.29018" lon="-2.30251">
        <ele>-0.20000000298023</ele>
        <time>2022-04-10T07:42:14.000Z</time>
      </trkpt>
      <trkpt lat="47.29024" lon="-2.30249">
        <ele>-0.80000001192093</ele>
        <time>2022-04-10T07:42:15.000Z</time>
      </trkpt>
      <trkpt lat="47.29029" lon="-2.30248">
        <ele>-1.2000000476837</ele>
        <time>2022-04-10T07:42:16.000Z</time>
      </trkpt>
      <trkpt lat="47.29035" lon="-2.30247">
        <ele>-1.6000000238419</ele>
        <time>2022-04-10T07:42:17.000Z</time>
      </trkpt>
      <trkpt lat="47.29046" lon="-2.30245">
        <ele>-1.6000000238419</ele>
        <time>2022-04-10T07:42:19.000Z</time>
      </trkpt>
      <trkpt lat="47.29062" lon="-2.3024">
        <ele>-1.6000000238419</ele>
        <time>2022-04-10T07:42:22.000Z</time>
      </trkpt>
      <trkpt lat="47.29073" lon="-2.30232">
        <ele>-1.6000000238419</ele>
        <time>2022-04-10T07:42:24.000Z</time>
      </trkpt>
      <trkpt lat="47.29085" lon="-2.30226">
        <ele>-1.6000000238419</ele>
        <time>2022-04-10T07:42:26.000Z</time>
      </trkpt>
      <trkpt lat="47.29109" lon="-2.30214">
        <ele>-1.6000000238419</ele>
        <time>2022-04-10T07:42:30.000Z</time>
      </trkpt>
      <trkpt lat="47.29157" lon="-2.30189">
        <ele>-1.6000000238419</ele>
        <time>2022-04-10T07:42:38.000Z</time>
      </trkpt>
      <trkpt lat="47.29204" lon="-2.30162">
        <ele>-1.6000000238419</ele>
        <time>2022-04-10T07:42:46.000Z</time>
      </trkpt>
      <trkpt lat="47.29248" lon="-2.30145">
        <ele>-1.6000000238419</ele>
        <time>2022-04-10T07:42:53.000Z</time>
      </trkpt>
      <trkpt lat="47.29254" lon="-2.30144">
        <ele>-2</ele>
        <time>2022-04-10T07:42:54.000Z</time>
      </trkpt>
      <trkpt lat="47.2926" lon="-2.30142">
        <ele>-2.4000000953674</ele>
        <time>2022-04-10T07:42:55.000Z</time>
      </trkpt>
      <trkpt lat="47.29266" lon="-2.3014">
        <ele>-2.7999999523163</ele>
        <time>2022-04-10T07:42:56.000Z</time>
      </trkpt>
      <trkpt lat="47.29272" lon="-2.30139">
        <ele>-3.2000000476837</ele>
        <time>2022-04-10T07:42:57.000Z</time>
      </trkpt>
      <trkpt lat="47.29278" lon="-2.30139">
        <ele>-3.5999999046326</ele>
        <time>2022-04-10T07:42:58.000Z</time>
      </trkpt>
      <trkpt lat="47.29284" lon="-2.30138">
        <ele>-3.5999999046326</ele>
        <time>2022-04-10T07:42:59.000Z</time>
      </trkpt>
      <trkpt lat="47.29323" lon="-2.30136">
        <ele>-3.5999999046326</ele>
        <time>2022-04-10T07:43:06.000Z</time>
      </trkpt>
      <trkpt lat="47.2933" lon="-2.30133">
        <ele>-3.5999999046326</ele>
        <time>2022-04-10T07:43:08.000Z</time>
      </trkpt>
      <trkpt lat="47.29331" lon="-2.30129">
        <ele>-3.5999999046326</ele>
        <time>2022-04-10T07:43:09.000Z</time>
      </trkpt>
      <trkpt lat="47.29339" lon="-2.30104">
        <ele>-3.5999999046326</ele>
        <time>2022-04-10T07:43:14.000Z</time>
      </trkpt>
      <trkpt lat="47.29344" lon="-2.30062">
        <ele>-3.5999999046326</ele>
        <time>2022-04-10T07:43:20.000Z</time>
      </trkpt>
      <trkpt lat="47.29347" lon="-2.30017">
        <ele>-3.5999999046326</ele>
        <time>2022-04-10T07:43:27.000Z</time>
      </trkpt>
      <trkpt lat="47.2935" lon="-2.30004">
        <ele>-3.5999999046326</ele>
        <time>2022-04-10T07:43:30.000Z</time>
      </trkpt>
      <trkpt lat="47.29353" lon="-2.30004">
        <ele>-3.5999999046326</ele>
        <time>2022-04-10T07:43:31.000Z</time>
      </trkpt>
      <trkpt lat="47.29368" lon="-2.30013">
        <ele>-3.5999999046326</ele>
        <time>2022-04-10T07:43:35.000Z</time>
      </trkpt>
      <trkpt lat="47.29397" lon="-2.30024">
        <ele>-3.5999999046326</ele>
        <time>2022-04-10T07:43:40.000Z</time>
      </trkpt>
      <trkpt lat="47.29416" lon="-2.3003">
        <ele>-3.5999999046326</ele>
        <time>2022-04-10T07:43:43.000Z</time>
      </trkpt>
      <trkpt lat="47.29429" lon="-2.3003">
        <ele>-3.5999999046326</ele>
        <time>2022-04-10T07:43:45.000Z</time>
      </trkpt>
      <trkpt lat="47.29484" lon="-2.3003">
        <ele>-3.5999999046326</ele>
        <time>2022-04-10T07:43:53.000Z</time>
      </trkpt>
      <trkpt lat="47.29515" lon="-2.30026">
        <ele>-3.5999999046326</ele>
        <time>2022-04-10T07:43:58.000Z</time>
      </trkpt>
      <trkpt lat="47.29543" lon="-2.30028">
        <ele>-3.5999999046326</ele>
        <time>2022-04-10T07:44:02.000Z</time>
      </trkpt>
      <trkpt lat="47.29557" lon="-2.30022">
        <ele>-4</ele>
        <time>2022-04-10T07:44:04.000Z</time>
      </trkpt>
      <trkpt lat="47.29564" lon="-2.30019">
        <ele>-4.4000000953674</ele>
        <time>2022-04-10T07:44:05.000Z</time>
      </trkpt>
      <trkpt lat="47.2957" lon="-2.30017">
        <ele>-4.8000001907349</ele>
        <time>2022-04-10T07:44:06.000Z</time>
      </trkpt>
      <trkpt lat="47.29577" lon="-2.30014">
        <ele>-5.1999998092651</ele>
        <time>2022-04-10T07:44:07.000Z</time>
      </trkpt>
      <trkpt lat="47.29583" lon="-2.30012">
        <ele>-5.5999999046326</ele>
        <time>2022-04-10T07:44:08.000Z</time>
      </trkpt>
      <trkpt lat="47.29627" lon="-2.29998">
        <ele>-5.5999999046326</ele>
        <time>2022-04-10T07:44:15.000Z</time>
      </trkpt>
      <trkpt lat="47.29649" lon="-2.29987">
        <ele>-5.5999999046326</ele>
        <time>2022-04-10T07:44:19.000Z</time>
      </trkpt>
      <trkpt lat="47.29653" lon="-2.29988">
        <ele>-5.5999999046326</ele>
        <time>2022-04-10T07:44:20.000Z</time>
      </trkpt>
      <trkpt lat="47.29669" lon="-2.30001">
        <ele>-5.5999999046326</ele>
        <time>2022-04-10T07:44:23.000Z</time>
      </trkpt>
      <trkpt lat="47.29689" lon="-2.30005">
        <ele>-5.5999999046326</ele>
        <time>2022-04-10T07:44:26.000Z</time>
      </trkpt>
      <trkpt lat="47.29697" lon="-2.30005">
        <ele>-5.5999999046326</ele>
        <time>2022-04-10T07:44:27.000Z</time>
      </trkpt>
      <trkpt lat="47.2973" lon="-2.29998">
        <ele>-5.5999999046326</ele>
        <time>2022-04-10T07:44:32.000Z</time>
      </trkpt>
      <trkpt lat="47.29765" lon="-2.29976">
        <ele>-5.5999999046326</ele>
        <time>2022-04-10T07:44:38.000Z</time>
      </trkpt>
      <trkpt lat="47.29793" lon="-2.29954">
        <ele>-5.5999999046326</ele>
        <time>2022-04-10T07:44:43.000Z</time>
      </trkpt>
      <trkpt lat="47.29799" lon="-2.29953">
        <ele>-5.5999999046326</ele>
        <time>2022-04-10T07:44:44.000Z</time>
      </trkpt>
      <trkpt lat="47.29818" lon="-2.29955">
        <ele>-5.5999999046326</ele>
        <time>2022-04-10T07:44:47.000Z</time>
      </trkpt>
      <trkpt lat="47.29831" lon="-2.29954">
        <ele>-5.5999999046326</ele>
        <time>2022-04-10T07:44:49.000Z</time>
      </trkpt>
      <trkpt lat="47.29871" lon="-2.29947">
        <ele>-5.5999999046326</ele>
        <time>2022-04-10T07:44:55.000Z</time>
      </trkpt>
      <trkpt lat="47.29898" lon="-2.29941">
        <ele>-5.5999999046326</ele>
        <time>2022-04-10T07:44:59.000Z</time>
      </trkpt>
      <trkpt lat="47.29908" lon="-2.29931">
        <ele>-5.5999999046326</ele>
        <time>2022-04-10T07:45:01.000Z</time>
      </trkpt>
      <trkpt lat="47.2991" lon="-2.29909">
        <ele>-5.5999999046326</ele>
        <time>2022-04-10T07:45:04.000Z</time>
      </trkpt>
      <trkpt lat="47.29909" lon="-2.29901">
        <ele>-5.5999999046326</ele>
        <time>2022-04-10T07:45:05.000Z</time>
      </trkpt>
      <trkpt lat="47.29904" lon="-2.29858">
        <ele>-5.5999999046326</ele>
        <time>2022-04-10T07:45:11.000Z</time>
      </trkpt>
      <trkpt lat="47.29908" lon="-2.29827">
        <ele>-5.5999999046326</ele>
        <time>2022-04-10T07:45:15.000Z</time>
      </trkpt>
      <trkpt lat="47.2991" lon="-2.29821">
        <ele>-5.5999999046326</ele>
        <time>2022-04-10T07:45:16.000Z</time>
      </trkpt>
      <trkpt lat="47.29916" lon="-2.29813">
        <ele>-5.5999999046326</ele>
        <time>2022-04-10T07:45:18.000Z</time>
      </trkpt>
      <trkpt lat="47.29926" lon="-2.29806">
        <ele>-5.5999999046326</ele>
        <time>2022-04-10T07:45:21.000Z</time>
      </trkpt>
      <trkpt lat="47.29929" lon="-2.29805">
        <ele>-5.5999999046326</ele>
        <time>2022-04-10T07:45:22.000Z</time>
      </trkpt>
      <trkpt lat="47.29934" lon="-2.29803">
        <ele>-5.5999999046326</ele>
        <time>2022-04-10T07:45:26.000Z</time>
      </trkpt>
      <trkpt lat="47.29935" lon="-2.29801">
        <ele>-5.5999999046326</ele>
        <time>2022-04-10T07:45:28.000Z</time>
      </trkpt>
      <trkpt lat="47.2994" lon="-2.29797">
        <ele>-5.5999999046326</ele>
        <time>2022-04-10T07:45:30.000Z</time>
      </trkpt>
      <trkpt lat="47.29947" lon="-2.29779">
        <ele>-5.5999999046326</ele>
        <time>2022-04-10T07:45:34.000Z</time>
      </trkpt>
      <trkpt lat="47.29942" lon="-2.29764">
        <ele>-5.5999999046326</ele>
        <time>2022-04-10T07:45:37.000Z</time>
      </trkpt>
      <trkpt lat="47.29939" lon="-2.29754">
        <ele>-5.5999999046326</ele>
        <time>2022-04-10T07:45:39.000Z</time>
      </trkpt>
      <trkpt lat="47.29931" lon="-2.29731">
        <ele>-5.5999999046326</ele>
        <time>2022-04-10T07:45:45.000Z</time>
      </trkpt>
      <trkpt lat="47.29923" lon="-2.29706">
        <ele>-5.5999999046326</ele>
        <time>2022-04-10T07:45:51.000Z</time>
      </trkpt>
      <trkpt lat="47.29917" lon="-2.29678">
        <ele>-5.5999999046326</ele>
        <time>2022-04-10T07:45:58.000Z</time>
      </trkpt>
      <trkpt lat="47.29919" lon="-2.29671">
        <ele>-5.5999999046326</ele>
        <time>2022-04-10T07:46:00.000Z</time>
      </trkpt>
      <trkpt lat="47.29923" lon="-2.29667">
        <ele>-5.5999999046326</ele>
        <time>2022-04-10T07:46:02.000Z</time>
      </trkpt>
      <trkpt lat="47.29937" lon="-2.29655">
        <ele>-5.5999999046326</ele>
        <time>2022-04-10T07:46:08.000Z</time>
      </trkpt>
      <trkpt lat="47.2995" lon="-2.29648">
        <ele>-5.5999999046326</ele>
        <time>2022-04-10T07:46:13.000Z</time>
      </trkpt>
      <trkpt lat="47.29972" lon="-2.29642">
        <ele>-5.5999999046326</ele>
        <time>2022-04-10T07:46:20.000Z</time>
      </trkpt>
      <trkpt lat="47.29991" lon="-2.29641">
        <ele>-6</ele>
        <time>2022-04-10T07:46:25.000Z</time>
      </trkpt>
      <trkpt lat="47.29995" lon="-2.29641">
        <ele>-6.4000000953674</ele>
        <time>2022-04-10T07:46:26.000Z</time>
      </trkpt>
      <trkpt lat="47.29998" lon="-2.29641">
        <ele>-6.8000001907349</ele>
        <time>2022-04-10T07:46:27.000Z</time>
      </trkpt>
      <trkpt lat="47.30001" lon="-2.29641">
        <ele>-7.4000000953674</ele>
        <time>2022-04-10T07:46:28.000Z</time>
      </trkpt>
      <trkpt lat="47.30003" lon="-2.2964">
        <ele>-7.8000001907349</ele>
        <time>2022-04-10T07:46:29.000Z</time>
      </trkpt>
      <trkpt lat="47.3001" lon="-2.29637">
        <ele>-7.8000001907349</ele>
        <time>2022-04-10T07:46:32.000Z</time>
      </trkpt>
      <trkpt lat="47.30026" lon="-2.29633">
        <ele>-7.8000001907349</ele>
        <time>2022-04-10T07:46:38.000Z</time>
      </trkpt>
      <trkpt lat="47.30052" lon="-2.29632">
        <ele>-7.8000001907349</ele>
        <time>2022-04-10T07:46:45.000Z</time>
      </trkpt>
      <trkpt lat="47.30077" lon="-2.29639">
        <ele>-7.8000001907349</ele>
        <time>2022-04-10T07:46:51.000Z</time>
      </trkpt>
      <trkpt lat="47.30113" lon="-2.29649">
        <ele>-7.8000001907349</ele>
        <time>2022-04-10T07:46:58.000Z</time>
      </trkpt>
      <trkpt lat="47.30152" lon="-2.29661">
        <ele>-7.8000001907349</ele>
        <time>2022-04-10T07:47:05.000Z</time>
      </trkpt>
      <trkpt lat="47.30191" lon="-2.29681">
        <ele>-7.8000001907349</ele>
        <time>2022-04-10T07:47:12.000Z</time>
      </trkpt>
      <trkpt lat="47.30221" lon="-2.29698">
        <ele>-7.8000001907349</ele>
        <time>2022-04-10T07:47:17.000Z</time>
      </trkpt>
      <trkpt lat="47.30253" lon="-2.29715">
        <ele>-7.8000001907349</ele>
        <time>2022-04-10T07:47:22.000Z</time>
      </trkpt>
      <trkpt lat="47.30259" lon="-2.29717">
        <ele>-7.8000001907349</ele>
        <time>2022-04-10T07:47:23.000Z</time>
      </trkpt>
      <trkpt lat="47.30273" lon="-2.29716">
        <ele>-7.8000001907349</ele>
        <time>2022-04-10T07:47:25.000Z</time>
      </trkpt>
      <trkpt lat="47.3028" lon="-2.29714">
        <ele>-7.8000001907349</ele>
        <time>2022-04-10T07:47:26.000Z</time>
      </trkpt>
      <trkpt lat="47.30299" lon="-2.29708">
        <ele>-7.8000001907349</ele>
        <time>2022-04-10T07:47:29.000Z</time>
      </trkpt>
      <trkpt lat="47.30344" lon="-2.29693">
        <ele>-7.8000001907349</ele>
        <time>2022-04-10T07:47:36.000Z</time>
      </trkpt>
      <trkpt lat="47.3039" lon="-2.2968">
        <ele>-7.8000001907349</ele>
        <time>2022-04-10T07:47:43.000Z</time>
      </trkpt>
      <trkpt lat="47.3044" lon="-2.29664">
        <ele>-7.8000001907349</ele>
        <time>2022-04-10T07:47:51.000Z</time>
      </trkpt>
      <trkpt lat="47.30491" lon="-2.29647">
        <ele>-7.8000001907349</ele>
        <time>2022-04-10T07:48:00.000Z</time>
      </trkpt>
      <trkpt lat="47.30525" lon="-2.29636">
        <ele>-7.8000001907349</ele>
        <time>2022-04-10T07:48:06.000Z</time>
      </trkpt>
      <trkpt lat="47.30578" lon="-2.29622">
        <ele>-7.8000001907349</ele>
        <time>2022-04-10T07:48:15.000Z</time>
      </trkpt>
      <trkpt lat="47.30603" lon="-2.29613">
        <ele>-7.8000001907349</ele>
        <time>2022-04-10T07:48:19.000Z</time>
      </trkpt>
      <trkpt lat="47.30614" lon="-2.29608">
        <ele>-7.8000001907349</ele>
        <time>2022-04-10T07:48:21.000Z</time>
      </trkpt>
      <trkpt lat="47.30656" lon="-2.29595">
        <ele>-7.8000001907349</ele>
        <time>2022-04-10T07:48:28.000Z</time>
      </trkpt>
      <trkpt lat="47.307" lon="-2.29582">
        <ele>-7.8000001907349</ele>
        <time>2022-04-10T07:48:36.000Z</time>
      </trkpt>
      <trkpt lat="47.3072" lon="-2.29575">
        <ele>-7.8000001907349</ele>
        <time>2022-04-10T07:48:40.000Z</time>
      </trkpt>
      <trkpt lat="47.30731" lon="-2.29572">
        <ele>-7.8000001907349</ele>
        <time>2022-04-10T07:48:42.000Z</time>
      </trkpt>
      <trkpt lat="47.30768" lon="-2.2956">
        <ele>-7.8000001907349</ele>
        <time>2022-04-10T07:48:49.000Z</time>
      </trkpt>
      <trkpt lat="47.30795" lon="-2.29552">
        <ele>-7.8000001907349</ele>
        <time>2022-04-10T07:48:54.000Z</time>
      </trkpt>
      <trkpt lat="47.30805" lon="-2.29549">
        <ele>-7.8000001907349</ele>
        <time>2022-04-10T07:48:56.000Z</time>
      </trkpt>
      <trkpt lat="47.30838" lon="-2.29544">
        <ele>-7.4000000953674</ele>
        <time>2022-04-10T07:49:02.000Z</time>
      </trkpt>
      <trkpt lat="47.30843" lon="-2.29544">
        <ele>-7</ele>
        <time>2022-04-10T07:49:03.000Z</time>
      </trkpt>
      <trkpt lat="47.30849" lon="-2.29545">
        <ele>-6.4000000953674</ele>
        <time>2022-04-10T07:49:04.000Z</time>
      </trkpt>
      <trkpt lat="47.30854" lon="-2.29545">
        <ele>-6</ele>
        <time>2022-04-10T07:49:05.000Z</time>
      </trkpt>
      <trkpt lat="47.3086" lon="-2.29547">
        <ele>-5.5999999046326</ele>
        <time>2022-04-10T07:49:06.000Z</time>
      </trkpt>
      <trkpt lat="47.3088" lon="-2.29553">
        <ele>-5.5999999046326</ele>
        <time>2022-04-10T07:49:10.000Z</time>
      </trkpt>
      <trkpt lat="47.30937" lon="-2.2957">
        <ele>-5.5999999046326</ele>
        <time>2022-04-10T07:49:20.000Z</time>
      </trkpt>
      <trkpt lat="47.30973" lon="-2.29582">
        <ele>-5.5999999046326</ele>
        <time>2022-04-10T07:49:26.000Z</time>
      </trkpt>
      <trkpt lat="47.30997" lon="-2.29597">
        <ele>-5.5999999046326</ele>
        <time>2022-04-10T07:49:30.000Z</time>
      </trkpt>
      <trkpt lat="47.31002" lon="-2.29604">
        <ele>-5.5999999046326</ele>
        <time>2022-04-10T07:49:31.000Z</time>
      </trkpt>
      <trkpt lat="47.31019" lon="-2.29636">
        <ele>-5.5999999046326</ele>
        <time>2022-04-10T07:49:35.000Z</time>
      </trkpt>
      <trkpt lat="47.31034" lon="-2.29681">
        <ele>-5.5999999046326</ele>
        <time>2022-04-10T07:49:41.000Z</time>
      </trkpt>
      <trkpt lat="47.31039" lon="-2.29694">
        <ele>-5.5999999046326</ele>
        <time>2022-04-10T07:49:43.000Z</time>
      </trkpt>
      <trkpt lat="47.31049" lon="-2.297">
        <ele>-5.5999999046326</ele>
        <time>2022-04-10T07:49:45.000Z</time>
      </trkpt>
      <trkpt lat="47.31064" lon="-2.2969">
        <ele>-5.5999999046326</ele>
        <time>2022-04-10T07:49:48.000Z</time>
      </trkpt>
      <trkpt lat="47.31074" lon="-2.2968">
        <ele>-5.5999999046326</ele>
        <time>2022-04-10T07:49:50.000Z</time>
      </trkpt>
      <trkpt lat="47.31078" lon="-2.29674">
        <ele>-5.5999999046326</ele>
        <time>2022-04-10T07:49:51.000Z</time>
      </trkpt>
      <trkpt lat="47.31087" lon="-2.29664">
        <ele>-5.5999999046326</ele>
        <time>2022-04-10T07:49:53.000Z</time>
      </trkpt>
      <trkpt lat="47.31113" lon="-2.29632">
        <ele>-5.5999999046326</ele>
        <time>2022-04-10T07:49:58.000Z</time>
      </trkpt>
      <trkpt lat="47.31146" lon="-2.29601">
        <ele>-5.5999999046326</ele>
        <time>2022-04-10T07:50:04.000Z</time>
      </trkpt>
      <trkpt lat="47.31164" lon="-2.29585">
        <ele>-5.5999999046326</ele>
        <time>2022-04-10T07:50:07.000Z</time>
      </trkpt>
      <trkpt lat="47.31167" lon="-2.29576">
        <ele>-5.5999999046326</ele>
        <time>2022-04-10T07:50:08.000Z</time>
      </trkpt>
      <trkpt lat="47.31167" lon="-2.2955">
        <ele>-5.5999999046326</ele>
        <time>2022-04-10T07:50:11.000Z</time>
      </trkpt>
      <trkpt lat="47.31164" lon="-2.29542">
        <ele>-5.5999999046326</ele>
        <time>2022-04-10T07:50:12.000Z</time>
      </trkpt>
      <trkpt lat="47.3115" lon="-2.29503">
        <ele>-5.5999999046326</ele>
        <time>2022-04-10T07:50:17.000Z</time>
      </trkpt>
      <trkpt lat="47.31144" lon="-2.2948">
        <ele>-5.5999999046326</ele>
        <time>2022-04-10T07:50:20.000Z</time>
      </trkpt>
      <trkpt lat="47.31147" lon="-2.29466">
        <ele>-5.5999999046326</ele>
        <time>2022-04-10T07:50:22.000Z</time>
      </trkpt>
      <trkpt lat="47.31162" lon="-2.29445">
        <ele>-5.5999999046326</ele>
        <time>2022-04-10T07:50:26.000Z</time>
      </trkpt>
      <trkpt lat="47.31174" lon="-2.29437">
        <ele>-5.5999999046326</ele>
        <time>2022-04-10T07:50:28.000Z</time>
      </trkpt>
      <trkpt lat="47.31185" lon="-2.29429">
        <ele>-5.5999999046326</ele>
        <time>2022-04-10T07:50:30.000Z</time>
      </trkpt>
      <trkpt lat="47.31217" lon="-2.29408">
        <ele>-5.5999999046326</ele>
        <time>2022-04-10T07:50:36.000Z</time>
      </trkpt>
      <trkpt lat="47.31232" lon="-2.29397">
        <ele>-5.1999998092651</ele>
        <time>2022-04-10T07:50:39.000Z</time>
      </trkpt>
      <trkpt lat="47.31237" lon="-2.29394">
        <ele>-4.8000001907349</ele>
        <time>2022-04-10T07:50:40.000Z</time>
      </trkpt>
      <trkpt lat="47.31242" lon="-2.2939">
        <ele>-4.4000000953674</ele>
        <time>2022-04-10T07:50:41.000Z</time>
      </trkpt>
      <trkpt lat="47.31247" lon="-2.29386">
        <ele>-4</ele>
        <time>2022-04-10T07:50:42.000Z</time>
      </trkpt>
      <trkpt lat="47.31252" lon="-2.29381">
        <ele>-3.5999999046326</ele>
        <time>2022-04-10T07:50:43.000Z</time>
      </trkpt>
      <trkpt lat="47.31256" lon="-2.29375">
        <ele>-3.5999999046326</ele>
        <time>2022-04-10T07:50:44.000Z</time>
      </trkpt>
      <trkpt lat="47.31265" lon="-2.29354">
        <ele>-3.5999999046326</ele>
        <time>2022-04-10T07:50:47.000Z</time>
      </trkpt>
      <trkpt lat="47.31271" lon="-2.29339">
        <ele>-3.5999999046326</ele>
        <time>2022-04-10T07:50:49.000Z</time>
      </trkpt>
      <trkpt lat="47.31281" lon="-2.2932">
        <ele>-3.5999999046326</ele>
        <time>2022-04-10T07:50:52.000Z</time>
      </trkpt>
      <trkpt lat="47.31284" lon="-2.29314">
        <ele>-3.5999999046326</ele>
        <time>2022-04-10T07:50:53.000Z</time>
      </trkpt>
      <trkpt lat="47.31296" lon="-2.29301">
        <ele>-3.5999999046326</ele>
        <time>2022-04-10T07:50:56.000Z</time>
      </trkpt>
      <trkpt lat="47.313" lon="-2.29297">
        <ele>-3.5999999046326</ele>
        <time>2022-04-10T07:50:57.000Z</time>
      </trkpt>
      <trkpt lat="47.3131" lon="-2.29293">
        <ele>-3.5999999046326</ele>
        <time>2022-04-10T07:50:59.000Z</time>
      </trkpt>
      <trkpt lat="47.31319" lon="-2.29293">
        <ele>-3.5999999046326</ele>
        <time>2022-04-10T07:51:01.000Z</time>
      </trkpt>
      <trkpt lat="47.3135" lon="-2.29303">
        <ele>-3.5999999046326</ele>
        <time>2022-04-10T07:51:07.000Z</time>
      </trkpt>
      <trkpt lat="47.31381" lon="-2.29317">
        <ele>-3.5999999046326</ele>
        <time>2022-04-10T07:51:13.000Z</time>
      </trkpt>
      <trkpt lat="47.31401" lon="-2.2933">
        <ele>-3.5999999046326</ele>
        <time>2022-04-10T07:51:17.000Z</time>
      </trkpt>
      <trkpt lat="47.3141" lon="-2.29339">
        <ele>-3.5999999046326</ele>
        <time>2022-04-10T07:51:19.000Z</time>
      </trkpt>
      <trkpt lat="47.31423" lon="-2.29355">
        <ele>-3.2000000476837</ele>
        <time>2022-04-10T07:51:22.000Z</time>
      </trkpt>
      <trkpt lat="47.31426" lon="-2.29361">
        <ele>-2.7999999523163</ele>
        <time>2022-04-10T07:51:23.000Z</time>
      </trkpt>
      <trkpt lat="47.31429" lon="-2.29366">
        <ele>-2.4000000953674</ele>
        <time>2022-04-10T07:51:24.000Z</time>
      </trkpt>
      <trkpt lat="47.31432" lon="-2.29372">
        <ele>-2</ele>
        <time>2022-04-10T07:51:25.000Z</time>
      </trkpt>
      <trkpt lat="47.31435" lon="-2.29377">
        <ele>-1.6000000238419</ele>
        <time>2022-04-10T07:51:26.000Z</time>
      </trkpt>
      <trkpt lat="47.31448" lon="-2.29397">
        <ele>-1.6000000238419</ele>
        <time>2022-04-10T07:51:30.000Z</time>
      </trkpt>
      <trkpt lat="47.31453" lon="-2.29401">
        <ele>-1.6000000238419</ele>
        <time>2022-04-10T07:51:31.000Z</time>
      </trkpt>
      <trkpt lat="47.31469" lon="-2.29401">
        <ele>-1.6000000238419</ele>
        <time>2022-04-10T07:51:34.000Z</time>
      </trkpt>
      <trkpt lat="47.31474" lon="-2.29399">
        <ele>-1.6000000238419</ele>
        <time>2022-04-10T07:51:35.000Z</time>
      </trkpt>
      <trkpt lat="47.31485" lon="-2.29396">
        <ele>-1.6000000238419</ele>
        <time>2022-04-10T07:51:37.000Z</time>
      </trkpt>
      <trkpt lat="47.31494" lon="-2.29395">
        <ele>-1.6000000238419</ele>
        <time>2022-04-10T07:51:39.000Z</time>
      </trkpt>
      <trkpt lat="47.31502" lon="-2.29399">
        <ele>-1.2000000476837</ele>
        <time>2022-04-10T07:51:41.000Z</time>
      </trkpt>
      <trkpt lat="47.31505" lon="-2.29404">
        <ele>-0.80000001192093</ele>
        <time>2022-04-10T07:51:42.000Z</time>
      </trkpt>
      <trkpt lat="47.31508" lon="-2.29408">
        <ele>-0.40000000596046</ele>
        <time>2022-04-10T07:51:43.000Z</time>
      </trkpt>
      <trkpt lat="47.31511" lon="-2.29414">
        <ele>12.3</ele>
        <time>2022-04-10T07:51:44.000Z</time>
      </trkpt>
      <trkpt lat="47.31514" lon="-2.2942">
        <ele>0.40000000596046</ele>
        <time>2022-04-10T07:51:45.000Z</time>
      </trkpt>
      <trkpt lat="47.31519" lon="-2.29434">
        <ele>0.40000000596046</ele>
        <time>2022-04-10T07:51:47.000Z</time>
      </trkpt>
      <trkpt lat="47.31532" lon="-2.29471">
        <ele>0.40000000596046</ele>
        <time>2022-04-10T07:51:52.000Z</time>
      </trkpt>
      <trkpt lat="47.31534" lon="-2.29478">
        <ele>0.80000001192093</ele>
        <time>2022-04-10T07:51:53.000Z</time>
      </trkpt>
      <trkpt lat="47.31537" lon="-2.29484">
        <ele>1.2000000476837</ele>
        <time>2022-04-10T07:51:54.000Z</time>
      </trkpt>
      <trkpt lat="47.31538" lon="-2.29491">
        <ele>1.6000000238419</ele>
        <time>2022-04-10T07:51:55.000Z</time>
      </trkpt>
      <trkpt lat="47.3154" lon="-2.29498">
        <ele>2</ele>
        <time>2022-04-10T07:51:56.000Z</time>
      </trkpt>
      <trkpt lat="47.31541" lon="-2.29504">
        <ele>2.4000000953674</ele>
        <time>2022-04-10T07:51:57.000Z</time>
      </trkpt>
      <trkpt lat="47.31542" lon="-2.29511">
        <ele>2.4000000953674</ele>
        <time>2022-04-10T07:51:58.000Z</time>
      </trkpt>
      <trkpt lat="47.31544" lon="-2.29518">
        <ele>2.4000000953674</ele>
        <time>2022-04-10T07:51:59.000Z</time>
      </trkpt>
      <trkpt lat="47.31547" lon="-2.29531">
        <ele>2.4000000953674</ele>
        <time>2022-04-10T07:52:01.000Z</time>
      </trkpt>
      <trkpt lat="47.31553" lon="-2.29543">
        <ele>2.4000000953674</ele>
        <time>2022-04-10T07:52:03.000Z</time>
      </trkpt>
      <trkpt lat="47.31573" lon="-2.29575">
        <ele>2.4000000953674</ele>
        <time>2022-04-10T07:52:09.000Z</time>
      </trkpt>
      <trkpt lat="47.31577" lon="-2.2958">
        <ele>2.4000000953674</ele>
        <time>2022-04-10T07:52:10.000Z</time>
      </trkpt>
      <trkpt lat="47.31592" lon="-2.29597">
        <ele>2.4000000953674</ele>
        <time>2022-04-10T07:52:14.000Z</time>
      </trkpt>
      <trkpt lat="47.31612" lon="-2.29617">
        <ele>2.4000000953674</ele>
        <time>2022-04-10T07:52:19.000Z</time>
      </trkpt>
      <trkpt lat="47.31616" lon="-2.29622">
        <ele>2.4000000953674</ele>
        <time>2022-04-10T07:52:20.000Z</time>
      </trkpt>
      <trkpt lat="47.31632" lon="-2.29652">
        <ele>2.7999999523163</ele>
        <time>2022-04-10T07:52:25.000Z</time>
      </trkpt>
      <trkpt lat="47.31634" lon="-2.29658">
        <ele>3.2000000476837</ele>
        <time>2022-04-10T07:52:26.000Z</time>
      </trkpt>
      <trkpt lat="47.31637" lon="-2.29665">
        <ele>3.5999999046326</ele>
        <time>2022-04-10T07:52:27.000Z</time>
      </trkpt>
      <trkpt lat="47.3164" lon="-2.29673">
        <ele>4</ele>
        <time>2022-04-10T07:52:28.000Z</time>
      </trkpt>
      <trkpt lat="47.31642" lon="-2.2968">
        <ele>4.5999999046326</ele>
        <time>2022-04-10T07:52:29.000Z</time>
      </trkpt>
      <trkpt lat="47.31652" lon="-2.29708">
        <ele>4.5999999046326</ele>
        <time>2022-04-10T07:52:33.000Z</time>
      </trkpt>
      <trkpt lat="47.31661" lon="-2.29728">
        <ele>4.5999999046326</ele>
        <time>2022-04-10T07:52:36.000Z</time>
      </trkpt>
      <trkpt lat="47.3167" lon="-2.29737">
        <ele>4.5999999046326</ele>
        <time>2022-04-10T07:52:38.000Z</time>
      </trkpt>
      <trkpt lat="47.31686" lon="-2.29735">
        <ele>4.5999999046326</ele>
        <time>2022-04-10T07:52:41.000Z</time>
      </trkpt>
      <trkpt lat="47.31691" lon="-2.29733">
        <ele>4.5999999046326</ele>
        <time>2022-04-10T07:52:42.000Z</time>
      </trkpt>
      <trkpt lat="47.31707" lon="-2.29728">
        <ele>4.5999999046326</ele>
        <time>2022-04-10T07:52:45.000Z</time>
      </trkpt>
      <trkpt lat="47.31712" lon="-2.29724">
        <ele>4.5999999046326</ele>
        <time>2022-04-10T07:52:46.000Z</time>
      </trkpt>
      <trkpt lat="47.31727" lon="-2.29711">
        <ele>4.5999999046326</ele>
        <time>2022-04-10T07:52:49.000Z</time>
      </trkpt>
      <trkpt lat="47.31743" lon="-2.29699">
        <ele>4.5999999046326</ele>
        <time>2022-04-10T07:52:52.000Z</time>
      </trkpt>
      <trkpt lat="47.31782" lon="-2.29669">
        <ele>4.5999999046326</ele>
        <time>2022-04-10T07:52:59.000Z</time>
      </trkpt>
      <trkpt lat="47.31814" lon="-2.29647">
        <ele>4.5999999046326</ele>
        <time>2022-04-10T07:53:05.000Z</time>
      </trkpt>
      <trkpt lat="47.31841" lon="-2.29631">
        <ele>4.5999999046326</ele>
        <time>2022-04-10T07:53:11.000Z</time>
      </trkpt>
      <trkpt lat="47.31857" lon="-2.2962">
        <ele>4.5999999046326</ele>
        <time>2022-04-10T07:53:17.000Z</time>
      </trkpt>
      <trkpt lat="47.31869" lon="-2.29605">
        <ele>4.5999999046326</ele>
        <time>2022-04-10T07:53:23.000Z</time>
      </trkpt>
      <trkpt lat="47.31874" lon="-2.29588">
        <ele>4.5999999046326</ele>
        <time>2022-04-10T07:53:28.000Z</time>
      </trkpt>
      <trkpt lat="47.3187" lon="-2.29571">
        <ele>4.5999999046326</ele>
        <time>2022-04-10T07:53:33.000Z</time>
      </trkpt>
      <trkpt lat="47.31864" lon="-2.2955">
        <ele>4.5999999046326</ele>
        <time>2022-04-10T07:53:40.000Z</time>
      </trkpt>
      <trkpt lat="47.31858" lon="-2.29524">
        <ele>4.5999999046326</ele>
        <time>2022-04-10T07:53:48.000Z</time>
      </trkpt>
      <trkpt lat="47.31851" lon="-2.29505">
        <ele>4.5999999046326</ele>
        <time>2022-04-10T07:53:55.000Z</time>
      </trkpt>
      <trkpt lat="47.31847" lon="-2.29482">
        <ele>4.5999999046326</ele>
        <time>2022-04-10T07:54:03.000Z</time>
      </trkpt>
      <trkpt lat="47.31848" lon="-2.29464">
        <ele>4.5999999046326</ele>
        <time>2022-04-10T07:54:08.000Z</time>
      </trkpt>
      <trkpt lat="47.31852" lon="-2.29445">
        <ele>4.5999999046326</ele>
        <time>2022-04-10T07:54:15.000Z</time>
      </trkpt>
      <trkpt lat="47.31855" lon="-2.29429">
        <ele>4.5999999046326</ele>
        <time>2022-04-10T07:54:21.000Z</time>
      </trkpt>
      <trkpt lat="47.31854" lon="-2.29414">
        <ele>4.5999999046326</ele>
        <time>2022-04-10T07:54:25.000Z</time>
      </trkpt>
      <trkpt lat="47.31848" lon="-2.29385">
        <ele>4.5999999046326</ele>
        <time>2022-04-10T07:54:31.000Z</time>
      </trkpt>
      <trkpt lat="47.31838" lon="-2.2934">
        <ele>4.5999999046326</ele>
        <time>2022-04-10T07:54:38.000Z</time>
      </trkpt>
      <trkpt lat="47.31834" lon="-2.29302">
        <ele>4</ele>
        <time>2022-04-10T07:54:43.000Z</time>
      </trkpt>
      <trkpt lat="47.31834" lon="-2.29294">
        <ele>3.5999999046326</ele>
        <time>2022-04-10T07:54:44.000Z</time>
      </trkpt>
      <trkpt lat="47.31833" lon="-2.29286">
        <ele>3.2000000476837</ele>
        <time>2022-04-10T07:54:45.000Z</time>
      </trkpt>
      <trkpt lat="47.31833" lon="-2.29277">
        <ele>2.7999999523163</ele>
        <time>2022-04-10T07:54:46.000Z</time>
      </trkpt>
      <trkpt lat="47.31831" lon="-2.29269">
        <ele>2.4000000953674</ele>
        <time>2022-04-10T07:54:47.000Z</time>
      </trkpt>
      <trkpt lat="47.31827" lon="-2.29243">
        <ele>2</ele>
        <time>2022-04-10T07:54:50.000Z</time>
      </trkpt>
      <trkpt lat="47.31825" lon="-2.29234">
        <ele>1.6000000238419</ele>
        <time>2022-04-10T07:54:51.000Z</time>
      </trkpt>
      <trkpt lat="47.31824" lon="-2.29226">
        <ele>1.2000000476837</ele>
        <time>2022-04-10T07:54:52.000Z</time>
      </trkpt>
      <trkpt lat="47.31824" lon="-2.29218">
        <ele>0.80000001192093</ele>
        <time>2022-04-10T07:54:53.000Z</time>
      </trkpt>
      <trkpt lat="47.31824" lon="-2.2921">
        <ele>0.40000000596046</ele>
        <time>2022-04-10T07:54:54.000Z</time>
      </trkpt>
      <trkpt lat="47.31824" lon="-2.29195">
        <ele>0.40000000596046</ele>
        <time>2022-04-10T07:54:56.000Z</time>
      </trkpt>
      <trkpt lat="47.31825" lon="-2.29188">
        <ele>9.3</ele>
        <time>2022-04-10T07:54:57.000Z</time>
      </trkpt>
      <trkpt lat="47.31825" lon="-2.2918">
        <ele>-1</ele>
        <time>2022-04-10T07:54:58.000Z</time>
      </trkpt>
      <trkpt lat="47.31826" lon="-2.29173">
        <ele>-1.3999999761581</ele>
        <time>2022-04-10T07:54:59.000Z</time>
      </trkpt>
      <trkpt lat="47.31826" lon="-2.29167">
        <ele>-2</ele>
        <time>2022-04-10T07:55:00.000Z</time>
      </trkpt>
      <trkpt lat="47.31828" lon="-2.29158">
        <ele>-2</ele>
        <time>2022-04-10T07:55:02.000Z</time>
      </trkpt>
      <trkpt lat="47.31831" lon="-2.29136">
        <ele>-2.4000000953674</ele>
        <time>2022-04-10T07:55:06.000Z</time>
      </trkpt>
      <trkpt lat="47.31832" lon="-2.2913">
        <ele>-2.7999999523163</ele>
        <time>2022-04-10T07:55:07.000Z</time>
      </trkpt>
      <trkpt lat="47.31833" lon="-2.29124">
        <ele>-3.2000000476837</ele>
        <time>2022-04-10T07:55:08.000Z</time>
      </trkpt>
      <trkpt lat="47.31833" lon="-2.29118">
        <ele>-3.5999999046326</ele>
        <time>2022-04-10T07:55:09.000Z</time>
      </trkpt>
      <trkpt lat="47.31834" lon="-2.29112">
        <ele>-4</ele>
        <time>2022-04-10T07:55:10.000Z</time>
      </trkpt>
      <trkpt lat="47.3184" lon="-2.29078">
        <ele>-4</ele>
        <time>2022-04-10T07:55:15.000Z</time>
      </trkpt>
      <trkpt lat="47.31847" lon="-2.29042">
        <ele>-4.4000000953674</ele>
        <time>2022-04-10T07:55:20.000Z</time>
      </trkpt>
      <trkpt lat="47.31848" lon="-2.29035">
        <ele>-4.8000001907349</ele>
        <time>2022-04-10T07:55:21.000Z</time>
      </trkpt>
      <trkpt lat="47.31849" lon="-2.29028">
        <ele>-5.5999999046326</ele>
        <time>2022-04-10T07:55:22.000Z</time>
      </trkpt>
      <trkpt lat="47.31851" lon="-2.2902">
        <ele>-6</ele>
        <time>2022-04-10T07:55:23.000Z</time>
      </trkpt>
      <trkpt lat="47.31858" lon="-2.28992">
        <ele>-6</ele>
        <time>2022-04-10T07:55:27.000Z</time>
      </trkpt>
      <trkpt lat="47.31859" lon="-2.28976">
        <ele>-6</ele>
        <time>2022-04-10T07:55:29.000Z</time>
      </trkpt>
      <trkpt lat="47.31863" lon="-2.28922">
        <ele>-6</ele>
        <time>2022-04-10T07:55:36.000Z</time>
      </trkpt>
      <trkpt lat="47.31864" lon="-2.28868">
        <ele>-6</ele>
        <time>2022-04-10T07:55:43.000Z</time>
      </trkpt>
      <trkpt lat="47.31868" lon="-2.28843">
        <ele>-6</ele>
        <time>2022-04-10T07:55:48.000Z</time>
      </trkpt>
      <trkpt lat="47.31872" lon="-2.28819">
        <ele>-6</ele>
        <time>2022-04-10T07:55:52.000Z</time>
      </trkpt>
      <trkpt lat="47.31873" lon="-2.28812">
        <ele>-6</ele>
        <time>2022-04-10T07:55:53.000Z</time>
      </trkpt>
      <trkpt lat="47.31878" lon="-2.28767">
        <ele>-6</ele>
        <time>2022-04-10T07:55:59.000Z</time>
      </trkpt>
      <trkpt lat="47.31882" lon="-2.28723">
        <ele>-6</ele>
        <time>2022-04-10T07:56:05.000Z</time>
      </trkpt>
      <trkpt lat="47.31883" lon="-2.28697">
        <ele>-6</ele>
        <time>2022-04-10T07:56:09.000Z</time>
      </trkpt>
      <trkpt lat="47.31885" lon="-2.28684">
        <ele>-6</ele>
        <time>2022-04-10T07:56:11.000Z</time>
      </trkpt>
      <trkpt lat="47.31892" lon="-2.28639">
        <ele>-6</ele>
        <time>2022-04-10T07:56:18.000Z</time>
      </trkpt>
      <trkpt lat="47.31898" lon="-2.28604">
        <ele>-6</ele>
        <time>2022-04-10T07:56:24.000Z</time>
      </trkpt>
      <trkpt lat="47.31899" lon="-2.28596">
        <ele>-6</ele>
        <time>2022-04-10T07:56:25.000Z</time>
      </trkpt>
      <trkpt lat="47.31899" lon="-2.28572">
        <ele>-6</ele>
        <time>2022-04-10T07:56:28.000Z</time>
      </trkpt>
      <trkpt lat="47.31895" lon="-2.28533">
        <ele>-6</ele>
        <time>2022-04-10T07:56:33.000Z</time>
      </trkpt>
      <trkpt lat="47.31898" lon="-2.28471">
        <ele>-6</ele>
        <time>2022-04-10T07:56:41.000Z</time>
      </trkpt>
      <trkpt lat="47.31898" lon="-2.28429">
        <ele>-6</ele>
        <time>2022-04-10T07:56:46.000Z</time>
      </trkpt>
      <trkpt lat="47.31897" lon="-2.28413">
        <ele>-6</ele>
        <time>2022-04-10T07:56:48.000Z</time>
      </trkpt>
      <trkpt lat="47.31895" lon="-2.28397">
        <ele>-6</ele>
        <time>2022-04-10T07:56:50.000Z</time>
      </trkpt>
      <trkpt lat="47.31888" lon="-2.28367">
        <ele>-6</ele>
        <time>2022-04-10T07:56:54.000Z</time>
      </trkpt>
      <trkpt lat="47.31884" lon="-2.28345">
        <ele>-5.5999999046326</ele>
        <time>2022-04-10T07:56:57.000Z</time>
      </trkpt>
      <trkpt lat="47.31883" lon="-2.28338">
        <ele>-5.1999998092651</ele>
        <time>2022-04-10T07:56:58.000Z</time>
      </trkpt>
      <trkpt lat="47.31882" lon="-2.28331">
        <ele>-4.8000001907349</ele>
        <time>2022-04-10T07:56:59.000Z</time>
      </trkpt>
      <trkpt lat="47.3188" lon="-2.28324">
        <ele>-4.4000000953674</ele>
        <time>2022-04-10T07:57:00.000Z</time>
      </trkpt>
      <trkpt lat="47.31879" lon="-2.28317">
        <ele>-4</ele>
        <time>2022-04-10T07:57:01.000Z</time>
      </trkpt>
      <trkpt lat="47.3187" lon="-2.28267">
        <ele>-4</ele>
        <time>2022-04-10T07:57:08.000Z</time>
      </trkpt>
      <trkpt lat="47.31862" lon="-2.28214">
        <ele>-4</ele>
        <time>2022-04-10T07:57:15.000Z</time>
      </trkpt>
      <trkpt lat="47.31863" lon="-2.28153">
        <ele>-4</ele>
        <time>2022-04-10T07:57:22.000Z</time>
      </trkpt>
      <trkpt lat="47.31863" lon="-2.28107">
        <ele>-4</ele>
        <time>2022-04-10T07:57:28.000Z</time>
      </trkpt>
      <trkpt lat="47.31863" lon="-2.28046">
        <ele>-4</ele>
        <time>2022-04-10T07:57:36.000Z</time>
      </trkpt>
      <trkpt lat="47.3186" lon="-2.2799">
        <ele>-4</ele>
        <time>2022-04-10T07:57:43.000Z</time>
      </trkpt>
      <trkpt lat="47.31858" lon="-2.27938">
        <ele>-4</ele>
        <time>2022-04-10T07:57:49.000Z</time>
      </trkpt>
      <trkpt lat="47.3186" lon="-2.2787">
        <ele>-4</ele>
        <time>2022-04-10T07:57:57.000Z</time>
      </trkpt>
      <trkpt lat="47.31863" lon="-2.27817">
        <ele>-4</ele>
        <time>2022-04-10T07:58:03.000Z</time>
      </trkpt>
      <trkpt lat="47.31865" lon="-2.27766">
        <ele>-4</ele>
        <time>2022-04-10T07:58:09.000Z</time>
      </trkpt>
      <trkpt lat="47.31866" lon="-2.27696">
        <ele>-4</ele>
        <time>2022-04-10T07:58:17.000Z</time>
      </trkpt>
      <trkpt lat="47.31864" lon="-2.27636">
        <ele>-4</ele>
        <time>2022-04-10T07:58:24.000Z</time>
      </trkpt>
      <trkpt lat="47.3186" lon="-2.27565">
        <ele>-4</ele>
        <time>2022-04-10T07:58:32.000Z</time>
      </trkpt>
      <trkpt lat="47.31859" lon="-2.27511">
        <ele>-4</ele>
        <time>2022-04-10T07:58:38.000Z</time>
      </trkpt>
      <trkpt lat="47.31857" lon="-2.27429">
        <ele>-4</ele>
        <time>2022-04-10T07:58:47.000Z</time>
      </trkpt>
      <trkpt lat="47.31855" lon="-2.27367">
        <ele>-4</ele>
        <time>2022-04-10T07:58:54.000Z</time>
      </trkpt>
      <trkpt lat="47.31853" lon="-2.27317">
        <ele>-4</ele>
        <time>2022-04-10T07:59:00.000Z</time>
      </trkpt>
      <trkpt lat="47.31852" lon="-2.2728">
        <ele>-4</ele>
        <time>2022-04-10T07:59:06.000Z</time>
      </trkpt>
      <trkpt lat="47.31852" lon="-2.2726">
        <ele>-4</ele>
        <time>2022-04-10T07:59:11.000Z</time>
      </trkpt>
      <trkpt lat="47.3185" lon="-2.27251">
        <ele>-4</ele>
        <time>2022-04-10T07:59:17.000Z</time>
      </trkpt>
      <trkpt lat="47.3185" lon="-2.2725">
        <ele>-4</ele>
        <time>2022-04-10T07:59:19.000Z</time>
      </trkpt>
      <trkpt lat="47.3185" lon="-2.27246">
        <ele>-4</ele>
        <time>2022-04-10T07:59:29.000Z</time>
      </trkpt>
      <trkpt lat="47.3185" lon="-2.27244">
        <ele>-4</ele>
        <time>2022-04-10T07:59:30.000Z</time>
      </trkpt>
      <trkpt lat="47.31851" lon="-2.27222">
        <ele>-4</ele>
        <time>2022-04-10T07:59:35.000Z</time>
      </trkpt>
      <trkpt lat="47.31851" lon="-2.27205">
        <ele>-4</ele>
        <time>2022-04-10T07:59:38.000Z</time>
      </trkpt>
      <trkpt lat="47.3185" lon="-2.27185">
        <ele>-4</ele>
        <time>2022-04-10T07:59:41.000Z</time>
      </trkpt>
      <trkpt lat="47.3185" lon="-2.27141">
        <ele>-4</ele>
        <time>2022-04-10T07:59:48.000Z</time>
      </trkpt>
      <trkpt lat="47.31847" lon="-2.27108">
        <ele>-4</ele>
        <time>2022-04-10T07:59:54.000Z</time>
      </trkpt>
      <trkpt lat="47.31845" lon="-2.27081">
        <ele>-4.4000000953674</ele>
        <time>2022-04-10T07:59:59.000Z</time>
      </trkpt>
      <trkpt lat="47.31845" lon="-2.27075">
        <ele>-4.8000001907349</ele>
        <time>2022-04-10T08:00:00.000Z</time>
      </trkpt>
      <trkpt lat="47.31846" lon="-2.27067">
        <ele>-5.1999998092651</ele>
        <time>2022-04-10T08:00:01.000Z</time>
      </trkpt>
      <trkpt lat="47.31846" lon="-2.2706">
        <ele>-5.5999999046326</ele>
        <time>2022-04-10T08:00:02.000Z</time>
      </trkpt>
      <trkpt lat="47.31845" lon="-2.27052">
        <ele>-6</ele>
        <time>2022-04-10T08:00:03.000Z</time>
      </trkpt>
      <trkpt lat="47.31845" lon="-2.27044">
        <ele>-6</ele>
        <time>2022-04-10T08:00:04.000Z</time>
      </trkpt>
      <trkpt lat="47.31845" lon="-2.27036">
        <ele>-6</ele>
        <time>2022-04-10T08:00:05.000Z</time>
      </trkpt>
      <trkpt lat="47.31843" lon="-2.26976">
        <ele>-6</ele>
        <time>2022-04-10T08:00:12.000Z</time>
      </trkpt>
      <trkpt lat="47.31842" lon="-2.26958">
        <ele>-6.4000000953674</ele>
        <time>2022-04-10T08:00:14.000Z</time>
      </trkpt>
      <trkpt lat="47.31842" lon="-2.2695">
        <ele>-6.8000001907349</ele>
        <time>2022-04-10T08:00:15.000Z</time>
      </trkpt>
      <trkpt lat="47.31842" lon="-2.26942">
        <ele>-7.1999998092651</ele>
        <time>2022-04-10T08:00:16.000Z</time>
      </trkpt>
      <trkpt lat="47.31842" lon="-2.26935">
        <ele>-7.5999999046326</ele>
        <time>2022-04-10T08:00:17.000Z</time>
      </trkpt>
      <trkpt lat="47.31841" lon="-2.26927">
        <ele>-8</ele>
        <time>2022-04-10T08:00:18.000Z</time>
      </trkpt>
      <trkpt lat="47.31841" lon="-2.26918">
        <ele>-8</ele>
        <time>2022-04-10T08:00:19.000Z</time>
      </trkpt>
      <trkpt lat="47.31837" lon="-2.26869">
        <ele>-8</ele>
        <time>2022-04-10T08:00:25.000Z</time>
      </trkpt>
      <trkpt lat="47.31835" lon="-2.26824">
        <ele>-7.5999999046326</ele>
        <time>2022-04-10T08:00:31.000Z</time>
      </trkpt>
      <trkpt lat="47.31835" lon="-2.26816">
        <ele>-7.1999998092651</ele>
        <time>2022-04-10T08:00:32.000Z</time>
      </trkpt>
      <trkpt lat="47.31835" lon="-2.26809">
        <ele>-6.5999999046326</ele>
        <time>2022-04-10T08:00:33.000Z</time>
      </trkpt>
      <trkpt lat="47.31835" lon="-2.26802">
        <ele>-6.1999998092651</ele>
        <time>2022-04-10T08:00:34.000Z</time>
      </trkpt>
      <trkpt lat="47.31834" lon="-2.26795">
        <ele>-5.8000001907349</ele>
        <time>2022-04-10T08:00:35.000Z</time>
      </trkpt>
      <trkpt lat="47.31831" lon="-2.26759">
        <ele>-5.8000001907349</ele>
        <time>2022-04-10T08:00:40.000Z</time>
      </trkpt>
      <trkpt lat="47.31829" lon="-2.26753">
        <ele>-5.8000001907349</ele>
        <time>2022-04-10T08:00:41.000Z</time>
      </trkpt>
      <trkpt lat="47.31827" lon="-2.26746">
        <ele>-5</ele>
        <time>2022-04-10T08:00:42.000Z</time>
      </trkpt>
      <trkpt lat="47.31825" lon="-2.2674">
        <ele>-4.5999999046326</ele>
        <time>2022-04-10T08:00:43.000Z</time>
      </trkpt>
      <trkpt lat="47.31822" lon="-2.26733">
        <ele>-4</ele>
        <time>2022-04-10T08:00:44.000Z</time>
      </trkpt>
      <trkpt lat="47.3182" lon="-2.26726">
        <ele>-3.5999999046326</ele>
        <time>2022-04-10T08:00:45.000Z</time>
      </trkpt>
      <trkpt lat="47.31814" lon="-2.26713">
        <ele>-3.5999999046326</ele>
        <time>2022-04-10T08:00:47.000Z</time>
      </trkpt>
      <trkpt lat="47.31806" lon="-2.26698">
        <ele>-3.5999999046326</ele>
        <time>2022-04-10T08:00:50.000Z</time>
      </trkpt>
      <trkpt lat="47.31797" lon="-2.26696">
        <ele>-3.5999999046326</ele>
        <time>2022-04-10T08:00:52.000Z</time>
      </trkpt>
      <trkpt lat="47.31775" lon="-2.26704">
        <ele>-3.5999999046326</ele>
        <time>2022-04-10T08:00:56.000Z</time>
      </trkpt>
      <trkpt lat="47.31743" lon="-2.26714">
        <ele>-4</ele>
        <time>2022-04-10T08:01:01.000Z</time>
      </trkpt>
      <trkpt lat="47.31737" lon="-2.26716">
        <ele>-4.4000000953674</ele>
        <time>2022-04-10T08:01:02.000Z</time>
      </trkpt>
      <trkpt lat="47.3173" lon="-2.26717">
        <ele>-4.8000001907349</ele>
        <time>2022-04-10T08:01:03.000Z</time>
      </trkpt>
      <trkpt lat="47.31724" lon="-2.2672">
        <ele>-5.1999998092651</ele>
        <time>2022-04-10T08:01:04.000Z</time>
      </trkpt>
      <trkpt lat="47.31718" lon="-2.26722">
        <ele>-5.8000001907349</ele>
        <time>2022-04-10T08:01:05.000Z</time>
      </trkpt>
      <trkpt lat="47.31712" lon="-2.26723">
        <ele>-5.8000001907349</ele>
        <time>2022-04-10T08:01:06.000Z</time>
      </trkpt>
      <trkpt lat="47.31706" lon="-2.26725">
        <ele>-5.8000001907349</ele>
        <time>2022-04-10T08:01:07.000Z</time>
      </trkpt>
      <trkpt lat="47.31696" lon="-2.26726">
        <ele>-6.1999998092651</ele>
        <time>2022-04-10T08:01:09.000Z</time>
      </trkpt>
      <trkpt lat="47.31691" lon="-2.26727">
        <ele>-6.5999999046326</ele>
        <time>2022-04-10T08:01:10.000Z</time>
      </trkpt>
      <trkpt lat="47.31686" lon="-2.26727">
        <ele>-7.1999998092651</ele>
        <time>2022-04-10T08:01:11.000Z</time>
      </trkpt>
      <trkpt lat="47.31681" lon="-2.26728">
        <ele>-7.5999999046326</ele>
        <time>2022-04-10T08:01:12.000Z</time>
      </trkpt>
      <trkpt lat="47.31676" lon="-2.26729">
        <ele>-8</ele>
        <time>2022-04-10T08:01:13.000Z</time>
      </trkpt>
      <trkpt lat="47.31661" lon="-2.26731">
        <ele>-8</ele>
        <time>2022-04-10T08:01:16.000Z</time>
      </trkpt>
      <trkpt lat="47.31652" lon="-2.26733">
        <ele>-8</ele>
        <time>2022-04-10T08:01:18.000Z</time>
      </trkpt>
      <trkpt lat="47.31647" lon="-2.26735">
        <ele>-8</ele>
        <time>2022-04-10T08:01:19.000Z</time>
      </trkpt>
      <trkpt lat="47.31635" lon="-2.26745">
        <ele>-8</ele>
        <time>2022-04-10T08:01:22.000Z</time>
      </trkpt>
      <trkpt lat="47.31621" lon="-2.26756">
        <ele>-8</ele>
        <time>2022-04-10T08:01:25.000Z</time>
      </trkpt>
      <trkpt lat="47.31611" lon="-2.26758">
        <ele>-8</ele>
        <time>2022-04-10T08:01:27.000Z</time>
      </trkpt>
      <trkpt lat="47.31595" lon="-2.26755">
        <ele>-8</ele>
        <time>2022-04-10T08:01:30.000Z</time>
      </trkpt>
      <trkpt lat="47.31585" lon="-2.26754">
        <ele>-8</ele>
        <time>2022-04-10T08:01:32.000Z</time>
      </trkpt>
      <trkpt lat="47.31581" lon="-2.26754">
        <ele>-8</ele>
        <time>2022-04-10T08:01:33.000Z</time>
      </trkpt>
      <trkpt lat="47.31567" lon="-2.26762">
        <ele>-8</ele>
        <time>2022-04-10T08:01:36.000Z</time>
      </trkpt>
      <trkpt lat="47.31558" lon="-2.26778">
        <ele>-8</ele>
        <time>2022-04-10T08:01:39.000Z</time>
      </trkpt>
      <trkpt lat="47.31556" lon="-2.26784">
        <ele>-8</ele>
        <time>2022-04-10T08:01:40.000Z</time>
      </trkpt>
      <trkpt lat="47.31554" lon="-2.26791">
        <ele>-8</ele>
        <time>2022-04-10T08:01:41.000Z</time>
      </trkpt>
      <trkpt lat="47.31546" lon="-2.26811">
        <ele>-8</ele>
        <time>2022-04-10T08:01:44.000Z</time>
      </trkpt>
      <trkpt lat="47.31532" lon="-2.26848">
        <ele>-8</ele>
        <time>2022-04-10T08:01:50.000Z</time>
      </trkpt>
      <trkpt lat="47.31514" lon="-2.26891">
        <ele>-8</ele>
        <time>2022-04-10T08:01:57.000Z</time>
      </trkpt>
      <trkpt lat="47.31505" lon="-2.26916">
        <ele>-8</ele>
        <time>2022-04-10T08:02:01.000Z</time>
      </trkpt>
      <trkpt lat="47.31501" lon="-2.26929">
        <ele>-8</ele>
        <time>2022-04-10T08:02:03.000Z</time>
      </trkpt>
      <trkpt lat="47.31497" lon="-2.26949">
        <ele>-8</ele>
        <time>2022-04-10T08:02:07.000Z</time>
      </trkpt>
      <trkpt lat="47.31483" lon="-2.26985">
        <ele>-8</ele>
        <time>2022-04-10T08:02:14.000Z</time>
      </trkpt>
      <trkpt lat="47.31478" lon="-2.26988">
        <ele>-8</ele>
        <time>2022-04-10T08:02:15.000Z</time>
      </trkpt>
      <trkpt lat="47.31464" lon="-2.26996">
        <ele>-8</ele>
        <time>2022-04-10T08:02:18.000Z</time>
      </trkpt>
      <trkpt lat="47.31435" lon="-2.27018">
        <ele>-8</ele>
        <time>2022-04-10T08:02:24.000Z</time>
      </trkpt>
      <trkpt lat="47.31415" lon="-2.27035">
        <ele>-7.5999999046326</ele>
        <time>2022-04-10T08:02:28.000Z</time>
      </trkpt>
      <trkpt lat="47.3141" lon="-2.2704">
        <ele>-7.1999998092651</ele>
        <time>2022-04-10T08:02:29.000Z</time>
      </trkpt>
      <trkpt lat="47.31405" lon="-2.27043">
        <ele>-6.8000001907349</ele>
        <time>2022-04-10T08:02:30.000Z</time>
      </trkpt>
      <trkpt lat="47.314" lon="-2.27047">
        <ele>-6.4000000953674</ele>
        <time>2022-04-10T08:02:31.000Z</time>
      </trkpt>
      <trkpt lat="47.31394" lon="-2.2705">
        <ele>-6</ele>
        <time>2022-04-10T08:02:32.000Z</time>
      </trkpt>
      <trkpt lat="47.31367" lon="-2.27063">
        <ele>-6</ele>
        <time>2022-04-10T08:02:37.000Z</time>
      </trkpt>
      <trkpt lat="47.31322" lon="-2.27081">
        <ele>-5.1999998092651</ele>
        <time>2022-04-10T08:02:45.000Z</time>
      </trkpt>
      <trkpt lat="47.31316" lon="-2.27083">
        <ele>-4.8000001907349</ele>
        <time>2022-04-10T08:02:46.000Z</time>
      </trkpt>
      <trkpt lat="47.3131" lon="-2.27085">
        <ele>-4.4000000953674</ele>
        <time>2022-04-10T08:02:47.000Z</time>
      </trkpt>
      <trkpt lat="47.31304" lon="-2.27087">
        <ele>-4</ele>
        <time>2022-04-10T08:02:48.000Z</time>
      </trkpt>
      <trkpt lat="47.31287" lon="-2.27096">
        <ele>-4</ele>
        <time>2022-04-10T08:02:51.000Z</time>
      </trkpt>
      <trkpt lat="47.31277" lon="-2.27104">
        <ele>-4</ele>
        <time>2022-04-10T08:02:53.000Z</time>
      </trkpt>
      <trkpt lat="47.31272" lon="-2.2712">
        <ele>-4</ele>
        <time>2022-04-10T08:02:55.000Z</time>
      </trkpt>
      <trkpt lat="47.31277" lon="-2.27147">
        <ele>-4</ele>
        <time>2022-04-10T08:02:58.000Z</time>
      </trkpt>
      <trkpt lat="47.31293" lon="-2.2722">
        <ele>-4</ele>
        <time>2022-04-10T08:03:06.000Z</time>
      </trkpt>
      <trkpt lat="47.31299" lon="-2.27248">
        <ele>-4.4000000953674</ele>
        <time>2022-04-10T08:03:09.000Z</time>
      </trkpt>
      <trkpt lat="47.31302" lon="-2.27256">
        <ele>-5.4000000953674</ele>
        <time>2022-04-10T08:03:10.000Z</time>
      </trkpt>
      <trkpt lat="47.31305" lon="-2.27265">
        <ele>-5.8000001907349</ele>
        <time>2022-04-10T08:03:11.000Z</time>
      </trkpt>
      <trkpt lat="47.31309" lon="-2.27274">
        <ele>-6.1999998092651</ele>
        <time>2022-04-10T08:03:12.000Z</time>
      </trkpt>
      <trkpt lat="47.31323" lon="-2.27299">
        <ele>-6.1999998092651</ele>
        <time>2022-04-10T08:03:15.000Z</time>
      </trkpt>
      <trkpt lat="47.31333" lon="-2.27313">
        <ele>-6.5999999046326</ele>
        <time>2022-04-10T08:03:17.000Z</time>
      </trkpt>
      <trkpt lat="47.31339" lon="-2.27321">
        <ele>-7.1999998092651</ele>
        <time>2022-04-10T08:03:18.000Z</time>
      </trkpt>
      <trkpt lat="47.31344" lon="-2.27328">
        <ele>-7.5999999046326</ele>
        <time>2022-04-10T08:03:19.000Z</time>
      </trkpt>
      <trkpt lat="47.31348" lon="-2.27335">
        <ele>-8</ele>
        <time>2022-04-10T08:03:20.000Z</time>
      </trkpt>
      <trkpt lat="47.31353" lon="-2.27341">
        <ele>-8.3999996185303</ele>
        <time>2022-04-10T08:03:21.000Z</time>
      </trkpt>
      <trkpt lat="47.31367" lon="-2.2736">
        <ele>-8.3999996185303</ele>
        <time>2022-04-10T08:03:24.000Z</time>
      </trkpt>
      <trkpt lat="47.31402" lon="-2.27406">
        <ele>-8.3999996185303</ele>
        <time>2022-04-10T08:03:32.000Z</time>
      </trkpt>
      <trkpt lat="47.31428" lon="-2.2743">
        <ele>-8.3999996185303</ele>
        <time>2022-04-10T08:03:38.000Z</time>
      </trkpt>
      <trkpt lat="47.31447" lon="-2.27448">
        <ele>-8.3999996185303</ele>
        <time>2022-04-10T08:03:42.000Z</time>
      </trkpt>
      <trkpt lat="47.31452" lon="-2.2746">
        <ele>-8.3999996185303</ele>
        <time>2022-04-10T08:03:44.000Z</time>
      </trkpt>
      <trkpt lat="47.31458" lon="-2.27474">
        <ele>-8.3999996185303</ele>
        <time>2022-04-10T08:03:46.000Z</time>
      </trkpt>
      <trkpt lat="47.31459" lon="-2.27482">
        <ele>-8.3999996185303</ele>
        <time>2022-04-10T08:03:47.000Z</time>
      </trkpt>
      <trkpt lat="47.31464" lon="-2.27497">
        <ele>-8.3999996185303</ele>
        <time>2022-04-10T08:03:49.000Z</time>
      </trkpt>
      <trkpt lat="47.3148" lon="-2.27536">
        <ele>-8.3999996185303</ele>
        <time>2022-04-10T08:03:55.000Z</time>
      </trkpt>
      <trkpt lat="47.31496" lon="-2.2758">
        <ele>-8.3999996185303</ele>
        <time>2022-04-10T08:04:02.000Z</time>
      </trkpt>
      <trkpt lat="47.315" lon="-2.27595">
        <ele>-8.3999996185303</ele>
        <time>2022-04-10T08:04:04.000Z</time>
      </trkpt>
      <trkpt lat="47.31502" lon="-2.27612">
        <ele>-8.3999996185303</ele>
        <time>2022-04-10T08:04:06.000Z</time>
      </trkpt>
      <trkpt lat="47.31502" lon="-2.27621">
        <ele>-8.3999996185303</ele>
        <time>2022-04-10T08:04:07.000Z</time>
      </trkpt>
      <trkpt lat="47.31497" lon="-2.27647">
        <ele>-8.3999996185303</ele>
        <time>2022-04-10T08:04:10.000Z</time>
      </trkpt>
      <trkpt lat="47.31483" lon="-2.27674">
        <ele>-8.3999996185303</ele>
        <time>2022-04-10T08:04:14.000Z</time>
      </trkpt>
      <trkpt lat="47.31456" lon="-2.27709">
        <ele>-8.3999996185303</ele>
        <time>2022-04-10T08:04:20.000Z</time>
      </trkpt>
      <trkpt lat="47.31451" lon="-2.27713">
        <ele>-8.3999996185303</ele>
        <time>2022-04-10T08:04:21.000Z</time>
      </trkpt>
      <trkpt lat="47.31429" lon="-2.27728">
        <ele>-8.3999996185303</ele>
        <time>2022-04-10T08:04:25.000Z</time>
      </trkpt>
      <trkpt lat="47.31424" lon="-2.27732">
        <ele>-8.3999996185303</ele>
        <time>2022-04-10T08:04:26.000Z</time>
      </trkpt>
      <trkpt lat="47.31397" lon="-2.27747">
        <ele>-8.3999996185303</ele>
        <time>2022-04-10T08:04:31.000Z</time>
      </trkpt>
      <trkpt lat="47.31367" lon="-2.27762">
        <ele>-8.3999996185303</ele>
        <time>2022-04-10T08:04:37.000Z</time>
      </trkpt>
      <trkpt lat="47.31327" lon="-2.27775">
        <ele>-8.3999996185303</ele>
        <time>2022-04-10T08:04:45.000Z</time>
      </trkpt>
      <trkpt lat="47.3129" lon="-2.27782">
        <ele>-8.3999996185303</ele>
        <time>2022-04-10T08:04:52.000Z</time>
      </trkpt>
      <trkpt lat="47.31255" lon="-2.27786">
        <ele>-8.3999996185303</ele>
        <time>2022-04-10T08:04:58.000Z</time>
      </trkpt>
      <trkpt lat="47.3125" lon="-2.27784">
        <ele>-8.3999996185303</ele>
        <time>2022-04-10T08:04:59.000Z</time>
      </trkpt>
      <trkpt lat="47.31232" lon="-2.27769">
        <ele>-8.3999996185303</ele>
        <time>2022-04-10T08:05:03.000Z</time>
      </trkpt>
      <trkpt lat="47.31229" lon="-2.27764">
        <ele>-8.3999996185303</ele>
        <time>2022-04-10T08:05:04.000Z</time>
      </trkpt>
      <trkpt lat="47.31226" lon="-2.27757">
        <ele>-8.3999996185303</ele>
        <time>2022-04-10T08:05:05.000Z</time>
      </trkpt>
      <trkpt lat="47.3122" lon="-2.27738">
        <ele>-8.3999996185303</ele>
        <time>2022-04-10T08:05:08.000Z</time>
      </trkpt>
      <trkpt lat="47.31207" lon="-2.27735">
        <ele>-8.3999996185303</ele>
        <time>2022-04-10T08:05:11.000Z</time>
      </trkpt>
      <trkpt lat="47.31196" lon="-2.27738">
        <ele>-8.3999996185303</ele>
        <time>2022-04-10T08:05:13.000Z</time>
      </trkpt>
      <trkpt lat="47.31184" lon="-2.27742">
        <ele>-8.3999996185303</ele>
        <time>2022-04-10T08:05:15.000Z</time>
      </trkpt>
      <trkpt lat="47.31166" lon="-2.27749">
        <ele>-8.3999996185303</ele>
        <time>2022-04-10T08:05:19.000Z</time>
      </trkpt>
      <trkpt lat="47.31161" lon="-2.27749">
        <ele>-8.3999996185303</ele>
        <time>2022-04-10T08:05:20.000Z</time>
      </trkpt>
      <trkpt lat="47.31145" lon="-2.27757">
        <ele>-8.3999996185303</ele>
        <time>2022-04-10T08:05:24.000Z</time>
      </trkpt>
      <trkpt lat="47.31142" lon="-2.27764">
        <ele>-8.3999996185303</ele>
        <time>2022-04-10T08:05:26.000Z</time>
      </trkpt>
      <trkpt lat="47.31143" lon="-2.27771">
        <ele>-8.3999996185303</ele>
        <time>2022-04-10T08:05:27.000Z</time>
      </trkpt>
      <trkpt lat="47.31148" lon="-2.27793">
        <ele>-8.3999996185303</ele>
        <time>2022-04-10T08:05:30.000Z</time>
      </trkpt>
      <trkpt lat="47.31149" lon="-2.27801">
        <ele>-8.3999996185303</ele>
        <time>2022-04-10T08:05:31.000Z</time>
      </trkpt>
      <trkpt lat="47.31152" lon="-2.27837">
        <ele>-8.3999996185303</ele>
        <time>2022-04-10T08:05:35.000Z</time>
      </trkpt>
      <trkpt lat="47.31152" lon="-2.27847">
        <ele>-8.3999996185303</ele>
        <time>2022-04-10T08:05:36.000Z</time>
      </trkpt>
      <trkpt lat="47.31148" lon="-2.27866">
        <ele>-8.3999996185303</ele>
        <time>2022-04-10T08:05:38.000Z</time>
      </trkpt>
      <trkpt lat="47.31145" lon="-2.27873">
        <ele>-8.3999996185303</ele>
        <time>2022-04-10T08:05:39.000Z</time>
      </trkpt>
      <trkpt lat="47.31123" lon="-2.2791">
        <ele>-8.3999996185303</ele>
        <time>2022-04-10T08:05:44.000Z</time>
      </trkpt>
      <trkpt lat="47.31088" lon="-2.27964">
        <ele>-8.3999996185303</ele>
        <time>2022-04-10T08:05:52.000Z</time>
      </trkpt>
      <trkpt lat="47.31058" lon="-2.28011">
        <ele>-8.3999996185303</ele>
        <time>2022-04-10T08:05:59.000Z</time>
      </trkpt>
      <trkpt lat="47.31031" lon="-2.28043">
        <ele>-8.3999996185303</ele>
        <time>2022-04-10T08:06:05.000Z</time>
      </trkpt>
      <trkpt lat="47.30999" lon="-2.2807">
        <ele>-8.3999996185303</ele>
        <time>2022-04-10T08:06:11.000Z</time>
      </trkpt>
      <trkpt lat="47.30971" lon="-2.28087">
        <ele>-8.3999996185303</ele>
        <time>2022-04-10T08:06:15.000Z</time>
      </trkpt>
      <trkpt lat="47.30959" lon="-2.28099">
        <ele>-8.3999996185303</ele>
        <time>2022-04-10T08:06:17.000Z</time>
      </trkpt>
      <trkpt lat="47.30926" lon="-2.28143">
        <ele>-8.3999996185303</ele>
        <time>2022-04-10T08:06:24.000Z</time>
      </trkpt>
      <trkpt lat="47.309" lon="-2.28182">
        <ele>-8.3999996185303</ele>
        <time>2022-04-10T08:06:30.000Z</time>
      </trkpt>
      <trkpt lat="47.30864" lon="-2.28232">
        <ele>-8.3999996185303</ele>
        <time>2022-04-10T08:06:38.000Z</time>
      </trkpt>
      <trkpt lat="47.30838" lon="-2.28252">
        <ele>-8.3999996185303</ele>
        <time>2022-04-10T08:06:43.000Z</time>
      </trkpt>
      <trkpt lat="47.30814" lon="-2.28257">
        <ele>-8.3999996185303</ele>
        <time>2022-04-10T08:06:47.000Z</time>
      </trkpt>
      <trkpt lat="47.30789" lon="-2.28251">
        <ele>-8.3999996185303</ele>
        <time>2022-04-10T08:06:51.000Z</time>
      </trkpt>
      <trkpt lat="47.30784" lon="-2.28248">
        <ele>-8.3999996185303</ele>
        <time>2022-04-10T08:06:52.000Z</time>
      </trkpt>
      <trkpt lat="47.30777" lon="-2.28243">
        <ele>-8.3999996185303</ele>
        <time>2022-04-10T08:06:53.000Z</time>
      </trkpt>
      <trkpt lat="47.30761" lon="-2.28227">
        <ele>-8.3999996185303</ele>
        <time>2022-04-10T08:06:56.000Z</time>
      </trkpt>
      <trkpt lat="47.30756" lon="-2.28221">
        <ele>-8.3999996185303</ele>
        <time>2022-04-10T08:06:57.000Z</time>
      </trkpt>
      <trkpt lat="47.30734" lon="-2.28188">
        <ele>-8.3999996185303</ele>
        <time>2022-04-10T08:07:02.000Z</time>
      </trkpt>
      <trkpt lat="47.307" lon="-2.28148">
        <ele>-8.3999996185303</ele>
        <time>2022-04-10T08:07:09.000Z</time>
      </trkpt>
      <trkpt lat="47.30672" lon="-2.28117">
        <ele>-8.3999996185303</ele>
        <time>2022-04-10T08:07:15.000Z</time>
      </trkpt>
      <trkpt lat="47.30635" lon="-2.28079">
        <ele>-8.3999996185303</ele>
        <time>2022-04-10T08:07:22.000Z</time>
      </trkpt>
      <trkpt lat="47.3061" lon="-2.28053">
        <ele>-8.3999996185303</ele>
        <time>2022-04-10T08:07:27.000Z</time>
      </trkpt>
      <trkpt lat="47.30597" lon="-2.28044">
        <ele>-8.3999996185303</ele>
        <time>2022-04-10T08:07:30.000Z</time>
      </trkpt>
      <trkpt lat="47.30588" lon="-2.2804">
        <ele>-8.3999996185303</ele>
        <time>2022-04-10T08:07:32.000Z</time>
      </trkpt>
      <trkpt lat="47.30558" lon="-2.28028">
        <ele>-8.3999996185303</ele>
        <time>2022-04-10T08:07:38.000Z</time>
      </trkpt>
      <trkpt lat="47.30539" lon="-2.28007">
        <ele>-8.3999996185303</ele>
        <time>2022-04-10T08:07:42.000Z</time>
      </trkpt>
      <trkpt lat="47.30535" lon="-2.27999">
        <ele>-8.3999996185303</ele>
        <time>2022-04-10T08:07:43.000Z</time>
      </trkpt>
      <trkpt lat="47.30524" lon="-2.27968">
        <ele>-8.3999996185303</ele>
        <time>2022-04-10T08:07:47.000Z</time>
      </trkpt>
      <trkpt lat="47.30522" lon="-2.2796">
        <ele>-8.3999996185303</ele>
        <time>2022-04-10T08:07:48.000Z</time>
      </trkpt>
      <trkpt lat="47.30519" lon="-2.27938">
        <ele>-8.3999996185303</ele>
        <time>2022-04-10T08:07:51.000Z</time>
      </trkpt>
      <trkpt lat="47.30513" lon="-2.27928">
        <ele>-8.3999996185303</ele>
        <time>2022-04-10T08:07:53.000Z</time>
      </trkpt>
      <trkpt lat="47.30497" lon="-2.27924">
        <ele>-8.3999996185303</ele>
        <time>2022-04-10T08:07:56.000Z</time>
      </trkpt>
      <trkpt lat="47.30492" lon="-2.27924">
        <ele>-8.3999996185303</ele>
        <time>2022-04-10T08:07:57.000Z</time>
      </trkpt>
      <trkpt lat="47.30463" lon="-2.27916">
        <ele>-8.3999996185303</ele>
        <time>2022-04-10T08:08:02.000Z</time>
      </trkpt>
      <trkpt lat="47.30447" lon="-2.27907">
        <ele>-8</ele>
        <time>2022-04-10T08:08:05.000Z</time>
      </trkpt>
      <trkpt lat="47.30442" lon="-2.27905">
        <ele>-7.5999999046326</ele>
        <time>2022-04-10T08:08:06.000Z</time>
      </trkpt>
      <trkpt lat="47.30436" lon="-2.27902">
        <ele>-6.8000001907349</ele>
        <time>2022-04-10T08:08:07.000Z</time>
      </trkpt>
      <trkpt lat="47.3043" lon="-2.27901">
        <ele>-6.4000000953674</ele>
        <time>2022-04-10T08:08:08.000Z</time>
      </trkpt>
      <trkpt lat="47.30401" lon="-2.27899">
        <ele>-6.4000000953674</ele>
        <time>2022-04-10T08:08:13.000Z</time>
      </trkpt>
      <trkpt lat="47.3036" lon="-2.27902">
        <ele>-6.4000000953674</ele>
        <time>2022-04-10T08:08:20.000Z</time>
      </trkpt>
      <trkpt lat="47.30319" lon="-2.27906">
        <ele>-6.4000000953674</ele>
        <time>2022-04-10T08:08:27.000Z</time>
      </trkpt>
      <trkpt lat="47.30308" lon="-2.27907">
        <ele>-6.4000000953674</ele>
        <time>2022-04-10T08:08:29.000Z</time>
      </trkpt>
      <trkpt lat="47.30291" lon="-2.2791">
        <ele>-6.4000000953674</ele>
        <time>2022-04-10T08:08:32.000Z</time>
      </trkpt>
      <trkpt lat="47.30285" lon="-2.2791">
        <ele>-6.4000000953674</ele>
        <time>2022-04-10T08:08:33.000Z</time>
      </trkpt>
      <trkpt lat="47.30267" lon="-2.27912">
        <ele>-6.4000000953674</ele>
        <time>2022-04-10T08:08:36.000Z</time>
      </trkpt>
      <trkpt lat="47.30261" lon="-2.27913">
        <ele>-6</ele>
        <time>2022-04-10T08:08:37.000Z</time>
      </trkpt>
      <trkpt lat="47.30255" lon="-2.27913">
        <ele>-5.5999999046326</ele>
        <time>2022-04-10T08:08:38.000Z</time>
      </trkpt>
      <trkpt lat="47.30248" lon="-2.27913">
        <ele>-5.1999998092651</ele>
        <time>2022-04-10T08:08:39.000Z</time>
      </trkpt>
      <trkpt lat="47.30242" lon="-2.27912">
        <ele>-4.8000001907349</ele>
        <time>2022-04-10T08:08:40.000Z</time>
      </trkpt>
      <trkpt lat="47.30236" lon="-2.27912">
        <ele>-4.4000000953674</ele>
        <time>2022-04-10T08:08:41.000Z</time>
      </trkpt>
      <trkpt lat="47.30211" lon="-2.27915">
        <ele>-4.4000000953674</ele>
        <time>2022-04-10T08:08:45.000Z</time>
      </trkpt>
      <trkpt lat="47.30171" lon="-2.27917">
        <ele>-4.4000000953674</ele>
        <time>2022-04-10T08:08:52.000Z</time>
      </trkpt>
      <trkpt lat="47.3016" lon="-2.2792">
        <ele>-4</ele>
        <time>2022-04-10T08:08:54.000Z</time>
      </trkpt>
      <trkpt lat="47.30154" lon="-2.27921">
        <ele>-3.2000000476837</ele>
        <time>2022-04-10T08:08:55.000Z</time>
      </trkpt>
      <trkpt lat="47.30148" lon="-2.27922">
        <ele>-2.7999999523163</ele>
        <time>2022-04-10T08:08:56.000Z</time>
      </trkpt>
      <trkpt lat="47.30143" lon="-2.27924">
        <ele>-2.4000000953674</ele>
        <time>2022-04-10T08:08:57.000Z</time>
      </trkpt>
      <trkpt lat="47.30137" lon="-2.27927">
        <ele>-2.4000000953674</ele>
        <time>2022-04-10T08:08:58.000Z</time>
      </trkpt>
      <trkpt lat="47.30107" lon="-2.27948">
        <ele>-2.4000000953674</ele>
        <time>2022-04-10T08:09:04.000Z</time>
      </trkpt>
      <trkpt lat="47.30078" lon="-2.27976">
        <ele>-2</ele>
        <time>2022-04-10T08:09:10.000Z</time>
      </trkpt>
      <trkpt lat="47.30073" lon="-2.2798">
        <ele>-1.6000000238419</ele>
        <time>2022-04-10T08:09:11.000Z</time>
      </trkpt>
      <trkpt lat="47.30068" lon="-2.27985">
        <ele>-1</ele>
        <time>2022-04-10T08:09:12.000Z</time>
      </trkpt>
      <trkpt lat="47.30062" lon="-2.27989">
        <ele>-0.60000002384186</ele>
        <time>2022-04-10T08:09:13.000Z</time>
      </trkpt>
      <trkpt lat="47.30057" lon="-2.27993">
        <ele>-0.20000000298023</ele>
        <time>2022-04-10T08:09:14.000Z</time>
      </trkpt>
      <trkpt lat="47.3004" lon="-2.28005">
        <ele>-0.20000000298023</ele>
        <time>2022-04-10T08:09:17.000Z</time>
      </trkpt>
      <trkpt lat="47.30005" lon="-2.28028">
        <ele>-0.20000000298023</ele>
        <time>2022-04-10T08:09:24.000Z</time>
      </trkpt>
      <trkpt lat="47.3" lon="-2.28032">
        <ele>-0.20000000298023</ele>
        <time>2022-04-10T08:09:25.000Z</time>
      </trkpt>
      <trkpt lat="47.2999" lon="-2.28049">
        <ele>-0.20000000298023</ele>
        <time>2022-04-10T08:09:28.000Z</time>
      </trkpt>
      <trkpt lat="47.29983" lon="-2.2807">
        <ele>-0.20000000298023</ele>
        <time>2022-04-10T08:09:31.000Z</time>
      </trkpt>
      <trkpt lat="47.29977" lon="-2.28091">
        <ele>-0.20000000298023</ele>
        <time>2022-04-10T08:09:34.000Z</time>
      </trkpt>
      <trkpt lat="47.29975" lon="-2.28099">
        <ele>0.20000000298023</ele>
        <time>2022-04-10T08:09:35.000Z</time>
      </trkpt>
      <trkpt lat="47.29973" lon="-2.28107">
        <ele>0.60000002384186</ele>
        <time>2022-04-10T08:09:36.000Z</time>
      </trkpt>
      <trkpt lat="47.29971" lon="-2.28115">
        <ele>1</ele>
        <time>2022-04-10T08:09:37.000Z</time>
      </trkpt>
      <trkpt lat="47.29969" lon="-2.28122">
        <ele>1.3999999761581</ele>
        <time>2022-04-10T08:09:38.000Z</time>
      </trkpt>
      <trkpt lat="47.29966" lon="-2.28129">
        <ele>1.7999999523163</ele>
        <time>2022-04-10T08:09:39.000Z</time>
      </trkpt>
      <trkpt lat="47.29964" lon="-2.28136">
        <ele>1.7999999523163</ele>
        <time>2022-04-10T08:09:40.000Z</time>
      </trkpt>
      <trkpt lat="47.29947" lon="-2.28185">
        <ele>1.7999999523163</ele>
        <time>2022-04-10T08:09:47.000Z</time>
      </trkpt>
      <trkpt lat="47.29937" lon="-2.28223">
        <ele>1.7999999523163</ele>
        <time>2022-04-10T08:09:52.000Z</time>
      </trkpt>
      <trkpt lat="47.29937" lon="-2.28231">
        <ele>1.7999999523163</ele>
        <time>2022-04-10T08:09:53.000Z</time>
      </trkpt>
      <trkpt lat="47.29939" lon="-2.28259">
        <ele>1.7999999523163</ele>
        <time>2022-04-10T08:09:56.000Z</time>
      </trkpt>
      <trkpt lat="47.2994" lon="-2.28268">
        <ele>1.7999999523163</ele>
        <time>2022-04-10T08:09:57.000Z</time>
      </trkpt>
      <trkpt lat="47.29943" lon="-2.28304">
        <ele>1.7999999523163</ele>
        <time>2022-04-10T08:10:01.000Z</time>
      </trkpt>
      <trkpt lat="47.29946" lon="-2.28324">
        <ele>1.7999999523163</ele>
        <time>2022-04-10T08:10:03.000Z</time>
      </trkpt>
      <trkpt lat="47.29946" lon="-2.28343">
        <ele>1.7999999523163</ele>
        <time>2022-04-10T08:10:05.000Z</time>
      </trkpt>
      <trkpt lat="47.29947" lon="-2.28388">
        <ele>1.7999999523163</ele>
        <time>2022-04-10T08:10:10.000Z</time>
      </trkpt>
      <trkpt lat="47.29946" lon="-2.28423">
        <ele>1.7999999523163</ele>
        <time>2022-04-10T08:10:14.000Z</time>
      </trkpt>
      <trkpt lat="47.29937" lon="-2.2844">
        <ele>1.7999999523163</ele>
        <time>2022-04-10T08:10:17.000Z</time>
      </trkpt>
      <trkpt lat="47.29933" lon="-2.28477">
        <ele>1.7999999523163</ele>
        <time>2022-04-10T08:10:22.000Z</time>
      </trkpt>
      <trkpt lat="47.29935" lon="-2.28494">
        <ele>1.7999999523163</ele>
        <time>2022-04-10T08:10:26.000Z</time>
      </trkpt>
      <trkpt lat="47.2993" lon="-2.28519">
        <ele>1.7999999523163</ele>
        <time>2022-04-10T08:10:30.000Z</time>
      </trkpt>
      <trkpt lat="47.29926" lon="-2.28546">
        <ele>1.7999999523163</ele>
        <time>2022-04-10T08:10:35.000Z</time>
      </trkpt>
      <trkpt lat="47.29933" lon="-2.28556">
        <ele>1.3999999761581</ele>
        <time>2022-04-10T08:10:38.000Z</time>
      </trkpt>
      <trkpt lat="47.29936" lon="-2.28557">
        <ele>1</ele>
        <time>2022-04-10T08:10:39.000Z</time>
      </trkpt>
      <trkpt lat="47.29938" lon="-2.28559">
        <ele>0.60000002384186</ele>
        <time>2022-04-10T08:10:40.000Z</time>
      </trkpt>
      <trkpt lat="47.29939" lon="-2.28561">
        <ele>0.20000000298023</ele>
        <time>2022-04-10T08:10:41.000Z</time>
      </trkpt>
      <trkpt lat="47.2994" lon="-2.28563">
        <ele>-0.20000000298023</ele>
        <time>2022-04-10T08:10:42.000Z</time>
      </trkpt>
      <trkpt lat="47.2994" lon="-2.28566">
        <ele>-0.20000000298023</ele>
        <time>2022-04-10T08:10:43.000Z</time>
      </trkpt>
      <trkpt lat="47.2994" lon="-2.28577">
        <ele>-0.20000000298023</ele>
        <time>2022-04-10T08:10:46.000Z</time>
      </trkpt>
      <trkpt lat="47.29939" lon="-2.28585">
        <ele>-0.20000000298023</ele>
        <time>2022-04-10T08:10:48.000Z</time>
      </trkpt>
      <trkpt lat="47.29934" lon="-2.28618">
        <ele>-0.20000000298023</ele>
        <time>2022-04-10T08:10:56.000Z</time>
      </trkpt>
      <trkpt lat="47.29929" lon="-2.28642">
        <ele>-0.20000000298023</ele>
        <time>2022-04-10T08:11:01.000Z</time>
      </trkpt>
      <trkpt lat="47.29923" lon="-2.28675">
        <ele>-0.20000000298023</ele>
        <time>2022-04-10T08:11:07.000Z</time>
      </trkpt>
      <trkpt lat="47.29915" lon="-2.28714">
        <ele>-0.20000000298023</ele>
        <time>2022-04-10T08:11:12.000Z</time>
      </trkpt>
      <trkpt lat="47.29904" lon="-2.28761">
        <ele>-0.20000000298023</ele>
        <time>2022-04-10T08:11:18.000Z</time>
      </trkpt>
      <trkpt lat="47.29896" lon="-2.28809">
        <ele>-0.20000000298023</ele>
        <time>2022-04-10T08:11:24.000Z</time>
      </trkpt>
      <trkpt lat="47.29886" lon="-2.28873">
        <ele>-0.20000000298023</ele>
        <time>2022-04-10T08:11:31.000Z</time>
      </trkpt>
      <trkpt lat="47.29883" lon="-2.2889">
        <ele>-0.20000000298023</ele>
        <time>2022-04-10T08:11:33.000Z</time>
      </trkpt>
      <trkpt lat="47.29877" lon="-2.28902">
        <ele>-0.60000002384186</ele>
        <time>2022-04-10T08:11:35.000Z</time>
      </trkpt>
      <trkpt lat="47.29875" lon="-2.28908">
        <ele>-1.2000000476837</ele>
        <time>2022-04-10T08:11:36.000Z</time>
      </trkpt>
      <trkpt lat="47.29874" lon="-2.28915">
        <ele>-1.6000000238419</ele>
        <time>2022-04-10T08:11:37.000Z</time>
      </trkpt>
      <trkpt lat="47.29873" lon="-2.28922">
        <ele>-2</ele>
        <time>2022-04-10T08:11:38.000Z</time>
      </trkpt>
      <trkpt lat="47.29873" lon="-2.28928">
        <ele>-2.4000000953674</ele>
        <time>2022-04-10T08:11:39.000Z</time>
      </trkpt>
      <trkpt lat="47.29877" lon="-2.28944">
        <ele>-2.4000000953674</ele>
        <time>2022-04-10T08:11:42.000Z</time>
      </trkpt>
      <trkpt lat="47.29885" lon="-2.28946">
        <ele>-2.4000000953674</ele>
        <time>2022-04-10T08:11:44.000Z</time>
      </trkpt>
      <trkpt lat="47.2989" lon="-2.28947">
        <ele>-2.4000000953674</ele>
        <time>2022-04-10T08:11:45.000Z</time>
      </trkpt>
      <trkpt lat="47.29906" lon="-2.28949">
        <ele>-2.4000000953674</ele>
        <time>2022-04-10T08:11:48.000Z</time>
      </trkpt>
      <trkpt lat="47.29918" lon="-2.28953">
        <ele>-2.4000000953674</ele>
        <time>2022-04-10T08:11:50.000Z</time>
      </trkpt>
      <trkpt lat="47.29926" lon="-2.28959">
        <ele>-2.4000000953674</ele>
        <time>2022-04-10T08:11:52.000Z</time>
      </trkpt>
      <trkpt lat="47.29929" lon="-2.28965">
        <ele>-2.4000000953674</ele>
        <time>2022-04-10T08:11:53.000Z</time>
      </trkpt>
      <trkpt lat="47.29947" lon="-2.28996">
        <ele>-2.4000000953674</ele>
        <time>2022-04-10T08:11:58.000Z</time>
      </trkpt>
      <trkpt lat="47.29977" lon="-2.29053">
        <ele>-2.7999999523163</ele>
        <time>2022-04-10T08:12:06.000Z</time>
      </trkpt>
      <trkpt lat="47.29981" lon="-2.29061">
        <ele>-3.2000000476837</ele>
        <time>2022-04-10T08:12:07.000Z</time>
      </trkpt>
      <trkpt lat="47.29985" lon="-2.29068">
        <ele>-3.5999999046326</ele>
        <time>2022-04-10T08:12:08.000Z</time>
      </trkpt>
      <trkpt lat="47.29988" lon="-2.29076">
        <ele>-4</ele>
        <time>2022-04-10T08:12:09.000Z</time>
      </trkpt>
      <trkpt lat="47.29992" lon="-2.29083">
        <ele>-4.4000000953674</ele>
        <time>2022-04-10T08:12:10.000Z</time>
      </trkpt>
      <trkpt lat="47.29995" lon="-2.2909">
        <ele>-4.4000000953674</ele>
        <time>2022-04-10T08:12:11.000Z</time>
      </trkpt>
      <trkpt lat="47.3" lon="-2.29096">
        <ele>-4.4000000953674</ele>
        <time>2022-04-10T08:12:12.000Z</time>
      </trkpt>
      <trkpt lat="47.30015" lon="-2.29112">
        <ele>-4.4000000953674</ele>
        <time>2022-04-10T08:12:15.000Z</time>
      </trkpt>
      <trkpt lat="47.30025" lon="-2.29121">
        <ele>-4.4000000953674</ele>
        <time>2022-04-10T08:12:17.000Z</time>
      </trkpt>
      <trkpt lat="47.3004" lon="-2.2913">
        <ele>-4.4000000953674</ele>
        <time>2022-04-10T08:12:20.000Z</time>
      </trkpt>
      <trkpt lat="47.30049" lon="-2.29133">
        <ele>-4.4000000953674</ele>
        <time>2022-04-10T08:12:22.000Z</time>
      </trkpt>
      <trkpt lat="47.30053" lon="-2.29136">
        <ele>-4.4000000953674</ele>
        <time>2022-04-10T08:12:23.000Z</time>
      </trkpt>
      <trkpt lat="47.30061" lon="-2.29146">
        <ele>-4.4000000953674</ele>
        <time>2022-04-10T08:12:25.000Z</time>
      </trkpt>
      <trkpt lat="47.30087" lon="-2.29185">
        <ele>-4.4000000953674</ele>
        <time>2022-04-10T08:12:31.000Z</time>
      </trkpt>
      <trkpt lat="47.30122" lon="-2.29237">
        <ele>-4.4000000953674</ele>
        <time>2022-04-10T08:12:39.000Z</time>
      </trkpt>
      <trkpt lat="47.30152" lon="-2.29286">
        <ele>-4.8000001907349</ele>
        <time>2022-04-10T08:12:46.000Z</time>
      </trkpt>
      <trkpt lat="47.30156" lon="-2.29293">
        <ele>-5.1999998092651</ele>
        <time>2022-04-10T08:12:47.000Z</time>
      </trkpt>
      <trkpt lat="47.3016" lon="-2.29299">
        <ele>-5.5999999046326</ele>
        <time>2022-04-10T08:12:48.000Z</time>
      </trkpt>
      <trkpt lat="47.30165" lon="-2.29306">
        <ele>-6</ele>
        <time>2022-04-10T08:12:49.000Z</time>
      </trkpt>
      <trkpt lat="47.30169" lon="-2.29312">
        <ele>-6.5999999046326</ele>
        <time>2022-04-10T08:12:50.000Z</time>
      </trkpt>
      <trkpt lat="47.3019" lon="-2.29345">
        <ele>-6.5999999046326</ele>
        <time>2022-04-10T08:12:55.000Z</time>
      </trkpt>
      <trkpt lat="47.30198" lon="-2.29359">
        <ele>-6.5999999046326</ele>
        <time>2022-04-10T08:12:57.000Z</time>
      </trkpt>
      <trkpt lat="47.30207" lon="-2.29384">
        <ele>-6.5999999046326</ele>
        <time>2022-04-10T08:13:00.000Z</time>
      </trkpt>
      <trkpt lat="47.30216" lon="-2.2941">
        <ele>-6.5999999046326</ele>
        <time>2022-04-10T08:13:03.000Z</time>
      </trkpt>
      <trkpt lat="47.30217" lon="-2.29418">
        <ele>-6.5999999046326</ele>
        <time>2022-04-10T08:13:04.000Z</time>
      </trkpt>
      <trkpt lat="47.30211" lon="-2.29441">
        <ele>-6.5999999046326</ele>
        <time>2022-04-10T08:13:07.000Z</time>
      </trkpt>
      <trkpt lat="47.30207" lon="-2.29448">
        <ele>-6.5999999046326</ele>
        <time>2022-04-10T08:13:08.000Z</time>
      </trkpt>
      <trkpt lat="47.30187" lon="-2.29483">
        <ele>-6.5999999046326</ele>
        <time>2022-04-10T08:13:13.000Z</time>
      </trkpt>
      <trkpt lat="47.3017" lon="-2.29519">
        <ele>-6.5999999046326</ele>
        <time>2022-04-10T08:13:18.000Z</time>
      </trkpt>
      <trkpt lat="47.30149" lon="-2.29565">
        <ele>-6.5999999046326</ele>
        <time>2022-04-10T08:13:24.000Z</time>
      </trkpt>
      <trkpt lat="47.30147" lon="-2.29574">
        <ele>-6.5999999046326</ele>
        <time>2022-04-10T08:13:25.000Z</time>
      </trkpt>
      <trkpt lat="47.30147" lon="-2.29602">
        <ele>-6.5999999046326</ele>
        <time>2022-04-10T08:13:29.000Z</time>
      </trkpt>
      <trkpt lat="47.30148" lon="-2.2963">
        <ele>-6.5999999046326</ele>
        <time>2022-04-10T08:13:34.000Z</time>
      </trkpt>
      <trkpt lat="47.30147" lon="-2.29656">
        <ele>-6.5999999046326</ele>
        <time>2022-04-10T08:13:39.000Z</time>
      </trkpt>
      <trkpt lat="47.30148" lon="-2.2966">
        <ele>-6.5999999046326</ele>
        <time>2022-04-10T08:13:40.000Z</time>
      </trkpt>
      <trkpt lat="47.30152" lon="-2.29664">
        <ele>-6.5999999046326</ele>
        <time>2022-04-10T08:13:42.000Z</time>
      </trkpt>
      <trkpt lat="47.30158" lon="-2.29666">
        <ele>-6.5999999046326</ele>
        <time>2022-04-10T08:13:44.000Z</time>
      </trkpt>
      <trkpt lat="47.3017" lon="-2.29674">
        <ele>-6.5999999046326</ele>
        <time>2022-04-10T08:13:48.000Z</time>
      </trkpt>
      <trkpt lat="47.30195" lon="-2.29685">
        <ele>-6.5999999046326</ele>
        <time>2022-04-10T08:13:55.000Z</time>
      </trkpt>
      <trkpt lat="47.30212" lon="-2.29695">
        <ele>-6.5999999046326</ele>
        <time>2022-04-10T08:14:00.000Z</time>
      </trkpt>
      <trkpt lat="47.30237" lon="-2.29704">
        <ele>-6.5999999046326</ele>
        <time>2022-04-10T08:14:06.000Z</time>
      </trkpt>
      <trkpt lat="47.30245" lon="-2.29708">
        <ele>-6.5999999046326</ele>
        <time>2022-04-10T08:14:10.000Z</time>
      </trkpt>
      <trkpt lat="47.30246" lon="-2.29709">
        <ele>-6.5999999046326</ele>
        <time>2022-04-10T08:14:12.000Z</time>
      </trkpt>
      <trkpt lat="47.30247" lon="-2.29717">
        <ele>-6.5999999046326</ele>
        <time>2022-04-10T08:14:40.000Z</time>
      </trkpt>
      <trkpt lat="47.30246" lon="-2.2972">
        <ele>-6.5999999046326</ele>
        <time>2022-04-10T08:14:41.000Z</time>
      </trkpt>
      <trkpt lat="47.30237" lon="-2.29736">
        <ele>-6.5999999046326</ele>
        <time>2022-04-10T08:14:46.000Z</time>
      </trkpt>
      <trkpt lat="47.30236" lon="-2.29739">
        <ele>-6.5999999046326</ele>
        <time>2022-04-10T08:14:47.000Z</time>
      </trkpt>
      <trkpt lat="47.30231" lon="-2.29746">
        <ele>-6.5999999046326</ele>
        <time>2022-04-10T08:14:50.000Z</time>
      </trkpt>
      <trkpt lat="47.3022" lon="-2.29766">
        <ele>-6.5999999046326</ele>
        <time>2022-04-10T08:14:55.000Z</time>
      </trkpt>
      <trkpt lat="47.30207" lon="-2.29784">
        <ele>-6.5999999046326</ele>
        <time>2022-04-10T08:15:01.000Z</time>
      </trkpt>
      <trkpt lat="47.30198" lon="-2.29796">
        <ele>-6.5999999046326</ele>
        <time>2022-04-10T08:15:06.000Z</time>
      </trkpt>
      <trkpt lat="47.30194" lon="-2.29801">
        <ele>-6.5999999046326</ele>
        <time>2022-04-10T08:15:08.000Z</time>
      </trkpt>
      <trkpt lat="47.30191" lon="-2.29805">
        <ele>-6.5999999046326</ele>
        <time>2022-04-10T08:15:10.000Z</time>
      </trkpt>
      <trkpt lat="47.30187" lon="-2.2981">
        <ele>-6.5999999046326</ele>
        <time>2022-04-10T08:15:14.000Z</time>
      </trkpt>
      <trkpt lat="47.30179" lon="-2.29818">
        <ele>-6.5999999046326</ele>
        <time>2022-04-10T08:15:20.000Z</time>
      </trkpt>
      <trkpt lat="47.30162" lon="-2.29837">
        <ele>-6.5999999046326</ele>
        <time>2022-04-10T08:15:25.000Z</time>
      </trkpt>
      <trkpt lat="47.30148" lon="-2.29848">
        <ele>-6.5999999046326</ele>
        <time>2022-04-10T08:15:29.000Z</time>
      </trkpt>
      <trkpt lat="47.3013" lon="-2.29865">
        <ele>-6.5999999046326</ele>
        <time>2022-04-10T08:15:34.000Z</time>
      </trkpt>
      <trkpt lat="47.30105" lon="-2.29893">
        <ele>-6.5999999046326</ele>
        <time>2022-04-10T08:15:41.000Z</time>
      </trkpt>
      <trkpt lat="47.30103" lon="-2.29898">
        <ele>-6.5999999046326</ele>
        <time>2022-04-10T08:15:42.000Z</time>
      </trkpt>
      <trkpt lat="47.30096" lon="-2.29917">
        <ele>-6.5999999046326</ele>
        <time>2022-04-10T08:15:45.000Z</time>
      </trkpt>
      <trkpt lat="47.30095" lon="-2.29927">
        <ele>-6.5999999046326</ele>
        <time>2022-04-10T08:15:47.000Z</time>
      </trkpt>
      <trkpt lat="47.30097" lon="-2.29934">
        <ele>-6.5999999046326</ele>
        <time>2022-04-10T08:15:49.000Z</time>
      </trkpt>
      <trkpt lat="47.30101" lon="-2.29957">
        <ele>-6.5999999046326</ele>
        <time>2022-04-10T08:15:54.000Z</time>
      </trkpt>
      <trkpt lat="47.301" lon="-2.29975">
        <ele>-6.5999999046326</ele>
        <time>2022-04-10T08:15:59.000Z</time>
      </trkpt>
      <trkpt lat="47.30107" lon="-2.29992">
        <ele>-6.5999999046326</ele>
        <time>2022-04-10T08:16:05.000Z</time>
      </trkpt>
      <trkpt lat="47.30118" lon="-2.30002">
        <ele>-6.5999999046326</ele>
        <time>2022-04-10T08:16:09.000Z</time>
      </trkpt>
      <trkpt lat="47.30132" lon="-2.30025">
        <ele>-6.5999999046326</ele>
        <time>2022-04-10T08:16:15.000Z</time>
      </trkpt>
      <trkpt lat="47.30144" lon="-2.30052">
        <ele>-6.5999999046326</ele>
        <time>2022-04-10T08:16:20.000Z</time>
      </trkpt>
      <trkpt lat="47.3016" lon="-2.30089">
        <ele>-6.5999999046326</ele>
        <time>2022-04-10T08:16:27.000Z</time>
      </trkpt>
      <trkpt lat="47.30169" lon="-2.30118">
        <ele>-6.5999999046326</ele>
        <time>2022-04-10T08:16:33.000Z</time>
      </trkpt>
      <trkpt lat="47.30183" lon="-2.30154">
        <ele>-6.5999999046326</ele>
        <time>2022-04-10T08:16:40.000Z</time>
      </trkpt>
      <trkpt lat="47.30193" lon="-2.30181">
        <ele>-6.5999999046326</ele>
        <time>2022-04-10T08:16:46.000Z</time>
      </trkpt>
      <trkpt lat="47.30202" lon="-2.30202">
        <ele>-6.5999999046326</ele>
        <time>2022-04-10T08:16:52.000Z</time>
      </trkpt>
      <trkpt lat="47.302" lon="-2.30224">
        <ele>-6.5999999046326</ele>
        <time>2022-04-10T08:16:57.000Z</time>
      </trkpt>
      <trkpt lat="47.30189" lon="-2.30237">
        <ele>-6.5999999046326</ele>
        <time>2022-04-10T08:17:03.000Z</time>
      </trkpt>
      <trkpt lat="47.30174" lon="-2.30248">
        <ele>-6.5999999046326</ele>
        <time>2022-04-10T08:17:09.000Z</time>
      </trkpt>
      <trkpt lat="47.30154" lon="-2.30257">
        <ele>-6.5999999046326</ele>
        <time>2022-04-10T08:17:15.000Z</time>
      </trkpt>
      <trkpt lat="47.30127" lon="-2.30261">
        <ele>-6.5999999046326</ele>
        <time>2022-04-10T08:17:23.000Z</time>
      </trkpt>
      <trkpt lat="47.30113" lon="-2.3027">
        <ele>-6.5999999046326</ele>
        <time>2022-04-10T08:17:27.000Z</time>
      </trkpt>
      <trkpt lat="47.30108" lon="-2.3028">
        <ele>-6.5999999046326</ele>
        <time>2022-04-10T08:17:29.000Z</time>
      </trkpt>
      <trkpt lat="47.30106" lon="-2.30291">
        <ele>-6.5999999046326</ele>
        <time>2022-04-10T08:17:31.000Z</time>
      </trkpt>
      <trkpt lat="47.30108" lon="-2.3031">
        <ele>-5.5999999046326</ele>
        <time>2022-04-10T08:17:34.000Z</time>
      </trkpt>
      <trkpt lat="47.3011" lon="-2.30316">
        <ele>-5.1999998092651</ele>
        <time>2022-04-10T08:17:35.000Z</time>
      </trkpt>
      <trkpt lat="47.30112" lon="-2.30322">
        <ele>-4.8000001907349</ele>
        <time>2022-04-10T08:17:36.000Z</time>
      </trkpt>
      <trkpt lat="47.30114" lon="-2.30328">
        <ele>-4.4000000953674</ele>
        <time>2022-04-10T08:17:37.000Z</time>
      </trkpt>
      <trkpt lat="47.30122" lon="-2.30354">
        <ele>-4.4000000953674</ele>
        <time>2022-04-10T08:17:42.000Z</time>
      </trkpt>
      <trkpt lat="47.30132" lon="-2.30391">
        <ele>-4.4000000953674</ele>
        <time>2022-04-10T08:17:49.000Z</time>
      </trkpt>
      <trkpt lat="47.30146" lon="-2.30438">
        <ele>-4.4000000953674</ele>
        <time>2022-04-10T08:17:58.000Z</time>
      </trkpt>
      <trkpt lat="47.30163" lon="-2.3047">
        <ele>-4.4000000953674</ele>
        <time>2022-04-10T08:18:05.000Z</time>
      </trkpt>
      <trkpt lat="47.30179" lon="-2.30494">
        <ele>-4.4000000953674</ele>
        <time>2022-04-10T08:18:10.000Z</time>
      </trkpt>
      <trkpt lat="47.30183" lon="-2.30498">
        <ele>-4.4000000953674</ele>
        <time>2022-04-10T08:18:11.000Z</time>
      </trkpt>
      <trkpt lat="47.30193" lon="-2.3051">
        <ele>-4.4000000953674</ele>
        <time>2022-04-10T08:18:14.000Z</time>
      </trkpt>
      <trkpt lat="47.30204" lon="-2.30519">
        <ele>-4.4000000953674</ele>
        <time>2022-04-10T08:18:17.000Z</time>
      </trkpt>
      <trkpt lat="47.30224" lon="-2.30538">
        <ele>-4.4000000953674</ele>
        <time>2022-04-10T08:18:22.000Z</time>
      </trkpt>
      <trkpt lat="47.30228" lon="-2.30549">
        <ele>-4.4000000953674</ele>
        <time>2022-04-10T08:18:24.000Z</time>
      </trkpt>
      <trkpt lat="47.30231" lon="-2.3056">
        <ele>-4.4000000953674</ele>
        <time>2022-04-10T08:18:26.000Z</time>
      </trkpt>
      <trkpt lat="47.3023" lon="-2.30578">
        <ele>-4.4000000953674</ele>
        <time>2022-04-10T08:18:29.000Z</time>
      </trkpt>
      <trkpt lat="47.30219" lon="-2.30596">
        <ele>-4.4000000953674</ele>
        <time>2022-04-10T08:18:33.000Z</time>
      </trkpt>
      <trkpt lat="47.30211" lon="-2.30599">
        <ele>-4.4000000953674</ele>
        <time>2022-04-10T08:18:35.000Z</time>
      </trkpt>
      <trkpt lat="47.30201" lon="-2.30608">
        <ele>-4.4000000953674</ele>
        <time>2022-04-10T08:18:38.000Z</time>
      </trkpt>
      <trkpt lat="47.30179" lon="-2.30629">
        <ele>-4.4000000953674</ele>
        <time>2022-04-10T08:18:45.000Z</time>
      </trkpt>
      <trkpt lat="47.30168" lon="-2.30639">
        <ele>-4.4000000953674</ele>
        <time>2022-04-10T08:18:48.000Z</time>
      </trkpt>
      <trkpt lat="47.30164" lon="-2.30651">
        <ele>-4.4000000953674</ele>
        <time>2022-04-10T08:18:50.000Z</time>
      </trkpt>
      <trkpt lat="47.30165" lon="-2.30679">
        <ele>-4.4000000953674</ele>
        <time>2022-04-10T08:18:54.000Z</time>
      </trkpt>
      <trkpt lat="47.30169" lon="-2.30715">
        <ele>-4.4000000953674</ele>
        <time>2022-04-10T08:18:59.000Z</time>
      </trkpt>
      <trkpt lat="47.30169" lon="-2.30722">
        <ele>-4.4000000953674</ele>
        <time>2022-04-10T08:19:00.000Z</time>
      </trkpt>
      <trkpt lat="47.30171" lon="-2.30755">
        <ele>-4.4000000953674</ele>
        <time>2022-04-10T08:19:05.000Z</time>
      </trkpt>
      <trkpt lat="47.3017" lon="-2.30761">
        <ele>-4.4000000953674</ele>
        <time>2022-04-10T08:19:06.000Z</time>
      </trkpt>
      <trkpt lat="47.30167" lon="-2.3078">
        <ele>-4.4000000953674</ele>
        <time>2022-04-10T08:19:09.000Z</time>
      </trkpt>
      <trkpt lat="47.30166" lon="-2.30786">
        <ele>-4.4000000953674</ele>
        <time>2022-04-10T08:19:10.000Z</time>
      </trkpt>
      <trkpt lat="47.30166" lon="-2.30792">
        <ele>-4.4000000953674</ele>
        <time>2022-04-10T08:19:11.000Z</time>
      </trkpt>
      <trkpt lat="47.30172" lon="-2.30803">
        <ele>-4.4000000953674</ele>
        <time>2022-04-10T08:19:14.000Z</time>
      </trkpt>
      <trkpt lat="47.30186" lon="-2.30815">
        <ele>-4.4000000953674</ele>
        <time>2022-04-10T08:19:18.000Z</time>
      </trkpt>
      <trkpt lat="47.30189" lon="-2.30819">
        <ele>-4.4000000953674</ele>
        <time>2022-04-10T08:19:19.000Z</time>
      </trkpt>
      <trkpt lat="47.30211" lon="-2.30844">
        <ele>-4.4000000953674</ele>
        <time>2022-04-10T08:19:25.000Z</time>
      </trkpt>
      <trkpt lat="47.30244" lon="-2.3088">
        <ele>-4.4000000953674</ele>
        <time>2022-04-10T08:19:33.000Z</time>
      </trkpt>
      <trkpt lat="47.30263" lon="-2.30905">
        <ele>-4</ele>
        <time>2022-04-10T08:19:39.000Z</time>
      </trkpt>
      <trkpt lat="47.30266" lon="-2.30909">
        <ele>-3.5999999046326</ele>
        <time>2022-04-10T08:19:40.000Z</time>
      </trkpt>
      <trkpt lat="47.30269" lon="-2.30913">
        <ele>-3.2000000476837</ele>
        <time>2022-04-10T08:19:41.000Z</time>
      </trkpt>
      <trkpt lat="47.30273" lon="-2.30916">
        <ele>-2.7999999523163</ele>
        <time>2022-04-10T08:19:42.000Z</time>
      </trkpt>
      <trkpt lat="47.30276" lon="-2.3092">
        <ele>-2.4000000953674</ele>
        <time>2022-04-10T08:19:43.000Z</time>
      </trkpt>
      <trkpt lat="47.30281" lon="-2.30928">
        <ele>-2.4000000953674</ele>
        <time>2022-04-10T08:19:45.000Z</time>
      </trkpt>
      <trkpt lat="47.30295" lon="-2.30948">
        <ele>-2</ele>
        <time>2022-04-10T08:19:50.000Z</time>
      </trkpt>
      <trkpt lat="47.30298" lon="-2.30952">
        <ele>-1.6000000238419</ele>
        <time>2022-04-10T08:19:51.000Z</time>
      </trkpt>
      <trkpt lat="47.30301" lon="-2.30956">
        <ele>-1.2000000476837</ele>
        <time>2022-04-10T08:19:52.000Z</time>
      </trkpt>
      <trkpt lat="47.30304" lon="-2.30961">
        <ele>-0.80000001192093</ele>
        <time>2022-04-10T08:19:53.000Z</time>
      </trkpt>
      <trkpt lat="47.30307" lon="-2.30965">
        <ele>-0.40000000596046</ele>
        <time>2022-04-10T08:19:54.000Z</time>
      </trkpt>
      <trkpt lat="47.30323" lon="-2.30986">
        <ele>-0.40000000596046</ele>
        <time>2022-04-10T08:20:00.000Z</time>
      </trkpt>
      <trkpt lat="47.30327" lon="-2.30993">
        <ele>0.40000000596046</ele>
        <time>2022-04-10T08:20:02.000Z</time>
      </trkpt>
      <trkpt lat="47.3033" lon="-2.30996">
        <ele>0.80000001192093</ele>
        <time>2022-04-10T08:20:03.000Z</time>
      </trkpt>
      <trkpt lat="47.30332" lon="-2.30998">
        <ele>1.2000000476837</ele>
        <time>2022-04-10T08:20:04.000Z</time>
      </trkpt>
      <trkpt lat="47.30334" lon="-2.31002">
        <ele>1.6000000238419</ele>
        <time>2022-04-10T08:20:05.000Z</time>
      </trkpt>
      <trkpt lat="47.30353" lon="-2.31027">
        <ele>1.6000000238419</ele>
        <time>2022-04-10T08:20:12.000Z</time>
      </trkpt>
      <trkpt lat="47.3036" lon="-2.31036">
        <ele>2.2000000476837</ele>
        <time>2022-04-10T08:20:14.000Z</time>
      </trkpt>
      <trkpt lat="47.30363" lon="-2.3104">
        <ele>2.5999999046326</ele>
        <time>2022-04-10T08:20:15.000Z</time>
      </trkpt>
      <trkpt lat="47.30367" lon="-2.31045">
        <ele>3</ele>
        <time>2022-04-10T08:20:16.000Z</time>
      </trkpt>
      <trkpt lat="47.3037" lon="-2.3105">
        <ele>3.4000000953674</ele>
        <time>2022-04-10T08:20:17.000Z</time>
      </trkpt>
      <trkpt lat="47.30374" lon="-2.31055">
        <ele>3.7999999523163</ele>
        <time>2022-04-10T08:20:18.000Z</time>
      </trkpt>
      <trkpt lat="47.30377" lon="-2.3106">
        <ele>3.7999999523163</ele>
        <time>2022-04-10T08:20:19.000Z</time>
      </trkpt>
      <trkpt lat="47.30388" lon="-2.31074">
        <ele>3.7999999523163</ele>
        <time>2022-04-10T08:20:22.000Z</time>
      </trkpt>
      <trkpt lat="47.30399" lon="-2.31085">
        <ele>3.7999999523163</ele>
        <time>2022-04-10T08:20:25.000Z</time>
      </trkpt>
      <trkpt lat="47.30435" lon="-2.31114">
        <ele>4.1999998092651</ele>
        <time>2022-04-10T08:20:33.000Z</time>
      </trkpt>
      <trkpt lat="47.3044" lon="-2.31118">
        <ele>4.8000001907349</ele>
        <time>2022-04-10T08:20:34.000Z</time>
      </trkpt>
      <trkpt lat="47.30444" lon="-2.31123">
        <ele>5.1999998092651</ele>
        <time>2022-04-10T08:20:35.000Z</time>
      </trkpt>
      <trkpt lat="47.30447" lon="-2.31129">
        <ele>5.5999999046326</ele>
        <time>2022-04-10T08:20:36.000Z</time>
      </trkpt>
      <trkpt lat="47.3045" lon="-2.31135">
        <ele>6</ele>
        <time>2022-04-10T08:20:37.000Z</time>
      </trkpt>
      <trkpt lat="47.30453" lon="-2.31142">
        <ele>6</ele>
        <time>2022-04-10T08:20:38.000Z</time>
      </trkpt>
      <trkpt lat="47.30467" lon="-2.31183">
        <ele>6</ele>
        <time>2022-04-10T08:20:44.000Z</time>
      </trkpt>
      <trkpt lat="47.30471" lon="-2.31196">
        <ele>6</ele>
        <time>2022-04-10T08:20:46.000Z</time>
      </trkpt>
      <trkpt lat="47.3048" lon="-2.31225">
        <ele>6</ele>
        <time>2022-04-10T08:20:50.000Z</time>
      </trkpt>
      <trkpt lat="47.30497" lon="-2.31261">
        <ele>6</ele>
        <time>2022-04-10T08:20:56.000Z</time>
      </trkpt>
      <trkpt lat="47.30518" lon="-2.31296">
        <ele>6</ele>
        <time>2022-04-10T08:21:03.000Z</time>
      </trkpt>
      <trkpt lat="47.30522" lon="-2.31301">
        <ele>6</ele>
        <time>2022-04-10T08:21:04.000Z</time>
      </trkpt>
      <trkpt lat="47.30539" lon="-2.31327">
        <ele>6</ele>
        <time>2022-04-10T08:21:09.000Z</time>
      </trkpt>
      <trkpt lat="47.3056" lon="-2.3136">
        <ele>6</ele>
        <time>2022-04-10T08:21:16.000Z</time>
      </trkpt>
      <trkpt lat="47.30575" lon="-2.31383">
        <ele>6</ele>
        <time>2022-04-10T08:21:22.000Z</time>
      </trkpt>
      <trkpt lat="47.30579" lon="-2.31393">
        <ele>6</ele>
        <time>2022-04-10T08:21:24.000Z</time>
      </trkpt>
      <trkpt lat="47.3059" lon="-2.31417">
        <ele>6</ele>
        <time>2022-04-10T08:21:28.000Z</time>
      </trkpt>
      <trkpt lat="47.30606" lon="-2.31462">
        <ele>6</ele>
        <time>2022-04-10T08:21:34.000Z</time>
      </trkpt>
      <trkpt lat="47.30622" lon="-2.31505">
        <ele>6</ele>
        <time>2022-04-10T08:21:40.000Z</time>
      </trkpt>
      <trkpt lat="47.30625" lon="-2.31511">
        <ele>6</ele>
        <time>2022-04-10T08:21:41.000Z</time>
      </trkpt>
      <trkpt lat="47.30641" lon="-2.31549">
        <ele>5.5999999046326</ele>
        <time>2022-04-10T08:21:46.000Z</time>
      </trkpt>
      <trkpt lat="47.30644" lon="-2.31557">
        <ele>5.1999998092651</ele>
        <time>2022-04-10T08:21:47.000Z</time>
      </trkpt>
      <trkpt lat="47.30647" lon="-2.31564">
        <ele>4.8000001907349</ele>
        <time>2022-04-10T08:21:48.000Z</time>
      </trkpt>
      <trkpt lat="47.3065" lon="-2.31572">
        <ele>4.4000000953674</ele>
        <time>2022-04-10T08:21:49.000Z</time>
      </trkpt>
      <trkpt lat="47.30654" lon="-2.3158">
        <ele>3.7999999523163</ele>
        <time>2022-04-10T08:21:50.000Z</time>
      </trkpt>
      <trkpt lat="47.30665" lon="-2.31603">
        <ele>3.7999999523163</ele>
        <time>2022-04-10T08:21:53.000Z</time>
      </trkpt>
      <trkpt lat="47.30676" lon="-2.31628">
        <ele>3.4000000953674</ele>
        <time>2022-04-10T08:21:56.000Z</time>
      </trkpt>
      <trkpt lat="47.30679" lon="-2.31637">
        <ele>3</ele>
        <time>2022-04-10T08:21:57.000Z</time>
      </trkpt>
      <trkpt lat="47.30682" lon="-2.31646">
        <ele>2.5999999046326</ele>
        <time>2022-04-10T08:21:58.000Z</time>
      </trkpt>
      <trkpt lat="47.30684" lon="-2.31655">
        <ele>2.2000000476837</ele>
        <time>2022-04-10T08:21:59.000Z</time>
      </trkpt>
      <trkpt lat="47.30687" lon="-2.31663">
        <ele>1.7999999523163</ele>
        <time>2022-04-10T08:22:00.000Z</time>
      </trkpt>
      <trkpt lat="47.30689" lon="-2.3167">
        <ele>1.7999999523163</ele>
        <time>2022-04-10T08:22:01.000Z</time>
      </trkpt>
      <trkpt lat="47.30698" lon="-2.31686">
        <ele>1.7999999523163</ele>
        <time>2022-04-10T08:22:04.000Z</time>
      </trkpt>
      <trkpt lat="47.30713" lon="-2.31715">
        <ele>1.7999999523163</ele>
        <time>2022-04-10T08:22:10.000Z</time>
      </trkpt>
      <trkpt lat="47.30729" lon="-2.31756">
        <ele>1.7999999523163</ele>
        <time>2022-04-10T08:22:18.000Z</time>
      </trkpt>
      <trkpt lat="47.30738" lon="-2.31761">
        <ele>1.7999999523163</ele>
        <time>2022-04-10T08:22:22.000Z</time>
      </trkpt>
      <trkpt lat="47.30749" lon="-2.31759">
        <ele>1.7999999523163</ele>
        <time>2022-04-10T08:22:26.000Z</time>
      </trkpt>
      <trkpt lat="47.30756" lon="-2.31749">
        <ele>1.7999999523163</ele>
        <time>2022-04-10T08:22:31.000Z</time>
      </trkpt>
      <trkpt lat="47.30769" lon="-2.31736">
        <ele>1.7999999523163</ele>
        <time>2022-04-10T08:22:37.000Z</time>
      </trkpt>
      <trkpt lat="47.30785" lon="-2.31716">
        <ele>1.7999999523163</ele>
        <time>2022-04-10T08:22:43.000Z</time>
      </trkpt>
      <trkpt lat="47.30791" lon="-2.31709">
        <ele>2.2000000476837</ele>
        <time>2022-04-10T08:22:45.000Z</time>
      </trkpt>
      <trkpt lat="47.30794" lon="-2.31705">
        <ele>2.5999999046326</ele>
        <time>2022-04-10T08:22:46.000Z</time>
      </trkpt>
      <trkpt lat="47.30797" lon="-2.31702">
        <ele>3</ele>
        <time>2022-04-10T08:22:47.000Z</time>
      </trkpt>
      <trkpt lat="47.308" lon="-2.31698">
        <ele>3.5999999046326</ele>
        <time>2022-04-10T08:22:48.000Z</time>
      </trkpt>
      <trkpt lat="47.30803" lon="-2.31695">
        <ele>4</ele>
        <time>2022-04-10T08:22:49.000Z</time>
      </trkpt>
      <trkpt lat="47.30806" lon="-2.31691">
        <ele>4</ele>
        <time>2022-04-10T08:22:50.000Z</time>
      </trkpt>
      <trkpt lat="47.30826" lon="-2.31666">
        <ele>4</ele>
        <time>2022-04-10T08:22:58.000Z</time>
      </trkpt>
      <trkpt lat="47.30834" lon="-2.31657">
        <ele>4.4000000953674</ele>
        <time>2022-04-10T08:23:01.000Z</time>
      </trkpt>
      <trkpt lat="47.30836" lon="-2.31654">
        <ele>4.8000001907349</ele>
        <time>2022-04-10T08:23:02.000Z</time>
      </trkpt>
      <trkpt lat="47.30838" lon="-2.31652">
        <ele>5.1999998092651</ele>
        <time>2022-04-10T08:23:03.000Z</time>
      </trkpt>
      <trkpt lat="47.30841" lon="-2.31649">
        <ele>5.5999999046326</ele>
        <time>2022-04-10T08:23:04.000Z</time>
      </trkpt>
      <trkpt lat="47.30844" lon="-2.31648">
        <ele>6</ele>
        <time>2022-04-10T08:23:05.000Z</time>
      </trkpt>
      <trkpt lat="47.3085" lon="-2.3165">
        <ele>6</ele>
        <time>2022-04-10T08:23:07.000Z</time>
      </trkpt>
      <trkpt lat="47.30856" lon="-2.31656">
        <ele>6</ele>
        <time>2022-04-10T08:23:09.000Z</time>
      </trkpt>
      <trkpt lat="47.30879" lon="-2.31685">
        <ele>6</ele>
        <time>2022-04-10T08:23:16.000Z</time>
      </trkpt>
      <trkpt lat="47.30904" lon="-2.31717">
        <ele>6</ele>
        <time>2022-04-10T08:23:24.000Z</time>
      </trkpt>
      <trkpt lat="47.30926" lon="-2.31744">
        <ele>6</ele>
        <time>2022-04-10T08:23:31.000Z</time>
      </trkpt>
      <trkpt lat="47.30947" lon="-2.31766">
        <ele>6</ele>
        <time>2022-04-10T08:23:38.000Z</time>
      </trkpt>
      <trkpt lat="47.30969" lon="-2.31789">
        <ele>6</ele>
        <time>2022-04-10T08:23:44.000Z</time>
      </trkpt>
      <trkpt lat="47.30996" lon="-2.31816">
        <ele>6</ele>
        <time>2022-04-10T08:23:52.000Z</time>
      </trkpt>
      <trkpt lat="47.31003" lon="-2.31829">
        <ele>6</ele>
        <time>2022-04-10T08:23:55.000Z</time>
      </trkpt>
      <trkpt lat="47.31003" lon="-2.31836">
        <ele>6</ele>
        <time>2022-04-10T08:23:56.000Z</time>
      </trkpt>
      <trkpt lat="47.31002" lon="-2.31856">
        <ele>6</ele>
        <time>2022-04-10T08:23:59.000Z</time>
      </trkpt>
      <trkpt lat="47.31001" lon="-2.31869">
        <ele>6</ele>
        <time>2022-04-10T08:24:01.000Z</time>
      </trkpt>
      <trkpt lat="47.30999" lon="-2.31888">
        <ele>6</ele>
        <time>2022-04-10T08:24:04.000Z</time>
      </trkpt>
      <trkpt lat="47.30998" lon="-2.31894">
        <ele>6</ele>
        <time>2022-04-10T08:24:05.000Z</time>
      </trkpt>
      <trkpt lat="47.3099" lon="-2.31939">
        <ele>6</ele>
        <time>2022-04-10T08:24:11.000Z</time>
      </trkpt>
      <trkpt lat="47.30982" lon="-2.31962">
        <ele>6</ele>
        <time>2022-04-10T08:24:14.000Z</time>
      </trkpt>
      <trkpt lat="47.3098" lon="-2.31977">
        <ele>6</ele>
        <time>2022-04-10T08:24:16.000Z</time>
      </trkpt>
      <trkpt lat="47.30981" lon="-2.31992">
        <ele>6</ele>
        <time>2022-04-10T08:24:18.000Z</time>
      </trkpt>
      <trkpt lat="47.3099" lon="-2.3202">
        <ele>6</ele>
        <time>2022-04-10T08:24:22.000Z</time>
      </trkpt>
      <trkpt lat="47.31011" lon="-2.32067">
        <ele>6</ele>
        <time>2022-04-10T08:24:30.000Z</time>
      </trkpt>
      <trkpt lat="47.3103" lon="-2.32098">
        <ele>6</ele>
        <time>2022-04-10T08:24:36.000Z</time>
      </trkpt>
      <trkpt lat="47.31045" lon="-2.32121">
        <ele>6.4000000953674</ele>
        <time>2022-04-10T08:24:42.000Z</time>
      </trkpt>
      <trkpt lat="47.31048" lon="-2.32125">
        <ele>6.8000001907349</ele>
        <time>2022-04-10T08:24:43.000Z</time>
      </trkpt>
      <trkpt lat="47.31052" lon="-2.32129">
        <ele>7.1999998092651</ele>
        <time>2022-04-10T08:24:44.000Z</time>
      </trkpt>
      <trkpt lat="47.31054" lon="-2.32133">
        <ele>7.5999999046326</ele>
        <time>2022-04-10T08:24:45.000Z</time>
      </trkpt>
      <trkpt lat="47.31057" lon="-2.32137">
        <ele>8</ele>
        <time>2022-04-10T08:24:46.000Z</time>
      </trkpt>
      <trkpt lat="47.31061" lon="-2.32145">
        <ele>8</ele>
        <time>2022-04-10T08:24:48.000Z</time>
      </trkpt>
      <trkpt lat="47.31076" lon="-2.32171">
        <ele>8</ele>
        <time>2022-04-10T08:24:55.000Z</time>
      </trkpt>
      <trkpt lat="47.31087" lon="-2.32191">
        <ele>8</ele>
        <time>2022-04-10T08:25:02.000Z</time>
      </trkpt>
      <trkpt lat="47.31093" lon="-2.32205">
        <ele>8</ele>
        <time>2022-04-10T08:25:07.000Z</time>
      </trkpt>
      <trkpt lat="47.31096" lon="-2.32212">
        <ele>8.3999996185303</ele>
        <time>2022-04-10T08:25:09.000Z</time>
      </trkpt>
      <trkpt lat="47.31096" lon="-2.32214">
        <ele>9</ele>
        <time>2022-04-10T08:25:10.000Z</time>
      </trkpt>
      <trkpt lat="47.31097" lon="-2.32218">
        <ele>9.3999996185303</ele>
        <time>2022-04-10T08:25:11.000Z</time>
      </trkpt>
      <trkpt lat="47.31098" lon="-2.32221">
        <ele>9.8000001907349</ele>
        <time>2022-04-10T08:25:12.000Z</time>
      </trkpt>
      <trkpt lat="47.31099" lon="-2.32224">
        <ele>10.199999809265</ele>
        <time>2022-04-10T08:25:13.000Z</time>
      </trkpt>
      <trkpt lat="47.31106" lon="-2.32244">
        <ele>10.199999809265</ele>
        <time>2022-04-10T08:25:20.000Z</time>
      </trkpt>
      <trkpt lat="47.31113" lon="-2.32259">
        <ele>10.60000038147</ele>
        <time>2022-04-10T08:25:26.000Z</time>
      </trkpt>
      <trkpt lat="47.31114" lon="-2.32262">
        <ele>11</ele>
        <time>2022-04-10T08:25:27.000Z</time>
      </trkpt>
      <trkpt lat="47.31116" lon="-2.32264">
        <ele>11.39999961853</ele>
        <time>2022-04-10T08:25:28.000Z</time>
      </trkpt>
      <trkpt lat="47.31117" lon="-2.32268">
        <ele>11.800000190735</ele>
        <time>2022-04-10T08:25:29.000Z</time>
      </trkpt>
      <trkpt lat="47.31119" lon="-2.3227">
        <ele>12.199999809265</ele>
        <time>2022-04-10T08:25:30.000Z</time>
      </trkpt>
      <trkpt lat="47.31123" lon="-2.32278">
        <ele>12.199999809265</ele>
        <time>2022-04-10T08:25:33.000Z</time>
      </trkpt>
      <trkpt lat="47.31133" lon="-2.323">
        <ele>12.199999809265</ele>
        <time>2022-04-10T08:25:40.000Z</time>
      </trkpt>
      <trkpt lat="47.31139" lon="-2.3232">
        <ele>12.199999809265</ele>
        <time>2022-04-10T08:25:46.000Z</time>
      </trkpt>
      <trkpt lat="47.3114" lon="-2.32324">
        <ele>13</ele>
        <time>2022-04-10T08:25:47.000Z</time>
      </trkpt>
      <trkpt lat="47.31141" lon="-2.32326">
        <ele>13.39999961853</ele>
        <time>2022-04-10T08:25:48.000Z</time>
      </trkpt>
      <trkpt lat="47.31142" lon="-2.3233">
        <ele>13.800000190735</ele>
        <time>2022-04-10T08:25:49.000Z</time>
      </trkpt>
      <trkpt lat="47.31143" lon="-2.32333">
        <ele>14.199999809265</ele>
        <time>2022-04-10T08:25:50.000Z</time>
      </trkpt>
      <trkpt lat="47.31143" lon="-2.3234">
        <ele>14.199999809265</ele>
        <time>2022-04-10T08:25:52.000Z</time>
      </trkpt>
      <trkpt lat="47.31145" lon="-2.32363">
        <ele>14.199999809265</ele>
        <time>2022-04-10T08:25:59.000Z</time>
      </trkpt>
      <trkpt lat="47.31147" lon="-2.32395">
        <ele>14.199999809265</ele>
        <time>2022-04-10T08:26:06.000Z</time>
      </trkpt>
      <trkpt lat="47.31147" lon="-2.32403">
        <ele>14.60000038147</ele>
        <time>2022-04-10T08:26:08.000Z</time>
      </trkpt>
      <trkpt lat="47.31146" lon="-2.32407">
        <ele>15</ele>
        <time>2022-04-10T08:26:09.000Z</time>
      </trkpt>
      <trkpt lat="47.31147" lon="-2.32411">
        <ele>15.39999961853</ele>
        <time>2022-04-10T08:26:10.000Z</time>
      </trkpt>
      <trkpt lat="47.31147" lon="-2.32415">
        <ele>15.800000190735</ele>
        <time>2022-04-10T08:26:11.000Z</time>
      </trkpt>
      <trkpt lat="47.31149" lon="-2.32418">
        <ele>16.39999961853</ele>
        <time>2022-04-10T08:26:12.000Z</time>
      </trkpt>
      <trkpt lat="47.31151" lon="-2.32421">
        <ele>16.39999961853</ele>
        <time>2022-04-10T08:26:13.000Z</time>
      </trkpt>
      <trkpt lat="47.31167" lon="-2.32428">
        <ele>16.39999961853</ele>
        <time>2022-04-10T08:26:18.000Z</time>
      </trkpt>
      <trkpt lat="47.3118" lon="-2.32441">
        <ele>16.39999961853</ele>
        <time>2022-04-10T08:26:23.000Z</time>
      </trkpt>
      <trkpt lat="47.31181" lon="-2.32462">
        <ele>16.39999961853</ele>
        <time>2022-04-10T08:26:27.000Z</time>
      </trkpt>
      <trkpt lat="47.3118" lon="-2.32503">
        <ele>16.39999961853</ele>
        <time>2022-04-10T08:26:34.000Z</time>
      </trkpt>
      <trkpt lat="47.3118" lon="-2.3254">
        <ele>16.39999961853</ele>
        <time>2022-04-10T08:26:40.000Z</time>
      </trkpt>
      <trkpt lat="47.3118" lon="-2.32546">
        <ele>16.39999961853</ele>
        <time>2022-04-10T08:26:41.000Z</time>
      </trkpt>
      <trkpt lat="47.3118" lon="-2.32564">
        <ele>16.39999961853</ele>
        <time>2022-04-10T08:26:44.000Z</time>
      </trkpt>
      <trkpt lat="47.3118" lon="-2.32582">
        <ele>16.39999961853</ele>
        <time>2022-04-10T08:26:47.000Z</time>
      </trkpt>
      <trkpt lat="47.3118" lon="-2.32588">
        <ele>16.799999237061</ele>
        <time>2022-04-10T08:26:48.000Z</time>
      </trkpt>
      <trkpt lat="47.31181" lon="-2.32593">
        <ele>17.200000762939</ele>
        <time>2022-04-10T08:26:49.000Z</time>
      </trkpt>
      <trkpt lat="47.31181" lon="-2.32598">
        <ele>17.60000038147</ele>
        <time>2022-04-10T08:26:50.000Z</time>
      </trkpt>
      <trkpt lat="47.31181" lon="-2.32603">
        <ele>18</ele>
        <time>2022-04-10T08:26:51.000Z</time>
      </trkpt>
      <trkpt lat="47.31181" lon="-2.32608">
        <ele>18.39999961853</ele>
        <time>2022-04-10T08:26:52.000Z</time>
      </trkpt>
      <trkpt lat="47.31181" lon="-2.32612">
        <ele>18.39999961853</ele>
        <time>2022-04-10T08:26:53.000Z</time>
      </trkpt>
      <trkpt lat="47.3118" lon="-2.32624">
        <ele>18.39999961853</ele>
        <time>2022-04-10T08:26:58.000Z</time>
      </trkpt>
      <trkpt lat="47.31178" lon="-2.32627">
        <ele>18.39999961853</ele>
        <time>2022-04-10T08:27:02.000Z</time>
      </trkpt>
      <trkpt lat="47.31178" lon="-2.32633">
        <ele>18.39999961853</ele>
        <time>2022-04-10T08:38:41.000Z</time>
      </trkpt>
      <trkpt lat="47.3118" lon="-2.32635">
        <ele>18.39999961853</ele>
        <time>2022-04-10T08:38:42.000Z</time>
      </trkpt>
      <trkpt lat="47.31184" lon="-2.32648">
        <ele>18.39999961853</ele>
        <time>2022-04-10T08:38:45.000Z</time>
      </trkpt>
      <trkpt lat="47.31188" lon="-2.32657">
        <ele>18.799999237061</ele>
        <time>2022-04-10T08:38:47.000Z</time>
      </trkpt>
      <trkpt lat="47.3119" lon="-2.32662">
        <ele>19.200000762939</ele>
        <time>2022-04-10T08:38:48.000Z</time>
      </trkpt>
      <trkpt lat="47.31192" lon="-2.32666">
        <ele>19.60000038147</ele>
        <time>2022-04-10T08:38:49.000Z</time>
      </trkpt>
      <trkpt lat="47.31194" lon="-2.32671">
        <ele>20</ele>
        <time>2022-04-10T08:38:50.000Z</time>
      </trkpt>
      <trkpt lat="47.31196" lon="-2.32676">
        <ele>20.60000038147</ele>
        <time>2022-04-10T08:38:51.000Z</time>
      </trkpt>
      <trkpt lat="47.31201" lon="-2.32692">
        <ele>20.60000038147</ele>
        <time>2022-04-10T08:38:54.000Z</time>
      </trkpt>
      <trkpt lat="47.31209" lon="-2.32721">
        <ele>20.60000038147</ele>
        <time>2022-04-10T08:39:01.000Z</time>
      </trkpt>
      <trkpt lat="47.3122" lon="-2.32735">
        <ele>20.60000038147</ele>
        <time>2022-04-10T08:39:06.000Z</time>
      </trkpt>
      <trkpt lat="47.31244" lon="-2.32753">
        <ele>20.60000038147</ele>
        <time>2022-04-10T08:39:13.000Z</time>
      </trkpt>
      <trkpt lat="47.3127" lon="-2.32769">
        <ele>20.60000038147</ele>
        <time>2022-04-10T08:39:19.000Z</time>
      </trkpt>
      <trkpt lat="47.31286" lon="-2.32789">
        <ele>20.60000038147</ele>
        <time>2022-04-10T08:39:24.000Z</time>
      </trkpt>
      <trkpt lat="47.31299" lon="-2.32813">
        <ele>20.60000038147</ele>
        <time>2022-04-10T08:39:29.000Z</time>
      </trkpt>
      <trkpt lat="47.31305" lon="-2.32822">
        <ele>20.60000038147</ele>
        <time>2022-04-10T08:39:31.000Z</time>
      </trkpt>
      <trkpt lat="47.31323" lon="-2.3285">
        <ele>20.60000038147</ele>
        <time>2022-04-10T08:39:37.000Z</time>
      </trkpt>
      <trkpt lat="47.31346" lon="-2.3288">
        <ele>20.60000038147</ele>
        <time>2022-04-10T08:39:43.000Z</time>
      </trkpt>
      <trkpt lat="47.31352" lon="-2.32891">
        <ele>20.60000038147</ele>
        <time>2022-04-10T08:39:45.000Z</time>
      </trkpt>
      <trkpt lat="47.31354" lon="-2.32904">
        <ele>20.60000038147</ele>
        <time>2022-04-10T08:39:47.000Z</time>
      </trkpt>
      <trkpt lat="47.31352" lon="-2.32915">
        <ele>20.60000038147</ele>
        <time>2022-04-10T08:39:49.000Z</time>
      </trkpt>
      <trkpt lat="47.31347" lon="-2.32924">
        <ele>20.60000038147</ele>
        <time>2022-04-10T08:39:51.000Z</time>
      </trkpt>
      <trkpt lat="47.3133" lon="-2.32957">
        <ele>20.60000038147</ele>
        <time>2022-04-10T08:39:57.000Z</time>
      </trkpt>
      <trkpt lat="47.31321" lon="-2.32974">
        <ele>20.60000038147</ele>
        <time>2022-04-10T08:40:00.000Z</time>
      </trkpt>
      <trkpt lat="47.31312" lon="-2.3299">
        <ele>20.60000038147</ele>
        <time>2022-04-10T08:40:03.000Z</time>
      </trkpt>
      <trkpt lat="47.31297" lon="-2.33018">
        <ele>20.60000038147</ele>
        <time>2022-04-10T08:40:08.000Z</time>
      </trkpt>
      <trkpt lat="47.31293" lon="-2.33024">
        <ele>20.60000038147</ele>
        <time>2022-04-10T08:40:09.000Z</time>
      </trkpt>
      <trkpt lat="47.31289" lon="-2.3303">
        <ele>20.60000038147</ele>
        <time>2022-04-10T08:40:10.000Z</time>
      </trkpt>
      <trkpt lat="47.31279" lon="-2.33046">
        <ele>20.60000038147</ele>
        <time>2022-04-10T08:40:13.000Z</time>
      </trkpt>
      <trkpt lat="47.31268" lon="-2.33067">
        <ele>20.60000038147</ele>
        <time>2022-04-10T08:40:17.000Z</time>
      </trkpt>
      <trkpt lat="47.31259" lon="-2.33083">
        <ele>20.60000038147</ele>
        <time>2022-04-10T08:40:20.000Z</time>
      </trkpt>
      <trkpt lat="47.31244" lon="-2.33121">
        <ele>20.60000038147</ele>
        <time>2022-04-10T08:40:27.000Z</time>
      </trkpt>
      <trkpt lat="47.31242" lon="-2.33141">
        <ele>20.60000038147</ele>
        <time>2022-04-10T08:40:31.000Z</time>
      </trkpt>
      <trkpt lat="47.31246" lon="-2.33147">
        <ele>20.60000038147</ele>
        <time>2022-04-10T08:40:33.000Z</time>
      </trkpt>
      <trkpt lat="47.31249" lon="-2.33149">
        <ele>20.60000038147</ele>
        <time>2022-04-10T08:40:34.000Z</time>
      </trkpt>
      <trkpt lat="47.31262" lon="-2.33152">
        <ele>20.60000038147</ele>
        <time>2022-04-10T08:40:37.000Z</time>
      </trkpt>
      <trkpt lat="47.31271" lon="-2.33155">
        <ele>20.60000038147</ele>
        <time>2022-04-10T08:40:39.000Z</time>
      </trkpt>
      <trkpt lat="47.31283" lon="-2.3316">
        <ele>20.60000038147</ele>
        <time>2022-04-10T08:40:42.000Z</time>
      </trkpt>
      <trkpt lat="47.31292" lon="-2.33165">
        <ele>20.60000038147</ele>
        <time>2022-04-10T08:40:44.000Z</time>
      </trkpt>
      <trkpt lat="47.31296" lon="-2.33167">
        <ele>20.60000038147</ele>
        <time>2022-04-10T08:40:45.000Z</time>
      </trkpt>
      <trkpt lat="47.31327" lon="-2.33198">
        <ele>20.60000038147</ele>
        <time>2022-04-10T08:40:53.000Z</time>
      </trkpt>
      <trkpt lat="47.31344" lon="-2.33214">
        <ele>20.60000038147</ele>
        <time>2022-04-10T08:40:58.000Z</time>
      </trkpt>
      <trkpt lat="47.31366" lon="-2.3323">
        <ele>20.60000038147</ele>
        <time>2022-04-10T08:41:04.000Z</time>
      </trkpt>
      <trkpt lat="47.314" lon="-2.33255">
        <ele>20.60000038147</ele>
        <time>2022-04-10T08:41:12.000Z</time>
      </trkpt>
      <trkpt lat="47.31417" lon="-2.33267">
        <ele>20.60000038147</ele>
        <time>2022-04-10T08:41:16.000Z</time>
      </trkpt>
      <trkpt lat="47.31428" lon="-2.33279">
        <ele>20.60000038147</ele>
        <time>2022-04-10T08:41:19.000Z</time>
      </trkpt>
      <trkpt lat="47.31445" lon="-2.333">
        <ele>21</ele>
        <time>2022-04-10T08:41:24.000Z</time>
      </trkpt>
      <trkpt lat="47.31448" lon="-2.33305">
        <ele>21.39999961853</ele>
        <time>2022-04-10T08:41:25.000Z</time>
      </trkpt>
      <trkpt lat="47.31451" lon="-2.33311">
        <ele>22.200000762939</ele>
        <time>2022-04-10T08:41:26.000Z</time>
      </trkpt>
      <trkpt lat="47.31454" lon="-2.33316">
        <ele>22.60000038147</ele>
        <time>2022-04-10T08:41:27.000Z</time>
      </trkpt>
      <trkpt lat="47.31462" lon="-2.33333">
        <ele>22.60000038147</ele>
        <time>2022-04-10T08:41:30.000Z</time>
      </trkpt>
      <trkpt lat="47.31479" lon="-2.33365">
        <ele>22.60000038147</ele>
        <time>2022-04-10T08:41:37.000Z</time>
      </trkpt>
      <trkpt lat="47.31491" lon="-2.33371">
        <ele>22.60000038147</ele>
        <time>2022-04-10T08:41:40.000Z</time>
      </trkpt>
      <trkpt lat="47.31505" lon="-2.33362">
        <ele>22.60000038147</ele>
        <time>2022-04-10T08:41:43.000Z</time>
      </trkpt>
      <trkpt lat="47.3151" lon="-2.33359">
        <ele>22.60000038147</ele>
        <time>2022-04-10T08:41:44.000Z</time>
      </trkpt>
      <trkpt lat="47.31515" lon="-2.33356">
        <ele>23</ele>
        <time>2022-04-10T08:41:45.000Z</time>
      </trkpt>
      <trkpt lat="47.3152" lon="-2.33353">
        <ele>23.60000038147</ele>
        <time>2022-04-10T08:41:46.000Z</time>
      </trkpt>
      <trkpt lat="47.31525" lon="-2.3335">
        <ele>24</ele>
        <time>2022-04-10T08:41:47.000Z</time>
      </trkpt>
      <trkpt lat="47.31531" lon="-2.33347">
        <ele>24.39999961853</ele>
        <time>2022-04-10T08:41:48.000Z</time>
      </trkpt>
      <trkpt lat="47.31536" lon="-2.33345">
        <ele>25</ele>
        <time>2022-04-10T08:41:49.000Z</time>
      </trkpt>
      <trkpt lat="47.31547" lon="-2.3334">
        <ele>25</ele>
        <time>2022-04-10T08:41:51.000Z</time>
      </trkpt>
      <trkpt lat="47.31593" lon="-2.33317">
        <ele>25</ele>
        <time>2022-04-10T08:41:59.000Z</time>
      </trkpt>
      <trkpt lat="47.31632" lon="-2.33294">
        <ele>25</ele>
        <time>2022-04-10T08:42:06.000Z</time>
      </trkpt>
      <trkpt lat="47.3168" lon="-2.33271">
        <ele>25</ele>
        <time>2022-04-10T08:42:14.000Z</time>
      </trkpt>
      <trkpt lat="47.31703" lon="-2.33259">
        <ele>24.39999961853</ele>
        <time>2022-04-10T08:42:18.000Z</time>
      </trkpt>
      <trkpt lat="47.3171" lon="-2.33256">
        <ele>24</ele>
        <time>2022-04-10T08:42:19.000Z</time>
      </trkpt>
      <trkpt lat="47.31716" lon="-2.33253">
        <ele>23.60000038147</ele>
        <time>2022-04-10T08:42:20.000Z</time>
      </trkpt>
      <trkpt lat="47.31723" lon="-2.3325">
        <ele>23.200000762939</ele>
        <time>2022-04-10T08:42:21.000Z</time>
      </trkpt>
      <trkpt lat="47.3173" lon="-2.33248">
        <ele>22.60000038147</ele>
        <time>2022-04-10T08:42:22.000Z</time>
      </trkpt>
      <trkpt lat="47.31736" lon="-2.33245">
        <ele>22.60000038147</ele>
        <time>2022-04-10T08:42:23.000Z</time>
      </trkpt>
      <trkpt lat="47.31742" lon="-2.33245">
        <ele>22.200000762939</ele>
        <time>2022-04-10T08:42:24.000Z</time>
      </trkpt>
      <trkpt lat="47.31748" lon="-2.33246">
        <ele>21.799999237061</ele>
        <time>2022-04-10T08:42:25.000Z</time>
      </trkpt>
      <trkpt lat="47.31753" lon="-2.33248">
        <ele>21.39999961853</ele>
        <time>2022-04-10T08:42:26.000Z</time>
      </trkpt>
      <trkpt lat="47.31758" lon="-2.33251">
        <ele>20.799999237061</ele>
        <time>2022-04-10T08:42:27.000Z</time>
      </trkpt>
      <trkpt lat="47.31762" lon="-2.33255">
        <ele>20.39999961853</ele>
        <time>2022-04-10T08:42:28.000Z</time>
      </trkpt>
      <trkpt lat="47.31766" lon="-2.33271">
        <ele>20.39999961853</ele>
        <time>2022-04-10T08:42:30.000Z</time>
      </trkpt>
      <trkpt lat="47.31767" lon="-2.3328">
        <ele>20.39999961853</ele>
        <time>2022-04-10T08:42:31.000Z</time>
      </trkpt>
      <trkpt lat="47.31772" lon="-2.33307">
        <ele>20.39999961853</ele>
        <time>2022-04-10T08:42:34.000Z</time>
      </trkpt>
      <trkpt lat="47.31779" lon="-2.33321">
        <ele>20.39999961853</ele>
        <time>2022-04-10T08:42:36.000Z</time>
      </trkpt>
      <trkpt lat="47.31783" lon="-2.33326">
        <ele>20</ele>
        <time>2022-04-10T08:42:37.000Z</time>
      </trkpt>
      <trkpt lat="47.31787" lon="-2.33327">
        <ele>19.60000038147</ele>
        <time>2022-04-10T08:42:38.000Z</time>
      </trkpt>
      <trkpt lat="47.31791" lon="-2.33325">
        <ele>19.200000762939</ele>
        <time>2022-04-10T08:42:39.000Z</time>
      </trkpt>
      <trkpt lat="47.31796" lon="-2.33321">
        <ele>18.39999961853</ele>
        <time>2022-04-10T08:42:40.000Z</time>
      </trkpt>
      <trkpt lat="47.31802" lon="-2.33315">
        <ele>17.799999237061</ele>
        <time>2022-04-10T08:42:41.000Z</time>
      </trkpt>
      <trkpt lat="47.31807" lon="-2.3331">
        <ele>17.39999961853</ele>
        <time>2022-04-10T08:42:42.000Z</time>
      </trkpt>
      <trkpt lat="47.31813" lon="-2.33305">
        <ele>16.799999237061</ele>
        <time>2022-04-10T08:42:43.000Z</time>
      </trkpt>
      <trkpt lat="47.31819" lon="-2.333">
        <ele>16.39999961853</ele>
        <time>2022-04-10T08:42:44.000Z</time>
      </trkpt>
      <trkpt lat="47.31826" lon="-2.33295">
        <ele>16</ele>
        <time>2022-04-10T08:42:45.000Z</time>
      </trkpt>
      <trkpt lat="47.31832" lon="-2.3329">
        <ele>15.39999961853</ele>
        <time>2022-04-10T08:42:46.000Z</time>
      </trkpt>
      <trkpt lat="47.31838" lon="-2.33285">
        <ele>15</ele>
        <time>2022-04-10T08:42:47.000Z</time>
      </trkpt>
      <trkpt lat="47.31844" lon="-2.33279">
        <ele>14.60000038147</ele>
        <time>2022-04-10T08:42:48.000Z</time>
      </trkpt>
      <trkpt lat="47.31848" lon="-2.33272">
        <ele>14.199999809265</ele>
        <time>2022-04-10T08:42:49.000Z</time>
      </trkpt>
      <trkpt lat="47.31852" lon="-2.33265">
        <ele>13.800000190735</ele>
        <time>2022-04-10T08:42:50.000Z</time>
      </trkpt>
      <trkpt lat="47.31859" lon="-2.33251">
        <ele>13.800000190735</ele>
        <time>2022-04-10T08:42:52.000Z</time>
      </trkpt>
      <trkpt lat="47.31865" lon="-2.33233">
        <ele>13.800000190735</ele>
        <time>2022-04-10T08:42:54.000Z</time>
      </trkpt>
      <trkpt lat="47.31868" lon="-2.33214">
        <ele>13.800000190735</ele>
        <time>2022-04-10T08:42:56.000Z</time>
      </trkpt>
      <trkpt lat="47.3187" lon="-2.33193">
        <ele>13.39999961853</ele>
        <time>2022-04-10T08:42:58.000Z</time>
      </trkpt>
      <trkpt lat="47.31872" lon="-2.33183">
        <ele>12.800000190735</ele>
        <time>2022-04-10T08:42:59.000Z</time>
      </trkpt>
      <trkpt lat="47.31874" lon="-2.33173">
        <ele>12.39999961853</ele>
        <time>2022-04-10T08:43:00.000Z</time>
      </trkpt>
      <trkpt lat="47.31876" lon="-2.33163">
        <ele>12</ele>
        <time>2022-04-10T08:43:01.000Z</time>
      </trkpt>
      <trkpt lat="47.31877" lon="-2.33154">
        <ele>11.60000038147</ele>
        <time>2022-04-10T08:43:02.000Z</time>
      </trkpt>
      <trkpt lat="47.3188" lon="-2.33133">
        <ele>11.199999809265</ele>
        <time>2022-04-10T08:43:04.000Z</time>
      </trkpt>
      <trkpt lat="47.31881" lon="-2.33122">
        <ele>10.800000190735</ele>
        <time>2022-04-10T08:43:05.000Z</time>
      </trkpt>
      <trkpt lat="47.31883" lon="-2.3311">
        <ele>10.39999961853</ele>
        <time>2022-04-10T08:43:06.000Z</time>
      </trkpt>
      <trkpt lat="47.31885" lon="-2.33097">
        <ele>10</ele>
        <time>2022-04-10T08:43:07.000Z</time>
      </trkpt>
      <trkpt lat="47.31887" lon="-2.33084">
        <ele>9.6000003814697</ele>
        <time>2022-04-10T08:43:08.000Z</time>
      </trkpt>
      <trkpt lat="47.31888" lon="-2.33072">
        <ele>9.6000003814697</ele>
        <time>2022-04-10T08:43:09.000Z</time>
      </trkpt>
      <trkpt lat="47.3189" lon="-2.33051">
        <ele>9.1999998092651</ele>
        <time>2022-04-10T08:43:11.000Z</time>
      </trkpt>
      <trkpt lat="47.31891" lon="-2.3304">
        <ele>8.8000001907349</ele>
        <time>2022-04-10T08:43:12.000Z</time>
      </trkpt>
      <trkpt lat="47.31892" lon="-2.3303">
        <ele>8.3999996185303</ele>
        <time>2022-04-10T08:43:13.000Z</time>
      </trkpt>
      <trkpt lat="47.31892" lon="-2.3302">
        <ele>7.8000001907349</ele>
        <time>2022-04-10T08:43:14.000Z</time>
      </trkpt>
      <trkpt lat="47.31891" lon="-2.33009">
        <ele>7.4000000953674</ele>
        <time>2022-04-10T08:43:15.000Z</time>
      </trkpt>
      <trkpt lat="47.31892" lon="-2.32988">
        <ele>7.4000000953674</ele>
        <time>2022-04-10T08:43:17.000Z</time>
      </trkpt>
      <trkpt lat="47.31895" lon="-2.3296">
        <ele>7.4000000953674</ele>
        <time>2022-04-10T08:43:20.000Z</time>
      </trkpt>
      <trkpt lat="47.31897" lon="-2.32933">
        <ele>7.4000000953674</ele>
        <time>2022-04-10T08:43:23.000Z</time>
      </trkpt>
      <trkpt lat="47.31897" lon="-2.32905">
        <ele>7.4000000953674</ele>
        <time>2022-04-10T08:43:26.000Z</time>
      </trkpt>
      <trkpt lat="47.319" lon="-2.32855">
        <ele>7.4000000953674</ele>
        <time>2022-04-10T08:43:31.000Z</time>
      </trkpt>
      <trkpt lat="47.319" lon="-2.32845">
        <ele>7.4000000953674</ele>
        <time>2022-04-10T08:43:32.000Z</time>
      </trkpt>
      <trkpt lat="47.31901" lon="-2.32817">
        <ele>7.4000000953674</ele>
        <time>2022-04-10T08:43:35.000Z</time>
      </trkpt>
      <trkpt lat="47.31902" lon="-2.32799">
        <ele>7.4000000953674</ele>
        <time>2022-04-10T08:43:37.000Z</time>
      </trkpt>
      <trkpt lat="47.31899" lon="-2.3277">
        <ele>7.4000000953674</ele>
        <time>2022-04-10T08:43:40.000Z</time>
      </trkpt>
      <trkpt lat="47.31898" lon="-2.32761">
        <ele>7.4000000953674</ele>
        <time>2022-04-10T08:43:41.000Z</time>
      </trkpt>
      <trkpt lat="47.31891" lon="-2.32739">
        <ele>7.8000001907349</ele>
        <time>2022-04-10T08:43:44.000Z</time>
      </trkpt>
      <trkpt lat="47.31888" lon="-2.32732">
        <ele>8.3999996185303</ele>
        <time>2022-04-10T08:43:45.000Z</time>
      </trkpt>
      <trkpt lat="47.31885" lon="-2.32724">
        <ele>8.8000001907349</ele>
        <time>2022-04-10T08:43:46.000Z</time>
      </trkpt>
      <trkpt lat="47.31882" lon="-2.32718">
        <ele>9.1999998092651</ele>
        <time>2022-04-10T08:43:47.000Z</time>
      </trkpt>
      <trkpt lat="47.31879" lon="-2.32711">
        <ele>9.6000003814697</ele>
        <time>2022-04-10T08:43:48.000Z</time>
      </trkpt>
      <trkpt lat="47.3187" lon="-2.32692">
        <ele>9.6000003814697</ele>
        <time>2022-04-10T08:43:51.000Z</time>
      </trkpt>
      <trkpt lat="47.31856" lon="-2.32659">
        <ele>9.6000003814697</ele>
        <time>2022-04-10T08:43:57.000Z</time>
      </trkpt>
      <trkpt lat="47.31849" lon="-2.32631">
        <ele>10</ele>
        <time>2022-04-10T08:44:02.000Z</time>
      </trkpt>
      <trkpt lat="47.31848" lon="-2.32625">
        <ele>10.39999961853</ele>
        <time>2022-04-10T08:44:03.000Z</time>
      </trkpt>
      <trkpt lat="47.31847" lon="-2.3262">
        <ele>10.800000190735</ele>
        <time>2022-04-10T08:44:04.000Z</time>
      </trkpt>
      <trkpt lat="47.31846" lon="-2.32614">
        <ele>11.199999809265</ele>
        <time>2022-04-10T08:44:05.000Z</time>
      </trkpt>
      <trkpt lat="47.31844" lon="-2.3261">
        <ele>11.60000038147</ele>
        <time>2022-04-10T08:44:06.000Z</time>
      </trkpt>
      <trkpt lat="47.31841" lon="-2.326">
        <ele>11.60000038147</ele>
        <time>2022-04-10T08:44:08.000Z</time>
      </trkpt>
      <trkpt lat="47.31827" lon="-2.32553">
        <ele>11.60000038147</ele>
        <time>2022-04-10T08:44:16.000Z</time>
      </trkpt>
      <trkpt lat="47.31825" lon="-2.32549">
        <ele>12</ele>
        <time>2022-04-10T08:44:17.000Z</time>
      </trkpt>
      <trkpt lat="47.31823" lon="-2.32545">
        <ele>12.800000190735</ele>
        <time>2022-04-10T08:44:18.000Z</time>
      </trkpt>
      <trkpt lat="47.31821" lon="-2.32541">
        <ele>13.199999809265</ele>
        <time>2022-04-10T08:44:19.000Z</time>
      </trkpt>
      <trkpt lat="47.3182" lon="-2.32537">
        <ele>13.60000038147</ele>
        <time>2022-04-10T08:44:20.000Z</time>
      </trkpt>
      <trkpt lat="47.31817" lon="-2.32528">
        <ele>13.60000038147</ele>
        <time>2022-04-10T08:44:22.000Z</time>
      </trkpt>
      <trkpt lat="47.3181" lon="-2.32505">
        <ele>13.60000038147</ele>
        <time>2022-04-10T08:44:28.000Z</time>
      </trkpt>
      <trkpt lat="47.31805" lon="-2.32492">
        <ele>14.199999809265</ele>
        <time>2022-04-10T08:44:32.000Z</time>
      </trkpt>
      <trkpt lat="47.31804" lon="-2.32489">
        <ele>14.60000038147</ele>
        <time>2022-04-10T08:44:33.000Z</time>
      </trkpt>
      <trkpt lat="47.31803" lon="-2.32486">
        <ele>15</ele>
        <time>2022-04-10T08:44:34.000Z</time>
      </trkpt>
      <trkpt lat="47.31802" lon="-2.32482">
        <ele>15.39999961853</ele>
        <time>2022-04-10T08:44:35.000Z</time>
      </trkpt>
      <trkpt lat="47.318" lon="-2.32479">
        <ele>15.800000190735</ele>
        <time>2022-04-10T08:44:36.000Z</time>
      </trkpt>
      <trkpt lat="47.31795" lon="-2.32467">
        <ele>16.39999961853</ele>
        <time>2022-04-10T08:44:39.000Z</time>
      </trkpt>
      <trkpt lat="47.31793" lon="-2.32462">
        <ele>16.799999237061</ele>
        <time>2022-04-10T08:44:40.000Z</time>
      </trkpt>
      <trkpt lat="47.31791" lon="-2.32456">
        <ele>17.799999237061</ele>
        <time>2022-04-10T08:44:41.000Z</time>
      </trkpt>
      <trkpt lat="47.3179" lon="-2.32451">
        <ele>18.200000762939</ele>
        <time>2022-04-10T08:44:42.000Z</time>
      </trkpt>
      <trkpt lat="47.31786" lon="-2.32427">
        <ele>18.200000762939</ele>
        <time>2022-04-10T08:44:46.000Z</time>
      </trkpt>
      <trkpt lat="47.31782" lon="-2.324">
        <ele>18.60000038147</ele>
        <time>2022-04-10T08:44:50.000Z</time>
      </trkpt>
      <trkpt lat="47.31781" lon="-2.32393">
        <ele>19</ele>
        <time>2022-04-10T08:44:51.000Z</time>
      </trkpt>
      <trkpt lat="47.3178" lon="-2.32386">
        <ele>19.39999961853</ele>
        <time>2022-04-10T08:44:52.000Z</time>
      </trkpt>
      <trkpt lat="47.31779" lon="-2.32378">
        <ele>19.799999237061</ele>
        <time>2022-04-10T08:44:53.000Z</time>
      </trkpt>
      <trkpt lat="47.31778" lon="-2.32371">
        <ele>20.200000762939</ele>
        <time>2022-04-10T08:44:54.000Z</time>
      </trkpt>
      <trkpt lat="47.31772" lon="-2.32341">
        <ele>20.200000762939</ele>
        <time>2022-04-10T08:44:59.000Z</time>
      </trkpt>
      <trkpt lat="47.31764" lon="-2.32293">
        <ele>20.60000038147</ele>
        <time>2022-04-10T08:45:07.000Z</time>
      </trkpt>
      <trkpt lat="47.31763" lon="-2.32287">
        <ele>21</ele>
        <time>2022-04-10T08:45:08.000Z</time>
      </trkpt>
      <trkpt lat="47.31762" lon="-2.32281">
        <ele>21.39999961853</ele>
        <time>2022-04-10T08:45:09.000Z</time>
      </trkpt>
      <trkpt lat="47.3176" lon="-2.32276">
        <ele>21.799999237061</ele>
        <time>2022-04-10T08:45:10.000Z</time>
      </trkpt>
      <trkpt lat="47.31759" lon="-2.3227">
        <ele>22.39999961853</ele>
        <time>2022-04-10T08:45:11.000Z</time>
      </trkpt>
      <trkpt lat="47.31757" lon="-2.32261">
        <ele>22.39999961853</ele>
        <time>2022-04-10T08:45:13.000Z</time>
      </trkpt>
      <trkpt lat="47.31752" lon="-2.32243">
        <ele>22.39999961853</ele>
        <time>2022-04-10T08:45:19.000Z</time>
      </trkpt>
      <trkpt lat="47.31751" lon="-2.32238">
        <ele>22.39999961853</ele>
        <time>2022-04-10T08:45:22.000Z</time>
      </trkpt>
      <trkpt lat="47.31753" lon="-2.32236">
        <ele>22.39999961853</ele>
        <time>2022-04-10T08:45:44.000Z</time>
      </trkpt>
      <trkpt lat="47.31755" lon="-2.32234">
        <ele>22.39999961853</ele>
        <time>2022-04-10T08:45:45.000Z</time>
      </trkpt>
      <trkpt lat="47.31768" lon="-2.32231">
        <ele>22.39999961853</ele>
        <time>2022-04-10T08:45:49.000Z</time>
      </trkpt>
      <trkpt lat="47.31775" lon="-2.3223">
        <ele>22.39999961853</ele>
        <time>2022-04-10T08:45:51.000Z</time>
      </trkpt>
      <trkpt lat="47.3179" lon="-2.32228">
        <ele>22.39999961853</ele>
        <time>2022-04-10T08:45:55.000Z</time>
      </trkpt>
      <trkpt lat="47.31817" lon="-2.32224">
        <ele>22.39999961853</ele>
        <time>2022-04-10T08:46:01.000Z</time>
      </trkpt>
      <trkpt lat="47.31828" lon="-2.32223">
        <ele>21.799999237061</ele>
        <time>2022-04-10T08:46:03.000Z</time>
      </trkpt>
      <trkpt lat="47.31833" lon="-2.32222">
        <ele>21.39999961853</ele>
        <time>2022-04-10T08:46:04.000Z</time>
      </trkpt>
      <trkpt lat="47.31838" lon="-2.32221">
        <ele>21</ele>
        <time>2022-04-10T08:46:05.000Z</time>
      </trkpt>
      <trkpt lat="47.31844" lon="-2.32219">
        <ele>20.60000038147</ele>
        <time>2022-04-10T08:46:06.000Z</time>
      </trkpt>
      <trkpt lat="47.3185" lon="-2.32218">
        <ele>20.200000762939</ele>
        <time>2022-04-10T08:46:07.000Z</time>
      </trkpt>
      <trkpt lat="47.31862" lon="-2.32214">
        <ele>19.60000038147</ele>
        <time>2022-04-10T08:46:09.000Z</time>
      </trkpt>
      <trkpt lat="47.31869" lon="-2.32212">
        <ele>19.200000762939</ele>
        <time>2022-04-10T08:46:10.000Z</time>
      </trkpt>
      <trkpt lat="47.31877" lon="-2.3221">
        <ele>18.799999237061</ele>
        <time>2022-04-10T08:46:11.000Z</time>
      </trkpt>
      <trkpt lat="47.31884" lon="-2.32208">
        <ele>18.200000762939</ele>
        <time>2022-04-10T08:46:12.000Z</time>
      </trkpt>
      <trkpt lat="47.31891" lon="-2.32206">
        <ele>17.799999237061</ele>
        <time>2022-04-10T08:46:13.000Z</time>
      </trkpt>
      <trkpt lat="47.31905" lon="-2.32204">
        <ele>17.200000762939</ele>
        <time>2022-04-10T08:46:15.000Z</time>
      </trkpt>
      <trkpt lat="47.31912" lon="-2.32203">
        <ele>16.799999237061</ele>
        <time>2022-04-10T08:46:16.000Z</time>
      </trkpt>
      <trkpt lat="47.31919" lon="-2.32203">
        <ele>16.39999961853</ele>
        <time>2022-04-10T08:46:17.000Z</time>
      </trkpt>
      <trkpt lat="47.31927" lon="-2.32205">
        <ele>16</ele>
        <time>2022-04-10T08:46:18.000Z</time>
      </trkpt>
      <trkpt lat="47.31935" lon="-2.32208">
        <ele>15.39999961853</ele>
        <time>2022-04-10T08:46:19.000Z</time>
      </trkpt>
      <trkpt lat="47.31941" lon="-2.3221">
        <ele>14.800000190735</ele>
        <time>2022-04-10T08:46:20.000Z</time>
      </trkpt>
      <trkpt lat="47.31948" lon="-2.32212">
        <ele>13.800000190735</ele>
        <time>2022-04-10T08:46:21.000Z</time>
      </trkpt>
      <trkpt lat="47.31953" lon="-2.32214">
        <ele>13.199999809265</ele>
        <time>2022-04-10T08:46:22.000Z</time>
      </trkpt>
      <trkpt lat="47.31956" lon="-2.32217">
        <ele>12.60000038147</ele>
        <time>2022-04-10T08:46:23.000Z</time>
      </trkpt>
      <trkpt lat="47.31958" lon="-2.32221">
        <ele>11.800000190735</ele>
        <time>2022-04-10T08:46:24.000Z</time>
      </trkpt>
      <trkpt lat="47.31959" lon="-2.32227">
        <ele>11.199999809265</ele>
        <time>2022-04-10T08:46:25.000Z</time>
      </trkpt>
      <trkpt lat="47.31956" lon="-2.32237">
        <ele>11.199999809265</ele>
        <time>2022-04-10T08:46:27.000Z</time>
      </trkpt>
      <trkpt lat="47.31953" lon="-2.32248">
        <ele>11.199999809265</ele>
        <time>2022-04-10T08:46:29.000Z</time>
      </trkpt>
      <trkpt lat="47.31952" lon="-2.32254">
        <ele>11.199999809265</ele>
        <time>2022-04-10T08:46:30.000Z</time>
      </trkpt>
      <trkpt lat="47.31953" lon="-2.3226">
        <ele>11.199999809265</ele>
        <time>2022-04-10T08:46:31.000Z</time>
      </trkpt>
      <trkpt lat="47.31956" lon="-2.32263">
        <ele>10.800000190735</ele>
        <time>2022-04-10T08:46:32.000Z</time>
      </trkpt>
      <trkpt lat="47.31961" lon="-2.32261">
        <ele>10.39999961853</ele>
        <time>2022-04-10T08:46:33.000Z</time>
      </trkpt>
      <trkpt lat="47.31965" lon="-2.32256">
        <ele>10</ele>
        <time>2022-04-10T08:46:34.000Z</time>
      </trkpt>
      <trkpt lat="47.31969" lon="-2.32249">
        <ele>9.6000003814697</ele>
        <time>2022-04-10T08:46:35.000Z</time>
      </trkpt>
      <trkpt lat="47.31973" lon="-2.32242">
        <ele>9.1999998092651</ele>
        <time>2022-04-10T08:46:36.000Z</time>
      </trkpt>
      <trkpt lat="47.31984" lon="-2.32228">
        <ele>8.8000001907349</ele>
        <time>2022-04-10T08:46:38.000Z</time>
      </trkpt>
      <trkpt lat="47.3199" lon="-2.3222">
        <ele>8.1999998092651</ele>
        <time>2022-04-10T08:46:39.000Z</time>
      </trkpt>
      <trkpt lat="47.31997" lon="-2.32211">
        <ele>7.8000001907349</ele>
        <time>2022-04-10T08:46:40.000Z</time>
      </trkpt>
      <trkpt lat="47.32003" lon="-2.32202">
        <ele>7.4000000953674</ele>
        <time>2022-04-10T08:46:41.000Z</time>
      </trkpt>
      <trkpt lat="47.32009" lon="-2.32193">
        <ele>7</ele>
        <time>2022-04-10T08:46:42.000Z</time>
      </trkpt>
      <trkpt lat="47.32015" lon="-2.32185">
        <ele>6.4000000953674</ele>
        <time>2022-04-10T08:46:43.000Z</time>
      </trkpt>
      <trkpt lat="47.32022" lon="-2.3218">
        <ele>6</ele>
        <time>2022-04-10T08:46:44.000Z</time>
      </trkpt>
      <trkpt lat="47.3203" lon="-2.32179">
        <ele>5</ele>
        <time>2022-04-10T08:46:45.000Z</time>
      </trkpt>
      <trkpt lat="47.32076" lon="-2.3218">
        <ele>5</ele>
        <time>2022-04-10T08:46:51.000Z</time>
      </trkpt>
      <trkpt lat="47.32091" lon="-2.3218">
        <ele>4.5999999046326</ele>
        <time>2022-04-10T08:46:53.000Z</time>
      </trkpt>
      <trkpt lat="47.32098" lon="-2.32179">
        <ele>4</ele>
        <time>2022-04-10T08:46:54.000Z</time>
      </trkpt>
      <trkpt lat="47.32105" lon="-2.32179">
        <ele>3.5999999046326</ele>
        <time>2022-04-10T08:46:55.000Z</time>
      </trkpt>
      <trkpt lat="47.32113" lon="-2.32177">
        <ele>3.2000000476837</ele>
        <time>2022-04-10T08:46:56.000Z</time>
      </trkpt>
      <trkpt lat="47.32121" lon="-2.32175">
        <ele>2.7999999523163</ele>
        <time>2022-04-10T08:46:57.000Z</time>
      </trkpt>
      <trkpt lat="47.32128" lon="-2.32172">
        <ele>2.7999999523163</ele>
        <time>2022-04-10T08:46:58.000Z</time>
      </trkpt>
      <trkpt lat="47.32146" lon="-2.32161">
        <ele>2.7999999523163</ele>
        <time>2022-04-10T08:47:01.000Z</time>
      </trkpt>
      <trkpt lat="47.32158" lon="-2.32151">
        <ele>2.4000000953674</ele>
        <time>2022-04-10T08:47:03.000Z</time>
      </trkpt>
      <trkpt lat="47.32163" lon="-2.32146">
        <ele>2</ele>
        <time>2022-04-10T08:47:04.000Z</time>
      </trkpt>
      <trkpt lat="47.32168" lon="-2.32142">
        <ele>1.6000000238419</ele>
        <time>2022-04-10T08:47:05.000Z</time>
      </trkpt>
      <trkpt lat="47.32173" lon="-2.32137">
        <ele>1</ele>
        <time>2022-04-10T08:47:06.000Z</time>
      </trkpt>
      <trkpt lat="47.32177" lon="-2.32133">
        <ele>0.60000002384186</ele>
        <time>2022-04-10T08:47:07.000Z</time>
      </trkpt>
      <trkpt lat="47.32196" lon="-2.32119">
        <ele>0.60000002384186</ele>
        <time>2022-04-10T08:47:12.000Z</time>
      </trkpt>
      <trkpt lat="47.32208" lon="-2.32118">
        <ele>0.60000002384186</ele>
        <time>2022-04-10T08:47:16.000Z</time>
      </trkpt>
      <trkpt lat="47.32215" lon="-2.32113">
        <ele>0.60000002384186</ele>
        <time>2022-04-10T08:47:18.000Z</time>
      </trkpt>
      <trkpt lat="47.32224" lon="-2.32108">
        <ele>0.60000002384186</ele>
        <time>2022-04-10T08:47:20.000Z</time>
      </trkpt>
      <trkpt lat="47.32235" lon="-2.32105">
        <ele>0.60000002384186</ele>
        <time>2022-04-10T08:47:22.000Z</time>
      </trkpt>
      <trkpt lat="47.3225" lon="-2.32103">
        <ele>0.60000002384186</ele>
        <time>2022-04-10T08:47:25.000Z</time>
      </trkpt>
      <trkpt lat="47.32272" lon="-2.321">
        <ele>0.60000002384186</ele>
        <time>2022-04-10T08:47:30.000Z</time>
      </trkpt>
      <trkpt lat="47.32281" lon="-2.32102">
        <ele>0.60000002384186</ele>
        <time>2022-04-10T08:47:32.000Z</time>
      </trkpt>
      <trkpt lat="47.32286" lon="-2.32101">
        <ele>1</ele>
        <time>2022-04-10T08:47:33.000Z</time>
      </trkpt>
      <trkpt lat="47.32291" lon="-2.321">
        <ele>2</ele>
        <time>2022-04-10T08:47:34.000Z</time>
      </trkpt>
      <trkpt lat="47.32296" lon="-2.321">
        <ele>2.4000000953674</ele>
        <time>2022-04-10T08:47:35.000Z</time>
      </trkpt>
      <trkpt lat="47.32301" lon="-2.321">
        <ele>2.7999999523163</ele>
        <time>2022-04-10T08:47:36.000Z</time>
      </trkpt>
      <trkpt lat="47.32306" lon="-2.321">
        <ele>2.7999999523163</ele>
        <time>2022-04-10T08:47:37.000Z</time>
      </trkpt>
      <trkpt lat="47.32312" lon="-2.32101">
        <ele>2.7999999523163</ele>
        <time>2022-04-10T08:47:38.000Z</time>
      </trkpt>
      <trkpt lat="47.32334" lon="-2.32105">
        <ele>2.7999999523163</ele>
        <time>2022-04-10T08:47:42.000Z</time>
      </trkpt>
      <trkpt lat="47.32349" lon="-2.32105">
        <ele>2.7999999523163</ele>
        <time>2022-04-10T08:47:46.000Z</time>
      </trkpt>
      <trkpt lat="47.3236" lon="-2.32107">
        <ele>2.7999999523163</ele>
        <time>2022-04-10T08:47:49.000Z</time>
      </trkpt>
      <trkpt lat="47.3237" lon="-2.32109">
        <ele>2.7999999523163</ele>
        <time>2022-04-10T08:47:51.000Z</time>
      </trkpt>
      <trkpt lat="47.32398" lon="-2.32109">
        <ele>2.7999999523163</ele>
        <time>2022-04-10T08:47:56.000Z</time>
      </trkpt>
      <trkpt lat="47.32431" lon="-2.32105">
        <ele>2.7999999523163</ele>
        <time>2022-04-10T08:48:02.000Z</time>
      </trkpt>
      <trkpt lat="47.3248" lon="-2.32101">
        <ele>2.7999999523163</ele>
        <time>2022-04-10T08:48:10.000Z</time>
      </trkpt>
      <trkpt lat="47.32519" lon="-2.32097">
        <ele>2.7999999523163</ele>
        <time>2022-04-10T08:48:17.000Z</time>
      </trkpt>
      <trkpt lat="47.32551" lon="-2.32094">
        <ele>2.7999999523163</ele>
        <time>2022-04-10T08:48:23.000Z</time>
      </trkpt>
      <trkpt lat="47.32585" lon="-2.32093">
        <ele>2.7999999523163</ele>
        <time>2022-04-10T08:48:30.000Z</time>
      </trkpt>
      <trkpt lat="47.32596" lon="-2.32104">
        <ele>2.7999999523163</ele>
        <time>2022-04-10T08:48:33.000Z</time>
      </trkpt>
      <trkpt lat="47.32596" lon="-2.3211">
        <ele>2.4000000953674</ele>
        <time>2022-04-10T08:48:34.000Z</time>
      </trkpt>
      <trkpt lat="47.32595" lon="-2.32117">
        <ele>2</ele>
        <time>2022-04-10T08:48:35.000Z</time>
      </trkpt>
      <trkpt lat="47.32593" lon="-2.32124">
        <ele>1.3999999761581</ele>
        <time>2022-04-10T08:48:36.000Z</time>
      </trkpt>
      <trkpt lat="47.32591" lon="-2.32131">
        <ele>1</ele>
        <time>2022-04-10T08:48:37.000Z</time>
      </trkpt>
      <trkpt lat="47.32589" lon="-2.3214">
        <ele>0.60000002384186</ele>
        <time>2022-04-10T08:48:38.000Z</time>
      </trkpt>
      <trkpt lat="47.32581" lon="-2.32167">
        <ele>0.60000002384186</ele>
        <time>2022-04-10T08:48:41.000Z</time>
      </trkpt>
      <trkpt lat="47.32569" lon="-2.32208">
        <ele>0.20000000298023</ele>
        <time>2022-04-10T08:48:45.000Z</time>
      </trkpt>
      <trkpt lat="47.32565" lon="-2.32218">
        <ele>-0.20000000298023</ele>
        <time>2022-04-10T08:48:46.000Z</time>
      </trkpt>
      <trkpt lat="47.32562" lon="-2.32227">
        <ele>-1.2000000476837</ele>
        <time>2022-04-10T08:48:47.000Z</time>
      </trkpt>
      <trkpt lat="47.32559" lon="-2.32237">
        <ele>-1.6000000238419</ele>
        <time>2022-04-10T08:48:48.000Z</time>
      </trkpt>
      <trkpt lat="47.32547" lon="-2.32269">
        <ele>-1.6000000238419</ele>
        <time>2022-04-10T08:48:52.000Z</time>
      </trkpt>
      <trkpt lat="47.32538" lon="-2.32298">
        <ele>-1.6000000238419</ele>
        <time>2022-04-10T08:48:57.000Z</time>
      </trkpt>
      <trkpt lat="47.32537" lon="-2.32303">
        <ele>-1.2000000476837</ele>
        <time>2022-04-10T08:48:58.000Z</time>
      </trkpt>
      <trkpt lat="47.32538" lon="-2.32309">
        <ele>-0.80000001192093</ele>
        <time>2022-04-10T08:48:59.000Z</time>
      </trkpt>
      <trkpt lat="47.32541" lon="-2.32314">
        <ele>-0.40000000596046</ele>
        <time>2022-04-10T08:49:00.000Z</time>
      </trkpt>
      <trkpt lat="47.32544" lon="-2.32319">
        <ele>10</ele>
        <time>2022-04-10T08:49:01.000Z</time>
      </trkpt>
      <trkpt lat="47.32548" lon="-2.3232">
        <ele>0.40000000596046</ele>
        <time>2022-04-10T08:49:02.000Z</time>
      </trkpt>
      <trkpt lat="47.32553" lon="-2.32319">
        <ele>0.40000000596046</ele>
        <time>2022-04-10T08:49:03.000Z</time>
      </trkpt>
      <trkpt lat="47.32559" lon="-2.32318">
        <ele>0.40000000596046</ele>
        <time>2022-04-10T08:49:04.000Z</time>
      </trkpt>
      <trkpt lat="47.32571" lon="-2.32317">
        <ele>0.80000001192093</ele>
        <time>2022-04-10T08:49:06.000Z</time>
      </trkpt>
      <trkpt lat="47.32577" lon="-2.32316">
        <ele>1.2000000476837</ele>
        <time>2022-04-10T08:49:07.000Z</time>
      </trkpt>
      <trkpt lat="47.32583" lon="-2.32314">
        <ele>1.7999999523163</ele>
        <time>2022-04-10T08:49:08.000Z</time>
      </trkpt>
      <trkpt lat="47.3259" lon="-2.32313">
        <ele>2.2000000476837</ele>
        <time>2022-04-10T08:49:09.000Z</time>
      </trkpt>
      <trkpt lat="47.32596" lon="-2.32313">
        <ele>2.5999999046326</ele>
        <time>2022-04-10T08:49:10.000Z</time>
      </trkpt>
      <trkpt lat="47.32616" lon="-2.32312">
        <ele>2.5999999046326</ele>
        <time>2022-04-10T08:49:13.000Z</time>
      </trkpt>
      <trkpt lat="47.32663" lon="-2.32315">
        <ele>2.5999999046326</ele>
        <time>2022-04-10T08:49:20.000Z</time>
      </trkpt>
      <trkpt lat="47.32699" lon="-2.32325">
        <ele>2.2000000476837</ele>
        <time>2022-04-10T08:49:25.000Z</time>
      </trkpt>
      <trkpt lat="47.32706" lon="-2.32328">
        <ele>1.7999999523163</ele>
        <time>2022-04-10T08:49:26.000Z</time>
      </trkpt>
      <trkpt lat="47.32714" lon="-2.32331">
        <ele>1.3999999761581</ele>
        <time>2022-04-10T08:49:27.000Z</time>
      </trkpt>
      <trkpt lat="47.32721" lon="-2.32334">
        <ele>1</ele>
        <time>2022-04-10T08:49:28.000Z</time>
      </trkpt>
      <trkpt lat="47.32728" lon="-2.32337">
        <ele>0.60000002384186</ele>
        <time>2022-04-10T08:49:29.000Z</time>
      </trkpt>
      <trkpt lat="47.32749" lon="-2.32349">
        <ele>0.60000002384186</ele>
        <time>2022-04-10T08:49:32.000Z</time>
      </trkpt>
      <trkpt lat="47.32783" lon="-2.32371">
        <ele>-0.20000000298023</ele>
        <time>2022-04-10T08:49:37.000Z</time>
      </trkpt>
      <trkpt lat="47.3279" lon="-2.32375">
        <ele>-0.80000001192093</ele>
        <time>2022-04-10T08:49:38.000Z</time>
      </trkpt>
      <trkpt lat="47.32796" lon="-2.3238">
        <ele>-1.2000000476837</ele>
        <time>2022-04-10T08:49:39.000Z</time>
      </trkpt>
      <trkpt lat="47.32803" lon="-2.32385">
        <ele>-1.6000000238419</ele>
        <time>2022-04-10T08:49:40.000Z</time>
      </trkpt>
      <trkpt lat="47.32809" lon="-2.32392">
        <ele>-1.6000000238419</ele>
        <time>2022-04-10T08:49:41.000Z</time>
      </trkpt>
      <trkpt lat="47.32827" lon="-2.3241">
        <ele>-1.6000000238419</ele>
        <time>2022-04-10T08:49:44.000Z</time>
      </trkpt>
      <trkpt lat="47.32866" lon="-2.32439">
        <ele>-1.6000000238419</ele>
        <time>2022-04-10T08:49:50.000Z</time>
      </trkpt>
      <trkpt lat="47.3289" lon="-2.32455">
        <ele>-1.6000000238419</ele>
        <time>2022-04-10T08:49:54.000Z</time>
      </trkpt>
      <trkpt lat="47.32895" lon="-2.32462">
        <ele>-1.6000000238419</ele>
        <time>2022-04-10T08:49:55.000Z</time>
      </trkpt>
      <trkpt lat="47.32907" lon="-2.32497">
        <ele>-1.6000000238419</ele>
        <time>2022-04-10T08:49:59.000Z</time>
      </trkpt>
      <trkpt lat="47.32917" lon="-2.32534">
        <ele>-1.6000000238419</ele>
        <time>2022-04-10T08:50:03.000Z</time>
      </trkpt>
      <trkpt lat="47.3292" lon="-2.32554">
        <ele>-1.6000000238419</ele>
        <time>2022-04-10T08:50:05.000Z</time>
      </trkpt>
      <trkpt lat="47.32919" lon="-2.32611">
        <ele>-1.6000000238419</ele>
        <time>2022-04-10T08:50:11.000Z</time>
      </trkpt>
      <trkpt lat="47.3292" lon="-2.32621">
        <ele>-1.6000000238419</ele>
        <time>2022-04-10T08:50:12.000Z</time>
      </trkpt>
      <trkpt lat="47.32925" lon="-2.32638">
        <ele>-1.6000000238419</ele>
        <time>2022-04-10T08:50:14.000Z</time>
      </trkpt>
      <trkpt lat="47.32935" lon="-2.32646">
        <ele>-1.6000000238419</ele>
        <time>2022-04-10T08:50:16.000Z</time>
      </trkpt>
      <trkpt lat="47.32948" lon="-2.32647">
        <ele>-1.6000000238419</ele>
        <time>2022-04-10T08:50:18.000Z</time>
      </trkpt>
      <trkpt lat="47.32955" lon="-2.32645">
        <ele>-1.6000000238419</ele>
        <time>2022-04-10T08:50:19.000Z</time>
      </trkpt>
      <trkpt lat="47.32969" lon="-2.32641">
        <ele>-1.6000000238419</ele>
        <time>2022-04-10T08:50:21.000Z</time>
      </trkpt>
      <trkpt lat="47.32982" lon="-2.32634">
        <ele>-1.6000000238419</ele>
        <time>2022-04-10T08:50:23.000Z</time>
      </trkpt>
      <trkpt lat="47.32988" lon="-2.3263">
        <ele>-1.6000000238419</ele>
        <time>2022-04-10T08:50:24.000Z</time>
      </trkpt>
      <trkpt lat="47.32994" lon="-2.32627">
        <ele>-2</ele>
        <time>2022-04-10T08:50:25.000Z</time>
      </trkpt>
      <trkpt lat="47.32999" lon="-2.32626">
        <ele>-2.7999999523163</ele>
        <time>2022-04-10T08:50:26.000Z</time>
      </trkpt>
      <trkpt lat="47.33005" lon="-2.32627">
        <ele>-3.2000000476837</ele>
        <time>2022-04-10T08:50:27.000Z</time>
      </trkpt>
      <trkpt lat="47.33011" lon="-2.32631">
        <ele>-3.5999999046326</ele>
        <time>2022-04-10T08:50:28.000Z</time>
      </trkpt>
      <trkpt lat="47.33023" lon="-2.32635">
        <ele>-3.5999999046326</ele>
        <time>2022-04-10T08:50:30.000Z</time>
      </trkpt>
      <trkpt lat="47.33043" lon="-2.32627">
        <ele>-3.5999999046326</ele>
        <time>2022-04-10T08:50:33.000Z</time>
      </trkpt>
      <trkpt lat="47.33049" lon="-2.32623">
        <ele>-3.5999999046326</ele>
        <time>2022-04-10T08:50:34.000Z</time>
      </trkpt>
      <trkpt lat="47.33075" lon="-2.32601">
        <ele>-3.5999999046326</ele>
        <time>2022-04-10T08:50:39.000Z</time>
      </trkpt>
      <trkpt lat="47.33089" lon="-2.3259">
        <ele>-3.5999999046326</ele>
        <time>2022-04-10T08:50:42.000Z</time>
      </trkpt>
      <trkpt lat="47.331" lon="-2.32581">
        <ele>-3.5999999046326</ele>
        <time>2022-04-10T08:50:44.000Z</time>
      </trkpt>
      <trkpt lat="47.33105" lon="-2.32576">
        <ele>-3.2000000476837</ele>
        <time>2022-04-10T08:50:45.000Z</time>
      </trkpt>
      <trkpt lat="47.33111" lon="-2.32571">
        <ele>-2.7999999523163</ele>
        <time>2022-04-10T08:50:46.000Z</time>
      </trkpt>
      <trkpt lat="47.33117" lon="-2.32566">
        <ele>-2.2000000476837</ele>
        <time>2022-04-10T08:50:47.000Z</time>
      </trkpt>
      <trkpt lat="47.33122" lon="-2.32561">
        <ele>-1.7999999523163</ele>
        <time>2022-04-10T08:50:48.000Z</time>
      </trkpt>
      <trkpt lat="47.33128" lon="-2.32556">
        <ele>-1.3999999761581</ele>
        <time>2022-04-10T08:50:49.000Z</time>
      </trkpt>
      <trkpt lat="47.33139" lon="-2.32547">
        <ele>-1.3999999761581</ele>
        <time>2022-04-10T08:50:51.000Z</time>
      </trkpt>
      <trkpt lat="47.33173" lon="-2.32523">
        <ele>-1.3999999761581</ele>
        <time>2022-04-10T08:50:57.000Z</time>
      </trkpt>
      <trkpt lat="47.33202" lon="-2.32512">
        <ele>-1.3999999761581</ele>
        <time>2022-04-10T08:51:02.000Z</time>
      </trkpt>
      <trkpt lat="47.33222" lon="-2.32502">
        <ele>-1</ele>
        <time>2022-04-10T08:51:05.000Z</time>
      </trkpt>
      <trkpt lat="47.33228" lon="-2.32499">
        <ele>-0.60000002384186</ele>
        <time>2022-04-10T08:51:06.000Z</time>
      </trkpt>
      <trkpt lat="47.33235" lon="-2.32496">
        <ele>-0.20000000298023</ele>
        <time>2022-04-10T08:51:07.000Z</time>
      </trkpt>
      <trkpt lat="47.33241" lon="-2.32493">
        <ele>0.20000000298023</ele>
        <time>2022-04-10T08:51:08.000Z</time>
      </trkpt>
      <trkpt lat="47.33248" lon="-2.32489">
        <ele>0.60000002384186</ele>
        <time>2022-04-10T08:51:09.000Z</time>
      </trkpt>
      <trkpt lat="47.33294" lon="-2.32468">
        <ele>0.60000002384186</ele>
        <time>2022-04-10T08:51:16.000Z</time>
      </trkpt>
      <trkpt lat="47.33315" lon="-2.32459">
        <ele>0.60000002384186</ele>
        <time>2022-04-10T08:51:19.000Z</time>
      </trkpt>
      <trkpt lat="47.33328" lon="-2.32455">
        <ele>0.60000002384186</ele>
        <time>2022-04-10T08:51:21.000Z</time>
      </trkpt>
      <trkpt lat="47.33351" lon="-2.32432">
        <ele>0.60000002384186</ele>
        <time>2022-04-10T08:51:25.000Z</time>
      </trkpt>
      <trkpt lat="47.33356" lon="-2.32424">
        <ele>0.60000002384186</ele>
        <time>2022-04-10T08:51:26.000Z</time>
      </trkpt>
      <trkpt lat="47.33362" lon="-2.32417">
        <ele>0.60000002384186</ele>
        <time>2022-04-10T08:51:27.000Z</time>
      </trkpt>
      <trkpt lat="47.33379" lon="-2.32399">
        <ele>0.60000002384186</ele>
        <time>2022-04-10T08:51:30.000Z</time>
      </trkpt>
      <trkpt lat="47.33416" lon="-2.32367">
        <ele>0.60000002384186</ele>
        <time>2022-04-10T08:51:36.000Z</time>
      </trkpt>
      <trkpt lat="47.33423" lon="-2.32361">
        <ele>0.20000000298023</ele>
        <time>2022-04-10T08:51:37.000Z</time>
      </trkpt>
      <trkpt lat="47.33429" lon="-2.32356">
        <ele>-0.20000000298023</ele>
        <time>2022-04-10T08:51:38.000Z</time>
      </trkpt>
      <trkpt lat="47.33435" lon="-2.32351">
        <ele>-1</ele>
        <time>2022-04-10T08:51:39.000Z</time>
      </trkpt>
      <trkpt lat="47.33442" lon="-2.32347">
        <ele>-1.6000000238419</ele>
        <time>2022-04-10T08:51:40.000Z</time>
      </trkpt>
      <trkpt lat="47.33463" lon="-2.32333">
        <ele>-1.6000000238419</ele>
        <time>2022-04-10T08:51:43.000Z</time>
      </trkpt>
      <trkpt lat="47.33511" lon="-2.32307">
        <ele>-1.6000000238419</ele>
        <time>2022-04-10T08:51:50.000Z</time>
      </trkpt>
      <trkpt lat="47.3353" lon="-2.32301">
        <ele>-1.6000000238419</ele>
        <time>2022-04-10T08:51:53.000Z</time>
      </trkpt>
      <trkpt lat="47.33543" lon="-2.323">
        <ele>-1.6000000238419</ele>
        <time>2022-04-10T08:51:55.000Z</time>
      </trkpt>
      <trkpt lat="47.33562" lon="-2.32299">
        <ele>-1.6000000238419</ele>
        <time>2022-04-10T08:51:58.000Z</time>
      </trkpt>
      <trkpt lat="47.3358" lon="-2.32293">
        <ele>-1.6000000238419</ele>
        <time>2022-04-10T08:52:01.000Z</time>
      </trkpt>
      <trkpt lat="47.33624" lon="-2.32286">
        <ele>-1.6000000238419</ele>
        <time>2022-04-10T08:52:08.000Z</time>
      </trkpt>
      <trkpt lat="47.33636" lon="-2.32286">
        <ele>-1.6000000238419</ele>
        <time>2022-04-10T08:52:10.000Z</time>
      </trkpt>
      <trkpt lat="47.33654" lon="-2.3228">
        <ele>-1.6000000238419</ele>
        <time>2022-04-10T08:52:13.000Z</time>
      </trkpt>
      <trkpt lat="47.33672" lon="-2.32272">
        <ele>-1.6000000238419</ele>
        <time>2022-04-10T08:52:16.000Z</time>
      </trkpt>
      <trkpt lat="47.3369" lon="-2.32262">
        <ele>-1.6000000238419</ele>
        <time>2022-04-10T08:52:19.000Z</time>
      </trkpt>
      <trkpt lat="47.33731" lon="-2.32236">
        <ele>-1.6000000238419</ele>
        <time>2022-04-10T08:52:26.000Z</time>
      </trkpt>
      <trkpt lat="47.33773" lon="-2.32214">
        <ele>-1.6000000238419</ele>
        <time>2022-04-10T08:52:33.000Z</time>
      </trkpt>
      <trkpt lat="47.33811" lon="-2.32206">
        <ele>-1.6000000238419</ele>
        <time>2022-04-10T08:52:39.000Z</time>
      </trkpt>
      <trkpt lat="47.33855" lon="-2.32201">
        <ele>-1.6000000238419</ele>
        <time>2022-04-10T08:52:45.000Z</time>
      </trkpt>
      <trkpt lat="47.33897" lon="-2.32203">
        <ele>-1.6000000238419</ele>
        <time>2022-04-10T08:52:51.000Z</time>
      </trkpt>
      <trkpt lat="47.33917" lon="-2.32202">
        <ele>-1.6000000238419</ele>
        <time>2022-04-10T08:52:54.000Z</time>
      </trkpt>
      <trkpt lat="47.33923" lon="-2.32201">
        <ele>-1.6000000238419</ele>
        <time>2022-04-10T08:52:55.000Z</time>
      </trkpt>
      <trkpt lat="47.33949" lon="-2.3221">
        <ele>-1.6000000238419</ele>
        <time>2022-04-10T08:52:59.000Z</time>
      </trkpt>
      <trkpt lat="47.33955" lon="-2.32214">
        <ele>-1.6000000238419</ele>
        <time>2022-04-10T08:53:00.000Z</time>
      </trkpt>
      <trkpt lat="47.33962" lon="-2.32217">
        <ele>-1.6000000238419</ele>
        <time>2022-04-10T08:53:01.000Z</time>
      </trkpt>
      <trkpt lat="47.33976" lon="-2.32219">
        <ele>-1.6000000238419</ele>
        <time>2022-04-10T08:53:03.000Z</time>
      </trkpt>
      <trkpt lat="47.34027" lon="-2.32218">
        <ele>-1.6000000238419</ele>
        <time>2022-04-10T08:53:10.000Z</time>
      </trkpt>
      <trkpt lat="47.3406" lon="-2.3222">
        <ele>-1.6000000238419</ele>
        <time>2022-04-10T08:53:15.000Z</time>
      </trkpt>
      <trkpt lat="47.3408" lon="-2.32238">
        <ele>-1.6000000238419</ele>
        <time>2022-04-10T08:53:19.000Z</time>
      </trkpt>
      <trkpt lat="47.3409" lon="-2.3227">
        <ele>-1.6000000238419</ele>
        <time>2022-04-10T08:53:23.000Z</time>
      </trkpt>
      <trkpt lat="47.34102" lon="-2.32321">
        <ele>-1.2000000476837</ele>
        <time>2022-04-10T08:53:29.000Z</time>
      </trkpt>
      <trkpt lat="47.34104" lon="-2.32329">
        <ele>-0.60000002384186</ele>
        <time>2022-04-10T08:53:30.000Z</time>
      </trkpt>
      <trkpt lat="47.34106" lon="-2.32337">
        <ele>-0.20000000298023</ele>
        <time>2022-04-10T08:53:31.000Z</time>
      </trkpt>
      <trkpt lat="47.34108" lon="-2.32344">
        <ele>0.20000000298023</ele>
        <time>2022-04-10T08:53:32.000Z</time>
      </trkpt>
      <trkpt lat="47.3411" lon="-2.32352">
        <ele>0.60000002384186</ele>
        <time>2022-04-10T08:53:33.000Z</time>
      </trkpt>
      <trkpt lat="47.34118" lon="-2.32383">
        <ele>0.60000002384186</ele>
        <time>2022-04-10T08:53:37.000Z</time>
      </trkpt>
      <trkpt lat="47.34132" lon="-2.32422">
        <ele>1.3999999761581</ele>
        <time>2022-04-10T08:53:42.000Z</time>
      </trkpt>
      <trkpt lat="47.34135" lon="-2.3243">
        <ele>1.7999999523163</ele>
        <time>2022-04-10T08:53:43.000Z</time>
      </trkpt>
      <trkpt lat="47.34137" lon="-2.32438">
        <ele>2.2000000476837</ele>
        <time>2022-04-10T08:53:44.000Z</time>
      </trkpt>
      <trkpt lat="47.3414" lon="-2.32446">
        <ele>2.7999999523163</ele>
        <time>2022-04-10T08:53:45.000Z</time>
      </trkpt>
      <trkpt lat="47.3415" lon="-2.32491">
        <ele>2.7999999523163</ele>
        <time>2022-04-10T08:53:50.000Z</time>
      </trkpt>
      <trkpt lat="47.34154" lon="-2.32517">
        <ele>2.7999999523163</ele>
        <time>2022-04-10T08:53:53.000Z</time>
      </trkpt>
      <trkpt lat="47.34155" lon="-2.32533">
        <ele>2.7999999523163</ele>
        <time>2022-04-10T08:53:55.000Z</time>
      </trkpt>
      <trkpt lat="47.34156" lon="-2.32554">
        <ele>2.7999999523163</ele>
        <time>2022-04-10T08:53:58.000Z</time>
      </trkpt>
      <trkpt lat="47.34156" lon="-2.32573">
        <ele>2.7999999523163</ele>
        <time>2022-04-10T08:54:01.000Z</time>
      </trkpt>
      <trkpt lat="47.34151" lon="-2.3259">
        <ele>2.7999999523163</ele>
        <time>2022-04-10T08:54:05.000Z</time>
      </trkpt>
      <trkpt lat="47.34151" lon="-2.32603">
        <ele>2.7999999523163</ele>
        <time>2022-04-10T08:54:09.000Z</time>
      </trkpt>
      <trkpt lat="47.34154" lon="-2.32621">
        <ele>2.7999999523163</ele>
        <time>2022-04-10T08:54:17.000Z</time>
      </trkpt>
      <trkpt lat="47.34154" lon="-2.32641">
        <ele>2.7999999523163</ele>
        <time>2022-04-10T08:54:25.000Z</time>
      </trkpt>
      <trkpt lat="47.34154" lon="-2.32648">
        <ele>2.7999999523163</ele>
        <time>2022-04-10T08:54:29.000Z</time>
      </trkpt>
      <trkpt lat="47.34155" lon="-2.32654">
        <ele>2.7999999523163</ele>
        <time>2022-04-10T08:54:37.000Z</time>
      </trkpt>
      <trkpt lat="47.34158" lon="-2.32669">
        <ele>2.7999999523163</ele>
        <time>2022-04-10T08:54:42.000Z</time>
      </trkpt>
      <trkpt lat="47.34161" lon="-2.32696">
        <ele>2.7999999523163</ele>
        <time>2022-04-10T08:54:47.000Z</time>
      </trkpt>
      <trkpt lat="47.34162" lon="-2.32709">
        <ele>2.7999999523163</ele>
        <time>2022-04-10T08:54:49.000Z</time>
      </trkpt>
      <trkpt lat="47.3416" lon="-2.32725">
        <ele>2.7999999523163</ele>
        <time>2022-04-10T08:54:52.000Z</time>
      </trkpt>
      <trkpt lat="47.34159" lon="-2.32734">
        <ele>2.7999999523163</ele>
        <time>2022-04-10T08:54:54.000Z</time>
      </trkpt>
      <trkpt lat="47.34156" lon="-2.32753">
        <ele>2.7999999523163</ele>
        <time>2022-04-10T08:54:59.000Z</time>
      </trkpt>
      <trkpt lat="47.34157" lon="-2.32777">
        <ele>2.7999999523163</ele>
        <time>2022-04-10T08:55:05.000Z</time>
      </trkpt>
      <trkpt lat="47.3416" lon="-2.32805">
        <ele>2.7999999523163</ele>
        <time>2022-04-10T08:55:11.000Z</time>
      </trkpt>
      <trkpt lat="47.34159" lon="-2.32817">
        <ele>2.7999999523163</ele>
        <time>2022-04-10T08:55:15.000Z</time>
      </trkpt>
      <trkpt lat="47.34162" lon="-2.32828">
        <ele>2.7999999523163</ele>
        <time>2022-04-10T08:55:18.000Z</time>
      </trkpt>
      <trkpt lat="47.34165" lon="-2.32831">
        <ele>2.7999999523163</ele>
        <time>2022-04-10T08:55:19.000Z</time>
      </trkpt>
      <trkpt lat="47.34176" lon="-2.3284">
        <ele>2.7999999523163</ele>
        <time>2022-04-10T08:55:22.000Z</time>
      </trkpt>
      <trkpt lat="47.34179" lon="-2.32842">
        <ele>2.7999999523163</ele>
        <time>2022-04-10T08:55:23.000Z</time>
      </trkpt>
      <trkpt lat="47.34181" lon="-2.32845">
        <ele>2.7999999523163</ele>
        <time>2022-04-10T08:55:24.000Z</time>
      </trkpt>
      <trkpt lat="47.34184" lon="-2.32852">
        <ele>2.7999999523163</ele>
        <time>2022-04-10T08:55:26.000Z</time>
      </trkpt>
      <trkpt lat="47.34191" lon="-2.32862">
        <ele>2.2000000476837</ele>
        <time>2022-04-10T08:55:30.000Z</time>
      </trkpt>
      <trkpt lat="47.34192" lon="-2.32865">
        <ele>1.7999999523163</ele>
        <time>2022-04-10T08:55:31.000Z</time>
      </trkpt>
      <trkpt lat="47.34194" lon="-2.3287">
        <ele>1.3999999761581</ele>
        <time>2022-04-10T08:55:32.000Z</time>
      </trkpt>
      <trkpt lat="47.34196" lon="-2.32874">
        <ele>1</ele>
        <time>2022-04-10T08:55:33.000Z</time>
      </trkpt>
      <trkpt lat="47.34198" lon="-2.32877">
        <ele>0.60000002384186</ele>
        <time>2022-04-10T08:55:34.000Z</time>
      </trkpt>
      <trkpt lat="47.34203" lon="-2.32889">
        <ele>0.60000002384186</ele>
        <time>2022-04-10T08:55:39.000Z</time>
      </trkpt>
      <trkpt lat="47.34211" lon="-2.32906">
        <ele>-0.40000000596046</ele>
        <time>2022-04-10T08:55:45.000Z</time>
      </trkpt>
      <trkpt lat="47.34214" lon="-2.32911">
        <ele>-0.80000001192093</ele>
        <time>2022-04-10T08:55:46.000Z</time>
      </trkpt>
      <trkpt lat="47.34216" lon="-2.32915">
        <ele>-1.3999999761581</ele>
        <time>2022-04-10T08:55:47.000Z</time>
      </trkpt>
      <trkpt lat="47.34218" lon="-2.32919">
        <ele>-1.7999999523163</ele>
        <time>2022-04-10T08:55:48.000Z</time>
      </trkpt>
      <trkpt lat="47.34224" lon="-2.32928">
        <ele>-1.7999999523163</ele>
        <time>2022-04-10T08:55:51.000Z</time>
      </trkpt>
      <trkpt lat="47.34228" lon="-2.3293">
        <ele>-1.7999999523163</ele>
        <time>2022-04-10T08:55:52.000Z</time>
      </trkpt>
      <trkpt lat="47.34233" lon="-2.32934">
        <ele>-1.7999999523163</ele>
        <time>2022-04-10T08:55:54.000Z</time>
      </trkpt>
      <trkpt lat="47.34238" lon="-2.32942">
        <ele>-1.7999999523163</ele>
        <time>2022-04-10T08:56:08.000Z</time>
      </trkpt>
      <trkpt lat="47.34238" lon="-2.32944">
        <ele>-1.7999999523163</ele>
        <time>2022-04-10T08:56:09.000Z</time>
      </trkpt>
      <trkpt lat="47.3424" lon="-2.32953">
        <ele>-1.7999999523163</ele>
        <time>2022-04-10T08:56:16.000Z</time>
      </trkpt>
      <trkpt lat="47.34239" lon="-2.32954">
        <ele>-1.7999999523163</ele>
        <time>2022-04-10T08:56:17.000Z</time>
      </trkpt>
      <trkpt lat="47.34238" lon="-2.32964">
        <ele>-1.7999999523163</ele>
        <time>2022-04-10T08:56:22.000Z</time>
      </trkpt>
      <trkpt lat="47.34243" lon="-2.32973">
        <ele>-1.7999999523163</ele>
        <time>2022-04-10T08:56:24.000Z</time>
      </trkpt>
      <trkpt lat="47.34244" lon="-2.32975">
        <ele>-2.2000000476837</ele>
        <time>2022-04-10T08:56:25.000Z</time>
      </trkpt>
      <trkpt lat="47.34245" lon="-2.32978">
        <ele>-2.5999999046326</ele>
        <time>2022-04-10T08:56:26.000Z</time>
      </trkpt>
      <trkpt lat="47.34246" lon="-2.32981">
        <ele>-3.2000000476837</ele>
        <time>2022-04-10T08:56:27.000Z</time>
      </trkpt>
      <trkpt lat="47.34248" lon="-2.32985">
        <ele>-3.5999999046326</ele>
        <time>2022-04-10T08:56:28.000Z</time>
      </trkpt>
      <trkpt lat="47.34249" lon="-2.32988">
        <ele>-4</ele>
        <time>2022-04-10T08:56:29.000Z</time>
      </trkpt>
      <trkpt lat="47.34254" lon="-2.32998">
        <ele>-4</ele>
        <time>2022-04-10T08:56:31.000Z</time>
      </trkpt>
      <trkpt lat="47.34259" lon="-2.33018">
        <ele>-4</ele>
        <time>2022-04-10T08:56:37.000Z</time>
      </trkpt>
      <trkpt lat="47.3426" lon="-2.33032">
        <ele>-4</ele>
        <time>2022-04-10T08:56:41.000Z</time>
      </trkpt>
      <trkpt lat="47.34259" lon="-2.3305">
        <ele>-4</ele>
        <time>2022-04-10T08:56:46.000Z</time>
      </trkpt>
      <trkpt lat="47.34258" lon="-2.33059">
        <ele>-4</ele>
        <time>2022-04-10T08:56:48.000Z</time>
      </trkpt>
      <trkpt lat="47.34257" lon="-2.33066">
        <ele>-4</ele>
        <time>2022-04-10T08:56:50.000Z</time>
      </trkpt>
      <trkpt lat="47.34252" lon="-2.33085">
        <ele>-4</ele>
        <time>2022-04-10T08:56:54.000Z</time>
      </trkpt>
      <trkpt lat="47.34245" lon="-2.3311">
        <ele>-4</ele>
        <time>2022-04-10T08:56:58.000Z</time>
      </trkpt>
      <trkpt lat="47.34238" lon="-2.33141">
        <ele>-4</ele>
        <time>2022-04-10T08:57:03.000Z</time>
      </trkpt>
      <trkpt lat="47.34236" lon="-2.33147">
        <ele>-4</ele>
        <time>2022-04-10T08:57:04.000Z</time>
      </trkpt>
      <trkpt lat="47.3423" lon="-2.33171">
        <ele>-4</ele>
        <time>2022-04-10T08:57:08.000Z</time>
      </trkpt>
      <trkpt lat="47.34225" lon="-2.33183">
        <ele>-4</ele>
        <time>2022-04-10T08:57:10.000Z</time>
      </trkpt>
      <trkpt lat="47.34216" lon="-2.33209">
        <ele>-4</ele>
        <time>2022-04-10T08:57:14.000Z</time>
      </trkpt>
      <trkpt lat="47.34214" lon="-2.33216">
        <ele>-4</ele>
        <time>2022-04-10T08:57:15.000Z</time>
      </trkpt>
      <trkpt lat="47.34207" lon="-2.33242">
        <ele>-3.5999999046326</ele>
        <time>2022-04-10T08:57:19.000Z</time>
      </trkpt>
      <trkpt lat="47.34205" lon="-2.33248">
        <ele>-3.2000000476837</ele>
        <time>2022-04-10T08:57:20.000Z</time>
      </trkpt>
      <trkpt lat="47.34202" lon="-2.33255">
        <ele>-2.7999999523163</ele>
        <time>2022-04-10T08:57:21.000Z</time>
      </trkpt>
      <trkpt lat="47.342" lon="-2.33262">
        <ele>-2.4000000953674</ele>
        <time>2022-04-10T08:57:22.000Z</time>
      </trkpt>
      <trkpt lat="47.34198" lon="-2.33269">
        <ele>-1.7999999523163</ele>
        <time>2022-04-10T08:57:23.000Z</time>
      </trkpt>
      <trkpt lat="47.34196" lon="-2.33275">
        <ele>-1.7999999523163</ele>
        <time>2022-04-10T08:57:24.000Z</time>
      </trkpt>
      <trkpt lat="47.34184" lon="-2.33314">
        <ele>-1.7999999523163</ele>
        <time>2022-04-10T08:57:30.000Z</time>
      </trkpt>
      <trkpt lat="47.34179" lon="-2.33327">
        <ele>-1.7999999523163</ele>
        <time>2022-04-10T08:57:32.000Z</time>
      </trkpt>
      <trkpt lat="47.34164" lon="-2.33373">
        <ele>-1.7999999523163</ele>
        <time>2022-04-10T08:57:39.000Z</time>
      </trkpt>
      <trkpt lat="47.34162" lon="-2.33379">
        <ele>-1.7999999523163</ele>
        <time>2022-04-10T08:57:40.000Z</time>
      </trkpt>
      <trkpt lat="47.34158" lon="-2.33392">
        <ele>-1.3999999761581</ele>
        <time>2022-04-10T08:57:42.000Z</time>
      </trkpt>
      <trkpt lat="47.34156" lon="-2.33399">
        <ele>-1</ele>
        <time>2022-04-10T08:57:43.000Z</time>
      </trkpt>
      <trkpt lat="47.34154" lon="-2.33405">
        <ele>-0.60000002384186</ele>
        <time>2022-04-10T08:57:44.000Z</time>
      </trkpt>
      <trkpt lat="47.34151" lon="-2.33409">
        <ele>-0.20000000298023</ele>
        <time>2022-04-10T08:57:45.000Z</time>
      </trkpt>
      <trkpt lat="47.34147" lon="-2.33413">
        <ele>0.20000000298023</ele>
        <time>2022-04-10T08:57:46.000Z</time>
      </trkpt>
      <trkpt lat="47.34144" lon="-2.33417">
        <ele>0.20000000298023</ele>
        <time>2022-04-10T08:57:47.000Z</time>
      </trkpt>
      <trkpt lat="47.34141" lon="-2.33422">
        <ele>0.20000000298023</ele>
        <time>2022-04-10T08:57:48.000Z</time>
      </trkpt>
      <trkpt lat="47.34131" lon="-2.33437">
        <ele>0.20000000298023</ele>
        <time>2022-04-10T08:57:52.000Z</time>
      </trkpt>
      <trkpt lat="47.34121" lon="-2.33456">
        <ele>0.20000000298023</ele>
        <time>2022-04-10T08:57:57.000Z</time>
      </trkpt>
      <trkpt lat="47.34104" lon="-2.33482">
        <ele>0.20000000298023</ele>
        <time>2022-04-10T08:58:04.000Z</time>
      </trkpt>
      <trkpt lat="47.34089" lon="-2.33507">
        <ele>0.20000000298023</ele>
        <time>2022-04-10T08:58:09.000Z</time>
      </trkpt>
      <trkpt lat="47.34087" lon="-2.33513">
        <ele>0.20000000298023</ele>
        <time>2022-04-10T08:58:10.000Z</time>
      </trkpt>
      <trkpt lat="47.3408" lon="-2.33529">
        <ele>0.20000000298023</ele>
        <time>2022-04-10T08:58:13.000Z</time>
      </trkpt>
      <trkpt lat="47.34077" lon="-2.33533">
        <ele>0.20000000298023</ele>
        <time>2022-04-10T08:58:14.000Z</time>
      </trkpt>
      <trkpt lat="47.3406" lon="-2.33564">
        <ele>0.20000000298023</ele>
        <time>2022-04-10T08:58:20.000Z</time>
      </trkpt>
      <trkpt lat="47.34056" lon="-2.3357">
        <ele>0.60000002384186</ele>
        <time>2022-04-10T08:58:21.000Z</time>
      </trkpt>
      <trkpt lat="47.34053" lon="-2.33575">
        <ele>1</ele>
        <time>2022-04-10T08:58:22.000Z</time>
      </trkpt>
      <trkpt lat="47.3405" lon="-2.33581">
        <ele>1.3999999761581</ele>
        <time>2022-04-10T08:58:23.000Z</time>
      </trkpt>
      <trkpt lat="47.34047" lon="-2.33586">
        <ele>1.7999999523163</ele>
        <time>2022-04-10T08:58:24.000Z</time>
      </trkpt>
      <trkpt lat="47.34044" lon="-2.3359">
        <ele>2.2000000476837</ele>
        <time>2022-04-10T08:58:25.000Z</time>
      </trkpt>
      <trkpt lat="47.34038" lon="-2.33601">
        <ele>2.2000000476837</ele>
        <time>2022-04-10T08:58:27.000Z</time>
      </trkpt>
      <trkpt lat="47.34036" lon="-2.33607">
        <ele>2.2000000476837</ele>
        <time>2022-04-10T08:58:28.000Z</time>
      </trkpt>
      <trkpt lat="47.34024" lon="-2.33631">
        <ele>2.2000000476837</ele>
        <time>2022-04-10T08:58:32.000Z</time>
      </trkpt>
      <trkpt lat="47.34004" lon="-2.33666">
        <ele>2.2000000476837</ele>
        <time>2022-04-10T08:58:38.000Z</time>
      </trkpt>
      <trkpt lat="47.33985" lon="-2.337">
        <ele>2.2000000476837</ele>
        <time>2022-04-10T08:58:44.000Z</time>
      </trkpt>
      <trkpt lat="47.33969" lon="-2.33723">
        <ele>2.2000000476837</ele>
        <time>2022-04-10T08:58:49.000Z</time>
      </trkpt>
      <trkpt lat="47.33957" lon="-2.33749">
        <ele>2.2000000476837</ele>
        <time>2022-04-10T08:58:54.000Z</time>
      </trkpt>
      <trkpt lat="47.33955" lon="-2.33755">
        <ele>2.5999999046326</ele>
        <time>2022-04-10T08:58:55.000Z</time>
      </trkpt>
      <trkpt lat="47.33952" lon="-2.3376">
        <ele>3</ele>
        <time>2022-04-10T08:58:56.000Z</time>
      </trkpt>
      <trkpt lat="47.33948" lon="-2.33764">
        <ele>3.5999999046326</ele>
        <time>2022-04-10T08:58:57.000Z</time>
      </trkpt>
      <trkpt lat="47.33944" lon="-2.33769">
        <ele>4</ele>
        <time>2022-04-10T08:58:58.000Z</time>
      </trkpt>
      <trkpt lat="47.33941" lon="-2.33775">
        <ele>4.4000000953674</ele>
        <time>2022-04-10T08:58:59.000Z</time>
      </trkpt>
      <trkpt lat="47.33926" lon="-2.33804">
        <ele>4.4000000953674</ele>
        <time>2022-04-10T08:59:05.000Z</time>
      </trkpt>
      <trkpt lat="47.3392" lon="-2.33814">
        <ele>4.4000000953674</ele>
        <time>2022-04-10T08:59:07.000Z</time>
      </trkpt>
      <trkpt lat="47.33914" lon="-2.33824">
        <ele>4.4000000953674</ele>
        <time>2022-04-10T08:59:09.000Z</time>
      </trkpt>
      <trkpt lat="47.33894" lon="-2.33853">
        <ele>4.4000000953674</ele>
        <time>2022-04-10T08:59:15.000Z</time>
      </trkpt>
      <trkpt lat="47.33887" lon="-2.3386">
        <ele>4.4000000953674</ele>
        <time>2022-04-10T08:59:18.000Z</time>
      </trkpt>
      <trkpt lat="47.3388" lon="-2.33865">
        <ele>4.4000000953674</ele>
        <time>2022-04-10T08:59:28.000Z</time>
      </trkpt>
      <trkpt lat="47.33876" lon="-2.33872">
        <ele>4.4000000953674</ele>
        <time>2022-04-10T08:59:30.000Z</time>
      </trkpt>
      <trkpt lat="47.33861" lon="-2.33885">
        <ele>4.4000000953674</ele>
        <time>2022-04-10T08:59:34.000Z</time>
      </trkpt>
      <trkpt lat="47.3385" lon="-2.33896">
        <ele>4.8000001907349</ele>
        <time>2022-04-10T08:59:37.000Z</time>
      </trkpt>
      <trkpt lat="47.33846" lon="-2.33899">
        <ele>5.1999998092651</ele>
        <time>2022-04-10T08:59:38.000Z</time>
      </trkpt>
      <trkpt lat="47.33843" lon="-2.33903">
        <ele>5.5999999046326</ele>
        <time>2022-04-10T08:59:39.000Z</time>
      </trkpt>
      <trkpt lat="47.33839" lon="-2.33905">
        <ele>6</ele>
        <time>2022-04-10T08:59:40.000Z</time>
      </trkpt>
      <trkpt lat="47.33835" lon="-2.33907">
        <ele>6.4000000953674</ele>
        <time>2022-04-10T08:59:41.000Z</time>
      </trkpt>
      <trkpt lat="47.33807" lon="-2.33926">
        <ele>6.4000000953674</ele>
        <time>2022-04-10T08:59:47.000Z</time>
      </trkpt>
      <trkpt lat="47.33777" lon="-2.33951">
        <ele>6.4000000953674</ele>
        <time>2022-04-10T08:59:54.000Z</time>
      </trkpt>
      <trkpt lat="47.33745" lon="-2.33976">
        <ele>6.4000000953674</ele>
        <time>2022-04-10T09:00:01.000Z</time>
      </trkpt>
      <trkpt lat="47.33719" lon="-2.34">
        <ele>6.8000001907349</ele>
        <time>2022-04-10T09:00:07.000Z</time>
      </trkpt>
      <trkpt lat="47.33714" lon="-2.34004">
        <ele>7.1999998092651</ele>
        <time>2022-04-10T09:00:08.000Z</time>
      </trkpt>
      <trkpt lat="47.3371" lon="-2.34008">
        <ele>7.5999999046326</ele>
        <time>2022-04-10T09:00:09.000Z</time>
      </trkpt>
      <trkpt lat="47.33706" lon="-2.34012">
        <ele>8</ele>
        <time>2022-04-10T09:00:10.000Z</time>
      </trkpt>
      <trkpt lat="47.33701" lon="-2.34017">
        <ele>8.3999996185303</ele>
        <time>2022-04-10T09:00:11.000Z</time>
      </trkpt>
      <trkpt lat="47.33696" lon="-2.34022">
        <ele>8.3999996185303</ele>
        <time>2022-04-10T09:00:12.000Z</time>
      </trkpt>
      <trkpt lat="47.3367" lon="-2.34045">
        <ele>8.3999996185303</ele>
        <time>2022-04-10T09:00:18.000Z</time>
      </trkpt>
      <trkpt lat="47.3365" lon="-2.34063">
        <ele>8.3999996185303</ele>
        <time>2022-04-10T09:00:22.000Z</time>
      </trkpt>
      <trkpt lat="47.33645" lon="-2.34067">
        <ele>8.3999996185303</ele>
        <time>2022-04-10T09:00:23.000Z</time>
      </trkpt>
      <trkpt lat="47.33608" lon="-2.34097">
        <ele>8.3999996185303</ele>
        <time>2022-04-10T09:00:31.000Z</time>
      </trkpt>
      <trkpt lat="47.33585" lon="-2.34114">
        <ele>8.3999996185303</ele>
        <time>2022-04-10T09:00:36.000Z</time>
      </trkpt>
      <trkpt lat="47.3358" lon="-2.34117">
        <ele>8.3999996185303</ele>
        <time>2022-04-10T09:00:37.000Z</time>
      </trkpt>
      <trkpt lat="47.33553" lon="-2.34141">
        <ele>8.3999996185303</ele>
        <time>2022-04-10T09:00:43.000Z</time>
      </trkpt>
      <trkpt lat="47.33517" lon="-2.34167">
        <ele>8.3999996185303</ele>
        <time>2022-04-10T09:00:50.000Z</time>
      </trkpt>
      <trkpt lat="47.33511" lon="-2.3417">
        <ele>8.3999996185303</ele>
        <time>2022-04-10T09:00:51.000Z</time>
      </trkpt>
      <trkpt lat="47.33501" lon="-2.34177">
        <ele>8.3999996185303</ele>
        <time>2022-04-10T09:00:53.000Z</time>
      </trkpt>
      <trkpt lat="47.33492" lon="-2.34184">
        <ele>8.3999996185303</ele>
        <time>2022-04-10T09:00:55.000Z</time>
      </trkpt>
      <trkpt lat="47.33474" lon="-2.34202">
        <ele>8.8000001907349</ele>
        <time>2022-04-10T09:00:59.000Z</time>
      </trkpt>
      <trkpt lat="47.33469" lon="-2.34206">
        <ele>9.1999998092651</ele>
        <time>2022-04-10T09:01:00.000Z</time>
      </trkpt>
      <trkpt lat="47.33465" lon="-2.34211">
        <ele>9.6000003814697</ele>
        <time>2022-04-10T09:01:01.000Z</time>
      </trkpt>
      <trkpt lat="47.33461" lon="-2.34217">
        <ele>10.199999809265</ele>
        <time>2022-04-10T09:01:02.000Z</time>
      </trkpt>
      <trkpt lat="47.33457" lon="-2.34222">
        <ele>10.60000038147</ele>
        <time>2022-04-10T09:01:03.000Z</time>
      </trkpt>
      <trkpt lat="47.3344" lon="-2.3425">
        <ele>10.60000038147</ele>
        <time>2022-04-10T09:01:08.000Z</time>
      </trkpt>
      <trkpt lat="47.33433" lon="-2.34263">
        <ele>10.60000038147</ele>
        <time>2022-04-10T09:01:10.000Z</time>
      </trkpt>
      <trkpt lat="47.33429" lon="-2.34276">
        <ele>10.60000038147</ele>
        <time>2022-04-10T09:01:12.000Z</time>
      </trkpt>
      <trkpt lat="47.33421" lon="-2.34311">
        <ele>10.60000038147</ele>
        <time>2022-04-10T09:01:17.000Z</time>
      </trkpt>
      <trkpt lat="47.33406" lon="-2.34357">
        <ele>10.60000038147</ele>
        <time>2022-04-10T09:01:23.000Z</time>
      </trkpt>
      <trkpt lat="47.33394" lon="-2.34384">
        <ele>11</ele>
        <time>2022-04-10T09:01:27.000Z</time>
      </trkpt>
      <trkpt lat="47.33391" lon="-2.34392">
        <ele>11.39999961853</ele>
        <time>2022-04-10T09:01:28.000Z</time>
      </trkpt>
      <trkpt lat="47.33388" lon="-2.34399">
        <ele>11.800000190735</ele>
        <time>2022-04-10T09:01:29.000Z</time>
      </trkpt>
      <trkpt lat="47.33385" lon="-2.34407">
        <ele>12.199999809265</ele>
        <time>2022-04-10T09:01:30.000Z</time>
      </trkpt>
      <trkpt lat="47.33383" lon="-2.34414">
        <ele>12.60000038147</ele>
        <time>2022-04-10T09:01:31.000Z</time>
      </trkpt>
      <trkpt lat="47.33375" lon="-2.34437">
        <ele>12.60000038147</ele>
        <time>2022-04-10T09:01:34.000Z</time>
      </trkpt>
      <trkpt lat="47.33358" lon="-2.34489">
        <ele>12.60000038147</ele>
        <time>2022-04-10T09:01:41.000Z</time>
      </trkpt>
      <trkpt lat="47.33355" lon="-2.34495">
        <ele>12.60000038147</ele>
        <time>2022-04-10T09:01:42.000Z</time>
      </trkpt>
      <trkpt lat="47.33347" lon="-2.34512">
        <ele>12.60000038147</ele>
        <time>2022-04-10T09:01:45.000Z</time>
      </trkpt>
      <trkpt lat="47.33341" lon="-2.34527">
        <ele>12.60000038147</ele>
        <time>2022-04-10T09:01:47.000Z</time>
      </trkpt>
      <trkpt lat="47.33339" lon="-2.34539">
        <ele>12.60000038147</ele>
        <time>2022-04-10T09:01:49.000Z</time>
      </trkpt>
      <trkpt lat="47.33336" lon="-2.34549">
        <ele>12.60000038147</ele>
        <time>2022-04-10T09:01:52.000Z</time>
      </trkpt>
      <trkpt lat="47.33334" lon="-2.34551">
        <ele>12.60000038147</ele>
        <time>2022-04-10T09:01:53.000Z</time>
      </trkpt>
      <trkpt lat="47.33333" lon="-2.34553">
        <ele>12.199999809265</ele>
        <time>2022-04-10T09:01:54.000Z</time>
      </trkpt>
      <trkpt lat="47.33332" lon="-2.34556">
        <ele>11.60000038147</ele>
        <time>2022-04-10T09:01:55.000Z</time>
      </trkpt>
      <trkpt lat="47.33332" lon="-2.34558">
        <ele>11.199999809265</ele>
        <time>2022-04-10T09:01:56.000Z</time>
      </trkpt>
      <trkpt lat="47.33331" lon="-2.3456">
        <ele>10.800000190735</ele>
        <time>2022-04-10T09:01:57.000Z</time>
      </trkpt>
      <trkpt lat="47.33331" lon="-2.34563">
        <ele>10.39999961853</ele>
        <time>2022-04-10T09:01:58.000Z</time>
      </trkpt>
      <trkpt lat="47.33327" lon="-2.34578">
        <ele>10.39999961853</ele>
        <time>2022-04-10T09:02:03.000Z</time>
      </trkpt>
      <trkpt lat="47.33325" lon="-2.34586">
        <ele>10.39999961853</ele>
        <time>2022-04-10T09:02:05.000Z</time>
      </trkpt>
      <trkpt lat="47.33321" lon="-2.34602">
        <ele>10.39999961853</ele>
        <time>2022-04-10T09:02:08.000Z</time>
      </trkpt>
      <trkpt lat="47.3331" lon="-2.34626">
        <ele>10.39999961853</ele>
        <time>2022-04-10T09:02:13.000Z</time>
      </trkpt>
      <trkpt lat="47.33299" lon="-2.34644">
        <ele>10.39999961853</ele>
        <time>2022-04-10T09:02:17.000Z</time>
      </trkpt>
      <trkpt lat="47.33291" lon="-2.34658">
        <ele>10.39999961853</ele>
        <time>2022-04-10T09:02:22.000Z</time>
      </trkpt>
      <trkpt lat="47.33284" lon="-2.3468">
        <ele>10.39999961853</ele>
        <time>2022-04-10T09:02:27.000Z</time>
      </trkpt>
      <trkpt lat="47.33277" lon="-2.34706">
        <ele>10.39999961853</ele>
        <time>2022-04-10T09:02:32.000Z</time>
      </trkpt>
      <trkpt lat="47.33269" lon="-2.34726">
        <ele>10.39999961853</ele>
        <time>2022-04-10T09:02:36.000Z</time>
      </trkpt>
      <trkpt lat="47.33261" lon="-2.34759">
        <ele>10.39999961853</ele>
        <time>2022-04-10T09:02:42.000Z</time>
      </trkpt>
      <trkpt lat="47.33251" lon="-2.34781">
        <ele>10.39999961853</ele>
        <time>2022-04-10T09:02:47.000Z</time>
      </trkpt>
      <trkpt lat="47.33238" lon="-2.34809">
        <ele>10.39999961853</ele>
        <time>2022-04-10T09:02:52.000Z</time>
      </trkpt>
      <trkpt lat="47.33236" lon="-2.34815">
        <ele>10.800000190735</ele>
        <time>2022-04-10T09:02:53.000Z</time>
      </trkpt>
      <trkpt lat="47.33233" lon="-2.3482">
        <ele>11.199999809265</ele>
        <time>2022-04-10T09:02:54.000Z</time>
      </trkpt>
      <trkpt lat="47.33232" lon="-2.34827">
        <ele>11.60000038147</ele>
        <time>2022-04-10T09:02:55.000Z</time>
      </trkpt>
      <trkpt lat="47.3323" lon="-2.34831">
        <ele>12</ele>
        <time>2022-04-10T09:02:56.000Z</time>
      </trkpt>
      <trkpt lat="47.33227" lon="-2.34836">
        <ele>12.39999961853</ele>
        <time>2022-04-10T09:02:57.000Z</time>
      </trkpt>
      <trkpt lat="47.33217" lon="-2.34859">
        <ele>12.39999961853</ele>
        <time>2022-04-10T09:03:01.000Z</time>
      </trkpt>
      <trkpt lat="47.3321" lon="-2.34884">
        <ele>12.39999961853</ele>
        <time>2022-04-10T09:03:06.000Z</time>
      </trkpt>
      <trkpt lat="47.33196" lon="-2.34912">
        <ele>12.39999961853</ele>
        <time>2022-04-10T09:03:12.000Z</time>
      </trkpt>
      <trkpt lat="47.33182" lon="-2.3494">
        <ele>12.39999961853</ele>
        <time>2022-04-10T09:03:17.000Z</time>
      </trkpt>
      <trkpt lat="47.3318" lon="-2.34944">
        <ele>12.800000190735</ele>
        <time>2022-04-10T09:03:18.000Z</time>
      </trkpt>
      <trkpt lat="47.33178" lon="-2.34948">
        <ele>13.199999809265</ele>
        <time>2022-04-10T09:03:19.000Z</time>
      </trkpt>
      <trkpt lat="47.33176" lon="-2.34952">
        <ele>13.60000038147</ele>
        <time>2022-04-10T09:03:20.000Z</time>
      </trkpt>
      <trkpt lat="47.33174" lon="-2.34956">
        <ele>14.199999809265</ele>
        <time>2022-04-10T09:03:21.000Z</time>
      </trkpt>
      <trkpt lat="47.33173" lon="-2.34961">
        <ele>14.60000038147</ele>
        <time>2022-04-10T09:03:22.000Z</time>
      </trkpt>
      <trkpt lat="47.33171" lon="-2.34966">
        <ele>14.60000038147</ele>
        <time>2022-04-10T09:03:23.000Z</time>
      </trkpt>
      <trkpt lat="47.33158" lon="-2.34994">
        <ele>14.60000038147</ele>
        <time>2022-04-10T09:03:29.000Z</time>
      </trkpt>
      <trkpt lat="47.33143" lon="-2.3502">
        <ele>14.60000038147</ele>
        <time>2022-04-10T09:03:35.000Z</time>
      </trkpt>
      <trkpt lat="47.33128" lon="-2.35043">
        <ele>14.60000038147</ele>
        <time>2022-04-10T09:03:41.000Z</time>
      </trkpt>
      <trkpt lat="47.33125" lon="-2.35048">
        <ele>15</ele>
        <time>2022-04-10T09:03:42.000Z</time>
      </trkpt>
      <trkpt lat="47.33123" lon="-2.35053">
        <ele>15.39999961853</ele>
        <time>2022-04-10T09:03:43.000Z</time>
      </trkpt>
      <trkpt lat="47.3312" lon="-2.35056">
        <ele>15.800000190735</ele>
        <time>2022-04-10T09:03:44.000Z</time>
      </trkpt>
      <trkpt lat="47.33118" lon="-2.35059">
        <ele>16.200000762939</ele>
        <time>2022-04-10T09:03:45.000Z</time>
      </trkpt>
      <trkpt lat="47.33116" lon="-2.35064">
        <ele>16.60000038147</ele>
        <time>2022-04-10T09:03:46.000Z</time>
      </trkpt>
      <trkpt lat="47.33103" lon="-2.35081">
        <ele>16.60000038147</ele>
        <time>2022-04-10T09:03:51.000Z</time>
      </trkpt>
      <trkpt lat="47.33084" lon="-2.35105">
        <ele>16.60000038147</ele>
        <time>2022-04-10T09:03:57.000Z</time>
      </trkpt>
      <trkpt lat="47.33074" lon="-2.35117">
        <ele>16.60000038147</ele>
        <time>2022-04-10T09:04:00.000Z</time>
      </trkpt>
      <trkpt lat="47.33068" lon="-2.35125">
        <ele>16.60000038147</ele>
        <time>2022-04-10T09:04:02.000Z</time>
      </trkpt>
      <trkpt lat="47.33053" lon="-2.3515">
        <ele>16.60000038147</ele>
        <time>2022-04-10T09:04:07.000Z</time>
      </trkpt>
      <trkpt lat="47.33048" lon="-2.35161">
        <ele>16.60000038147</ele>
        <time>2022-04-10T09:04:09.000Z</time>
      </trkpt>
      <trkpt lat="47.33036" lon="-2.35181">
        <ele>16.60000038147</ele>
        <time>2022-04-10T09:04:14.000Z</time>
      </trkpt>
      <trkpt lat="47.33028" lon="-2.35182">
        <ele>16.60000038147</ele>
        <time>2022-04-10T09:04:18.000Z</time>
      </trkpt>
      <trkpt lat="47.33026" lon="-2.35183">
        <ele>16.60000038147</ele>
        <time>2022-04-10T09:04:19.000Z</time>
      </trkpt>
      <trkpt lat="47.33024" lon="-2.35182">
        <ele>16.60000038147</ele>
        <time>2022-04-10T09:04:22.000Z</time>
      </trkpt>
      <trkpt lat="47.33022" lon="-2.35178">
        <ele>16.60000038147</ele>
        <time>2022-04-10T09:04:44.000Z</time>
      </trkpt>
      <trkpt lat="47.33022" lon="-2.35175">
        <ele>16.60000038147</ele>
        <time>2022-04-10T09:04:45.000Z</time>
      </trkpt>
      <trkpt lat="47.33017" lon="-2.35155">
        <ele>16.60000038147</ele>
        <time>2022-04-10T09:04:51.000Z</time>
      </trkpt>
      <trkpt lat="47.3301" lon="-2.35136">
        <ele>16.60000038147</ele>
        <time>2022-04-10T09:04:55.000Z</time>
      </trkpt>
      <trkpt lat="47.33001" lon="-2.35096">
        <ele>16.60000038147</ele>
        <time>2022-04-10T09:05:03.000Z</time>
      </trkpt>
      <trkpt lat="47.32992" lon="-2.35073">
        <ele>16.60000038147</ele>
        <time>2022-04-10T09:05:08.000Z</time>
      </trkpt>
      <trkpt lat="47.32988" lon="-2.35054">
        <ele>16.60000038147</ele>
        <time>2022-04-10T09:05:13.000Z</time>
      </trkpt>
      <trkpt lat="47.32983" lon="-2.35033">
        <ele>16.60000038147</ele>
        <time>2022-04-10T09:05:19.000Z</time>
      </trkpt>
      <trkpt lat="47.32979" lon="-2.35024">
        <ele>16.200000762939</ele>
        <time>2022-04-10T09:05:21.000Z</time>
      </trkpt>
      <trkpt lat="47.32977" lon="-2.35019">
        <ele>15.800000190735</ele>
        <time>2022-04-10T09:05:22.000Z</time>
      </trkpt>
      <trkpt lat="47.32975" lon="-2.35016">
        <ele>15.39999961853</ele>
        <time>2022-04-10T09:05:23.000Z</time>
      </trkpt>
      <trkpt lat="47.32973" lon="-2.35009">
        <ele>15</ele>
        <time>2022-04-10T09:05:24.000Z</time>
      </trkpt>
      <trkpt lat="47.3297" lon="-2.35002">
        <ele>14.60000038147</ele>
        <time>2022-04-10T09:05:25.000Z</time>
      </trkpt>
      <trkpt lat="47.32963" lon="-2.34977">
        <ele>14.60000038147</ele>
        <time>2022-04-10T09:05:29.000Z</time>
      </trkpt>
      <trkpt lat="47.32962" lon="-2.34944">
        <ele>14.60000038147</ele>
        <time>2022-04-10T09:05:35.000Z</time>
      </trkpt>
      <trkpt lat="47.32961" lon="-2.34938">
        <ele>14.199999809265</ele>
        <time>2022-04-10T09:05:36.000Z</time>
      </trkpt>
      <trkpt lat="47.32961" lon="-2.34932">
        <ele>13.800000190735</ele>
        <time>2022-04-10T09:05:37.000Z</time>
      </trkpt>
      <trkpt lat="47.32961" lon="-2.34927">
        <ele>13.39999961853</ele>
        <time>2022-04-10T09:05:38.000Z</time>
      </trkpt>
      <trkpt lat="47.32961" lon="-2.34922">
        <ele>13</ele>
        <time>2022-04-10T09:05:39.000Z</time>
      </trkpt>
      <trkpt lat="47.3296" lon="-2.34918">
        <ele>12.60000038147</ele>
        <time>2022-04-10T09:05:40.000Z</time>
      </trkpt>
      <trkpt lat="47.32953" lon="-2.34892">
        <ele>12.60000038147</ele>
        <time>2022-04-10T09:05:45.000Z</time>
      </trkpt>
      <trkpt lat="47.32936" lon="-2.34853">
        <ele>12.60000038147</ele>
        <time>2022-04-10T09:05:51.000Z</time>
      </trkpt>
      <trkpt lat="47.32931" lon="-2.3484">
        <ele>12.60000038147</ele>
        <time>2022-04-10T09:05:53.000Z</time>
      </trkpt>
      <trkpt lat="47.32926" lon="-2.34825">
        <ele>12.60000038147</ele>
        <time>2022-04-10T09:05:56.000Z</time>
      </trkpt>
      <trkpt lat="47.32922" lon="-2.34818">
        <ele>12.60000038147</ele>
        <time>2022-04-10T09:05:58.000Z</time>
      </trkpt>
      <trkpt lat="47.3292" lon="-2.34813">
        <ele>12.60000038147</ele>
        <time>2022-04-10T09:05:59.000Z</time>
      </trkpt>
      <trkpt lat="47.32914" lon="-2.34793">
        <ele>12.60000038147</ele>
        <time>2022-04-10T09:06:04.000Z</time>
      </trkpt>
      <trkpt lat="47.32909" lon="-2.34789">
        <ele>12.60000038147</ele>
        <time>2022-04-10T09:06:08.000Z</time>
      </trkpt>
      <trkpt lat="47.32901" lon="-2.34792">
        <ele>12.60000038147</ele>
        <time>2022-04-10T09:06:12.000Z</time>
      </trkpt>
      <trkpt lat="47.32896" lon="-2.34793">
        <ele>12.60000038147</ele>
        <time>2022-04-10T09:06:14.000Z</time>
      </trkpt>
      <trkpt lat="47.3289" lon="-2.34794">
        <ele>12.60000038147</ele>
        <time>2022-04-10T09:06:17.000Z</time>
      </trkpt>
      <trkpt lat="47.32886" lon="-2.34795">
        <ele>12.60000038147</ele>
        <time>2022-04-10T09:06:44.000Z</time>
      </trkpt>
      <trkpt lat="47.32876" lon="-2.34802">
        <ele>12.60000038147</ele>
        <time>2022-04-10T09:06:48.000Z</time>
      </trkpt>
      <trkpt lat="47.32851" lon="-2.3482">
        <ele>12.60000038147</ele>
        <time>2022-04-10T09:06:55.000Z</time>
      </trkpt>
      <trkpt lat="47.32817" lon="-2.34843">
        <ele>12.60000038147</ele>
        <time>2022-04-10T09:07:02.000Z</time>
      </trkpt>
      <trkpt lat="47.32804" lon="-2.34854">
        <ele>12.60000038147</ele>
        <time>2022-04-10T09:07:05.000Z</time>
      </trkpt>
      <trkpt lat="47.32794" lon="-2.34861">
        <ele>12.60000038147</ele>
        <time>2022-04-10T09:07:07.000Z</time>
      </trkpt>
      <trkpt lat="47.32767" lon="-2.3488">
        <ele>13</ele>
        <time>2022-04-10T09:07:13.000Z</time>
      </trkpt>
      <trkpt lat="47.32762" lon="-2.34883">
        <ele>13.39999961853</ele>
        <time>2022-04-10T09:07:14.000Z</time>
      </trkpt>
      <trkpt lat="47.32757" lon="-2.34885">
        <ele>13.800000190735</ele>
        <time>2022-04-10T09:07:15.000Z</time>
      </trkpt>
      <trkpt lat="47.32752" lon="-2.34888">
        <ele>14.199999809265</ele>
        <time>2022-04-10T09:07:16.000Z</time>
      </trkpt>
      <trkpt lat="47.32748" lon="-2.34891">
        <ele>14.60000038147</ele>
        <time>2022-04-10T09:07:17.000Z</time>
      </trkpt>
      <trkpt lat="47.32734" lon="-2.349">
        <ele>14.60000038147</ele>
        <time>2022-04-10T09:07:20.000Z</time>
      </trkpt>
      <trkpt lat="47.32711" lon="-2.34915">
        <ele>14.60000038147</ele>
        <time>2022-04-10T09:07:26.000Z</time>
      </trkpt>
      <trkpt lat="47.32692" lon="-2.34929">
        <ele>14.60000038147</ele>
        <time>2022-04-10T09:07:32.000Z</time>
      </trkpt>
      <trkpt lat="47.32676" lon="-2.34942">
        <ele>14.60000038147</ele>
        <time>2022-04-10T09:07:38.000Z</time>
      </trkpt>
      <trkpt lat="47.32666" lon="-2.3495">
        <ele>14.60000038147</ele>
        <time>2022-04-10T09:07:43.000Z</time>
      </trkpt>
      <trkpt lat="47.32652" lon="-2.34957">
        <ele>14.60000038147</ele>
        <time>2022-04-10T09:07:48.000Z</time>
      </trkpt>
      <trkpt lat="47.32635" lon="-2.34971">
        <ele>15</ele>
        <time>2022-04-10T09:07:53.000Z</time>
      </trkpt>
      <trkpt lat="47.32631" lon="-2.34973">
        <ele>15.39999961853</ele>
        <time>2022-04-10T09:07:54.000Z</time>
      </trkpt>
      <trkpt lat="47.32626" lon="-2.34975">
        <ele>15.800000190735</ele>
        <time>2022-04-10T09:07:55.000Z</time>
      </trkpt>
      <trkpt lat="47.32622" lon="-2.34977">
        <ele>16.200000762939</ele>
        <time>2022-04-10T09:07:56.000Z</time>
      </trkpt>
      <trkpt lat="47.32617" lon="-2.34979">
        <ele>16.60000038147</ele>
        <time>2022-04-10T09:07:57.000Z</time>
      </trkpt>
      <trkpt lat="47.32604" lon="-2.34985">
        <ele>16.60000038147</ele>
        <time>2022-04-10T09:08:00.000Z</time>
      </trkpt>
      <trkpt lat="47.32595" lon="-2.3499">
        <ele>16.60000038147</ele>
        <time>2022-04-10T09:08:02.000Z</time>
      </trkpt>
      <trkpt lat="47.32567" lon="-2.35003">
        <ele>16.60000038147</ele>
        <time>2022-04-10T09:08:08.000Z</time>
      </trkpt>
      <trkpt lat="47.32548" lon="-2.35012">
        <ele>16.60000038147</ele>
        <time>2022-04-10T09:08:12.000Z</time>
      </trkpt>
      <trkpt lat="47.32544" lon="-2.35014">
        <ele>16.60000038147</ele>
        <time>2022-04-10T09:08:13.000Z</time>
      </trkpt>
      <trkpt lat="47.32512" lon="-2.35024">
        <ele>16.60000038147</ele>
        <time>2022-04-10T09:08:20.000Z</time>
      </trkpt>
      <trkpt lat="47.32507" lon="-2.35026">
        <ele>17.200000762939</ele>
        <time>2022-04-10T09:08:21.000Z</time>
      </trkpt>
      <trkpt lat="47.32503" lon="-2.35027">
        <ele>17.60000038147</ele>
        <time>2022-04-10T09:08:22.000Z</time>
      </trkpt>
      <trkpt lat="47.32498" lon="-2.35028">
        <ele>18.39999961853</ele>
        <time>2022-04-10T09:08:23.000Z</time>
      </trkpt>
      <trkpt lat="47.32492" lon="-2.35029">
        <ele>18.799999237061</ele>
        <time>2022-04-10T09:08:24.000Z</time>
      </trkpt>
      <trkpt lat="47.32477" lon="-2.35034">
        <ele>18.799999237061</ele>
        <time>2022-04-10T09:08:27.000Z</time>
      </trkpt>
      <trkpt lat="47.32443" lon="-2.35044">
        <ele>18.799999237061</ele>
        <time>2022-04-10T09:08:34.000Z</time>
      </trkpt>
      <trkpt lat="47.32418" lon="-2.35047">
        <ele>18.799999237061</ele>
        <time>2022-04-10T09:08:39.000Z</time>
      </trkpt>
      <trkpt lat="47.3238" lon="-2.35047">
        <ele>18.799999237061</ele>
        <time>2022-04-10T09:08:46.000Z</time>
      </trkpt>
      <trkpt lat="47.32331" lon="-2.35047">
        <ele>18.799999237061</ele>
        <time>2022-04-10T09:08:55.000Z</time>
      </trkpt>
      <trkpt lat="47.32289" lon="-2.35048">
        <ele>18.799999237061</ele>
        <time>2022-04-10T09:09:02.000Z</time>
      </trkpt>
      <trkpt lat="47.32261" lon="-2.35048">
        <ele>18.39999961853</ele>
        <time>2022-04-10T09:09:07.000Z</time>
      </trkpt>
      <trkpt lat="47.32256" lon="-2.35049">
        <ele>18</ele>
        <time>2022-04-10T09:09:08.000Z</time>
      </trkpt>
      <trkpt lat="47.32251" lon="-2.3505">
        <ele>17.60000038147</ele>
        <time>2022-04-10T09:09:09.000Z</time>
      </trkpt>
      <trkpt lat="47.32246" lon="-2.35051">
        <ele>17.200000762939</ele>
        <time>2022-04-10T09:09:10.000Z</time>
      </trkpt>
      <trkpt lat="47.32242" lon="-2.35052">
        <ele>16.799999237061</ele>
        <time>2022-04-10T09:09:11.000Z</time>
      </trkpt>
      <trkpt lat="47.32217" lon="-2.35057">
        <ele>16.799999237061</ele>
        <time>2022-04-10T09:09:17.000Z</time>
      </trkpt>
      <trkpt lat="47.32201" lon="-2.35058">
        <ele>16.799999237061</ele>
        <time>2022-04-10T09:09:21.000Z</time>
      </trkpt>
      <trkpt lat="47.32193" lon="-2.3506">
        <ele>16.799999237061</ele>
        <time>2022-04-10T09:09:23.000Z</time>
      </trkpt>
      <trkpt lat="47.32181" lon="-2.3506">
        <ele>16.799999237061</ele>
        <time>2022-04-10T09:09:25.000Z</time>
      </trkpt>
      <trkpt lat="47.32139" lon="-2.35061">
        <ele>16.39999961853</ele>
        <time>2022-04-10T09:09:32.000Z</time>
      </trkpt>
      <trkpt lat="47.32134" lon="-2.35061">
        <ele>16</ele>
        <time>2022-04-10T09:09:33.000Z</time>
      </trkpt>
      <trkpt lat="47.32128" lon="-2.35062">
        <ele>15.60000038147</ele>
        <time>2022-04-10T09:09:34.000Z</time>
      </trkpt>
      <trkpt lat="47.32122" lon="-2.35063">
        <ele>15.199999809265</ele>
        <time>2022-04-10T09:09:35.000Z</time>
      </trkpt>
      <trkpt lat="47.32116" lon="-2.35063">
        <ele>14.800000190735</ele>
        <time>2022-04-10T09:09:36.000Z</time>
      </trkpt>
      <trkpt lat="47.32104" lon="-2.35064">
        <ele>14.800000190735</ele>
        <time>2022-04-10T09:09:38.000Z</time>
      </trkpt>
      <trkpt lat="47.32075" lon="-2.35063">
        <ele>14.800000190735</ele>
        <time>2022-04-10T09:09:44.000Z</time>
      </trkpt>
      <trkpt lat="47.32059" lon="-2.35062">
        <ele>14.800000190735</ele>
        <time>2022-04-10T09:09:47.000Z</time>
      </trkpt>
      <trkpt lat="47.32046" lon="-2.35061">
        <ele>14.800000190735</ele>
        <time>2022-04-10T09:09:50.000Z</time>
      </trkpt>
      <trkpt lat="47.32039" lon="-2.35063">
        <ele>14.800000190735</ele>
        <time>2022-04-10T09:09:52.000Z</time>
      </trkpt>
      <trkpt lat="47.32037" lon="-2.35066">
        <ele>14.800000190735</ele>
        <time>2022-04-10T09:09:53.000Z</time>
      </trkpt>
      <trkpt lat="47.3204" lon="-2.3508">
        <ele>14.800000190735</ele>
        <time>2022-04-10T09:09:56.000Z</time>
      </trkpt>
      <trkpt lat="47.32041" lon="-2.35086">
        <ele>14.800000190735</ele>
        <time>2022-04-10T09:09:57.000Z</time>
      </trkpt>
      <trkpt lat="47.32045" lon="-2.35114">
        <ele>14.800000190735</ele>
        <time>2022-04-10T09:10:02.000Z</time>
      </trkpt>
      <trkpt lat="47.32043" lon="-2.35118">
        <ele>14.800000190735</ele>
        <time>2022-04-10T09:10:03.000Z</time>
      </trkpt>
      <trkpt lat="47.32038" lon="-2.35126">
        <ele>14.800000190735</ele>
        <time>2022-04-10T09:10:05.000Z</time>
      </trkpt>
      <trkpt lat="47.32032" lon="-2.35132">
        <ele>14.800000190735</ele>
        <time>2022-04-10T09:10:07.000Z</time>
      </trkpt>
      <trkpt lat="47.32019" lon="-2.35144">
        <ele>14.800000190735</ele>
        <time>2022-04-10T09:10:10.000Z</time>
      </trkpt>
      <trkpt lat="47.31998" lon="-2.35164">
        <ele>14.800000190735</ele>
        <time>2022-04-10T09:10:15.000Z</time>
      </trkpt>
      <trkpt lat="47.31985" lon="-2.35175">
        <ele>14.800000190735</ele>
        <time>2022-04-10T09:10:18.000Z</time>
      </trkpt>
      <trkpt lat="47.31972" lon="-2.35188">
        <ele>14.800000190735</ele>
        <time>2022-04-10T09:10:21.000Z</time>
      </trkpt>
      <trkpt lat="47.31945" lon="-2.35215">
        <ele>14.800000190735</ele>
        <time>2022-04-10T09:10:27.000Z</time>
      </trkpt>
      <trkpt lat="47.31931" lon="-2.35229">
        <ele>14.800000190735</ele>
        <time>2022-04-10T09:10:30.000Z</time>
      </trkpt>
      <trkpt lat="47.31921" lon="-2.35238">
        <ele>14.800000190735</ele>
        <time>2022-04-10T09:10:32.000Z</time>
      </trkpt>
      <trkpt lat="47.31906" lon="-2.35251">
        <ele>14.800000190735</ele>
        <time>2022-04-10T09:10:35.000Z</time>
      </trkpt>
      <trkpt lat="47.31894" lon="-2.35264">
        <ele>14.800000190735</ele>
        <time>2022-04-10T09:10:38.000Z</time>
      </trkpt>
      <trkpt lat="47.31868" lon="-2.35285">
        <ele>14.800000190735</ele>
        <time>2022-04-10T09:10:44.000Z</time>
      </trkpt>
      <trkpt lat="47.31863" lon="-2.35288">
        <ele>15.199999809265</ele>
        <time>2022-04-10T09:10:45.000Z</time>
      </trkpt>
      <trkpt lat="47.31859" lon="-2.3529">
        <ele>15.60000038147</ele>
        <time>2022-04-10T09:10:46.000Z</time>
      </trkpt>
      <trkpt lat="47.31854" lon="-2.35292">
        <ele>16</ele>
        <time>2022-04-10T09:10:47.000Z</time>
      </trkpt>
      <trkpt lat="47.31845" lon="-2.35297">
        <ele>16.799999237061</ele>
        <time>2022-04-10T09:10:48.000Z</time>
      </trkpt>
      <trkpt lat="47.31845" lon="-2.35297">
        <ele>16.799999237061</ele>
        <time>2022-04-10T09:10:49.000Z</time>
      </trkpt>
      <trkpt lat="47.31821" lon="-2.35312">
        <ele>16.799999237061</ele>
        <time>2022-04-10T09:10:54.000Z</time>
      </trkpt>
      <trkpt lat="47.31817" lon="-2.35315">
        <ele>16.799999237061</ele>
        <time>2022-04-10T09:10:55.000Z</time>
      </trkpt>
      <trkpt lat="47.31797" lon="-2.35328">
        <ele>17.200000762939</ele>
        <time>2022-04-10T09:11:00.000Z</time>
      </trkpt>
      <trkpt lat="47.31793" lon="-2.35331">
        <ele>17.799999237061</ele>
        <time>2022-04-10T09:11:01.000Z</time>
      </trkpt>
      <trkpt lat="47.3179" lon="-2.35333">
        <ele>18.200000762939</ele>
        <time>2022-04-10T09:11:02.000Z</time>
      </trkpt>
      <trkpt lat="47.31786" lon="-2.35336">
        <ele>18.60000038147</ele>
        <time>2022-04-10T09:11:03.000Z</time>
      </trkpt>
      <trkpt lat="47.31782" lon="-2.35339">
        <ele>19</ele>
        <time>2022-04-10T09:11:04.000Z</time>
      </trkpt>
      <trkpt lat="47.31778" lon="-2.35342">
        <ele>19</ele>
        <time>2022-04-10T09:11:05.000Z</time>
      </trkpt>
      <trkpt lat="47.31761" lon="-2.35357">
        <ele>19</ele>
        <time>2022-04-10T09:11:10.000Z</time>
      </trkpt>
      <trkpt lat="47.31757" lon="-2.35366">
        <ele>19</ele>
        <time>2022-04-10T09:11:12.000Z</time>
      </trkpt>
      <trkpt lat="47.31759" lon="-2.35376">
        <ele>19</ele>
        <time>2022-04-10T09:11:14.000Z</time>
      </trkpt>
      <trkpt lat="47.31765" lon="-2.35392">
        <ele>19</ele>
        <time>2022-04-10T09:11:17.000Z</time>
      </trkpt>
      <trkpt lat="47.31771" lon="-2.35403">
        <ele>19</ele>
        <time>2022-04-10T09:11:19.000Z</time>
      </trkpt>
      <trkpt lat="47.31781" lon="-2.35417">
        <ele>19</ele>
        <time>2022-04-10T09:11:22.000Z</time>
      </trkpt>
      <trkpt lat="47.31787" lon="-2.35424">
        <ele>19</ele>
        <time>2022-04-10T09:11:24.000Z</time>
      </trkpt>
      <trkpt lat="47.31793" lon="-2.35433">
        <ele>19</ele>
        <time>2022-04-10T09:11:28.000Z</time>
      </trkpt>
      <trkpt lat="47.31799" lon="-2.35446">
        <ele>18.60000038147</ele>
        <time>2022-04-10T09:11:34.000Z</time>
      </trkpt>
      <trkpt lat="47.318" lon="-2.35448">
        <ele>18.200000762939</ele>
        <time>2022-04-10T09:11:35.000Z</time>
      </trkpt>
      <trkpt lat="47.31801" lon="-2.35451">
        <ele>17.799999237061</ele>
        <time>2022-04-10T09:11:36.000Z</time>
      </trkpt>
      <trkpt lat="47.31801" lon="-2.35453">
        <ele>17.39999961853</ele>
        <time>2022-04-10T09:11:37.000Z</time>
      </trkpt>
      <trkpt lat="47.31802" lon="-2.35455">
        <ele>17</ele>
        <time>2022-04-10T09:11:38.000Z</time>
      </trkpt>
      <trkpt lat="47.31803" lon="-2.3546">
        <ele>17</ele>
        <time>2022-04-10T09:11:40.000Z</time>
      </trkpt>
      <trkpt lat="47.31809" lon="-2.35474">
        <ele>17</ele>
        <time>2022-04-10T09:11:45.000Z</time>
      </trkpt>
      <trkpt lat="47.31818" lon="-2.35496">
        <ele>17</ele>
        <time>2022-04-10T09:11:50.000Z</time>
      </trkpt>
      <trkpt lat="47.31828" lon="-2.35517">
        <ele>17</ele>
        <time>2022-04-10T09:11:55.000Z</time>
      </trkpt>
      <trkpt lat="47.31836" lon="-2.3554">
        <ele>17</ele>
        <time>2022-04-10T09:12:00.000Z</time>
      </trkpt>
      <trkpt lat="47.31824" lon="-2.35557">
        <ele>17</ele>
        <time>2022-04-10T09:12:05.000Z</time>
      </trkpt>
      <trkpt lat="47.31822" lon="-2.35561">
        <ele>17</ele>
        <time>2022-04-10T09:12:06.000Z</time>
      </trkpt>
      <trkpt lat="47.31812" lon="-2.35572">
        <ele>17</ele>
        <time>2022-04-10T09:12:10.000Z</time>
      </trkpt>
      <trkpt lat="47.31801" lon="-2.35595">
        <ele>17</ele>
        <time>2022-04-10T09:12:16.000Z</time>
      </trkpt>
      <trkpt lat="47.31789" lon="-2.3562">
        <ele>17</ele>
        <time>2022-04-10T09:12:21.000Z</time>
      </trkpt>
      <trkpt lat="47.31787" lon="-2.35628">
        <ele>17</ele>
        <time>2022-04-10T09:12:22.000Z</time>
      </trkpt>
      <trkpt lat="47.31784" lon="-2.35659">
        <ele>17</ele>
        <time>2022-04-10T09:12:27.000Z</time>
      </trkpt>
      <trkpt lat="47.31782" lon="-2.35671">
        <ele>17.39999961853</ele>
        <time>2022-04-10T09:12:29.000Z</time>
      </trkpt>
      <trkpt lat="47.31781" lon="-2.35676">
        <ele>17.799999237061</ele>
        <time>2022-04-10T09:12:30.000Z</time>
      </trkpt>
      <trkpt lat="47.3178" lon="-2.35682">
        <ele>18.200000762939</ele>
        <time>2022-04-10T09:12:31.000Z</time>
      </trkpt>
      <trkpt lat="47.31779" lon="-2.35687">
        <ele>19</ele>
        <time>2022-04-10T09:12:32.000Z</time>
      </trkpt>
      <trkpt lat="47.31777" lon="-2.35692">
        <ele>19</ele>
        <time>2022-04-10T09:12:33.000Z</time>
      </trkpt>
      <trkpt lat="47.31773" lon="-2.35724">
        <ele>19</ele>
        <time>2022-04-10T09:12:39.000Z</time>
      </trkpt>
      <trkpt lat="47.31773" lon="-2.35733">
        <ele>19.39999961853</ele>
        <time>2022-04-10T09:12:41.000Z</time>
      </trkpt>
      <trkpt lat="47.31773" lon="-2.35738">
        <ele>19.799999237061</ele>
        <time>2022-04-10T09:12:42.000Z</time>
      </trkpt>
      <trkpt lat="47.31774" lon="-2.35742">
        <ele>20.200000762939</ele>
        <time>2022-04-10T09:12:43.000Z</time>
      </trkpt>
      <trkpt lat="47.31774" lon="-2.35747">
        <ele>20.799999237061</ele>
        <time>2022-04-10T09:12:44.000Z</time>
      </trkpt>
      <trkpt lat="47.31774" lon="-2.35753">
        <ele>21.200000762939</ele>
        <time>2022-04-10T09:12:45.000Z</time>
      </trkpt>
      <trkpt lat="47.31776" lon="-2.35781">
        <ele>21.200000762939</ele>
        <time>2022-04-10T09:12:50.000Z</time>
      </trkpt>
      <trkpt lat="47.31779" lon="-2.35789">
        <ele>21.200000762939</ele>
        <time>2022-04-10T09:12:51.000Z</time>
      </trkpt>
      <trkpt lat="47.31798" lon="-2.35808">
        <ele>21.200000762939</ele>
        <time>2022-04-10T09:12:54.000Z</time>
      </trkpt>
      <trkpt lat="47.31803" lon="-2.35815">
        <ele>21.200000762939</ele>
        <time>2022-04-10T09:12:55.000Z</time>
      </trkpt>
      <trkpt lat="47.31812" lon="-2.35838">
        <ele>21.200000762939</ele>
        <time>2022-04-10T09:12:58.000Z</time>
      </trkpt>
      <trkpt lat="47.31815" lon="-2.35846">
        <ele>21.200000762939</ele>
        <time>2022-04-10T09:12:59.000Z</time>
      </trkpt>
      <trkpt lat="47.31821" lon="-2.3587">
        <ele>21.200000762939</ele>
        <time>2022-04-10T09:13:03.000Z</time>
      </trkpt>
      <trkpt lat="47.31812" lon="-2.35881">
        <ele>21.200000762939</ele>
        <time>2022-04-10T09:13:06.000Z</time>
      </trkpt>
      <trkpt lat="47.31803" lon="-2.35885">
        <ele>21.200000762939</ele>
        <time>2022-04-10T09:13:08.000Z</time>
      </trkpt>
      <trkpt lat="47.31787" lon="-2.35894">
        <ele>21.200000762939</ele>
        <time>2022-04-10T09:13:12.000Z</time>
      </trkpt>
      <trkpt lat="47.31782" lon="-2.35897">
        <ele>21.60000038147</ele>
        <time>2022-04-10T09:13:13.000Z</time>
      </trkpt>
      <trkpt lat="47.31778" lon="-2.35899">
        <ele>22</ele>
        <time>2022-04-10T09:13:14.000Z</time>
      </trkpt>
      <trkpt lat="47.31773" lon="-2.35903">
        <ele>22.39999961853</ele>
        <time>2022-04-10T09:13:15.000Z</time>
      </trkpt>
      <trkpt lat="47.31768" lon="-2.35906">
        <ele>22.799999237061</ele>
        <time>2022-04-10T09:13:16.000Z</time>
      </trkpt>
      <trkpt lat="47.31764" lon="-2.35909">
        <ele>23.200000762939</ele>
        <time>2022-04-10T09:13:17.000Z</time>
      </trkpt>
      <trkpt lat="47.31747" lon="-2.35919">
        <ele>23.200000762939</ele>
        <time>2022-04-10T09:13:21.000Z</time>
      </trkpt>
      <trkpt lat="47.31719" lon="-2.35937">
        <ele>23.200000762939</ele>
        <time>2022-04-10T09:13:28.000Z</time>
      </trkpt>
      <trkpt lat="47.31711" lon="-2.35942">
        <ele>23.60000038147</ele>
        <time>2022-04-10T09:13:30.000Z</time>
      </trkpt>
      <trkpt lat="47.31707" lon="-2.35945">
        <ele>24</ele>
        <time>2022-04-10T09:13:31.000Z</time>
      </trkpt>
      <trkpt lat="47.31702" lon="-2.35947">
        <ele>24.39999961853</ele>
        <time>2022-04-10T09:13:32.000Z</time>
      </trkpt>
      <trkpt lat="47.31698" lon="-2.35948">
        <ele>24.799999237061</ele>
        <time>2022-04-10T09:13:33.000Z</time>
      </trkpt>
      <trkpt lat="47.31693" lon="-2.3595">
        <ele>25.200000762939</ele>
        <time>2022-04-10T09:13:34.000Z</time>
      </trkpt>
      <trkpt lat="47.31689" lon="-2.35953">
        <ele>25.200000762939</ele>
        <time>2022-04-10T09:13:35.000Z</time>
      </trkpt>
      <trkpt lat="47.31681" lon="-2.35957">
        <ele>25.200000762939</ele>
        <time>2022-04-10T09:13:37.000Z</time>
      </trkpt>
      <trkpt lat="47.31663" lon="-2.35966">
        <ele>25.200000762939</ele>
        <time>2022-04-10T09:13:41.000Z</time>
      </trkpt>
      <trkpt lat="47.31654" lon="-2.35972">
        <ele>25.200000762939</ele>
        <time>2022-04-10T09:13:43.000Z</time>
      </trkpt>
      <trkpt lat="47.31642" lon="-2.35982">
        <ele>25.200000762939</ele>
        <time>2022-04-10T09:13:46.000Z</time>
      </trkpt>
      <trkpt lat="47.31638" lon="-2.35986">
        <ele>25.200000762939</ele>
        <time>2022-04-10T09:13:47.000Z</time>
      </trkpt>
      <trkpt lat="47.3163" lon="-2.35993">
        <ele>25.60000038147</ele>
        <time>2022-04-10T09:13:49.000Z</time>
      </trkpt>
      <trkpt lat="47.31627" lon="-2.35997">
        <ele>26.200000762939</ele>
        <time>2022-04-10T09:13:50.000Z</time>
      </trkpt>
      <trkpt lat="47.31624" lon="-2.36002">
        <ele>26.60000038147</ele>
        <time>2022-04-10T09:13:51.000Z</time>
      </trkpt>
      <trkpt lat="47.3162" lon="-2.36006">
        <ele>27</ele>
        <time>2022-04-10T09:13:52.000Z</time>
      </trkpt>
      <trkpt lat="47.31616" lon="-2.3601">
        <ele>27.39999961853</ele>
        <time>2022-04-10T09:13:53.000Z</time>
      </trkpt>
      <trkpt lat="47.31606" lon="-2.36023">
        <ele>27.39999961853</ele>
        <time>2022-04-10T09:13:56.000Z</time>
      </trkpt>
      <trkpt lat="47.31592" lon="-2.36037">
        <ele>27.39999961853</ele>
        <time>2022-04-10T09:14:00.000Z</time>
      </trkpt>
      <trkpt lat="47.31585" lon="-2.36045">
        <ele>27.39999961853</ele>
        <time>2022-04-10T09:14:02.000Z</time>
      </trkpt>
      <trkpt lat="47.3157" lon="-2.3606">
        <ele>27.39999961853</ele>
        <time>2022-04-10T09:14:06.000Z</time>
      </trkpt>
      <trkpt lat="47.31566" lon="-2.36063">
        <ele>27.39999961853</ele>
        <time>2022-04-10T09:14:07.000Z</time>
      </trkpt>
      <trkpt lat="47.31546" lon="-2.36082">
        <ele>27.39999961853</ele>
        <time>2022-04-10T09:14:12.000Z</time>
      </trkpt>
      <trkpt lat="47.31543" lon="-2.36086">
        <ele>27.39999961853</ele>
        <time>2022-04-10T09:14:13.000Z</time>
      </trkpt>
      <trkpt lat="47.31521" lon="-2.3611">
        <ele>27.799999237061</ele>
        <time>2022-04-10T09:14:19.000Z</time>
      </trkpt>
      <trkpt lat="47.31517" lon="-2.36114">
        <ele>28.200000762939</ele>
        <time>2022-04-10T09:14:20.000Z</time>
      </trkpt>
      <trkpt lat="47.31514" lon="-2.36118">
        <ele>28.60000038147</ele>
        <time>2022-04-10T09:14:21.000Z</time>
      </trkpt>
      <trkpt lat="47.3151" lon="-2.36121">
        <ele>29.200000762939</ele>
        <time>2022-04-10T09:14:22.000Z</time>
      </trkpt>
      <trkpt lat="47.31507" lon="-2.36125">
        <ele>29.60000038147</ele>
        <time>2022-04-10T09:14:23.000Z</time>
      </trkpt>
      <trkpt lat="47.31503" lon="-2.3613">
        <ele>29.60000038147</ele>
        <time>2022-04-10T09:14:24.000Z</time>
      </trkpt>
      <trkpt lat="47.31477" lon="-2.36159">
        <ele>29.60000038147</ele>
        <time>2022-04-10T09:14:31.000Z</time>
      </trkpt>
      <trkpt lat="47.31465" lon="-2.36172">
        <ele>29.60000038147</ele>
        <time>2022-04-10T09:14:36.000Z</time>
      </trkpt>
      <trkpt lat="47.31461" lon="-2.36174">
        <ele>29.60000038147</ele>
        <time>2022-04-10T09:14:40.000Z</time>
      </trkpt>
      <trkpt lat="47.3146" lon="-2.36175">
        <ele>29.60000038147</ele>
        <time>2022-04-10T09:17:34.000Z</time>
      </trkpt>
      <trkpt lat="47.31449" lon="-2.36183">
        <ele>29.60000038147</ele>
        <time>2022-04-10T09:17:39.000Z</time>
      </trkpt>
      <trkpt lat="47.31428" lon="-2.36197">
        <ele>29.60000038147</ele>
        <time>2022-04-10T09:17:45.000Z</time>
      </trkpt>
      <trkpt lat="47.31418" lon="-2.36202">
        <ele>30</ele>
        <time>2022-04-10T09:17:48.000Z</time>
      </trkpt>
      <trkpt lat="47.31415" lon="-2.36205">
        <ele>30.39999961853</ele>
        <time>2022-04-10T09:17:49.000Z</time>
      </trkpt>
      <trkpt lat="47.31411" lon="-2.36208">
        <ele>30.799999237061</ele>
        <time>2022-04-10T09:17:50.000Z</time>
      </trkpt>
      <trkpt lat="47.31406" lon="-2.36209">
        <ele>31.200000762939</ele>
        <time>2022-04-10T09:17:51.000Z</time>
      </trkpt>
      <trkpt lat="47.31402" lon="-2.3621">
        <ele>31.60000038147</ele>
        <time>2022-04-10T09:17:52.000Z</time>
      </trkpt>
      <trkpt lat="47.31399" lon="-2.3621">
        <ele>31.60000038147</ele>
        <time>2022-04-10T09:17:53.000Z</time>
      </trkpt>
      <trkpt lat="47.31382" lon="-2.36218">
        <ele>31.60000038147</ele>
        <time>2022-04-10T09:17:57.000Z</time>
      </trkpt>
      <trkpt lat="47.31378" lon="-2.36221">
        <ele>31.60000038147</ele>
        <time>2022-04-10T09:17:58.000Z</time>
      </trkpt>
      <trkpt lat="47.31356" lon="-2.36248">
        <ele>31.60000038147</ele>
        <time>2022-04-10T09:18:04.000Z</time>
      </trkpt>
      <trkpt lat="47.31345" lon="-2.3626">
        <ele>31.60000038147</ele>
        <time>2022-04-10T09:18:07.000Z</time>
      </trkpt>
      <trkpt lat="47.31332" lon="-2.36273">
        <ele>31.60000038147</ele>
        <time>2022-04-10T09:18:10.000Z</time>
      </trkpt>
      <trkpt lat="47.31313" lon="-2.36287">
        <ele>31.60000038147</ele>
        <time>2022-04-10T09:18:14.000Z</time>
      </trkpt>
      <trkpt lat="47.31297" lon="-2.36296">
        <ele>31.60000038147</ele>
        <time>2022-04-10T09:18:17.000Z</time>
      </trkpt>
      <trkpt lat="47.31258" lon="-2.36314">
        <ele>31.60000038147</ele>
        <time>2022-04-10T09:18:24.000Z</time>
      </trkpt>
      <trkpt lat="47.31224" lon="-2.36338">
        <ele>31.60000038147</ele>
        <time>2022-04-10T09:18:30.000Z</time>
      </trkpt>
      <trkpt lat="47.31199" lon="-2.36351">
        <ele>31.200000762939</ele>
        <time>2022-04-10T09:18:34.000Z</time>
      </trkpt>
      <trkpt lat="47.31193" lon="-2.36354">
        <ele>30.799999237061</ele>
        <time>2022-04-10T09:18:35.000Z</time>
      </trkpt>
      <trkpt lat="47.31188" lon="-2.36358">
        <ele>30.39999961853</ele>
        <time>2022-04-10T09:18:36.000Z</time>
      </trkpt>
      <trkpt lat="47.31182" lon="-2.36361">
        <ele>30</ele>
        <time>2022-04-10T09:18:37.000Z</time>
      </trkpt>
      <trkpt lat="47.31176" lon="-2.36366">
        <ele>29.60000038147</ele>
        <time>2022-04-10T09:18:38.000Z</time>
      </trkpt>
      <trkpt lat="47.31165" lon="-2.36375">
        <ele>29.60000038147</ele>
        <time>2022-04-10T09:18:40.000Z</time>
      </trkpt>
      <trkpt lat="47.31155" lon="-2.36382">
        <ele>29.60000038147</ele>
        <time>2022-04-10T09:18:42.000Z</time>
      </trkpt>
      <trkpt lat="47.31144" lon="-2.3639">
        <ele>29.60000038147</ele>
        <time>2022-04-10T09:18:44.000Z</time>
      </trkpt>
      <trkpt lat="47.31128" lon="-2.364">
        <ele>29.60000038147</ele>
        <time>2022-04-10T09:18:47.000Z</time>
      </trkpt>
      <trkpt lat="47.31108" lon="-2.36411">
        <ele>29.200000762939</ele>
        <time>2022-04-10T09:18:51.000Z</time>
      </trkpt>
      <trkpt lat="47.31104" lon="-2.36414">
        <ele>28.60000038147</ele>
        <time>2022-04-10T09:18:52.000Z</time>
      </trkpt>
      <trkpt lat="47.311" lon="-2.36415">
        <ele>28.200000762939</ele>
        <time>2022-04-10T09:18:53.000Z</time>
      </trkpt>
      <trkpt lat="47.31095" lon="-2.36416">
        <ele>27.799999237061</ele>
        <time>2022-04-10T09:18:54.000Z</time>
      </trkpt>
      <trkpt lat="47.31091" lon="-2.36416">
        <ele>27.39999961853</ele>
        <time>2022-04-10T09:18:55.000Z</time>
      </trkpt>
      <trkpt lat="47.3108" lon="-2.36415">
        <ele>27.39999961853</ele>
        <time>2022-04-10T09:18:58.000Z</time>
      </trkpt>
      <trkpt lat="47.31067" lon="-2.36417">
        <ele>27.39999961853</ele>
        <time>2022-04-10T09:19:01.000Z</time>
      </trkpt>
      <trkpt lat="47.31055" lon="-2.36417">
        <ele>27.39999961853</ele>
        <time>2022-04-10T09:19:04.000Z</time>
      </trkpt>
      <trkpt lat="47.31039" lon="-2.36421">
        <ele>27.39999961853</ele>
        <time>2022-04-10T09:19:08.000Z</time>
      </trkpt>
      <trkpt lat="47.31026" lon="-2.36424">
        <ele>27.39999961853</ele>
        <time>2022-04-10T09:19:11.000Z</time>
      </trkpt>
      <trkpt lat="47.31021" lon="-2.36425">
        <ele>27.39999961853</ele>
        <time>2022-04-10T09:19:12.000Z</time>
      </trkpt>
      <trkpt lat="47.30997" lon="-2.36435">
        <ele>27.39999961853</ele>
        <time>2022-04-10T09:19:17.000Z</time>
      </trkpt>
      <trkpt lat="47.30978" lon="-2.36445">
        <ele>27.799999237061</ele>
        <time>2022-04-10T09:19:21.000Z</time>
      </trkpt>
      <trkpt lat="47.30973" lon="-2.36448">
        <ele>28.200000762939</ele>
        <time>2022-04-10T09:19:22.000Z</time>
      </trkpt>
      <trkpt lat="47.30967" lon="-2.3645">
        <ele>28.60000038147</ele>
        <time>2022-04-10T09:19:23.000Z</time>
      </trkpt>
      <trkpt lat="47.30962" lon="-2.36452">
        <ele>29</ele>
        <time>2022-04-10T09:19:24.000Z</time>
      </trkpt>
      <trkpt lat="47.30957" lon="-2.36454">
        <ele>29.39999961853</ele>
        <time>2022-04-10T09:19:25.000Z</time>
      </trkpt>
      <trkpt lat="47.30951" lon="-2.36455">
        <ele>29.39999961853</ele>
        <time>2022-04-10T09:19:26.000Z</time>
      </trkpt>
      <trkpt lat="47.30923" lon="-2.36462">
        <ele>29.39999961853</ele>
        <time>2022-04-10T09:19:31.000Z</time>
      </trkpt>
      <trkpt lat="47.30892" lon="-2.36473">
        <ele>29.39999961853</ele>
        <time>2022-04-10T09:19:37.000Z</time>
      </trkpt>
      <trkpt lat="47.30866" lon="-2.3648">
        <ele>29.39999961853</ele>
        <time>2022-04-10T09:19:42.000Z</time>
      </trkpt>
      <trkpt lat="47.30834" lon="-2.36484">
        <ele>29.39999961853</ele>
        <time>2022-04-10T09:19:48.000Z</time>
      </trkpt>
      <trkpt lat="47.30829" lon="-2.36482">
        <ele>29.799999237061</ele>
        <time>2022-04-10T09:19:49.000Z</time>
      </trkpt>
      <trkpt lat="47.30825" lon="-2.36479">
        <ele>30.200000762939</ele>
        <time>2022-04-10T09:19:50.000Z</time>
      </trkpt>
      <trkpt lat="47.30821" lon="-2.36475">
        <ele>30.60000038147</ele>
        <time>2022-04-10T09:19:51.000Z</time>
      </trkpt>
      <trkpt lat="47.30816" lon="-2.36472">
        <ele>31.200000762939</ele>
        <time>2022-04-10T09:19:52.000Z</time>
      </trkpt>
      <trkpt lat="47.30812" lon="-2.36469">
        <ele>31.60000038147</ele>
        <time>2022-04-10T09:19:53.000Z</time>
      </trkpt>
      <trkpt lat="47.30802" lon="-2.36471">
        <ele>31.60000038147</ele>
        <time>2022-04-10T09:19:55.000Z</time>
      </trkpt>
      <trkpt lat="47.30767" lon="-2.36486">
        <ele>31.60000038147</ele>
        <time>2022-04-10T09:20:02.000Z</time>
      </trkpt>
      <trkpt lat="47.30737" lon="-2.36497">
        <ele>31.60000038147</ele>
        <time>2022-04-10T09:20:08.000Z</time>
      </trkpt>
      <trkpt lat="47.30709" lon="-2.36517">
        <ele>31.60000038147</ele>
        <time>2022-04-10T09:20:16.000Z</time>
      </trkpt>
      <trkpt lat="47.30706" lon="-2.3652">
        <ele>32</ele>
        <time>2022-04-10T09:20:17.000Z</time>
      </trkpt>
      <trkpt lat="47.30702" lon="-2.36519">
        <ele>32.400001525879</ele>
        <time>2022-04-10T09:20:18.000Z</time>
      </trkpt>
      <trkpt lat="47.30699" lon="-2.36516">
        <ele>32.799999237061</ele>
        <time>2022-04-10T09:20:19.000Z</time>
      </trkpt>
      <trkpt lat="47.30696" lon="-2.36513">
        <ele>33.200000762939</ele>
        <time>2022-04-10T09:20:20.000Z</time>
      </trkpt>
      <trkpt lat="47.30693" lon="-2.36512">
        <ele>33.599998474121</ele>
        <time>2022-04-10T09:20:21.000Z</time>
      </trkpt>
      <trkpt lat="47.3069" lon="-2.36512">
        <ele>33.599998474121</ele>
        <time>2022-04-10T09:20:22.000Z</time>
      </trkpt>
      <trkpt lat="47.30678" lon="-2.36517">
        <ele>33.599998474121</ele>
        <time>2022-04-10T09:20:25.000Z</time>
      </trkpt>
      <trkpt lat="47.30669" lon="-2.3652">
        <ele>33.599998474121</ele>
        <time>2022-04-10T09:20:27.000Z</time>
      </trkpt>
      <trkpt lat="47.30644" lon="-2.36535">
        <ele>33.599998474121</ele>
        <time>2022-04-10T09:20:34.000Z</time>
      </trkpt>
      <trkpt lat="47.30621" lon="-2.36544">
        <ele>33.599998474121</ele>
        <time>2022-04-10T09:20:40.000Z</time>
      </trkpt>
      <trkpt lat="47.30586" lon="-2.36552">
        <ele>33.599998474121</ele>
        <time>2022-04-10T09:20:48.000Z</time>
      </trkpt>
      <trkpt lat="47.30558" lon="-2.36569">
        <ele>33.599998474121</ele>
        <time>2022-04-10T09:20:54.000Z</time>
      </trkpt>
      <trkpt lat="47.30544" lon="-2.36581">
        <ele>33.599998474121</ele>
        <time>2022-04-10T09:20:58.000Z</time>
      </trkpt>
      <trkpt lat="47.30537" lon="-2.36587">
        <ele>33.599998474121</ele>
        <time>2022-04-10T09:21:00.000Z</time>
      </trkpt>
      <trkpt lat="47.30529" lon="-2.36591">
        <ele>33.599998474121</ele>
        <time>2022-04-10T09:21:02.000Z</time>
      </trkpt>
      <trkpt lat="47.30526" lon="-2.36593">
        <ele>34</ele>
        <time>2022-04-10T09:21:03.000Z</time>
      </trkpt>
      <trkpt lat="47.30522" lon="-2.36594">
        <ele>34.400001525879</ele>
        <time>2022-04-10T09:21:04.000Z</time>
      </trkpt>
      <trkpt lat="47.30518" lon="-2.36596">
        <ele>34.799999237061</ele>
        <time>2022-04-10T09:21:05.000Z</time>
      </trkpt>
      <trkpt lat="47.30514" lon="-2.36597">
        <ele>35.200000762939</ele>
        <time>2022-04-10T09:21:06.000Z</time>
      </trkpt>
      <trkpt lat="47.30511" lon="-2.36598">
        <ele>35.599998474121</ele>
        <time>2022-04-10T09:21:07.000Z</time>
      </trkpt>
      <trkpt lat="47.30496" lon="-2.36602">
        <ele>35.599998474121</ele>
        <time>2022-04-10T09:21:11.000Z</time>
      </trkpt>
      <trkpt lat="47.30481" lon="-2.36608">
        <ele>35.599998474121</ele>
        <time>2022-04-10T09:21:16.000Z</time>
      </trkpt>
      <trkpt lat="47.30467" lon="-2.36617">
        <ele>35.599998474121</ele>
        <time>2022-04-10T09:21:20.000Z</time>
      </trkpt>
      <trkpt lat="47.30459" lon="-2.36623">
        <ele>35.599998474121</ele>
        <time>2022-04-10T09:21:22.000Z</time>
      </trkpt>
      <trkpt lat="47.30437" lon="-2.36642">
        <ele>35.599998474121</ele>
        <time>2022-04-10T09:21:28.000Z</time>
      </trkpt>
      <trkpt lat="47.30414" lon="-2.36655">
        <ele>35.599998474121</ele>
        <time>2022-04-10T09:21:34.000Z</time>
      </trkpt>
      <trkpt lat="47.30386" lon="-2.36657">
        <ele>35.599998474121</ele>
        <time>2022-04-10T09:21:40.000Z</time>
      </trkpt>
      <trkpt lat="47.30359" lon="-2.36654">
        <ele>35.599998474121</ele>
        <time>2022-04-10T09:21:45.000Z</time>
      </trkpt>
      <trkpt lat="47.30325" lon="-2.36648">
        <ele>35.599998474121</ele>
        <time>2022-04-10T09:21:52.000Z</time>
      </trkpt>
      <trkpt lat="47.30305" lon="-2.36648">
        <ele>35.200000762939</ele>
        <time>2022-04-10T09:21:56.000Z</time>
      </trkpt>
      <trkpt lat="47.303" lon="-2.3665">
        <ele>34.799999237061</ele>
        <time>2022-04-10T09:21:57.000Z</time>
      </trkpt>
      <trkpt lat="47.30296" lon="-2.36652">
        <ele>34.400001525879</ele>
        <time>2022-04-10T09:21:58.000Z</time>
      </trkpt>
      <trkpt lat="47.30292" lon="-2.36655">
        <ele>34</ele>
        <time>2022-04-10T09:21:59.000Z</time>
      </trkpt>
      <trkpt lat="47.30288" lon="-2.36656">
        <ele>33.400001525879</ele>
        <time>2022-04-10T09:22:00.000Z</time>
      </trkpt>
      <trkpt lat="47.30274" lon="-2.36661">
        <ele>33.400001525879</ele>
        <time>2022-04-10T09:22:03.000Z</time>
      </trkpt>
      <trkpt lat="47.30242" lon="-2.36669">
        <ele>33.400001525879</ele>
        <time>2022-04-10T09:22:10.000Z</time>
      </trkpt>
      <trkpt lat="47.3021" lon="-2.36672">
        <ele>33.400001525879</ele>
        <time>2022-04-10T09:22:17.000Z</time>
      </trkpt>
      <trkpt lat="47.30189" lon="-2.36677">
        <ele>33.400001525879</ele>
        <time>2022-04-10T09:22:23.000Z</time>
      </trkpt>
      <trkpt lat="47.30179" lon="-2.3668">
        <ele>33.400001525879</ele>
        <time>2022-04-10T09:22:30.000Z</time>
      </trkpt>
      <trkpt lat="47.30179" lon="-2.3668">
        <ele>33.400001525879</ele>
        <time>2022-04-10T09:22:32.000Z</time>
      </trkpt>
      <trkpt lat="47.30176" lon="-2.36681">
        <ele>32.599998474121</ele>
        <time>2022-04-10T09:24:04.000Z</time>
      </trkpt>
      <trkpt lat="47.30174" lon="-2.36682">
        <ele>32.200000762939</ele>
        <time>2022-04-10T09:24:05.000Z</time>
      </trkpt>
      <trkpt lat="47.30172" lon="-2.36682">
        <ele>31.799999237061</ele>
        <time>2022-04-10T09:24:06.000Z</time>
      </trkpt>
      <trkpt lat="47.30168" lon="-2.36682">
        <ele>31.39999961853</ele>
        <time>2022-04-10T09:24:07.000Z</time>
      </trkpt>
      <trkpt lat="47.30162" lon="-2.36679">
        <ele>31.39999961853</ele>
        <time>2022-04-10T09:24:09.000Z</time>
      </trkpt>
      <trkpt lat="47.30154" lon="-2.36659">
        <ele>31.39999961853</ele>
        <time>2022-04-10T09:24:13.000Z</time>
      </trkpt>
      <trkpt lat="47.30143" lon="-2.36637">
        <ele>31.39999961853</ele>
        <time>2022-04-10T09:24:17.000Z</time>
      </trkpt>
      <trkpt lat="47.30137" lon="-2.36625">
        <ele>31.39999961853</ele>
        <time>2022-04-10T09:24:19.000Z</time>
      </trkpt>
      <trkpt lat="47.30131" lon="-2.36605">
        <ele>31.39999961853</ele>
        <time>2022-04-10T09:24:22.000Z</time>
      </trkpt>
      <trkpt lat="47.30127" lon="-2.36582">
        <ele>31.39999961853</ele>
        <time>2022-04-10T09:24:25.000Z</time>
      </trkpt>
      <trkpt lat="47.30118" lon="-2.36514">
        <ele>31</ele>
        <time>2022-04-10T09:24:33.000Z</time>
      </trkpt>
      <trkpt lat="47.30117" lon="-2.36506">
        <ele>30.60000038147</ele>
        <time>2022-04-10T09:24:34.000Z</time>
      </trkpt>
      <trkpt lat="47.30116" lon="-2.36497">
        <ele>30.200000762939</ele>
        <time>2022-04-10T09:24:35.000Z</time>
      </trkpt>
      <trkpt lat="47.30114" lon="-2.36488">
        <ele>29.799999237061</ele>
        <time>2022-04-10T09:24:36.000Z</time>
      </trkpt>
      <trkpt lat="47.30113" lon="-2.36479">
        <ele>29.39999961853</ele>
        <time>2022-04-10T09:24:37.000Z</time>
      </trkpt>
      <trkpt lat="47.30108" lon="-2.36443">
        <ele>29.39999961853</ele>
        <time>2022-04-10T09:24:41.000Z</time>
      </trkpt>
      <trkpt lat="47.30102" lon="-2.364">
        <ele>29</ele>
        <time>2022-04-10T09:24:46.000Z</time>
      </trkpt>
      <trkpt lat="47.30102" lon="-2.36391">
        <ele>28.39999961853</ele>
        <time>2022-04-10T09:24:47.000Z</time>
      </trkpt>
      <trkpt lat="47.30101" lon="-2.36382">
        <ele>28</ele>
        <time>2022-04-10T09:24:48.000Z</time>
      </trkpt>
      <trkpt lat="47.30101" lon="-2.36373">
        <ele>27.60000038147</ele>
        <time>2022-04-10T09:24:49.000Z</time>
      </trkpt>
      <trkpt lat="47.301" lon="-2.36364">
        <ele>27.200000762939</ele>
        <time>2022-04-10T09:24:50.000Z</time>
      </trkpt>
      <trkpt lat="47.30095" lon="-2.36313">
        <ele>27.200000762939</ele>
        <time>2022-04-10T09:24:55.000Z</time>
      </trkpt>
      <trkpt lat="47.30088" lon="-2.36231">
        <ele>27.200000762939</ele>
        <time>2022-04-10T09:25:02.000Z</time>
      </trkpt>
      <trkpt lat="47.30089" lon="-2.36163">
        <ele>26.799999237061</ele>
        <time>2022-04-10T09:25:08.000Z</time>
      </trkpt>
      <trkpt lat="47.3009" lon="-2.36152">
        <ele>26.200000762939</ele>
        <time>2022-04-10T09:25:09.000Z</time>
      </trkpt>
      <trkpt lat="47.30091" lon="-2.36141">
        <ele>25.799999237061</ele>
        <time>2022-04-10T09:25:10.000Z</time>
      </trkpt>
      <trkpt lat="47.30093" lon="-2.3613">
        <ele>25.39999961853</ele>
        <time>2022-04-10T09:25:11.000Z</time>
      </trkpt>
      <trkpt lat="47.30094" lon="-2.3612">
        <ele>25</ele>
        <time>2022-04-10T09:25:12.000Z</time>
      </trkpt>
      <trkpt lat="47.30098" lon="-2.3608">
        <ele>25</ele>
        <time>2022-04-10T09:25:16.000Z</time>
      </trkpt>
      <trkpt lat="47.30099" lon="-2.3607">
        <ele>24.60000038147</ele>
        <time>2022-04-10T09:25:17.000Z</time>
      </trkpt>
      <trkpt lat="47.30101" lon="-2.36061">
        <ele>24.200000762939</ele>
        <time>2022-04-10T09:25:18.000Z</time>
      </trkpt>
      <trkpt lat="47.30102" lon="-2.36051">
        <ele>23.39999961853</ele>
        <time>2022-04-10T09:25:19.000Z</time>
      </trkpt>
      <trkpt lat="47.30103" lon="-2.36042">
        <ele>23</ele>
        <time>2022-04-10T09:25:20.000Z</time>
      </trkpt>
      <trkpt lat="47.30108" lon="-2.35996">
        <ele>23</ele>
        <time>2022-04-10T09:25:25.000Z</time>
      </trkpt>
      <trkpt lat="47.30119" lon="-2.35937">
        <ele>23</ele>
        <time>2022-04-10T09:25:32.000Z</time>
      </trkpt>
      <trkpt lat="47.30131" lon="-2.35882">
        <ele>23</ele>
        <time>2022-04-10T09:25:39.000Z</time>
      </trkpt>
      <trkpt lat="47.30136" lon="-2.35852">
        <ele>23.799999237061</ele>
        <time>2022-04-10T09:25:43.000Z</time>
      </trkpt>
      <trkpt lat="47.30138" lon="-2.35844">
        <ele>24.200000762939</ele>
        <time>2022-04-10T09:25:44.000Z</time>
      </trkpt>
      <trkpt lat="47.30139" lon="-2.35836">
        <ele>24.60000038147</ele>
        <time>2022-04-10T09:25:45.000Z</time>
      </trkpt>
      <trkpt lat="47.3014" lon="-2.35828">
        <ele>25</ele>
        <time>2022-04-10T09:25:46.000Z</time>
      </trkpt>
      <trkpt lat="47.30141" lon="-2.3582">
        <ele>25</ele>
        <time>2022-04-10T09:25:47.000Z</time>
      </trkpt>
      <trkpt lat="47.30141" lon="-2.35788">
        <ele>25</ele>
        <time>2022-04-10T09:25:51.000Z</time>
      </trkpt>
      <trkpt lat="47.30141" lon="-2.3578">
        <ele>25.39999961853</ele>
        <time>2022-04-10T09:25:52.000Z</time>
      </trkpt>
      <trkpt lat="47.30141" lon="-2.35773">
        <ele>25.799999237061</ele>
        <time>2022-04-10T09:25:53.000Z</time>
      </trkpt>
      <trkpt lat="47.30141" lon="-2.35765">
        <ele>26.200000762939</ele>
        <time>2022-04-10T09:25:54.000Z</time>
      </trkpt>
      <trkpt lat="47.3014" lon="-2.35757">
        <ele>26.60000038147</ele>
        <time>2022-04-10T09:25:55.000Z</time>
      </trkpt>
      <trkpt lat="47.30139" lon="-2.3575">
        <ele>27</ele>
        <time>2022-04-10T09:25:56.000Z</time>
      </trkpt>
      <trkpt lat="47.30139" lon="-2.35743">
        <ele>27</ele>
        <time>2022-04-10T09:25:57.000Z</time>
      </trkpt>
      <trkpt lat="47.30138" lon="-2.35736">
        <ele>27.60000038147</ele>
        <time>2022-04-10T09:25:58.000Z</time>
      </trkpt>
      <trkpt lat="47.30138" lon="-2.35729">
        <ele>28</ele>
        <time>2022-04-10T09:25:59.000Z</time>
      </trkpt>
      <trkpt lat="47.30138" lon="-2.35722">
        <ele>28.39999961853</ele>
        <time>2022-04-10T09:26:00.000Z</time>
      </trkpt>
      <trkpt lat="47.30138" lon="-2.35715">
        <ele>28.799999237061</ele>
        <time>2022-04-10T09:26:01.000Z</time>
      </trkpt>
      <trkpt lat="47.30137" lon="-2.35709">
        <ele>29.39999961853</ele>
        <time>2022-04-10T09:26:02.000Z</time>
      </trkpt>
      <trkpt lat="47.30136" lon="-2.35696">
        <ele>29.39999961853</ele>
        <time>2022-04-10T09:26:04.000Z</time>
      </trkpt>
      <trkpt lat="47.30133" lon="-2.35642">
        <ele>29.39999961853</ele>
        <time>2022-04-10T09:26:13.000Z</time>
      </trkpt>
      <trkpt lat="47.30132" lon="-2.35628">
        <ele>29.39999961853</ele>
        <time>2022-04-10T09:26:15.000Z</time>
      </trkpt>
      <trkpt lat="47.30127" lon="-2.35611">
        <ele>29.39999961853</ele>
        <time>2022-04-10T09:26:18.000Z</time>
      </trkpt>
      <trkpt lat="47.30126" lon="-2.35604">
        <ele>29.39999961853</ele>
        <time>2022-04-10T09:26:19.000Z</time>
      </trkpt>
      <trkpt lat="47.30128" lon="-2.35591">
        <ele>29.39999961853</ele>
        <time>2022-04-10T09:26:21.000Z</time>
      </trkpt>
      <trkpt lat="47.30129" lon="-2.35575">
        <ele>29.39999961853</ele>
        <time>2022-04-10T09:26:23.000Z</time>
      </trkpt>
      <trkpt lat="47.30128" lon="-2.35557">
        <ele>29.39999961853</ele>
        <time>2022-04-10T09:26:25.000Z</time>
      </trkpt>
      <trkpt lat="47.30125" lon="-2.3551">
        <ele>28.799999237061</ele>
        <time>2022-04-10T09:26:30.000Z</time>
      </trkpt>
      <trkpt lat="47.30124" lon="-2.355">
        <ele>28.39999961853</ele>
        <time>2022-04-10T09:26:31.000Z</time>
      </trkpt>
      <trkpt lat="47.30123" lon="-2.3549">
        <ele>28</ele>
        <time>2022-04-10T09:26:32.000Z</time>
      </trkpt>
      <trkpt lat="47.30122" lon="-2.3548">
        <ele>27.200000762939</ele>
        <time>2022-04-10T09:26:33.000Z</time>
      </trkpt>
      <trkpt lat="47.30114" lon="-2.35462">
        <ele>27.200000762939</ele>
        <time>2022-04-10T09:26:35.000Z</time>
      </trkpt>
      <trkpt lat="47.30098" lon="-2.35441">
        <ele>26.799999237061</ele>
        <time>2022-04-10T09:26:38.000Z</time>
      </trkpt>
      <trkpt lat="47.30093" lon="-2.35434">
        <ele>26.39999961853</ele>
        <time>2022-04-10T09:26:39.000Z</time>
      </trkpt>
      <trkpt lat="47.30088" lon="-2.35426">
        <ele>25.799999237061</ele>
        <time>2022-04-10T09:26:40.000Z</time>
      </trkpt>
      <trkpt lat="47.30083" lon="-2.35419">
        <ele>25.39999961853</ele>
        <time>2022-04-10T09:26:41.000Z</time>
      </trkpt>
      <trkpt lat="47.30078" lon="-2.35412">
        <ele>25</ele>
        <time>2022-04-10T09:26:42.000Z</time>
      </trkpt>
      <trkpt lat="47.30056" lon="-2.35375">
        <ele>25</ele>
        <time>2022-04-10T09:26:47.000Z</time>
      </trkpt>
      <trkpt lat="47.30053" lon="-2.35368">
        <ele>24.60000038147</ele>
        <time>2022-04-10T09:26:48.000Z</time>
      </trkpt>
      <trkpt lat="47.30049" lon="-2.35359">
        <ele>24</ele>
        <time>2022-04-10T09:26:49.000Z</time>
      </trkpt>
      <trkpt lat="47.30046" lon="-2.35351">
        <ele>23.60000038147</ele>
        <time>2022-04-10T09:26:50.000Z</time>
      </trkpt>
      <trkpt lat="47.30043" lon="-2.35343">
        <ele>23.200000762939</ele>
        <time>2022-04-10T09:26:51.000Z</time>
      </trkpt>
      <trkpt lat="47.3004" lon="-2.35335">
        <ele>22.60000038147</ele>
        <time>2022-04-10T09:26:52.000Z</time>
      </trkpt>
      <trkpt lat="47.30034" lon="-2.35319">
        <ele>22.60000038147</ele>
        <time>2022-04-10T09:26:54.000Z</time>
      </trkpt>
      <trkpt lat="47.30019" lon="-2.35282">
        <ele>22.60000038147</ele>
        <time>2022-04-10T09:27:00.000Z</time>
      </trkpt>
      <trkpt lat="47.30012" lon="-2.35263">
        <ele>22.60000038147</ele>
        <time>2022-04-10T09:27:06.000Z</time>
      </trkpt>
      <trkpt lat="47.30015" lon="-2.35253">
        <ele>22.60000038147</ele>
        <time>2022-04-10T09:27:09.000Z</time>
      </trkpt>
      <trkpt lat="47.30016" lon="-2.35252">
        <ele>22.60000038147</ele>
        <time>2022-04-10T09:27:10.000Z</time>
      </trkpt>
      <trkpt lat="47.30017" lon="-2.35252">
        <ele>22.200000762939</ele>
        <time>2022-04-10T09:27:11.000Z</time>
      </trkpt>
      <trkpt lat="47.30018" lon="-2.35251">
        <ele>21.799999237061</ele>
        <time>2022-04-10T09:27:12.000Z</time>
      </trkpt>
      <trkpt lat="47.3002" lon="-2.35251">
        <ele>21.39999961853</ele>
        <time>2022-04-10T09:27:13.000Z</time>
      </trkpt>
      <trkpt lat="47.30021" lon="-2.3525">
        <ele>21</ele>
        <time>2022-04-10T09:27:14.000Z</time>
      </trkpt>
      <trkpt lat="47.30022" lon="-2.35248">
        <ele>20.60000038147</ele>
        <time>2022-04-10T09:27:15.000Z</time>
      </trkpt>
      <trkpt lat="47.30024" lon="-2.35248">
        <ele>20.60000038147</ele>
        <time>2022-04-10T09:27:16.000Z</time>
      </trkpt>
      <trkpt lat="47.30032" lon="-2.35244">
        <ele>20.60000038147</ele>
        <time>2022-04-10T09:27:22.000Z</time>
      </trkpt>
      <trkpt lat="47.30049" lon="-2.35232">
        <ele>20.60000038147</ele>
        <time>2022-04-10T09:27:27.000Z</time>
      </trkpt>
      <trkpt lat="47.30066" lon="-2.35225">
        <ele>20.60000038147</ele>
        <time>2022-04-10T09:27:31.000Z</time>
      </trkpt>
      <trkpt lat="47.30073" lon="-2.35218">
        <ele>20.60000038147</ele>
        <time>2022-04-10T09:27:33.000Z</time>
      </trkpt>
      <trkpt lat="47.30088" lon="-2.35214">
        <ele>20.60000038147</ele>
        <time>2022-04-10T09:27:36.000Z</time>
      </trkpt>
      <trkpt lat="47.30092" lon="-2.35211">
        <ele>20.60000038147</ele>
        <time>2022-04-10T09:27:37.000Z</time>
      </trkpt>
      <trkpt lat="47.30102" lon="-2.35208">
        <ele>20.60000038147</ele>
        <time>2022-04-10T09:27:39.000Z</time>
      </trkpt>
      <trkpt lat="47.30112" lon="-2.35203">
        <ele>20.60000038147</ele>
        <time>2022-04-10T09:27:41.000Z</time>
      </trkpt>
      <trkpt lat="47.30127" lon="-2.35196">
        <ele>20.60000038147</ele>
        <time>2022-04-10T09:27:44.000Z</time>
      </trkpt>
      <trkpt lat="47.30133" lon="-2.35194">
        <ele>20.60000038147</ele>
        <time>2022-04-10T09:27:46.000Z</time>
      </trkpt>
      <trkpt lat="47.30141" lon="-2.35195">
        <ele>20.60000038147</ele>
        <time>2022-04-10T09:27:50.000Z</time>
      </trkpt>
      <trkpt lat="47.30146" lon="-2.35195">
        <ele>20.60000038147</ele>
        <time>2022-04-10T09:27:55.000Z</time>
      </trkpt>
      <trkpt lat="47.30147" lon="-2.35194">
        <ele>20.60000038147</ele>
        <time>2022-04-10T09:27:56.000Z</time>
      </trkpt>
      <trkpt lat="47.30149" lon="-2.35195">
        <ele>20.60000038147</ele>
        <time>2022-04-10T09:27:59.000Z</time>
      </trkpt>
      <trkpt lat="47.30157" lon="-2.35192">
        <ele>20.60000038147</ele>
        <time>2022-04-10T09:28:11.000Z</time>
      </trkpt>
      <trkpt lat="47.30163" lon="-2.35186">
        <ele>20.60000038147</ele>
        <time>2022-04-10T09:28:17.000Z</time>
      </trkpt>
      <trkpt lat="47.30174" lon="-2.35178">
        <ele>20.60000038147</ele>
        <time>2022-04-10T09:28:22.000Z</time>
      </trkpt>
      <trkpt lat="47.30188" lon="-2.35173">
        <ele>20.60000038147</ele>
        <time>2022-04-10T09:28:26.000Z</time>
      </trkpt>
      <trkpt lat="47.30203" lon="-2.35166">
        <ele>20.60000038147</ele>
        <time>2022-04-10T09:28:30.000Z</time>
      </trkpt>
      <trkpt lat="47.30206" lon="-2.3516">
        <ele>20.60000038147</ele>
        <time>2022-04-10T09:28:31.000Z</time>
      </trkpt>
      <trkpt lat="47.30208" lon="-2.3514">
        <ele>20.60000038147</ele>
        <time>2022-04-10T09:28:34.000Z</time>
      </trkpt>
      <trkpt lat="47.30208" lon="-2.35128">
        <ele>21</ele>
        <time>2022-04-10T09:28:36.000Z</time>
      </trkpt>
      <trkpt lat="47.30208" lon="-2.35122">
        <ele>21.799999237061</ele>
        <time>2022-04-10T09:28:37.000Z</time>
      </trkpt>
      <trkpt lat="47.30208" lon="-2.35116">
        <ele>22.200000762939</ele>
        <time>2022-04-10T09:28:38.000Z</time>
      </trkpt>
      <trkpt lat="47.30209" lon="-2.3511">
        <ele>22.60000038147</ele>
        <time>2022-04-10T09:28:39.000Z</time>
      </trkpt>
      <trkpt lat="47.30209" lon="-2.35104">
        <ele>22.60000038147</ele>
        <time>2022-04-10T09:28:40.000Z</time>
      </trkpt>
      <trkpt lat="47.30211" lon="-2.35062">
        <ele>22.60000038147</ele>
        <time>2022-04-10T09:28:47.000Z</time>
      </trkpt>
      <trkpt lat="47.3021" lon="-2.35031">
        <ele>23</ele>
        <time>2022-04-10T09:28:52.000Z</time>
      </trkpt>
      <trkpt lat="47.30211" lon="-2.35025">
        <ele>23.39999961853</ele>
        <time>2022-04-10T09:28:53.000Z</time>
      </trkpt>
      <trkpt lat="47.30211" lon="-2.35018">
        <ele>23.799999237061</ele>
        <time>2022-04-10T09:28:54.000Z</time>
      </trkpt>
      <trkpt lat="47.30211" lon="-2.35012">
        <ele>24.39999961853</ele>
        <time>2022-04-10T09:28:55.000Z</time>
      </trkpt>
      <trkpt lat="47.3021" lon="-2.35006">
        <ele>24.799999237061</ele>
        <time>2022-04-10T09:28:56.000Z</time>
      </trkpt>
      <trkpt lat="47.3021" lon="-2.3499">
        <ele>24.799999237061</ele>
        <time>2022-04-10T09:28:59.000Z</time>
      </trkpt>
      <trkpt lat="47.30211" lon="-2.3495">
        <ele>24.799999237061</ele>
        <time>2022-04-10T09:29:06.000Z</time>
      </trkpt>
      <trkpt lat="47.30211" lon="-2.34938">
        <ele>25.200000762939</ele>
        <time>2022-04-10T09:29:08.000Z</time>
      </trkpt>
      <trkpt lat="47.30211" lon="-2.34932">
        <ele>25.60000038147</ele>
        <time>2022-04-10T09:29:09.000Z</time>
      </trkpt>
      <trkpt lat="47.30211" lon="-2.34926">
        <ele>26</ele>
        <time>2022-04-10T09:29:10.000Z</time>
      </trkpt>
      <trkpt lat="47.30212" lon="-2.3492">
        <ele>26.39999961853</ele>
        <time>2022-04-10T09:29:11.000Z</time>
      </trkpt>
      <trkpt lat="47.30212" lon="-2.34915">
        <ele>26.799999237061</ele>
        <time>2022-04-10T09:29:12.000Z</time>
      </trkpt>
      <trkpt lat="47.30218" lon="-2.34899">
        <ele>26.799999237061</ele>
        <time>2022-04-10T09:29:16.000Z</time>
      </trkpt>
      <trkpt lat="47.30237" lon="-2.34882">
        <ele>26.799999237061</ele>
        <time>2022-04-10T09:29:21.000Z</time>
      </trkpt>
      <trkpt lat="47.30241" lon="-2.3488">
        <ele>26.799999237061</ele>
        <time>2022-04-10T09:29:22.000Z</time>
      </trkpt>
      <trkpt lat="47.30256" lon="-2.3487">
        <ele>26.799999237061</ele>
        <time>2022-04-10T09:29:26.000Z</time>
      </trkpt>
      <trkpt lat="47.30271" lon="-2.34862">
        <ele>26.799999237061</ele>
        <time>2022-04-10T09:29:29.000Z</time>
      </trkpt>
      <trkpt lat="47.30276" lon="-2.34859">
        <ele>26.799999237061</ele>
        <time>2022-04-10T09:29:30.000Z</time>
      </trkpt>
      <trkpt lat="47.30295" lon="-2.34846">
        <ele>26.799999237061</ele>
        <time>2022-04-10T09:29:34.000Z</time>
      </trkpt>
      <trkpt lat="47.30299" lon="-2.34841">
        <ele>26.799999237061</ele>
        <time>2022-04-10T09:29:35.000Z</time>
      </trkpt>
      <trkpt lat="47.30303" lon="-2.34837">
        <ele>26.799999237061</ele>
        <time>2022-04-10T09:29:36.000Z</time>
      </trkpt>
      <trkpt lat="47.30318" lon="-2.34812">
        <ele>26.799999237061</ele>
        <time>2022-04-10T09:29:40.000Z</time>
      </trkpt>
      <trkpt lat="47.30321" lon="-2.34806">
        <ele>26.799999237061</ele>
        <time>2022-04-10T09:29:41.000Z</time>
      </trkpt>
      <trkpt lat="47.30326" lon="-2.34794">
        <ele>26.799999237061</ele>
        <time>2022-04-10T09:29:43.000Z</time>
      </trkpt>
      <trkpt lat="47.30329" lon="-2.34788">
        <ele>26.799999237061</ele>
        <time>2022-04-10T09:29:44.000Z</time>
      </trkpt>
      <trkpt lat="47.30346" lon="-2.34771">
        <ele>26.799999237061</ele>
        <time>2022-04-10T09:29:48.000Z</time>
      </trkpt>
      <trkpt lat="47.30374" lon="-2.34753">
        <ele>26.799999237061</ele>
        <time>2022-04-10T09:29:53.000Z</time>
      </trkpt>
      <trkpt lat="47.30414" lon="-2.34728">
        <ele>26.799999237061</ele>
        <time>2022-04-10T09:30:00.000Z</time>
      </trkpt>
      <trkpt lat="47.3043" lon="-2.34713">
        <ele>27.200000762939</ele>
        <time>2022-04-10T09:30:03.000Z</time>
      </trkpt>
      <trkpt lat="47.30434" lon="-2.34706">
        <ele>27.60000038147</ele>
        <time>2022-04-10T09:30:04.000Z</time>
      </trkpt>
      <trkpt lat="47.30439" lon="-2.34702">
        <ele>28</ele>
        <time>2022-04-10T09:30:05.000Z</time>
      </trkpt>
      <trkpt lat="47.30445" lon="-2.34697">
        <ele>28.39999961853</ele>
        <time>2022-04-10T09:30:06.000Z</time>
      </trkpt>
      <trkpt lat="47.30451" lon="-2.34692">
        <ele>28.799999237061</ele>
        <time>2022-04-10T09:30:07.000Z</time>
      </trkpt>
      <trkpt lat="47.30468" lon="-2.34676">
        <ele>28.799999237061</ele>
        <time>2022-04-10T09:30:10.000Z</time>
      </trkpt>
      <trkpt lat="47.30478" lon="-2.34666">
        <ele>28.799999237061</ele>
        <time>2022-04-10T09:30:12.000Z</time>
      </trkpt>
      <trkpt lat="47.30493" lon="-2.34647">
        <ele>28.799999237061</ele>
        <time>2022-04-10T09:30:15.000Z</time>
      </trkpt>
      <trkpt lat="47.30499" lon="-2.34633">
        <ele>28.799999237061</ele>
        <time>2022-04-10T09:30:17.000Z</time>
      </trkpt>
      <trkpt lat="47.30509" lon="-2.34615">
        <ele>28.799999237061</ele>
        <time>2022-04-10T09:30:20.000Z</time>
      </trkpt>
      <trkpt lat="47.30514" lon="-2.3461">
        <ele>28.799999237061</ele>
        <time>2022-04-10T09:30:21.000Z</time>
      </trkpt>
      <trkpt lat="47.30522" lon="-2.34599">
        <ele>28.799999237061</ele>
        <time>2022-04-10T09:30:23.000Z</time>
      </trkpt>
      <trkpt lat="47.30542" lon="-2.34573">
        <ele>28.799999237061</ele>
        <time>2022-04-10T09:30:28.000Z</time>
      </trkpt>
      <trkpt lat="47.30545" lon="-2.34567">
        <ele>28.799999237061</ele>
        <time>2022-04-10T09:30:29.000Z</time>
      </trkpt>
      <trkpt lat="47.30559" lon="-2.34543">
        <ele>28.799999237061</ele>
        <time>2022-04-10T09:30:33.000Z</time>
      </trkpt>
      <trkpt lat="47.30582" lon="-2.34501">
        <ele>28.799999237061</ele>
        <time>2022-04-10T09:30:40.000Z</time>
      </trkpt>
      <trkpt lat="47.306" lon="-2.34468">
        <ele>28.799999237061</ele>
        <time>2022-04-10T09:30:46.000Z</time>
      </trkpt>
      <trkpt lat="47.30618" lon="-2.34442">
        <ele>28.799999237061</ele>
        <time>2022-04-10T09:30:51.000Z</time>
      </trkpt>
      <trkpt lat="47.30626" lon="-2.34434">
        <ele>28.799999237061</ele>
        <time>2022-04-10T09:30:53.000Z</time>
      </trkpt>
      <trkpt lat="47.30637" lon="-2.34419">
        <ele>28.799999237061</ele>
        <time>2022-04-10T09:30:56.000Z</time>
      </trkpt>
      <trkpt lat="47.30645" lon="-2.3441">
        <ele>28.799999237061</ele>
        <time>2022-04-10T09:30:58.000Z</time>
      </trkpt>
      <trkpt lat="47.3066" lon="-2.34384">
        <ele>28.799999237061</ele>
        <time>2022-04-10T09:31:03.000Z</time>
      </trkpt>
      <trkpt lat="47.30684" lon="-2.34341">
        <ele>28.799999237061</ele>
        <time>2022-04-10T09:31:09.000Z</time>
      </trkpt>
      <trkpt lat="47.30705" lon="-2.34299">
        <ele>28.799999237061</ele>
        <time>2022-04-10T09:31:15.000Z</time>
      </trkpt>
      <trkpt lat="47.30716" lon="-2.34273">
        <ele>28.799999237061</ele>
        <time>2022-04-10T09:31:18.000Z</time>
      </trkpt>
      <trkpt lat="47.3072" lon="-2.34255">
        <ele>28.799999237061</ele>
        <time>2022-04-10T09:31:20.000Z</time>
      </trkpt>
      <trkpt lat="47.30722" lon="-2.34239">
        <ele>28.799999237061</ele>
        <time>2022-04-10T09:31:22.000Z</time>
      </trkpt>
      <trkpt lat="47.30724" lon="-2.34233">
        <ele>28.799999237061</ele>
        <time>2022-04-10T09:31:23.000Z</time>
      </trkpt>
      <trkpt lat="47.30728" lon="-2.3423">
        <ele>28.799999237061</ele>
        <time>2022-04-10T09:31:24.000Z</time>
      </trkpt>
      <trkpt lat="47.30743" lon="-2.34228">
        <ele>28.799999237061</ele>
        <time>2022-04-10T09:31:27.000Z</time>
      </trkpt>
      <trkpt lat="47.30759" lon="-2.34223">
        <ele>28.799999237061</ele>
        <time>2022-04-10T09:31:30.000Z</time>
      </trkpt>
      <trkpt lat="47.30764" lon="-2.34218">
        <ele>28.799999237061</ele>
        <time>2022-04-10T09:31:31.000Z</time>
      </trkpt>
      <trkpt lat="47.3077" lon="-2.34197">
        <ele>28.799999237061</ele>
        <time>2022-04-10T09:31:34.000Z</time>
      </trkpt>
      <trkpt lat="47.30771" lon="-2.34173">
        <ele>28.799999237061</ele>
        <time>2022-04-10T09:31:37.000Z</time>
      </trkpt>
      <trkpt lat="47.30771" lon="-2.34156">
        <ele>28.799999237061</ele>
        <time>2022-04-10T09:31:39.000Z</time>
      </trkpt>
      <trkpt lat="47.30775" lon="-2.34104">
        <ele>28.799999237061</ele>
        <time>2022-04-10T09:31:45.000Z</time>
      </trkpt>
      <trkpt lat="47.30778" lon="-2.34062">
        <ele>28.799999237061</ele>
        <time>2022-04-10T09:31:50.000Z</time>
      </trkpt>
      <trkpt lat="47.30781" lon="-2.34007">
        <ele>28.799999237061</ele>
        <time>2022-04-10T09:31:56.000Z</time>
      </trkpt>
      <trkpt lat="47.30781" lon="-2.33999">
        <ele>28.799999237061</ele>
        <time>2022-04-10T09:31:57.000Z</time>
      </trkpt>
      <trkpt lat="47.30783" lon="-2.33982">
        <ele>28.799999237061</ele>
        <time>2022-04-10T09:32:01.000Z</time>
      </trkpt>
      <trkpt lat="47.30782" lon="-2.33981">
        <ele>28.799999237061</ele>
        <time>2022-04-10T09:32:04.000Z</time>
      </trkpt>
      <trkpt lat="47.30779" lon="-2.33976">
        <ele>26.799999237061</ele>
        <time>2022-04-10T09:33:49.000Z</time>
      </trkpt>
      <trkpt lat="47.30778" lon="-2.33975">
        <ele>26.799999237061</ele>
        <time>2022-04-10T09:33:50.000Z</time>
      </trkpt>
      <trkpt lat="47.30767" lon="-2.33976">
        <ele>26.799999237061</ele>
        <time>2022-04-10T09:33:54.000Z</time>
      </trkpt>
      <trkpt lat="47.30741" lon="-2.33981">
        <ele>26.799999237061</ele>
        <time>2022-04-10T09:34:02.000Z</time>
      </trkpt>
      <trkpt lat="47.30716" lon="-2.33989">
        <ele>26.799999237061</ele>
        <time>2022-04-10T09:34:09.000Z</time>
      </trkpt>
      <trkpt lat="47.30686" lon="-2.33993">
        <ele>26.799999237061</ele>
        <time>2022-04-10T09:34:16.000Z</time>
      </trkpt>
      <trkpt lat="47.30657" lon="-2.33996">
        <ele>26.799999237061</ele>
        <time>2022-04-10T09:34:22.000Z</time>
      </trkpt>
      <trkpt lat="47.30641" lon="-2.33995">
        <ele>26.799999237061</ele>
        <time>2022-04-10T09:34:25.000Z</time>
      </trkpt>
      <trkpt lat="47.30631" lon="-2.33985">
        <ele>26.799999237061</ele>
        <time>2022-04-10T09:34:27.000Z</time>
      </trkpt>
      <trkpt lat="47.30609" lon="-2.33956">
        <ele>26.799999237061</ele>
        <time>2022-04-10T09:34:32.000Z</time>
      </trkpt>
      <trkpt lat="47.30606" lon="-2.33949">
        <ele>26.799999237061</ele>
        <time>2022-04-10T09:34:33.000Z</time>
      </trkpt>
      <trkpt lat="47.30601" lon="-2.33925">
        <ele>26.799999237061</ele>
        <time>2022-04-10T09:34:36.000Z</time>
      </trkpt>
      <trkpt lat="47.306" lon="-2.33916">
        <ele>26.799999237061</ele>
        <time>2022-04-10T09:34:37.000Z</time>
      </trkpt>
      <trkpt lat="47.30601" lon="-2.33902">
        <ele>26.799999237061</ele>
        <time>2022-04-10T09:34:39.000Z</time>
      </trkpt>
      <trkpt lat="47.306" lon="-2.33891">
        <ele>26.799999237061</ele>
        <time>2022-04-10T09:34:41.000Z</time>
      </trkpt>
      <trkpt lat="47.30597" lon="-2.33858">
        <ele>26.799999237061</ele>
        <time>2022-04-10T09:34:47.000Z</time>
      </trkpt>
      <trkpt lat="47.30591" lon="-2.3384">
        <ele>26.799999237061</ele>
        <time>2022-04-10T09:34:50.000Z</time>
      </trkpt>
      <trkpt lat="47.3059" lon="-2.33834">
        <ele>26.799999237061</ele>
        <time>2022-04-10T09:34:51.000Z</time>
      </trkpt>
      <trkpt lat="47.30585" lon="-2.33814">
        <ele>26.799999237061</ele>
        <time>2022-04-10T09:34:54.000Z</time>
      </trkpt>
      <trkpt lat="47.3058" lon="-2.33797">
        <ele>26.799999237061</ele>
        <time>2022-04-10T09:34:57.000Z</time>
      </trkpt>
      <trkpt lat="47.30573" lon="-2.33753">
        <ele>26.799999237061</ele>
        <time>2022-04-10T09:35:03.000Z</time>
      </trkpt>
      <trkpt lat="47.30564" lon="-2.33704">
        <ele>26.799999237061</ele>
        <time>2022-04-10T09:35:09.000Z</time>
      </trkpt>
      <trkpt lat="47.30556" lon="-2.33663">
        <ele>26.799999237061</ele>
        <time>2022-04-10T09:35:14.000Z</time>
      </trkpt>
      <trkpt lat="47.30552" lon="-2.33658">
        <ele>26.39999961853</ele>
        <time>2022-04-10T09:35:15.000Z</time>
      </trkpt>
      <trkpt lat="47.30548" lon="-2.33654">
        <ele>25.799999237061</ele>
        <time>2022-04-10T09:35:16.000Z</time>
      </trkpt>
      <trkpt lat="47.30543" lon="-2.33653">
        <ele>25.39999961853</ele>
        <time>2022-04-10T09:35:17.000Z</time>
      </trkpt>
      <trkpt lat="47.30538" lon="-2.33655">
        <ele>24.799999237061</ele>
        <time>2022-04-10T09:35:18.000Z</time>
      </trkpt>
      <trkpt lat="47.30533" lon="-2.33656">
        <ele>24.39999961853</ele>
        <time>2022-04-10T09:35:19.000Z</time>
      </trkpt>
      <trkpt lat="47.30509" lon="-2.3366">
        <ele>24.39999961853</ele>
        <time>2022-04-10T09:35:23.000Z</time>
      </trkpt>
      <trkpt lat="47.30472" lon="-2.33672">
        <ele>24.39999961853</ele>
        <time>2022-04-10T09:35:29.000Z</time>
      </trkpt>
      <trkpt lat="47.30452" lon="-2.33682">
        <ele>24.39999961853</ele>
        <time>2022-04-10T09:35:33.000Z</time>
      </trkpt>
      <trkpt lat="47.30443" lon="-2.33688">
        <ele>24.39999961853</ele>
        <time>2022-04-10T09:35:35.000Z</time>
      </trkpt>
      <trkpt lat="47.30437" lon="-2.3369">
        <ele>24.39999961853</ele>
        <time>2022-04-10T09:35:36.000Z</time>
      </trkpt>
      <trkpt lat="47.30422" lon="-2.33695">
        <ele>24.39999961853</ele>
        <time>2022-04-10T09:35:39.000Z</time>
      </trkpt>
      <trkpt lat="47.30417" lon="-2.33699">
        <ele>24.39999961853</ele>
        <time>2022-04-10T09:35:40.000Z</time>
      </trkpt>
      <trkpt lat="47.30408" lon="-2.33716">
        <ele>24.39999961853</ele>
        <time>2022-04-10T09:35:43.000Z</time>
      </trkpt>
      <trkpt lat="47.30405" lon="-2.33721">
        <ele>24.39999961853</ele>
        <time>2022-04-10T09:35:44.000Z</time>
      </trkpt>
      <trkpt lat="47.30376" lon="-2.33762">
        <ele>24.39999961853</ele>
        <time>2022-04-10T09:35:52.000Z</time>
      </trkpt>
      <trkpt lat="47.30354" lon="-2.33789">
        <ele>24.39999961853</ele>
        <time>2022-04-10T09:35:58.000Z</time>
      </trkpt>
      <trkpt lat="47.30332" lon="-2.33815">
        <ele>24.39999961853</ele>
        <time>2022-04-10T09:36:04.000Z</time>
      </trkpt>
      <trkpt lat="47.30318" lon="-2.33827">
        <ele>24.39999961853</ele>
        <time>2022-04-10T09:36:07.000Z</time>
      </trkpt>
      <trkpt lat="47.30313" lon="-2.33829">
        <ele>24.799999237061</ele>
        <time>2022-04-10T09:36:08.000Z</time>
      </trkpt>
      <trkpt lat="47.30308" lon="-2.3383">
        <ele>25.200000762939</ele>
        <time>2022-04-10T09:36:09.000Z</time>
      </trkpt>
      <trkpt lat="47.30303" lon="-2.33834">
        <ele>25.60000038147</ele>
        <time>2022-04-10T09:36:10.000Z</time>
      </trkpt>
      <trkpt lat="47.30298" lon="-2.33837">
        <ele>26</ele>
        <time>2022-04-10T09:36:11.000Z</time>
      </trkpt>
      <trkpt lat="47.30293" lon="-2.33842">
        <ele>26.39999961853</ele>
        <time>2022-04-10T09:36:12.000Z</time>
      </trkpt>
      <trkpt lat="47.30284" lon="-2.33847">
        <ele>26.39999961853</ele>
        <time>2022-04-10T09:36:14.000Z</time>
      </trkpt>
      <trkpt lat="47.30275" lon="-2.33855">
        <ele>26.39999961853</ele>
        <time>2022-04-10T09:36:16.000Z</time>
      </trkpt>
      <trkpt lat="47.30256" lon="-2.33871">
        <ele>26.39999961853</ele>
        <time>2022-04-10T09:36:20.000Z</time>
      </trkpt>
      <trkpt lat="47.3022" lon="-2.33896">
        <ele>26</ele>
        <time>2022-04-10T09:36:27.000Z</time>
      </trkpt>
      <trkpt lat="47.30215" lon="-2.33901">
        <ele>25.60000038147</ele>
        <time>2022-04-10T09:36:28.000Z</time>
      </trkpt>
      <trkpt lat="47.3021" lon="-2.33905">
        <ele>25.200000762939</ele>
        <time>2022-04-10T09:36:29.000Z</time>
      </trkpt>
      <trkpt lat="47.30205" lon="-2.33909">
        <ele>24.799999237061</ele>
        <time>2022-04-10T09:36:30.000Z</time>
      </trkpt>
      <trkpt lat="47.30201" lon="-2.33915">
        <ele>24.200000762939</ele>
        <time>2022-04-10T09:36:31.000Z</time>
      </trkpt>
      <trkpt lat="47.30191" lon="-2.33925">
        <ele>24.200000762939</ele>
        <time>2022-04-10T09:36:33.000Z</time>
      </trkpt>
      <trkpt lat="47.30156" lon="-2.33959">
        <ele>24.200000762939</ele>
        <time>2022-04-10T09:36:40.000Z</time>
      </trkpt>
      <trkpt lat="47.3013" lon="-2.33981">
        <ele>23.799999237061</ele>
        <time>2022-04-10T09:36:45.000Z</time>
      </trkpt>
      <trkpt lat="47.30124" lon="-2.33989">
        <ele>23.39999961853</ele>
        <time>2022-04-10T09:36:46.000Z</time>
      </trkpt>
      <trkpt lat="47.30119" lon="-2.33996">
        <ele>23</ele>
        <time>2022-04-10T09:36:47.000Z</time>
      </trkpt>
      <trkpt lat="47.30114" lon="-2.34003">
        <ele>22.60000038147</ele>
        <time>2022-04-10T09:36:48.000Z</time>
      </trkpt>
      <trkpt lat="47.30108" lon="-2.34011">
        <ele>22</ele>
        <time>2022-04-10T09:36:49.000Z</time>
      </trkpt>
      <trkpt lat="47.3008" lon="-2.34046">
        <ele>22</ele>
        <time>2022-04-10T09:36:54.000Z</time>
      </trkpt>
      <trkpt lat="47.30038" lon="-2.34098">
        <ele>22</ele>
        <time>2022-04-10T09:37:02.000Z</time>
      </trkpt>
      <trkpt lat="47.30009" lon="-2.3414">
        <ele>22</ele>
        <time>2022-04-10T09:37:08.000Z</time>
      </trkpt>
      <trkpt lat="47.29978" lon="-2.3418">
        <ele>22</ele>
        <time>2022-04-10T09:37:14.000Z</time>
      </trkpt>
      <trkpt lat="47.29936" lon="-2.34235">
        <ele>22</ele>
        <time>2022-04-10T09:37:23.000Z</time>
      </trkpt>
      <trkpt lat="47.2992" lon="-2.34258">
        <ele>22</ele>
        <time>2022-04-10T09:37:27.000Z</time>
      </trkpt>
      <trkpt lat="47.29917" lon="-2.34265">
        <ele>22</ele>
        <time>2022-04-10T09:37:28.000Z</time>
      </trkpt>
      <trkpt lat="47.29918" lon="-2.34288">
        <ele>22</ele>
        <time>2022-04-10T09:37:31.000Z</time>
      </trkpt>
      <trkpt lat="47.29919" lon="-2.34296">
        <ele>22</ele>
        <time>2022-04-10T09:37:32.000Z</time>
      </trkpt>
      <trkpt lat="47.29929" lon="-2.34359">
        <ele>22</ele>
        <time>2022-04-10T09:37:39.000Z</time>
      </trkpt>
      <trkpt lat="47.29937" lon="-2.34435">
        <ele>22</ele>
        <time>2022-04-10T09:37:47.000Z</time>
      </trkpt>
      <trkpt lat="47.29947" lon="-2.34513">
        <ele>22</ele>
        <time>2022-04-10T09:37:55.000Z</time>
      </trkpt>
      <trkpt lat="47.2995" lon="-2.34534">
        <ele>22</ele>
        <time>2022-04-10T09:37:57.000Z</time>
      </trkpt>
      <trkpt lat="47.2996" lon="-2.34616">
        <ele>22</ele>
        <time>2022-04-10T09:38:05.000Z</time>
      </trkpt>
      <trkpt lat="47.29962" lon="-2.34628">
        <ele>22</ele>
        <time>2022-04-10T09:38:06.000Z</time>
      </trkpt>
      <trkpt lat="47.2997" lon="-2.34709">
        <ele>22</ele>
        <time>2022-04-10T09:38:14.000Z</time>
      </trkpt>
      <trkpt lat="47.29977" lon="-2.34761">
        <ele>22</ele>
        <time>2022-04-10T09:38:20.000Z</time>
      </trkpt>
      <trkpt lat="47.29981" lon="-2.34809">
        <ele>22</ele>
        <time>2022-04-10T09:38:26.000Z</time>
      </trkpt>
      <trkpt lat="47.29974" lon="-2.3482">
        <ele>22</ele>
        <time>2022-04-10T09:38:28.000Z</time>
      </trkpt>
      <trkpt lat="47.29957" lon="-2.34826">
        <ele>22</ele>
        <time>2022-04-10T09:38:31.000Z</time>
      </trkpt>
      <trkpt lat="47.29951" lon="-2.34826">
        <ele>22</ele>
        <time>2022-04-10T09:38:32.000Z</time>
      </trkpt>
      <trkpt lat="47.29938" lon="-2.34828">
        <ele>22.60000038147</ele>
        <time>2022-04-10T09:38:34.000Z</time>
      </trkpt>
      <trkpt lat="47.29931" lon="-2.34829">
        <ele>23</ele>
        <time>2022-04-10T09:38:35.000Z</time>
      </trkpt>
      <trkpt lat="47.29925" lon="-2.3483">
        <ele>23.39999961853</ele>
        <time>2022-04-10T09:38:36.000Z</time>
      </trkpt>
      <trkpt lat="47.29918" lon="-2.34832">
        <ele>23.799999237061</ele>
        <time>2022-04-10T09:38:37.000Z</time>
      </trkpt>
      <trkpt lat="47.29912" lon="-2.34833">
        <ele>24.200000762939</ele>
        <time>2022-04-10T09:38:38.000Z</time>
      </trkpt>
      <trkpt lat="47.29898" lon="-2.34835">
        <ele>24.200000762939</ele>
        <time>2022-04-10T09:38:40.000Z</time>
      </trkpt>
      <trkpt lat="47.29853" lon="-2.34844">
        <ele>24.200000762939</ele>
        <time>2022-04-10T09:38:47.000Z</time>
      </trkpt>
      <trkpt lat="47.29834" lon="-2.3485">
        <ele>23.799999237061</ele>
        <time>2022-04-10T09:38:50.000Z</time>
      </trkpt>
      <trkpt lat="47.29828" lon="-2.34851">
        <ele>23.39999961853</ele>
        <time>2022-04-10T09:38:51.000Z</time>
      </trkpt>
      <trkpt lat="47.29821" lon="-2.34853">
        <ele>23</ele>
        <time>2022-04-10T09:38:52.000Z</time>
      </trkpt>
      <trkpt lat="47.29815" lon="-2.34855">
        <ele>22</ele>
        <time>2022-04-10T09:38:53.000Z</time>
      </trkpt>
      <trkpt lat="47.29789" lon="-2.34863">
        <ele>21.60000038147</ele>
        <time>2022-04-10T09:38:57.000Z</time>
      </trkpt>
      <trkpt lat="47.29782" lon="-2.34865">
        <ele>21.200000762939</ele>
        <time>2022-04-10T09:38:58.000Z</time>
      </trkpt>
      <trkpt lat="47.29776" lon="-2.34867">
        <ele>20.799999237061</ele>
        <time>2022-04-10T09:38:59.000Z</time>
      </trkpt>
      <trkpt lat="47.2977" lon="-2.34869">
        <ele>20.39999961853</ele>
        <time>2022-04-10T09:39:00.000Z</time>
      </trkpt>
      <trkpt lat="47.29764" lon="-2.34871">
        <ele>20</ele>
        <time>2022-04-10T09:39:01.000Z</time>
      </trkpt>
      <trkpt lat="47.29747" lon="-2.34876">
        <ele>20</ele>
        <time>2022-04-10T09:39:04.000Z</time>
      </trkpt>
      <trkpt lat="47.29715" lon="-2.34893">
        <ele>20</ele>
        <time>2022-04-10T09:39:09.000Z</time>
      </trkpt>
      <trkpt lat="47.29695" lon="-2.34902">
        <ele>20</ele>
        <time>2022-04-10T09:39:12.000Z</time>
      </trkpt>
      <trkpt lat="47.29688" lon="-2.34901">
        <ele>20</ele>
        <time>2022-04-10T09:39:13.000Z</time>
      </trkpt>
      <trkpt lat="47.29668" lon="-2.34889">
        <ele>20</ele>
        <time>2022-04-10T09:39:17.000Z</time>
      </trkpt>
      <trkpt lat="47.29659" lon="-2.34879">
        <ele>20</ele>
        <time>2022-04-10T09:39:19.000Z</time>
      </trkpt>
      <trkpt lat="47.29644" lon="-2.34859">
        <ele>20</ele>
        <time>2022-04-10T09:39:22.000Z</time>
      </trkpt>
      <trkpt lat="47.29625" lon="-2.3485">
        <ele>20</ele>
        <time>2022-04-10T09:39:25.000Z</time>
      </trkpt>
      <trkpt lat="47.29619" lon="-2.34851">
        <ele>20</ele>
        <time>2022-04-10T09:39:26.000Z</time>
      </trkpt>
      <trkpt lat="47.29614" lon="-2.34853">
        <ele>20</ele>
        <time>2022-04-10T09:39:27.000Z</time>
      </trkpt>
      <trkpt lat="47.29604" lon="-2.34862">
        <ele>20</ele>
        <time>2022-04-10T09:39:29.000Z</time>
      </trkpt>
      <trkpt lat="47.29574" lon="-2.34905">
        <ele>20</ele>
        <time>2022-04-10T09:39:36.000Z</time>
      </trkpt>
      <trkpt lat="47.29548" lon="-2.34937">
        <ele>20</ele>
        <time>2022-04-10T09:39:41.000Z</time>
      </trkpt>
      <trkpt lat="47.29543" lon="-2.34945">
        <ele>20</ele>
        <time>2022-04-10T09:39:42.000Z</time>
      </trkpt>
      <trkpt lat="47.29529" lon="-2.34967">
        <ele>20</ele>
        <time>2022-04-10T09:39:45.000Z</time>
      </trkpt>
      <trkpt lat="47.29507" lon="-2.35012">
        <ele>20</ele>
        <time>2022-04-10T09:39:50.000Z</time>
      </trkpt>
      <trkpt lat="47.29492" lon="-2.35048">
        <ele>20</ele>
        <time>2022-04-10T09:39:55.000Z</time>
      </trkpt>
      <trkpt lat="47.29487" lon="-2.35062">
        <ele>20</ele>
        <time>2022-04-10T09:39:57.000Z</time>
      </trkpt>
      <trkpt lat="47.29485" lon="-2.3507">
        <ele>20.39999961853</ele>
        <time>2022-04-10T09:39:58.000Z</time>
      </trkpt>
      <trkpt lat="47.29482" lon="-2.35077">
        <ele>20.799999237061</ele>
        <time>2022-04-10T09:39:59.000Z</time>
      </trkpt>
      <trkpt lat="47.29479" lon="-2.35084">
        <ele>21.200000762939</ele>
        <time>2022-04-10T09:40:00.000Z</time>
      </trkpt>
      <trkpt lat="47.29477" lon="-2.35091">
        <ele>21.60000038147</ele>
        <time>2022-04-10T09:40:01.000Z</time>
      </trkpt>
      <trkpt lat="47.29474" lon="-2.35098">
        <ele>22</ele>
        <time>2022-04-10T09:40:02.000Z</time>
      </trkpt>
      <trkpt lat="47.29462" lon="-2.35134">
        <ele>22</ele>
        <time>2022-04-10T09:40:07.000Z</time>
      </trkpt>
      <trkpt lat="47.29449" lon="-2.3517">
        <ele>22</ele>
        <time>2022-04-10T09:40:12.000Z</time>
      </trkpt>
      <trkpt lat="47.2944" lon="-2.35191">
        <ele>22</ele>
        <time>2022-04-10T09:40:15.000Z</time>
      </trkpt>
      <trkpt lat="47.2943" lon="-2.3521">
        <ele>22</ele>
        <time>2022-04-10T09:40:18.000Z</time>
      </trkpt>
      <trkpt lat="47.29417" lon="-2.35235">
        <ele>22</ele>
        <time>2022-04-10T09:40:23.000Z</time>
      </trkpt>
      <trkpt lat="47.2941" lon="-2.35245">
        <ele>22</ele>
        <time>2022-04-10T09:40:28.000Z</time>
      </trkpt>
      <trkpt lat="47.29401" lon="-2.3526">
        <ele>22</ele>
        <time>2022-04-10T09:40:35.000Z</time>
      </trkpt>
      <trkpt lat="47.29388" lon="-2.35277">
        <ele>22.60000038147</ele>
        <time>2022-04-10T09:40:40.000Z</time>
      </trkpt>
      <trkpt lat="47.29385" lon="-2.35281">
        <ele>23</ele>
        <time>2022-04-10T09:40:41.000Z</time>
      </trkpt>
      <trkpt lat="47.29383" lon="-2.35286">
        <ele>23.39999961853</ele>
        <time>2022-04-10T09:40:42.000Z</time>
      </trkpt>
      <trkpt lat="47.2938" lon="-2.35291">
        <ele>23.799999237061</ele>
        <time>2022-04-10T09:40:43.000Z</time>
      </trkpt>
      <trkpt lat="47.29376" lon="-2.35295">
        <ele>24.200000762939</ele>
        <time>2022-04-10T09:40:44.000Z</time>
      </trkpt>
      <trkpt lat="47.29362" lon="-2.35313">
        <ele>24.200000762939</ele>
        <time>2022-04-10T09:40:48.000Z</time>
      </trkpt>
      <trkpt lat="47.29331" lon="-2.3535">
        <ele>24.200000762939</ele>
        <time>2022-04-10T09:40:56.000Z</time>
      </trkpt>
      <trkpt lat="47.29305" lon="-2.35377">
        <ele>24.200000762939</ele>
        <time>2022-04-10T09:41:02.000Z</time>
      </trkpt>
      <trkpt lat="47.29291" lon="-2.35391">
        <ele>24.60000038147</ele>
        <time>2022-04-10T09:41:05.000Z</time>
      </trkpt>
      <trkpt lat="47.29287" lon="-2.35395">
        <ele>25</ele>
        <time>2022-04-10T09:41:06.000Z</time>
      </trkpt>
      <trkpt lat="47.29283" lon="-2.35398">
        <ele>25.39999961853</ele>
        <time>2022-04-10T09:41:07.000Z</time>
      </trkpt>
      <trkpt lat="47.29279" lon="-2.35401">
        <ele>26</ele>
        <time>2022-04-10T09:41:08.000Z</time>
      </trkpt>
      <trkpt lat="47.29274" lon="-2.35404">
        <ele>26.39999961853</ele>
        <time>2022-04-10T09:41:09.000Z</time>
      </trkpt>
      <trkpt lat="47.29245" lon="-2.3542">
        <ele>26.39999961853</ele>
        <time>2022-04-10T09:41:15.000Z</time>
      </trkpt>
      <trkpt lat="47.29212" lon="-2.35435">
        <ele>26.39999961853</ele>
        <time>2022-04-10T09:41:22.000Z</time>
      </trkpt>
      <trkpt lat="47.29167" lon="-2.35451">
        <ele>26.39999961853</ele>
        <time>2022-04-10T09:41:31.000Z</time>
      </trkpt>
      <trkpt lat="47.29141" lon="-2.35462">
        <ele>26.39999961853</ele>
        <time>2022-04-10T09:41:37.000Z</time>
      </trkpt>
      <trkpt lat="47.29138" lon="-2.35463">
        <ele>26.799999237061</ele>
        <time>2022-04-10T09:41:38.000Z</time>
      </trkpt>
      <trkpt lat="47.29134" lon="-2.35465">
        <ele>27.200000762939</ele>
        <time>2022-04-10T09:41:39.000Z</time>
      </trkpt>
      <trkpt lat="47.29131" lon="-2.35467">
        <ele>27.60000038147</ele>
        <time>2022-04-10T09:41:40.000Z</time>
      </trkpt>
      <trkpt lat="47.29128" lon="-2.35468">
        <ele>28</ele>
        <time>2022-04-10T09:41:41.000Z</time>
      </trkpt>
      <trkpt lat="47.29125" lon="-2.35469">
        <ele>28.39999961853</ele>
        <time>2022-04-10T09:41:42.000Z</time>
      </trkpt>
      <trkpt lat="47.29122" lon="-2.35472">
        <ele>28.39999961853</ele>
        <time>2022-04-10T09:41:43.000Z</time>
      </trkpt>
      <trkpt lat="47.29121" lon="-2.35474">
        <ele>28.39999961853</ele>
        <time>2022-04-10T09:41:44.000Z</time>
      </trkpt>
      <trkpt lat="47.2912" lon="-2.35476">
        <ele>27.39999961853</ele>
        <time>2022-04-10T09:41:46.000Z</time>
      </trkpt>
      <trkpt lat="47.29119" lon="-2.35477">
        <ele>25.799999237061</ele>
        <time>2022-04-10T09:42:03.000Z</time>
      </trkpt>
      <trkpt lat="47.29119" lon="-2.35479">
        <ele>25.799999237061</ele>
        <time>2022-04-10T09:42:04.000Z</time>
      </trkpt>
      <trkpt lat="47.29122" lon="-2.35497">
        <ele>25.799999237061</ele>
        <time>2022-04-10T09:42:08.000Z</time>
      </trkpt>
      <trkpt lat="47.29117" lon="-2.35519">
        <ele>25.799999237061</ele>
        <time>2022-04-10T09:42:13.000Z</time>
      </trkpt>
      <trkpt lat="47.29112" lon="-2.35539">
        <ele>25.799999237061</ele>
        <time>2022-04-10T09:42:17.000Z</time>
      </trkpt>
      <trkpt lat="47.29111" lon="-2.35576">
        <ele>25.799999237061</ele>
        <time>2022-04-10T09:42:23.000Z</time>
      </trkpt>
      <trkpt lat="47.29108" lon="-2.35619">
        <ele>25.799999237061</ele>
        <time>2022-04-10T09:42:29.000Z</time>
      </trkpt>
      <trkpt lat="47.29106" lon="-2.35625">
        <ele>25.799999237061</ele>
        <time>2022-04-10T09:42:30.000Z</time>
      </trkpt>
      <trkpt lat="47.29094" lon="-2.35638">
        <ele>25.799999237061</ele>
        <time>2022-04-10T09:42:33.000Z</time>
      </trkpt>
      <trkpt lat="47.29086" lon="-2.35643">
        <ele>25.799999237061</ele>
        <time>2022-04-10T09:42:35.000Z</time>
      </trkpt>
      <trkpt lat="47.29082" lon="-2.35646">
        <ele>25.799999237061</ele>
        <time>2022-04-10T09:42:36.000Z</time>
      </trkpt>
      <trkpt lat="47.29074" lon="-2.35656">
        <ele>25.799999237061</ele>
        <time>2022-04-10T09:42:38.000Z</time>
      </trkpt>
      <trkpt lat="47.29069" lon="-2.3566">
        <ele>25.799999237061</ele>
        <time>2022-04-10T09:42:39.000Z</time>
      </trkpt>
      <trkpt lat="47.2905" lon="-2.3568">
        <ele>25.799999237061</ele>
        <time>2022-04-10T09:42:43.000Z</time>
      </trkpt>
      <trkpt lat="47.29023" lon="-2.35703">
        <ele>25.799999237061</ele>
        <time>2022-04-10T09:42:49.000Z</time>
      </trkpt>
      <trkpt lat="47.29016" lon="-2.35716">
        <ele>25.799999237061</ele>
        <time>2022-04-10T09:42:52.000Z</time>
      </trkpt>
      <trkpt lat="47.29017" lon="-2.3573">
        <ele>25.799999237061</ele>
        <time>2022-04-10T09:42:55.000Z</time>
      </trkpt>
      <trkpt lat="47.29004" lon="-2.35739">
        <ele>25.799999237061</ele>
        <time>2022-04-10T09:42:58.000Z</time>
      </trkpt>
      <trkpt lat="47.28974" lon="-2.35757">
        <ele>25.799999237061</ele>
        <time>2022-04-10T09:43:04.000Z</time>
      </trkpt>
      <trkpt lat="47.28938" lon="-2.35778">
        <ele>26.39999961853</ele>
        <time>2022-04-10T09:43:11.000Z</time>
      </trkpt>
      <trkpt lat="47.28934" lon="-2.35781">
        <ele>26.799999237061</ele>
        <time>2022-04-10T09:43:12.000Z</time>
      </trkpt>
      <trkpt lat="47.28929" lon="-2.35785">
        <ele>27.200000762939</ele>
        <time>2022-04-10T09:43:13.000Z</time>
      </trkpt>
      <trkpt lat="47.28924" lon="-2.35788">
        <ele>27.60000038147</ele>
        <time>2022-04-10T09:43:14.000Z</time>
      </trkpt>
      <trkpt lat="47.28919" lon="-2.35792">
        <ele>28.200000762939</ele>
        <time>2022-04-10T09:43:15.000Z</time>
      </trkpt>
      <trkpt lat="47.28905" lon="-2.35804">
        <ele>28.200000762939</ele>
        <time>2022-04-10T09:43:18.000Z</time>
      </trkpt>
      <trkpt lat="47.289" lon="-2.35809">
        <ele>28.200000762939</ele>
        <time>2022-04-10T09:43:19.000Z</time>
      </trkpt>
      <trkpt lat="47.28875" lon="-2.35842">
        <ele>28.200000762939</ele>
        <time>2022-04-10T09:43:25.000Z</time>
      </trkpt>
      <trkpt lat="47.28845" lon="-2.35883">
        <ele>28.200000762939</ele>
        <time>2022-04-10T09:43:32.000Z</time>
      </trkpt>
      <trkpt lat="47.28812" lon="-2.35919">
        <ele>28.200000762939</ele>
        <time>2022-04-10T09:43:39.000Z</time>
      </trkpt>
      <trkpt lat="47.28775" lon="-2.35951">
        <ele>28.200000762939</ele>
        <time>2022-04-10T09:43:46.000Z</time>
      </trkpt>
      <trkpt lat="47.28745" lon="-2.35963">
        <ele>28.200000762939</ele>
        <time>2022-04-10T09:43:51.000Z</time>
      </trkpt>
      <trkpt lat="47.28739" lon="-2.35963">
        <ele>28.200000762939</ele>
        <time>2022-04-10T09:43:52.000Z</time>
      </trkpt>
      <trkpt lat="47.28692" lon="-2.35962">
        <ele>28.200000762939</ele>
        <time>2022-04-10T09:44:00.000Z</time>
      </trkpt>
      <trkpt lat="47.28667" lon="-2.35962">
        <ele>28.200000762939</ele>
        <time>2022-04-10T09:44:06.000Z</time>
      </trkpt>
      <trkpt lat="47.28637" lon="-2.35961">
        <ele>28.200000762939</ele>
        <time>2022-04-10T09:44:12.000Z</time>
      </trkpt>
      <trkpt lat="47.28632" lon="-2.3596">
        <ele>28.200000762939</ele>
        <time>2022-04-10T09:44:13.000Z</time>
      </trkpt>
      <trkpt lat="47.28627" lon="-2.35959">
        <ele>27.799999237061</ele>
        <time>2022-04-10T09:44:14.000Z</time>
      </trkpt>
      <trkpt lat="47.28622" lon="-2.35957">
        <ele>27.200000762939</ele>
        <time>2022-04-10T09:44:15.000Z</time>
      </trkpt>
      <trkpt lat="47.28618" lon="-2.35955">
        <ele>26.799999237061</ele>
        <time>2022-04-10T09:44:16.000Z</time>
      </trkpt>
      <trkpt lat="47.28613" lon="-2.35952">
        <ele>26.39999961853</ele>
        <time>2022-04-10T09:44:17.000Z</time>
      </trkpt>
      <trkpt lat="47.2861" lon="-2.35949">
        <ele>26</ele>
        <time>2022-04-10T09:44:18.000Z</time>
      </trkpt>
      <trkpt lat="47.28599" lon="-2.35941">
        <ele>26</ele>
        <time>2022-04-10T09:44:21.000Z</time>
      </trkpt>
      <trkpt lat="47.28597" lon="-2.35949">
        <ele>26</ele>
        <time>2022-04-10T09:44:24.000Z</time>
      </trkpt>
      <trkpt lat="47.28601" lon="-2.35958">
        <ele>26</ele>
        <time>2022-04-10T09:44:27.000Z</time>
      </trkpt>
      <trkpt lat="47.28604" lon="-2.35963">
        <ele>26</ele>
        <time>2022-04-10T09:44:28.000Z</time>
      </trkpt>
      <trkpt lat="47.28607" lon="-2.35969">
        <ele>26</ele>
        <time>2022-04-10T09:44:29.000Z</time>
      </trkpt>
      <trkpt lat="47.28617" lon="-2.35993">
        <ele>26</ele>
        <time>2022-04-10T09:44:33.000Z</time>
      </trkpt>
      <trkpt lat="47.28632" lon="-2.3603">
        <ele>26</ele>
        <time>2022-04-10T09:44:39.000Z</time>
      </trkpt>
      <trkpt lat="47.28635" lon="-2.36036">
        <ele>26</ele>
        <time>2022-04-10T09:44:40.000Z</time>
      </trkpt>
      <trkpt lat="47.28647" lon="-2.36072">
        <ele>26</ele>
        <time>2022-04-10T09:44:46.000Z</time>
      </trkpt>
      <trkpt lat="47.28648" lon="-2.36078">
        <ele>26.39999961853</ele>
        <time>2022-04-10T09:44:47.000Z</time>
      </trkpt>
      <trkpt lat="47.28649" lon="-2.36082">
        <ele>26.799999237061</ele>
        <time>2022-04-10T09:44:48.000Z</time>
      </trkpt>
      <trkpt lat="47.2865" lon="-2.36085">
        <ele>27.200000762939</ele>
        <time>2022-04-10T09:44:49.000Z</time>
      </trkpt>
      <trkpt lat="47.2865" lon="-2.36087">
        <ele>27.60000038147</ele>
        <time>2022-04-10T09:44:50.000Z</time>
      </trkpt>
      <trkpt lat="47.28651" lon="-2.3609">
        <ele>28.200000762939</ele>
        <time>2022-04-10T09:44:51.000Z</time>
      </trkpt>
      <trkpt lat="47.2865" lon="-2.36092">
        <ele>28.60000038147</ele>
        <time>2022-04-10T09:44:52.000Z</time>
      </trkpt>
      <trkpt lat="47.2865" lon="-2.36093">
        <ele>29</ele>
        <time>2022-04-10T09:44:53.000Z</time>
      </trkpt>
      <trkpt lat="47.2865" lon="-2.36095">
        <ele>29.39999961853</ele>
        <time>2022-04-10T09:44:54.000Z</time>
      </trkpt>
      <trkpt lat="47.2865" lon="-2.36097">
        <ele>29.799999237061</ele>
        <time>2022-04-10T09:44:55.000Z</time>
      </trkpt>
      <trkpt lat="47.28649" lon="-2.36099">
        <ele>30.200000762939</ele>
        <time>2022-04-10T09:44:56.000Z</time>
      </trkpt>
      <trkpt lat="47.28649" lon="-2.361">
        <ele>30.799999237061</ele>
        <time>2022-04-10T09:44:57.000Z</time>
      </trkpt>
      <trkpt lat="47.28648" lon="-2.36102">
        <ele>31.200000762939</ele>
        <time>2022-04-10T09:44:58.000Z</time>
      </trkpt>
      <trkpt lat="47.28648" lon="-2.36104">
        <ele>31.799999237061</ele>
        <time>2022-04-10T09:44:59.000Z</time>
      </trkpt>
      <trkpt lat="47.28647" lon="-2.36106">
        <ele>32.200000762939</ele>
        <time>2022-04-10T09:45:00.000Z</time>
      </trkpt>
      <trkpt lat="47.28646" lon="-2.3611">
        <ele>32.599998474121</ele>
        <time>2022-04-10T09:45:02.000Z</time>
      </trkpt>
      <trkpt lat="47.28645" lon="-2.36112">
        <ele>33</ele>
        <time>2022-04-10T09:45:03.000Z</time>
      </trkpt>
      <trkpt lat="47.28643" lon="-2.36114">
        <ele>34</ele>
        <time>2022-04-10T09:45:04.000Z</time>
      </trkpt>
      <trkpt lat="47.28642" lon="-2.36116">
        <ele>34.400001525879</ele>
        <time>2022-04-10T09:45:05.000Z</time>
      </trkpt>
      <trkpt lat="47.28635" lon="-2.36123">
        <ele>34.799999237061</ele>
        <time>2022-04-10T09:45:10.000Z</time>
      </trkpt>
      <trkpt lat="47.28634" lon="-2.36124">
        <ele>35.200000762939</ele>
        <time>2022-04-10T09:45:11.000Z</time>
      </trkpt>
      <trkpt lat="47.28632" lon="-2.36126">
        <ele>35.599998474121</ele>
        <time>2022-04-10T09:45:12.000Z</time>
      </trkpt>
      <trkpt lat="47.2863" lon="-2.36128">
        <ele>36.200000762939</ele>
        <time>2022-04-10T09:45:13.000Z</time>
      </trkpt>
      <trkpt lat="47.28628" lon="-2.36129">
        <ele>36.599998474121</ele>
        <time>2022-04-10T09:45:14.000Z</time>
      </trkpt>
      <trkpt lat="47.28622" lon="-2.36136">
        <ele>36.599998474121</ele>
        <time>2022-04-10T09:45:18.000Z</time>
      </trkpt>
      <trkpt lat="47.28617" lon="-2.36142">
        <ele>36.599998474121</ele>
        <time>2022-04-10T09:45:24.000Z</time>
      </trkpt>
      <trkpt lat="47.2861" lon="-2.36149">
        <ele>36.599998474121</ele>
        <time>2022-04-10T09:45:29.000Z</time>
      </trkpt>
      <trkpt lat="47.28609" lon="-2.36151">
        <ele>36.599998474121</ele>
        <time>2022-04-10T09:45:30.000Z</time>
      </trkpt>
      <trkpt lat="47.28603" lon="-2.36152">
        <ele>36.599998474121</ele>
        <time>2022-04-10T09:45:35.000Z</time>
      </trkpt>
      <trkpt lat="47.28592" lon="-2.36148">
        <ele>36.599998474121</ele>
        <time>2022-04-10T09:45:42.000Z</time>
      </trkpt>
      <trkpt lat="47.2858" lon="-2.36143">
        <ele>36.599998474121</ele>
        <time>2022-04-10T09:45:49.000Z</time>
      </trkpt>
      <trkpt lat="47.28569" lon="-2.36147">
        <ele>36.599998474121</ele>
        <time>2022-04-10T09:46:06.000Z</time>
      </trkpt>
      <trkpt lat="47.2856" lon="-2.36151">
        <ele>36</ele>
        <time>2022-04-10T09:46:09.000Z</time>
      </trkpt>
      <trkpt lat="47.28557" lon="-2.36151">
        <ele>35.599998474121</ele>
        <time>2022-04-10T09:46:10.000Z</time>
      </trkpt>
      <trkpt lat="47.28553" lon="-2.36151">
        <ele>35.200000762939</ele>
        <time>2022-04-10T09:46:11.000Z</time>
      </trkpt>
      <trkpt lat="47.2855" lon="-2.36148">
        <ele>34.599998474121</ele>
        <time>2022-04-10T09:46:12.000Z</time>
      </trkpt>
      <trkpt lat="47.28547" lon="-2.36145">
        <ele>34.200000762939</ele>
        <time>2022-04-10T09:46:13.000Z</time>
      </trkpt>
      <trkpt lat="47.2854" lon="-2.36125">
        <ele>34.200000762939</ele>
        <time>2022-04-10T09:46:16.000Z</time>
      </trkpt>
      <trkpt lat="47.28538" lon="-2.36118">
        <ele>34.200000762939</ele>
        <time>2022-04-10T09:46:17.000Z</time>
      </trkpt>
      <trkpt lat="47.28534" lon="-2.36099">
        <ele>34.200000762939</ele>
        <time>2022-04-10T09:46:20.000Z</time>
      </trkpt>
      <trkpt lat="47.28533" lon="-2.36093">
        <ele>34.200000762939</ele>
        <time>2022-04-10T09:46:21.000Z</time>
      </trkpt>
      <trkpt lat="47.28529" lon="-2.36077">
        <ele>34.200000762939</ele>
        <time>2022-04-10T09:46:24.000Z</time>
      </trkpt>
      <trkpt lat="47.28518" lon="-2.36062">
        <ele>34.200000762939</ele>
        <time>2022-04-10T09:46:27.000Z</time>
      </trkpt>
      <trkpt lat="47.28514" lon="-2.36057">
        <ele>34.200000762939</ele>
        <time>2022-04-10T09:46:28.000Z</time>
      </trkpt>
      <trkpt lat="47.28507" lon="-2.36047">
        <ele>34.200000762939</ele>
        <time>2022-04-10T09:46:30.000Z</time>
      </trkpt>
      <trkpt lat="47.28499" lon="-2.3604">
        <ele>34.200000762939</ele>
        <time>2022-04-10T09:46:32.000Z</time>
      </trkpt>
      <trkpt lat="47.28496" lon="-2.36038">
        <ele>34.200000762939</ele>
        <time>2022-04-10T09:46:33.000Z</time>
      </trkpt>
      <trkpt lat="47.28483" lon="-2.36034">
        <ele>34.200000762939</ele>
        <time>2022-04-10T09:46:36.000Z</time>
      </trkpt>
      <trkpt lat="47.2847" lon="-2.36022">
        <ele>34.200000762939</ele>
        <time>2022-04-10T09:46:39.000Z</time>
      </trkpt>
      <trkpt lat="47.28461" lon="-2.36004">
        <ele>34.200000762939</ele>
        <time>2022-04-10T09:46:42.000Z</time>
      </trkpt>
      <trkpt lat="47.28458" lon="-2.35999">
        <ele>34.200000762939</ele>
        <time>2022-04-10T09:46:43.000Z</time>
      </trkpt>
      <trkpt lat="47.28454" lon="-2.35995">
        <ele>34.200000762939</ele>
        <time>2022-04-10T09:46:44.000Z</time>
      </trkpt>
      <trkpt lat="47.28441" lon="-2.35996">
        <ele>34.200000762939</ele>
        <time>2022-04-10T09:46:47.000Z</time>
      </trkpt>
      <trkpt lat="47.28426" lon="-2.3601">
        <ele>34.200000762939</ele>
        <time>2022-04-10T09:46:51.000Z</time>
      </trkpt>
      <trkpt lat="47.28415" lon="-2.36021">
        <ele>33.799999237061</ele>
        <time>2022-04-10T09:46:54.000Z</time>
      </trkpt>
      <trkpt lat="47.28409" lon="-2.36023">
        <ele>33.400001525879</ele>
        <time>2022-04-10T09:46:55.000Z</time>
      </trkpt>
      <trkpt lat="47.28403" lon="-2.36024">
        <ele>33</ele>
        <time>2022-04-10T09:46:56.000Z</time>
      </trkpt>
      <trkpt lat="47.28398" lon="-2.36025">
        <ele>32.599998474121</ele>
        <time>2022-04-10T09:46:57.000Z</time>
      </trkpt>
      <trkpt lat="47.28392" lon="-2.36025">
        <ele>32.200000762939</ele>
        <time>2022-04-10T09:46:58.000Z</time>
      </trkpt>
      <trkpt lat="47.28385" lon="-2.36026">
        <ele>31.799999237061</ele>
        <time>2022-04-10T09:46:59.000Z</time>
      </trkpt>
      <trkpt lat="47.28378" lon="-2.36027">
        <ele>31.39999961853</ele>
        <time>2022-04-10T09:47:00.000Z</time>
      </trkpt>
      <trkpt lat="47.28372" lon="-2.36027">
        <ele>31</ele>
        <time>2022-04-10T09:47:01.000Z</time>
      </trkpt>
      <trkpt lat="47.28365" lon="-2.36029">
        <ele>30.200000762939</ele>
        <time>2022-04-10T09:47:02.000Z</time>
      </trkpt>
      <trkpt lat="47.28357" lon="-2.36032">
        <ele>29.60000038147</ele>
        <time>2022-04-10T09:47:03.000Z</time>
      </trkpt>
      <trkpt lat="47.2835" lon="-2.36036">
        <ele>28.60000038147</ele>
        <time>2022-04-10T09:47:04.000Z</time>
      </trkpt>
      <trkpt lat="47.28343" lon="-2.3604">
        <ele>27.799999237061</ele>
        <time>2022-04-10T09:47:05.000Z</time>
      </trkpt>
      <trkpt lat="47.28336" lon="-2.36045">
        <ele>27</ele>
        <time>2022-04-10T09:47:06.000Z</time>
      </trkpt>
      <trkpt lat="47.2833" lon="-2.3605">
        <ele>25.200000762939</ele>
        <time>2022-04-10T09:47:07.000Z</time>
      </trkpt>
      <trkpt lat="47.28323" lon="-2.36052">
        <ele>25.200000762939</ele>
        <time>2022-04-10T09:47:08.000Z</time>
      </trkpt>
      <trkpt lat="47.28317" lon="-2.36051">
        <ele>25.200000762939</ele>
        <time>2022-04-10T09:47:09.000Z</time>
      </trkpt>
      <trkpt lat="47.28289" lon="-2.36047">
        <ele>24.60000038147</ele>
        <time>2022-04-10T09:47:14.000Z</time>
      </trkpt>
      <trkpt lat="47.28285" lon="-2.36044">
        <ele>24</ele>
        <time>2022-04-10T09:47:15.000Z</time>
      </trkpt>
      <trkpt lat="47.28282" lon="-2.36038">
        <ele>23.200000762939</ele>
        <time>2022-04-10T09:47:16.000Z</time>
      </trkpt>
      <trkpt lat="47.28279" lon="-2.36031">
        <ele>22.39999961853</ele>
        <time>2022-04-10T09:47:17.000Z</time>
      </trkpt>
      <trkpt lat="47.28276" lon="-2.36023">
        <ele>21.60000038147</ele>
        <time>2022-04-10T09:47:18.000Z</time>
      </trkpt>
      <trkpt lat="47.28276" lon="-2.36014">
        <ele>20.60000038147</ele>
        <time>2022-04-10T09:47:19.000Z</time>
      </trkpt>
      <trkpt lat="47.28277" lon="-2.36004">
        <ele>19.799999237061</ele>
        <time>2022-04-10T09:47:20.000Z</time>
      </trkpt>
      <trkpt lat="47.28278" lon="-2.35994">
        <ele>18.799999237061</ele>
        <time>2022-04-10T09:47:21.000Z</time>
      </trkpt>
      <trkpt lat="47.28278" lon="-2.35985">
        <ele>17.799999237061</ele>
        <time>2022-04-10T09:47:22.000Z</time>
      </trkpt>
      <trkpt lat="47.28278" lon="-2.35978">
        <ele>16.799999237061</ele>
        <time>2022-04-10T09:47:23.000Z</time>
      </trkpt>
      <trkpt lat="47.28276" lon="-2.35971">
        <ele>16</ele>
        <time>2022-04-10T09:47:24.000Z</time>
      </trkpt>
      <trkpt lat="47.28271" lon="-2.35959">
        <ele>16</ele>
        <time>2022-04-10T09:47:26.000Z</time>
      </trkpt>
      <trkpt lat="47.28263" lon="-2.3594">
        <ele>16</ele>
        <time>2022-04-10T09:47:29.000Z</time>
      </trkpt>
      <trkpt lat="47.28258" lon="-2.35925">
        <ele>16.799999237061</ele>
        <time>2022-04-10T09:47:32.000Z</time>
      </trkpt>
      <trkpt lat="47.28256" lon="-2.3592">
        <ele>17.39999961853</ele>
        <time>2022-04-10T09:47:33.000Z</time>
      </trkpt>
      <trkpt lat="47.28254" lon="-2.35916">
        <ele>17.799999237061</ele>
        <time>2022-04-10T09:47:34.000Z</time>
      </trkpt>
      <trkpt lat="47.28251" lon="-2.35913">
        <ele>18.200000762939</ele>
        <time>2022-04-10T09:47:35.000Z</time>
      </trkpt>
      <trkpt lat="47.28243" lon="-2.35914">
        <ele>18.200000762939</ele>
        <time>2022-04-10T09:47:37.000Z</time>
      </trkpt>
      <trkpt lat="47.28227" lon="-2.35911">
        <ele>18.200000762939</ele>
        <time>2022-04-10T09:47:41.000Z</time>
      </trkpt>
      <trkpt lat="47.28217" lon="-2.35901">
        <ele>17.799999237061</ele>
        <time>2022-04-10T09:47:44.000Z</time>
      </trkpt>
      <trkpt lat="47.28215" lon="-2.35895">
        <ele>17.39999961853</ele>
        <time>2022-04-10T09:47:45.000Z</time>
      </trkpt>
      <trkpt lat="47.28214" lon="-2.35891">
        <ele>17</ele>
        <time>2022-04-10T09:47:46.000Z</time>
      </trkpt>
      <trkpt lat="47.28211" lon="-2.35885">
        <ele>16.60000038147</ele>
        <time>2022-04-10T09:47:47.000Z</time>
      </trkpt>
      <trkpt lat="47.28209" lon="-2.35878">
        <ele>16.200000762939</ele>
        <time>2022-04-10T09:47:48.000Z</time>
      </trkpt>
      <trkpt lat="47.28202" lon="-2.35864">
        <ele>16.200000762939</ele>
        <time>2022-04-10T09:47:51.000Z</time>
      </trkpt>
      <trkpt lat="47.282" lon="-2.35861">
        <ele>16.200000762939</ele>
        <time>2022-04-10T09:47:52.000Z</time>
      </trkpt>
      <trkpt lat="47.2819" lon="-2.35855">
        <ele>16.200000762939</ele>
        <time>2022-04-10T09:47:55.000Z</time>
      </trkpt>
      <trkpt lat="47.28178" lon="-2.35847">
        <ele>16.200000762939</ele>
        <time>2022-04-10T09:47:59.000Z</time>
      </trkpt>
      <trkpt lat="47.28172" lon="-2.35841">
        <ele>16.200000762939</ele>
        <time>2022-04-10T09:48:01.000Z</time>
      </trkpt>
      <trkpt lat="47.28156" lon="-2.35827">
        <ele>16.200000762939</ele>
        <time>2022-04-10T09:48:05.000Z</time>
      </trkpt>
      <trkpt lat="47.28146" lon="-2.35809">
        <ele>16.200000762939</ele>
        <time>2022-04-10T09:48:09.000Z</time>
      </trkpt>
      <trkpt lat="47.2814" lon="-2.35776">
        <ele>16.200000762939</ele>
        <time>2022-04-10T09:48:14.000Z</time>
      </trkpt>
      <trkpt lat="47.28133" lon="-2.35763">
        <ele>16.200000762939</ele>
        <time>2022-04-10T09:48:17.000Z</time>
      </trkpt>
      <trkpt lat="47.2813" lon="-2.35761">
        <ele>16.200000762939</ele>
        <time>2022-04-10T09:48:18.000Z</time>
      </trkpt>
      <trkpt lat="47.28119" lon="-2.35765">
        <ele>15.800000190735</ele>
        <time>2022-04-10T09:48:21.000Z</time>
      </trkpt>
      <trkpt lat="47.28116" lon="-2.35769">
        <ele>14.800000190735</ele>
        <time>2022-04-10T09:48:22.000Z</time>
      </trkpt>
      <trkpt lat="47.28113" lon="-2.35772">
        <ele>14.39999961853</ele>
        <time>2022-04-10T09:48:23.000Z</time>
      </trkpt>
      <trkpt lat="47.28109" lon="-2.35776">
        <ele>14</ele>
        <time>2022-04-10T09:48:24.000Z</time>
      </trkpt>
      <trkpt lat="47.28098" lon="-2.35793">
        <ele>14</ele>
        <time>2022-04-10T09:48:28.000Z</time>
      </trkpt>
      <trkpt lat="47.2809" lon="-2.35806">
        <ele>14</ele>
        <time>2022-04-10T09:48:31.000Z</time>
      </trkpt>
      <trkpt lat="47.28084" lon="-2.35807">
        <ele>14</ele>
        <time>2022-04-10T09:48:33.000Z</time>
      </trkpt>
      <trkpt lat="47.28079" lon="-2.35798">
        <ele>14.39999961853</ele>
        <time>2022-04-10T09:48:36.000Z</time>
      </trkpt>
      <trkpt lat="47.28079" lon="-2.35795">
        <ele>14.800000190735</ele>
        <time>2022-04-10T09:48:37.000Z</time>
      </trkpt>
      <trkpt lat="47.28081" lon="-2.35788">
        <ele>15.199999809265</ele>
        <time>2022-04-10T09:48:38.000Z</time>
      </trkpt>
      <trkpt lat="47.28083" lon="-2.35783">
        <ele>15.60000038147</ele>
        <time>2022-04-10T09:48:39.000Z</time>
      </trkpt>
      <trkpt lat="47.28084" lon="-2.35778">
        <ele>16</ele>
        <time>2022-04-10T09:48:40.000Z</time>
      </trkpt>
      <trkpt lat="47.28086" lon="-2.35767">
        <ele>16</ele>
        <time>2022-04-10T09:48:42.000Z</time>
      </trkpt>
      <trkpt lat="47.28089" lon="-2.3574">
        <ele>16.39999961853</ele>
        <time>2022-04-10T09:48:47.000Z</time>
      </trkpt>
      <trkpt lat="47.28091" lon="-2.35735">
        <ele>16.799999237061</ele>
        <time>2022-04-10T09:48:48.000Z</time>
      </trkpt>
      <trkpt lat="47.28092" lon="-2.3573">
        <ele>17.39999961853</ele>
        <time>2022-04-10T09:48:49.000Z</time>
      </trkpt>
      <trkpt lat="47.28093" lon="-2.35725">
        <ele>17.799999237061</ele>
        <time>2022-04-10T09:48:50.000Z</time>
      </trkpt>
      <trkpt lat="47.28094" lon="-2.3572">
        <ele>18.200000762939</ele>
        <time>2022-04-10T09:48:51.000Z</time>
      </trkpt>
      <trkpt lat="47.28095" lon="-2.35711">
        <ele>18.200000762939</ele>
        <time>2022-04-10T09:48:53.000Z</time>
      </trkpt>
      <trkpt lat="47.28091" lon="-2.35692">
        <ele>18.200000762939</ele>
        <time>2022-04-10T09:48:57.000Z</time>
      </trkpt>
      <trkpt lat="47.28085" lon="-2.35665">
        <ele>18.200000762939</ele>
        <time>2022-04-10T09:49:01.000Z</time>
      </trkpt>
      <trkpt lat="47.28077" lon="-2.35639">
        <ele>17.799999237061</ele>
        <time>2022-04-10T09:49:05.000Z</time>
      </trkpt>
      <trkpt lat="47.28076" lon="-2.35631">
        <ele>17.39999961853</ele>
        <time>2022-04-10T09:49:06.000Z</time>
      </trkpt>
      <trkpt lat="47.28075" lon="-2.35623">
        <ele>17</ele>
        <time>2022-04-10T09:49:07.000Z</time>
      </trkpt>
      <trkpt lat="47.28074" lon="-2.35615">
        <ele>16.60000038147</ele>
        <time>2022-04-10T09:49:08.000Z</time>
      </trkpt>
      <trkpt lat="47.28073" lon="-2.35607">
        <ele>16</ele>
        <time>2022-04-10T09:49:09.000Z</time>
      </trkpt>
      <trkpt lat="47.28071" lon="-2.356">
        <ele>15.60000038147</ele>
        <time>2022-04-10T09:49:10.000Z</time>
      </trkpt>
      <trkpt lat="47.28068" lon="-2.35594">
        <ele>14.60000038147</ele>
        <time>2022-04-10T09:49:11.000Z</time>
      </trkpt>
      <trkpt lat="47.28064" lon="-2.35589">
        <ele>14.199999809265</ele>
        <time>2022-04-10T09:49:12.000Z</time>
      </trkpt>
      <trkpt lat="47.2806" lon="-2.35586">
        <ele>13.800000190735</ele>
        <time>2022-04-10T09:49:13.000Z</time>
      </trkpt>
      <trkpt lat="47.28055" lon="-2.35584">
        <ele>13.800000190735</ele>
        <time>2022-04-10T09:49:14.000Z</time>
      </trkpt>
      <trkpt lat="47.28046" lon="-2.35583">
        <ele>13.199999809265</ele>
        <time>2022-04-10T09:49:17.000Z</time>
      </trkpt>
      <trkpt lat="47.28044" lon="-2.35583">
        <ele>12.800000190735</ele>
        <time>2022-04-10T09:49:18.000Z</time>
      </trkpt>
      <trkpt lat="47.28044" lon="-2.35582">
        <ele>12.39999961853</ele>
        <time>2022-04-10T09:49:19.000Z</time>
      </trkpt>
      <trkpt lat="47.28044" lon="-2.35583">
        <ele>12</ele>
        <time>2022-04-10T09:49:20.000Z</time>
      </trkpt>
      <trkpt lat="47.28042" lon="-2.35578">
        <ele>11.60000038147</ele>
        <time>2022-04-10T09:54:16.000Z</time>
      </trkpt>
      <trkpt lat="47.28034" lon="-2.35574">
        <ele>11.60000038147</ele>
        <time>2022-04-10T09:54:21.000Z</time>
      </trkpt>
      <trkpt lat="47.2802" lon="-2.35574">
        <ele>11.60000038147</ele>
        <time>2022-04-10T09:54:28.000Z</time>
      </trkpt>
      <trkpt lat="47.28009" lon="-2.35576">
        <ele>11.199999809265</ele>
        <time>2022-04-10T09:54:33.000Z</time>
      </trkpt>
      <trkpt lat="47.28006" lon="-2.35575">
        <ele>10.800000190735</ele>
        <time>2022-04-10T09:54:34.000Z</time>
      </trkpt>
      <trkpt lat="47.28003" lon="-2.35576">
        <ele>10.39999961853</ele>
        <time>2022-04-10T09:54:35.000Z</time>
      </trkpt>
      <trkpt lat="47.28" lon="-2.35578">
        <ele>9.8000001907349</ele>
        <time>2022-04-10T09:54:36.000Z</time>
      </trkpt>
      <trkpt lat="47.27998" lon="-2.35579">
        <ele>9.3999996185303</ele>
        <time>2022-04-10T09:54:37.000Z</time>
      </trkpt>
      <trkpt lat="47.27995" lon="-2.35583">
        <ele>9.3999996185303</ele>
        <time>2022-04-10T09:54:39.000Z</time>
      </trkpt>
      <trkpt lat="47.27992" lon="-2.35582">
        <ele>9.3999996185303</ele>
        <time>2022-04-10T09:54:40.000Z</time>
      </trkpt>
      <trkpt lat="47.27986" lon="-2.35582">
        <ele>9.3999996185303</ele>
        <time>2022-04-10T09:54:43.000Z</time>
      </trkpt>
      <trkpt lat="47.27984" lon="-2.35584">
        <ele>9.3999996185303</ele>
        <time>2022-04-10T09:54:44.000Z</time>
      </trkpt>
      <trkpt lat="47.27975" lon="-2.35583">
        <ele>9.3999996185303</ele>
        <time>2022-04-10T09:54:48.000Z</time>
      </trkpt>
      <trkpt lat="47.27955" lon="-2.35584">
        <ele>9.3999996185303</ele>
        <time>2022-04-10T09:54:53.000Z</time>
      </trkpt>
      <trkpt lat="47.27934" lon="-2.35589">
        <ele>9.3999996185303</ele>
        <time>2022-04-10T09:54:58.000Z</time>
      </trkpt>
      <trkpt lat="47.27895" lon="-2.35599">
        <ele>9.3999996185303</ele>
        <time>2022-04-10T09:55:06.000Z</time>
      </trkpt>
      <trkpt lat="47.2788" lon="-2.35603">
        <ele>9</ele>
        <time>2022-04-10T09:55:09.000Z</time>
      </trkpt>
      <trkpt lat="47.27874" lon="-2.35604">
        <ele>8.6000003814697</ele>
        <time>2022-04-10T09:55:10.000Z</time>
      </trkpt>
      <trkpt lat="47.27868" lon="-2.35605">
        <ele>8.1999998092651</ele>
        <time>2022-04-10T09:55:11.000Z</time>
      </trkpt>
      <trkpt lat="47.27862" lon="-2.35605">
        <ele>7.5999999046326</ele>
        <time>2022-04-10T09:55:12.000Z</time>
      </trkpt>
      <trkpt lat="47.27856" lon="-2.35606">
        <ele>7.1999998092651</ele>
        <time>2022-04-10T09:55:13.000Z</time>
      </trkpt>
      <trkpt lat="47.27833" lon="-2.35612">
        <ele>7.1999998092651</ele>
        <time>2022-04-10T09:55:17.000Z</time>
      </trkpt>
      <trkpt lat="47.27804" lon="-2.35621">
        <ele>6.8000001907349</ele>
        <time>2022-04-10T09:55:22.000Z</time>
      </trkpt>
      <trkpt lat="47.27798" lon="-2.35623">
        <ele>6.4000000953674</ele>
        <time>2022-04-10T09:55:23.000Z</time>
      </trkpt>
      <trkpt lat="47.27792" lon="-2.35626">
        <ele>6</ele>
        <time>2022-04-10T09:55:24.000Z</time>
      </trkpt>
      <trkpt lat="47.27786" lon="-2.3563">
        <ele>5.5999999046326</ele>
        <time>2022-04-10T09:55:25.000Z</time>
      </trkpt>
      <trkpt lat="47.27781" lon="-2.35634">
        <ele>5.1999998092651</ele>
        <time>2022-04-10T09:55:26.000Z</time>
      </trkpt>
      <trkpt lat="47.27765" lon="-2.3565">
        <ele>5.1999998092651</ele>
        <time>2022-04-10T09:55:29.000Z</time>
      </trkpt>
      <trkpt lat="47.27733" lon="-2.35695">
        <ele>5.1999998092651</ele>
        <time>2022-04-10T09:55:36.000Z</time>
      </trkpt>
      <trkpt lat="47.27723" lon="-2.35708">
        <ele>4.5999999046326</ele>
        <time>2022-04-10T09:55:38.000Z</time>
      </trkpt>
      <trkpt lat="47.27718" lon="-2.35714">
        <ele>4.1999998092651</ele>
        <time>2022-04-10T09:55:39.000Z</time>
      </trkpt>
      <trkpt lat="47.27712" lon="-2.3572">
        <ele>3.7999999523163</ele>
        <time>2022-04-10T09:55:40.000Z</time>
      </trkpt>
      <trkpt lat="47.27706" lon="-2.35725">
        <ele>3.4000000953674</ele>
        <time>2022-04-10T09:55:41.000Z</time>
      </trkpt>
      <trkpt lat="47.27699" lon="-2.3573">
        <ele>3</ele>
        <time>2022-04-10T09:55:42.000Z</time>
      </trkpt>
      <trkpt lat="47.27687" lon="-2.35742">
        <ele>3</ele>
        <time>2022-04-10T09:55:44.000Z</time>
      </trkpt>
      <trkpt lat="47.27677" lon="-2.35748">
        <ele>3</ele>
        <time>2022-04-10T09:55:46.000Z</time>
      </trkpt>
      <trkpt lat="47.27667" lon="-2.35739">
        <ele>3</ele>
        <time>2022-04-10T09:55:48.000Z</time>
      </trkpt>
      <trkpt lat="47.27658" lon="-2.35728">
        <ele>2.4000000953674</ele>
        <time>2022-04-10T09:55:50.000Z</time>
      </trkpt>
      <trkpt lat="47.27652" lon="-2.35724">
        <ele>2</ele>
        <time>2022-04-10T09:55:51.000Z</time>
      </trkpt>
      <trkpt lat="47.27646" lon="-2.35721">
        <ele>1.6000000238419</ele>
        <time>2022-04-10T09:55:52.000Z</time>
      </trkpt>
      <trkpt lat="47.27639" lon="-2.35719">
        <ele>1.2000000476837</ele>
        <time>2022-04-10T09:55:53.000Z</time>
      </trkpt>
      <trkpt lat="47.27633" lon="-2.35718">
        <ele>0.80000001192093</ele>
        <time>2022-04-10T09:55:54.000Z</time>
      </trkpt>
      <trkpt lat="47.27627" lon="-2.35716">
        <ele>0.80000001192093</ele>
        <time>2022-04-10T09:55:55.000Z</time>
      </trkpt>
      <trkpt lat="47.27614" lon="-2.35713">
        <ele>0.80000001192093</ele>
        <time>2022-04-10T09:55:57.000Z</time>
      </trkpt>
      <trkpt lat="47.27578" lon="-2.35703">
        <ele>0.20000000298023</ele>
        <time>2022-04-10T09:56:03.000Z</time>
      </trkpt>
      <trkpt lat="47.27572" lon="-2.35702">
        <ele>-0.20000000298023</ele>
        <time>2022-04-10T09:56:04.000Z</time>
      </trkpt>
      <trkpt lat="47.27566" lon="-2.357">
        <ele>-0.60000002384186</ele>
        <time>2022-04-10T09:56:05.000Z</time>
      </trkpt>
      <trkpt lat="47.2756" lon="-2.35699">
        <ele>-1</ele>
        <time>2022-04-10T09:56:06.000Z</time>
      </trkpt>
      <trkpt lat="47.27554" lon="-2.35698">
        <ele>-1.3999999761581</ele>
        <time>2022-04-10T09:56:07.000Z</time>
      </trkpt>
      <trkpt lat="47.27531" lon="-2.35692">
        <ele>-1.3999999761581</ele>
        <time>2022-04-10T09:56:11.000Z</time>
      </trkpt>
      <trkpt lat="47.27481" lon="-2.3568">
        <ele>-1.3999999761581</ele>
        <time>2022-04-10T09:56:19.000Z</time>
      </trkpt>
      <trkpt lat="47.27452" lon="-2.35673">
        <ele>-2</ele>
        <time>2022-04-10T09:56:24.000Z</time>
      </trkpt>
      <trkpt lat="47.27445" lon="-2.35673">
        <ele>-2.4000000953674</ele>
        <time>2022-04-10T09:56:25.000Z</time>
      </trkpt>
      <trkpt lat="47.2744" lon="-2.35672">
        <ele>-2.7999999523163</ele>
        <time>2022-04-10T09:56:26.000Z</time>
      </trkpt>
      <trkpt lat="47.27434" lon="-2.35671">
        <ele>-3.4000000953674</ele>
        <time>2022-04-10T09:56:27.000Z</time>
      </trkpt>
      <trkpt lat="47.27428" lon="-2.35669">
        <ele>-3.7999999523163</ele>
        <time>2022-04-10T09:56:28.000Z</time>
      </trkpt>
      <trkpt lat="47.27416" lon="-2.35667">
        <ele>-3.7999999523163</ele>
        <time>2022-04-10T09:56:30.000Z</time>
      </trkpt>
      <trkpt lat="47.2741" lon="-2.35668">
        <ele>-3.7999999523163</ele>
        <time>2022-04-10T09:56:31.000Z</time>
      </trkpt>
      <trkpt lat="47.27386" lon="-2.35679">
        <ele>-3.7999999523163</ele>
        <time>2022-04-10T09:56:35.000Z</time>
      </trkpt>
      <trkpt lat="47.27359" lon="-2.357">
        <ele>-3.7999999523163</ele>
        <time>2022-04-10T09:56:40.000Z</time>
      </trkpt>
      <trkpt lat="47.27329" lon="-2.35724">
        <ele>-3.7999999523163</ele>
        <time>2022-04-10T09:56:47.000Z</time>
      </trkpt>
      <trkpt lat="47.27318" lon="-2.35739">
        <ele>-3.7999999523163</ele>
        <time>2022-04-10T09:56:52.000Z</time>
      </trkpt>
      <trkpt lat="47.27314" lon="-2.3574">
        <ele>-3.7999999523163</ele>
        <time>2022-04-10T09:56:53.000Z</time>
      </trkpt>
      <trkpt lat="47.27306" lon="-2.35734">
        <ele>-3.7999999523163</ele>
        <time>2022-04-10T09:56:55.000Z</time>
      </trkpt>
      <trkpt lat="47.27296" lon="-2.35711">
        <ele>-3.7999999523163</ele>
        <time>2022-04-10T09:56:59.000Z</time>
      </trkpt>
      <trkpt lat="47.27293" lon="-2.35705">
        <ele>-3.7999999523163</ele>
        <time>2022-04-10T09:57:00.000Z</time>
      </trkpt>
      <trkpt lat="47.27286" lon="-2.35688">
        <ele>-3.7999999523163</ele>
        <time>2022-04-10T09:57:03.000Z</time>
      </trkpt>
      <trkpt lat="47.27279" lon="-2.35672">
        <ele>-3.7999999523163</ele>
        <time>2022-04-10T09:57:06.000Z</time>
      </trkpt>
      <trkpt lat="47.27259" lon="-2.35627">
        <ele>-3.7999999523163</ele>
        <time>2022-04-10T09:57:14.000Z</time>
      </trkpt>
      <trkpt lat="47.27244" lon="-2.35591">
        <ele>-3.7999999523163</ele>
        <time>2022-04-10T09:57:22.000Z</time>
      </trkpt>
      <trkpt lat="47.27232" lon="-2.35566">
        <ele>-3.7999999523163</ele>
        <time>2022-04-10T09:57:27.000Z</time>
      </trkpt>
      <trkpt lat="47.27225" lon="-2.3555">
        <ele>-3.7999999523163</ele>
        <time>2022-04-10T09:57:30.000Z</time>
      </trkpt>
      <trkpt lat="47.27212" lon="-2.35522">
        <ele>-3.7999999523163</ele>
        <time>2022-04-10T09:57:35.000Z</time>
      </trkpt>
      <trkpt lat="47.27192" lon="-2.3548">
        <ele>-3.4000000953674</ele>
        <time>2022-04-10T09:57:42.000Z</time>
      </trkpt>
      <trkpt lat="47.27189" lon="-2.35475">
        <ele>-3</ele>
        <time>2022-04-10T09:57:43.000Z</time>
      </trkpt>
      <trkpt lat="47.27186" lon="-2.35469">
        <ele>-2.4000000953674</ele>
        <time>2022-04-10T09:57:44.000Z</time>
      </trkpt>
      <trkpt lat="47.27182" lon="-2.35463">
        <ele>-2</ele>
        <time>2022-04-10T09:57:45.000Z</time>
      </trkpt>
      <trkpt lat="47.27179" lon="-2.35458">
        <ele>-1.6000000238419</ele>
        <time>2022-04-10T09:57:46.000Z</time>
      </trkpt>
      <trkpt lat="47.27173" lon="-2.35445">
        <ele>-1.6000000238419</ele>
        <time>2022-04-10T09:57:48.000Z</time>
      </trkpt>
      <trkpt lat="47.27149" lon="-2.35398">
        <ele>-1.6000000238419</ele>
        <time>2022-04-10T09:57:56.000Z</time>
      </trkpt>
      <trkpt lat="47.27125" lon="-2.35357">
        <ele>-1.6000000238419</ele>
        <time>2022-04-10T09:58:03.000Z</time>
      </trkpt>
      <trkpt lat="47.27094" lon="-2.35306">
        <ele>-1.6000000238419</ele>
        <time>2022-04-10T09:58:11.000Z</time>
      </trkpt>
      <trkpt lat="47.27065" lon="-2.35262">
        <ele>-1.6000000238419</ele>
        <time>2022-04-10T09:58:18.000Z</time>
      </trkpt>
      <trkpt lat="47.27043" lon="-2.35227">
        <ele>-1.6000000238419</ele>
        <time>2022-04-10T09:58:24.000Z</time>
      </trkpt>
      <trkpt lat="47.27034" lon="-2.35214">
        <ele>-2</ele>
        <time>2022-04-10T09:58:28.000Z</time>
      </trkpt>
      <trkpt lat="47.27032" lon="-2.3521">
        <ele>-2.4000000953674</ele>
        <time>2022-04-10T09:58:29.000Z</time>
      </trkpt>
      <trkpt lat="47.2703" lon="-2.35206">
        <ele>-2.7999999523163</ele>
        <time>2022-04-10T09:58:30.000Z</time>
      </trkpt>
      <trkpt lat="47.27027" lon="-2.35202">
        <ele>-3.4000000953674</ele>
        <time>2022-04-10T09:58:31.000Z</time>
      </trkpt>
      <trkpt lat="47.27025" lon="-2.35199">
        <ele>-3.7999999523163</ele>
        <time>2022-04-10T09:58:32.000Z</time>
      </trkpt>
      <trkpt lat="47.27016" lon="-2.35185">
        <ele>-3.7999999523163</ele>
        <time>2022-04-10T09:58:35.000Z</time>
      </trkpt>
      <trkpt lat="47.26986" lon="-2.35139">
        <ele>-3.7999999523163</ele>
        <time>2022-04-10T09:58:44.000Z</time>
      </trkpt>
      <trkpt lat="47.26959" lon="-2.35098">
        <ele>-3.7999999523163</ele>
        <time>2022-04-10T09:58:52.000Z</time>
      </trkpt>
      <trkpt lat="47.2693" lon="-2.35052">
        <ele>-3.7999999523163</ele>
        <time>2022-04-10T09:59:01.000Z</time>
      </trkpt>
      <trkpt lat="47.26905" lon="-2.35016">
        <ele>-3.7999999523163</ele>
        <time>2022-04-10T09:59:08.000Z</time>
      </trkpt>
      <trkpt lat="47.26882" lon="-2.34979">
        <ele>-3.7999999523163</ele>
        <time>2022-04-10T09:59:15.000Z</time>
      </trkpt>
      <trkpt lat="47.26853" lon="-2.34937">
        <ele>-3.7999999523163</ele>
        <time>2022-04-10T09:59:23.000Z</time>
      </trkpt>
      <trkpt lat="47.26822" lon="-2.34891">
        <ele>-3.7999999523163</ele>
        <time>2022-04-10T09:59:32.000Z</time>
      </trkpt>
      <trkpt lat="47.26815" lon="-2.3488">
        <ele>-3.7999999523163</ele>
        <time>2022-04-10T09:59:34.000Z</time>
      </trkpt>
      <trkpt lat="47.26797" lon="-2.34854">
        <ele>-3.7999999523163</ele>
        <time>2022-04-10T09:59:39.000Z</time>
      </trkpt>
      <trkpt lat="47.26774" lon="-2.34821">
        <ele>-3.7999999523163</ele>
        <time>2022-04-10T09:59:46.000Z</time>
      </trkpt>
      <trkpt lat="47.26771" lon="-2.34816">
        <ele>-3.7999999523163</ele>
        <time>2022-04-10T09:59:49.000Z</time>
      </trkpt>
      <trkpt lat="47.2676" lon="-2.34804">
        <ele>-3.7999999523163</ele>
        <time>2022-04-10T09:59:53.000Z</time>
      </trkpt>
      <trkpt lat="47.26754" lon="-2.34793">
        <ele>-3.7999999523163</ele>
        <time>2022-04-10T09:59:55.000Z</time>
      </trkpt>
      <trkpt lat="47.26742" lon="-2.34779">
        <ele>-3.7999999523163</ele>
        <time>2022-04-10T09:59:58.000Z</time>
      </trkpt>
      <trkpt lat="47.26703" lon="-2.34732">
        <ele>-3.7999999523163</ele>
        <time>2022-04-10T10:00:07.000Z</time>
      </trkpt>
      <trkpt lat="47.26674" lon="-2.34695">
        <ele>-3.7999999523163</ele>
        <time>2022-04-10T10:00:14.000Z</time>
      </trkpt>
      <trkpt lat="47.26641" lon="-2.34657">
        <ele>-3.7999999523163</ele>
        <time>2022-04-10T10:00:22.000Z</time>
      </trkpt>
      <trkpt lat="47.26602" lon="-2.34608">
        <ele>-3.7999999523163</ele>
        <time>2022-04-10T10:00:32.000Z</time>
      </trkpt>
      <trkpt lat="47.26569" lon="-2.3457">
        <ele>-3.7999999523163</ele>
        <time>2022-04-10T10:00:40.000Z</time>
      </trkpt>
      <trkpt lat="47.26539" lon="-2.34539">
        <ele>-3.7999999523163</ele>
        <time>2022-04-10T10:00:47.000Z</time>
      </trkpt>
      <trkpt lat="47.26525" lon="-2.34528">
        <ele>-3.7999999523163</ele>
        <time>2022-04-10T10:00:50.000Z</time>
      </trkpt>
      <trkpt lat="47.26515" lon="-2.34519">
        <ele>-3.7999999523163</ele>
        <time>2022-04-10T10:00:52.000Z</time>
      </trkpt>
      <trkpt lat="47.26482" lon="-2.34496">
        <ele>-3.7999999523163</ele>
        <time>2022-04-10T10:00:58.000Z</time>
      </trkpt>
      <trkpt lat="47.26443" lon="-2.34469">
        <ele>-3.7999999523163</ele>
        <time>2022-04-10T10:01:06.000Z</time>
      </trkpt>
      <trkpt lat="47.26401" lon="-2.34436">
        <ele>-3.7999999523163</ele>
        <time>2022-04-10T10:01:15.000Z</time>
      </trkpt>
      <trkpt lat="47.26376" lon="-2.34414">
        <ele>-3.7999999523163</ele>
        <time>2022-04-10T10:01:21.000Z</time>
      </trkpt>
      <trkpt lat="47.26343" lon="-2.34385">
        <ele>-3.7999999523163</ele>
        <time>2022-04-10T10:01:29.000Z</time>
      </trkpt>
      <trkpt lat="47.26338" lon="-2.34382">
        <ele>-3.7999999523163</ele>
        <time>2022-04-10T10:01:30.000Z</time>
      </trkpt>
      <trkpt lat="47.26323" lon="-2.34374">
        <ele>-3.7999999523163</ele>
        <time>2022-04-10T10:01:33.000Z</time>
      </trkpt>
      <trkpt lat="47.26307" lon="-2.34351">
        <ele>-3.7999999523163</ele>
        <time>2022-04-10T10:01:37.000Z</time>
      </trkpt>
      <trkpt lat="47.26297" lon="-2.34341">
        <ele>-3.7999999523163</ele>
        <time>2022-04-10T10:01:39.000Z</time>
      </trkpt>
      <trkpt lat="47.26279" lon="-2.34322">
        <ele>-3.7999999523163</ele>
        <time>2022-04-10T10:01:43.000Z</time>
      </trkpt>
      <trkpt lat="47.26246" lon="-2.34288">
        <ele>-3.7999999523163</ele>
        <time>2022-04-10T10:01:51.000Z</time>
      </trkpt>
      <trkpt lat="47.26209" lon="-2.34248">
        <ele>-3.7999999523163</ele>
        <time>2022-04-10T10:02:00.000Z</time>
      </trkpt>
      <trkpt lat="47.26178" lon="-2.34216">
        <ele>-3.7999999523163</ele>
        <time>2022-04-10T10:02:07.000Z</time>
      </trkpt>
      <trkpt lat="47.2614" lon="-2.34184">
        <ele>-3.7999999523163</ele>
        <time>2022-04-10T10:02:15.000Z</time>
      </trkpt>
      <trkpt lat="47.26129" lon="-2.34177">
        <ele>-3.7999999523163</ele>
        <time>2022-04-10T10:02:17.000Z</time>
      </trkpt>
      <trkpt lat="47.2612" lon="-2.34166">
        <ele>-3.7999999523163</ele>
        <time>2022-04-10T10:02:19.000Z</time>
      </trkpt>
      <trkpt lat="47.26114" lon="-2.34162">
        <ele>-3.7999999523163</ele>
        <time>2022-04-10T10:02:20.000Z</time>
      </trkpt>
      <trkpt lat="47.26098" lon="-2.34153">
        <ele>-3.7999999523163</ele>
        <time>2022-04-10T10:02:23.000Z</time>
      </trkpt>
      <trkpt lat="47.2606" lon="-2.34135">
        <ele>-3.7999999523163</ele>
        <time>2022-04-10T10:02:30.000Z</time>
      </trkpt>
      <trkpt lat="47.26023" lon="-2.34115">
        <ele>-3.7999999523163</ele>
        <time>2022-04-10T10:02:37.000Z</time>
      </trkpt>
      <trkpt lat="47.25986" lon="-2.34097">
        <ele>-3.7999999523163</ele>
        <time>2022-04-10T10:02:44.000Z</time>
      </trkpt>
      <trkpt lat="47.25951" lon="-2.34083">
        <ele>-3.7999999523163</ele>
        <time>2022-04-10T10:02:51.000Z</time>
      </trkpt>
      <trkpt lat="47.25946" lon="-2.3408">
        <ele>-3.7999999523163</ele>
        <time>2022-04-10T10:02:52.000Z</time>
      </trkpt>
      <trkpt lat="47.25922" lon="-2.34075">
        <ele>-3.7999999523163</ele>
        <time>2022-04-10T10:02:57.000Z</time>
      </trkpt>
      <trkpt lat="47.25902" lon="-2.34092">
        <ele>-4.1999998092651</ele>
        <time>2022-04-10T10:03:01.000Z</time>
      </trkpt>
      <trkpt lat="47.25898" lon="-2.34099">
        <ele>-4.5999999046326</ele>
        <time>2022-04-10T10:03:02.000Z</time>
      </trkpt>
      <trkpt lat="47.25895" lon="-2.34106">
        <ele>-5.1999998092651</ele>
        <time>2022-04-10T10:03:03.000Z</time>
      </trkpt>
      <trkpt lat="47.25892" lon="-2.34114">
        <ele>-5.5999999046326</ele>
        <time>2022-04-10T10:03:04.000Z</time>
      </trkpt>
      <trkpt lat="47.25889" lon="-2.34123">
        <ele>-6.1999998092651</ele>
        <time>2022-04-10T10:03:05.000Z</time>
      </trkpt>
      <trkpt lat="47.25886" lon="-2.3413">
        <ele>-6.1999998092651</ele>
        <time>2022-04-10T10:03:06.000Z</time>
      </trkpt>
      <trkpt lat="47.25873" lon="-2.34165">
        <ele>-6.1999998092651</ele>
        <time>2022-04-10T10:03:11.000Z</time>
      </trkpt>
      <trkpt lat="47.25864" lon="-2.34165">
        <ele>-6.1999998092651</ele>
        <time>2022-04-10T10:03:14.000Z</time>
      </trkpt>
      <trkpt lat="47.2585" lon="-2.3416">
        <ele>-6.1999998092651</ele>
        <time>2022-04-10T10:03:18.000Z</time>
      </trkpt>
      <trkpt lat="47.25847" lon="-2.3416">
        <ele>-6.1999998092651</ele>
        <time>2022-04-10T10:03:19.000Z</time>
      </trkpt>
      <trkpt lat="47.25836" lon="-2.34163">
        <ele>-6.1999998092651</ele>
        <time>2022-04-10T10:03:23.000Z</time>
      </trkpt>
      <trkpt lat="47.25826" lon="-2.3418">
        <ele>-6.1999998092651</ele>
        <time>2022-04-10T10:03:27.000Z</time>
      </trkpt>
      <trkpt lat="47.25816" lon="-2.34178">
        <ele>-5.8000001907349</ele>
        <time>2022-04-10T10:03:30.000Z</time>
      </trkpt>
      <trkpt lat="47.25811" lon="-2.34178">
        <ele>-5.1999998092651</ele>
        <time>2022-04-10T10:03:31.000Z</time>
      </trkpt>
      <trkpt lat="47.25807" lon="-2.34177">
        <ele>-4.8000001907349</ele>
        <time>2022-04-10T10:03:32.000Z</time>
      </trkpt>
      <trkpt lat="47.25803" lon="-2.34177">
        <ele>-4.4000000953674</ele>
        <time>2022-04-10T10:03:33.000Z</time>
      </trkpt>
      <trkpt lat="47.25799" lon="-2.34176">
        <ele>-4</ele>
        <time>2022-04-10T10:03:34.000Z</time>
      </trkpt>
      <trkpt lat="47.2579" lon="-2.34176">
        <ele>-4</ele>
        <time>2022-04-10T10:03:36.000Z</time>
      </trkpt>
      <trkpt lat="47.2576" lon="-2.34183">
        <ele>-4</ele>
        <time>2022-04-10T10:03:42.000Z</time>
      </trkpt>
      <trkpt lat="47.25745" lon="-2.34186">
        <ele>-4.4000000953674</ele>
        <time>2022-04-10T10:03:45.000Z</time>
      </trkpt>
      <trkpt lat="47.25741" lon="-2.34186">
        <ele>-4.8000001907349</ele>
        <time>2022-04-10T10:03:46.000Z</time>
      </trkpt>
      <trkpt lat="47.25737" lon="-2.34186">
        <ele>-5.1999998092651</ele>
        <time>2022-04-10T10:03:47.000Z</time>
      </trkpt>
      <trkpt lat="47.25732" lon="-2.34187">
        <ele>-5.5999999046326</ele>
        <time>2022-04-10T10:03:48.000Z</time>
      </trkpt>
      <trkpt lat="47.25727" lon="-2.34188">
        <ele>-6</ele>
        <time>2022-04-10T10:03:49.000Z</time>
      </trkpt>
      <trkpt lat="47.25697" lon="-2.34192">
        <ele>-6</ele>
        <time>2022-04-10T10:03:56.000Z</time>
      </trkpt>
      <trkpt lat="47.25673" lon="-2.34191">
        <ele>-6</ele>
        <time>2022-04-10T10:04:02.000Z</time>
      </trkpt>
      <trkpt lat="47.25666" lon="-2.34183">
        <ele>-5.5999999046326</ele>
        <time>2022-04-10T10:04:04.000Z</time>
      </trkpt>
      <trkpt lat="47.25663" lon="-2.34178">
        <ele>-5.1999998092651</ele>
        <time>2022-04-10T10:04:05.000Z</time>
      </trkpt>
      <trkpt lat="47.25661" lon="-2.34172">
        <ele>-4.8000001907349</ele>
        <time>2022-04-10T10:04:06.000Z</time>
      </trkpt>
      <trkpt lat="47.25659" lon="-2.34167">
        <ele>-4.4000000953674</ele>
        <time>2022-04-10T10:04:07.000Z</time>
      </trkpt>
      <trkpt lat="47.25656" lon="-2.34162">
        <ele>-3.7999999523163</ele>
        <time>2022-04-10T10:04:08.000Z</time>
      </trkpt>
      <trkpt lat="47.25646" lon="-2.34136">
        <ele>-3.7999999523163</ele>
        <time>2022-04-10T10:04:13.000Z</time>
      </trkpt>
      <trkpt lat="47.25641" lon="-2.34109">
        <ele>-3.7999999523163</ele>
        <time>2022-04-10T10:04:18.000Z</time>
      </trkpt>
      <trkpt lat="47.25641" lon="-2.34075">
        <ele>-3.7999999523163</ele>
        <time>2022-04-10T10:04:24.000Z</time>
      </trkpt>
      <trkpt lat="47.25647" lon="-2.34033">
        <ele>-3.7999999523163</ele>
        <time>2022-04-10T10:04:30.000Z</time>
      </trkpt>
      <trkpt lat="47.2565" lon="-2.34013">
        <ele>-3.7999999523163</ele>
        <time>2022-04-10T10:04:33.000Z</time>
      </trkpt>
      <trkpt lat="47.25652" lon="-2.33993">
        <ele>-3.7999999523163</ele>
        <time>2022-04-10T10:04:36.000Z</time>
      </trkpt>
      <trkpt lat="47.25654" lon="-2.33987">
        <ele>-3.7999999523163</ele>
        <time>2022-04-10T10:04:37.000Z</time>
      </trkpt>
      <trkpt lat="47.25661" lon="-2.33953">
        <ele>-3.7999999523163</ele>
        <time>2022-04-10T10:04:42.000Z</time>
      </trkpt>
      <trkpt lat="47.25658" lon="-2.33924">
        <ele>-3.7999999523163</ele>
        <time>2022-04-10T10:04:46.000Z</time>
      </trkpt>
      <trkpt lat="47.25654" lon="-2.33902">
        <ele>-3.7999999523163</ele>
        <time>2022-04-10T10:04:49.000Z</time>
      </trkpt>
      <trkpt lat="47.2565" lon="-2.33879">
        <ele>-3.7999999523163</ele>
        <time>2022-04-10T10:04:52.000Z</time>
      </trkpt>
      <trkpt lat="47.25649" lon="-2.33873">
        <ele>-3.7999999523163</ele>
        <time>2022-04-10T10:04:53.000Z</time>
      </trkpt>
      <trkpt lat="47.25644" lon="-2.33842">
        <ele>-3.7999999523163</ele>
        <time>2022-04-10T10:04:57.000Z</time>
      </trkpt>
      <trkpt lat="47.25639" lon="-2.33805">
        <ele>-3.7999999523163</ele>
        <time>2022-04-10T10:05:02.000Z</time>
      </trkpt>
      <trkpt lat="47.25634" lon="-2.33785">
        <ele>-3.7999999523163</ele>
        <time>2022-04-10T10:05:05.000Z</time>
      </trkpt>
      <trkpt lat="47.25628" lon="-2.33773">
        <ele>-3.7999999523163</ele>
        <time>2022-04-10T10:05:07.000Z</time>
      </trkpt>
      <trkpt lat="47.25624" lon="-2.33769">
        <ele>-3.7999999523163</ele>
        <time>2022-04-10T10:05:08.000Z</time>
      </trkpt>
      <trkpt lat="47.25615" lon="-2.33766">
        <ele>-3.7999999523163</ele>
        <time>2022-04-10T10:05:10.000Z</time>
      </trkpt>
      <trkpt lat="47.25599" lon="-2.33763">
        <ele>-3.7999999523163</ele>
        <time>2022-04-10T10:05:13.000Z</time>
      </trkpt>
      <trkpt lat="47.25588" lon="-2.33763">
        <ele>-3.7999999523163</ele>
        <time>2022-04-10T10:05:15.000Z</time>
      </trkpt>
      <trkpt lat="47.25549" lon="-2.33759">
        <ele>-3.7999999523163</ele>
        <time>2022-04-10T10:05:22.000Z</time>
      </trkpt>
      <trkpt lat="47.25533" lon="-2.3376">
        <ele>-3.7999999523163</ele>
        <time>2022-04-10T10:05:25.000Z</time>
      </trkpt>
      <trkpt lat="47.25515" lon="-2.33761">
        <ele>-3.7999999523163</ele>
        <time>2022-04-10T10:05:28.000Z</time>
      </trkpt>
      <trkpt lat="47.2548" lon="-2.33758">
        <ele>-3.7999999523163</ele>
        <time>2022-04-10T10:05:34.000Z</time>
      </trkpt>
      <trkpt lat="47.25475" lon="-2.33755">
        <ele>-3.7999999523163</ele>
        <time>2022-04-10T10:05:35.000Z</time>
      </trkpt>
      <trkpt lat="47.2546" lon="-2.33744">
        <ele>-3.7999999523163</ele>
        <time>2022-04-10T10:05:38.000Z</time>
      </trkpt>
      <trkpt lat="47.25455" lon="-2.3373">
        <ele>-3.7999999523163</ele>
        <time>2022-04-10T10:05:40.000Z</time>
      </trkpt>
      <trkpt lat="47.25453" lon="-2.33705">
        <ele>-3.7999999523163</ele>
        <time>2022-04-10T10:05:43.000Z</time>
      </trkpt>
      <trkpt lat="47.25452" lon="-2.33697">
        <ele>-3.7999999523163</ele>
        <time>2022-04-10T10:05:44.000Z</time>
      </trkpt>
      <trkpt lat="47.25451" lon="-2.3369">
        <ele>-3.7999999523163</ele>
        <time>2022-04-10T10:05:45.000Z</time>
      </trkpt>
      <trkpt lat="47.25448" lon="-2.33662">
        <ele>-3.7999999523163</ele>
        <time>2022-04-10T10:05:49.000Z</time>
      </trkpt>
      <trkpt lat="47.25445" lon="-2.33633">
        <ele>-3.7999999523163</ele>
        <time>2022-04-10T10:05:54.000Z</time>
      </trkpt>
      <trkpt lat="47.25443" lon="-2.33602">
        <ele>-3.7999999523163</ele>
        <time>2022-04-10T10:05:59.000Z</time>
      </trkpt>
      <trkpt lat="47.25446" lon="-2.33582">
        <ele>-3.7999999523163</ele>
        <time>2022-04-10T10:06:03.000Z</time>
      </trkpt>
      <trkpt lat="47.2545" lon="-2.33582">
        <ele>-3.7999999523163</ele>
        <time>2022-04-10T10:06:04.000Z</time>
      </trkpt>
      <trkpt lat="47.2546" lon="-2.33573">
        <ele>-3.7999999523163</ele>
        <time>2022-04-10T10:06:07.000Z</time>
      </trkpt>
      <trkpt lat="47.25459" lon="-2.33568">
        <ele>-3.7999999523163</ele>
        <time>2022-04-10T10:06:08.000Z</time>
      </trkpt>
      <trkpt lat="47.25457" lon="-2.33551">
        <ele>-3.7999999523163</ele>
        <time>2022-04-10T10:06:11.000Z</time>
      </trkpt>
      <trkpt lat="47.25454" lon="-2.33545">
        <ele>-3.7999999523163</ele>
        <time>2022-04-10T10:06:12.000Z</time>
      </trkpt>
      <trkpt lat="47.25443" lon="-2.33493">
        <ele>-3.7999999523163</ele>
        <time>2022-04-10T10:06:20.000Z</time>
      </trkpt>
      <trkpt lat="47.25434" lon="-2.33456">
        <ele>-3.7999999523163</ele>
        <time>2022-04-10T10:06:25.000Z</time>
      </trkpt>
      <trkpt lat="47.25433" lon="-2.33448">
        <ele>-3.7999999523163</ele>
        <time>2022-04-10T10:06:26.000Z</time>
      </trkpt>
      <trkpt lat="47.25431" lon="-2.33384">
        <ele>-3.7999999523163</ele>
        <time>2022-04-10T10:06:34.000Z</time>
      </trkpt>
      <trkpt lat="47.25434" lon="-2.33345">
        <ele>-3.7999999523163</ele>
        <time>2022-04-10T10:06:39.000Z</time>
      </trkpt>
      <trkpt lat="47.25438" lon="-2.33331">
        <ele>-3.7999999523163</ele>
        <time>2022-04-10T10:06:41.000Z</time>
      </trkpt>
      <trkpt lat="47.25449" lon="-2.33289">
        <ele>-3.7999999523163</ele>
        <time>2022-04-10T10:06:47.000Z</time>
      </trkpt>
      <trkpt lat="47.25448" lon="-2.33281">
        <ele>-3.7999999523163</ele>
        <time>2022-04-10T10:06:48.000Z</time>
      </trkpt>
      <trkpt lat="47.25439" lon="-2.33259">
        <ele>-3.7999999523163</ele>
        <time>2022-04-10T10:06:51.000Z</time>
      </trkpt>
      <trkpt lat="47.25436" lon="-2.33252">
        <ele>-3.7999999523163</ele>
        <time>2022-04-10T10:06:52.000Z</time>
      </trkpt>
      <trkpt lat="47.25433" lon="-2.33246">
        <ele>-3.4000000953674</ele>
        <time>2022-04-10T10:06:53.000Z</time>
      </trkpt>
      <trkpt lat="47.25431" lon="-2.33239">
        <ele>-3</ele>
        <time>2022-04-10T10:06:54.000Z</time>
      </trkpt>
      <trkpt lat="47.25428" lon="-2.33233">
        <ele>-2.5999999046326</ele>
        <time>2022-04-10T10:06:55.000Z</time>
      </trkpt>
      <trkpt lat="47.25425" lon="-2.33226">
        <ele>-2.2000000476837</ele>
        <time>2022-04-10T10:06:56.000Z</time>
      </trkpt>
      <trkpt lat="47.25422" lon="-2.33219">
        <ele>-1.7999999523163</ele>
        <time>2022-04-10T10:06:57.000Z</time>
      </trkpt>
      <trkpt lat="47.2542" lon="-2.33212">
        <ele>-1.7999999523163</ele>
        <time>2022-04-10T10:06:58.000Z</time>
      </trkpt>
      <trkpt lat="47.25418" lon="-2.33205">
        <ele>-1.7999999523163</ele>
        <time>2022-04-10T10:06:59.000Z</time>
      </trkpt>
      <trkpt lat="47.25398" lon="-2.33161">
        <ele>-1.7999999523163</ele>
        <time>2022-04-10T10:07:06.000Z</time>
      </trkpt>
      <trkpt lat="47.25393" lon="-2.33152">
        <ele>-1.7999999523163</ele>
        <time>2022-04-10T10:07:08.000Z</time>
      </trkpt>
      <trkpt lat="47.25384" lon="-2.33142">
        <ele>-1.7999999523163</ele>
        <time>2022-04-10T10:07:11.000Z</time>
      </trkpt>
      <trkpt lat="47.2538" lon="-2.33125">
        <ele>-1.7999999523163</ele>
        <time>2022-04-10T10:07:15.000Z</time>
      </trkpt>
      <trkpt lat="47.25375" lon="-2.33113">
        <ele>-1.7999999523163</ele>
        <time>2022-04-10T10:07:20.000Z</time>
      </trkpt>
      <trkpt lat="47.25372" lon="-2.33105">
        <ele>-2.2000000476837</ele>
        <time>2022-04-10T10:07:25.000Z</time>
      </trkpt>
      <trkpt lat="47.25371" lon="-2.33104">
        <ele>-2.5999999046326</ele>
        <time>2022-04-10T10:07:26.000Z</time>
      </trkpt>
      <trkpt lat="47.25371" lon="-2.33103">
        <ele>-3</ele>
        <time>2022-04-10T10:07:27.000Z</time>
      </trkpt>
      <trkpt lat="47.25371" lon="-2.33103">
        <ele>-3.4000000953674</ele>
        <time>2022-04-10T10:07:28.000Z</time>
      </trkpt>
      <trkpt lat="47.25371" lon="-2.33103">
        <ele>-3.7999999523163</ele>
        <time>2022-04-10T10:07:29.000Z</time>
      </trkpt>
      <trkpt lat="47.25371" lon="-2.33096">
        <ele>-3.7999999523163</ele>
        <time>2022-04-10T10:27:48.000Z</time>
      </trkpt>
      <trkpt lat="47.2537" lon="-2.33094">
        <ele>-3.7999999523163</ele>
        <time>2022-04-10T10:27:49.000Z</time>
      </trkpt>
      <trkpt lat="47.25366" lon="-2.33084">
        <ele>-3.7999999523163</ele>
        <time>2022-04-10T10:27:52.000Z</time>
      </trkpt>
      <trkpt lat="47.25362" lon="-2.33073">
        <ele>-3.7999999523163</ele>
        <time>2022-04-10T10:27:55.000Z</time>
      </trkpt>
      <trkpt lat="47.25348" lon="-2.3304">
        <ele>-3.7999999523163</ele>
        <time>2022-04-10T10:28:02.000Z</time>
      </trkpt>
      <trkpt lat="47.25343" lon="-2.3303">
        <ele>-3.7999999523163</ele>
        <time>2022-04-10T10:28:04.000Z</time>
      </trkpt>
      <trkpt lat="47.25336" lon="-2.33014">
        <ele>-3.7999999523163</ele>
        <time>2022-04-10T10:28:07.000Z</time>
      </trkpt>
      <trkpt lat="47.25335" lon="-2.33009">
        <ele>-3.7999999523163</ele>
        <time>2022-04-10T10:28:08.000Z</time>
      </trkpt>
      <trkpt lat="47.25317" lon="-2.32965">
        <ele>-3.7999999523163</ele>
        <time>2022-04-10T10:28:16.000Z</time>
      </trkpt>
      <trkpt lat="47.25306" lon="-2.32933">
        <ele>-3.7999999523163</ele>
        <time>2022-04-10T10:28:22.000Z</time>
      </trkpt>
      <trkpt lat="47.25306" lon="-2.32927">
        <ele>-3.7999999523163</ele>
        <time>2022-04-10T10:28:23.000Z</time>
      </trkpt>
      <trkpt lat="47.25314" lon="-2.32913">
        <ele>-3.7999999523163</ele>
        <time>2022-04-10T10:28:26.000Z</time>
      </trkpt>
      <trkpt lat="47.25318" lon="-2.3291">
        <ele>-3.7999999523163</ele>
        <time>2022-04-10T10:28:27.000Z</time>
      </trkpt>
      <trkpt lat="47.25344" lon="-2.32884">
        <ele>-3.7999999523163</ele>
        <time>2022-04-10T10:28:34.000Z</time>
      </trkpt>
      <trkpt lat="47.25367" lon="-2.32861">
        <ele>-3.7999999523163</ele>
        <time>2022-04-10T10:28:40.000Z</time>
      </trkpt>
      <trkpt lat="47.25371" lon="-2.32857">
        <ele>-3.7999999523163</ele>
        <time>2022-04-10T10:28:41.000Z</time>
      </trkpt>
      <trkpt lat="47.25375" lon="-2.32854">
        <ele>-3.7999999523163</ele>
        <time>2022-04-10T10:28:42.000Z</time>
      </trkpt>
      <trkpt lat="47.25395" lon="-2.32834">
        <ele>-3.7999999523163</ele>
        <time>2022-04-10T10:28:47.000Z</time>
      </trkpt>
      <trkpt lat="47.25417" lon="-2.32802">
        <ele>-3.7999999523163</ele>
        <time>2022-04-10T10:28:54.000Z</time>
      </trkpt>
      <trkpt lat="47.25433" lon="-2.32772">
        <ele>-3.7999999523163</ele>
        <time>2022-04-10T10:29:01.000Z</time>
      </trkpt>
      <trkpt lat="47.25436" lon="-2.32768">
        <ele>-3.4000000953674</ele>
        <time>2022-04-10T10:29:02.000Z</time>
      </trkpt>
      <trkpt lat="47.25438" lon="-2.32765">
        <ele>-3</ele>
        <time>2022-04-10T10:29:03.000Z</time>
      </trkpt>
      <trkpt lat="47.25441" lon="-2.32761">
        <ele>-2.5999999046326</ele>
        <time>2022-04-10T10:29:04.000Z</time>
      </trkpt>
      <trkpt lat="47.25443" lon="-2.32757">
        <ele>-2.2000000476837</ele>
        <time>2022-04-10T10:29:05.000Z</time>
      </trkpt>
      <trkpt lat="47.25446" lon="-2.32753">
        <ele>-1.7999999523163</ele>
        <time>2022-04-10T10:29:06.000Z</time>
      </trkpt>
      <trkpt lat="47.25466" lon="-2.32725">
        <ele>-1.7999999523163</ele>
        <time>2022-04-10T10:29:13.000Z</time>
      </trkpt>
      <trkpt lat="47.25489" lon="-2.32687">
        <ele>-1.7999999523163</ele>
        <time>2022-04-10T10:29:22.000Z</time>
      </trkpt>
      <trkpt lat="47.25491" lon="-2.3267">
        <ele>-1.7999999523163</ele>
        <time>2022-04-10T10:29:25.000Z</time>
      </trkpt>
      <trkpt lat="47.2549" lon="-2.32657">
        <ele>-1.7999999523163</ele>
        <time>2022-04-10T10:29:27.000Z</time>
      </trkpt>
      <trkpt lat="47.25483" lon="-2.32621">
        <ele>-1</ele>
        <time>2022-04-10T10:29:33.000Z</time>
      </trkpt>
      <trkpt lat="47.25481" lon="-2.32615">
        <ele>-0.60000002384186</ele>
        <time>2022-04-10T10:29:34.000Z</time>
      </trkpt>
      <trkpt lat="47.2548" lon="-2.32609">
        <ele>12.9</ele>
        <time>2022-04-10T10:29:35.000Z</time>
      </trkpt>
      <trkpt lat="47.25479" lon="-2.32603">
        <ele>0.40000000596046</ele>
        <time>2022-04-10T10:29:36.000Z</time>
      </trkpt>
      <trkpt lat="47.25477" lon="-2.32568">
        <ele>0.40000000596046</ele>
        <time>2022-04-10T10:29:42.000Z</time>
      </trkpt>
      <trkpt lat="47.25479" lon="-2.32563">
        <ele>0.40000000596046</ele>
        <time>2022-04-10T10:29:43.000Z</time>
      </trkpt>
      <trkpt lat="47.25486" lon="-2.32555">
        <ele>0.40000000596046</ele>
        <time>2022-04-10T10:29:45.000Z</time>
      </trkpt>
      <trkpt lat="47.25514" lon="-2.32528">
        <ele>0.40000000596046</ele>
        <time>2022-04-10T10:29:52.000Z</time>
      </trkpt>
      <trkpt lat="47.25527" lon="-2.32515">
        <ele>11</ele>
        <time>2022-04-10T10:29:55.000Z</time>
      </trkpt>
      <trkpt lat="47.25532" lon="-2.3251">
        <ele>-0.60000002384186</ele>
        <time>2022-04-10T10:29:56.000Z</time>
      </trkpt>
      <trkpt lat="47.25538" lon="-2.32506">
        <ele>-1.3999999761581</ele>
        <time>2022-04-10T10:29:57.000Z</time>
      </trkpt>
      <trkpt lat="47.25543" lon="-2.32501">
        <ele>-1.7999999523163</ele>
        <time>2022-04-10T10:29:58.000Z</time>
      </trkpt>
      <trkpt lat="47.25548" lon="-2.32496">
        <ele>-1.7999999523163</ele>
        <time>2022-04-10T10:29:59.000Z</time>
      </trkpt>
      <trkpt lat="47.25578" lon="-2.32467">
        <ele>-2.2000000476837</ele>
        <time>2022-04-10T10:30:04.000Z</time>
      </trkpt>
      <trkpt lat="47.25584" lon="-2.3246">
        <ele>-2.5999999046326</ele>
        <time>2022-04-10T10:30:05.000Z</time>
      </trkpt>
      <trkpt lat="47.2559" lon="-2.32454">
        <ele>-3.2000000476837</ele>
        <time>2022-04-10T10:30:06.000Z</time>
      </trkpt>
      <trkpt lat="47.25596" lon="-2.32447">
        <ele>-3.5999999046326</ele>
        <time>2022-04-10T10:30:07.000Z</time>
      </trkpt>
      <trkpt lat="47.25603" lon="-2.3244">
        <ele>-4</ele>
        <time>2022-04-10T10:30:08.000Z</time>
      </trkpt>
      <trkpt lat="47.25621" lon="-2.3242">
        <ele>-4.4000000953674</ele>
        <time>2022-04-10T10:30:11.000Z</time>
      </trkpt>
      <trkpt lat="47.25628" lon="-2.32413">
        <ele>-5</ele>
        <time>2022-04-10T10:30:12.000Z</time>
      </trkpt>
      <trkpt lat="47.25634" lon="-2.32407">
        <ele>-5.4000000953674</ele>
        <time>2022-04-10T10:30:13.000Z</time>
      </trkpt>
      <trkpt lat="47.2564" lon="-2.32404">
        <ele>-5.8000001907349</ele>
        <time>2022-04-10T10:30:14.000Z</time>
      </trkpt>
      <trkpt lat="47.25646" lon="-2.32403">
        <ele>-6.4000000953674</ele>
        <time>2022-04-10T10:30:15.000Z</time>
      </trkpt>
      <trkpt lat="47.25656" lon="-2.32404">
        <ele>-6.4000000953674</ele>
        <time>2022-04-10T10:30:17.000Z</time>
      </trkpt>
      <trkpt lat="47.25677" lon="-2.32417">
        <ele>-6.4000000953674</ele>
        <time>2022-04-10T10:30:21.000Z</time>
      </trkpt>
      <trkpt lat="47.25695" lon="-2.32421">
        <ele>-6.4000000953674</ele>
        <time>2022-04-10T10:30:24.000Z</time>
      </trkpt>
      <trkpt lat="47.25701" lon="-2.32421">
        <ele>-6.4000000953674</ele>
        <time>2022-04-10T10:30:25.000Z</time>
      </trkpt>
      <trkpt lat="47.25753" lon="-2.32424">
        <ele>-6.4000000953674</ele>
        <time>2022-04-10T10:30:34.000Z</time>
      </trkpt>
      <trkpt lat="47.25757" lon="-2.32423">
        <ele>-6.4000000953674</ele>
        <time>2022-04-10T10:30:35.000Z</time>
      </trkpt>
      <trkpt lat="47.25764" lon="-2.32419">
        <ele>-6.4000000953674</ele>
        <time>2022-04-10T10:30:38.000Z</time>
      </trkpt>
      <trkpt lat="47.25773" lon="-2.32412">
        <ele>-6.4000000953674</ele>
        <time>2022-04-10T10:30:44.000Z</time>
      </trkpt>
      <trkpt lat="47.25786" lon="-2.32423">
        <ele>-6.4000000953674</ele>
        <time>2022-04-10T10:30:48.000Z</time>
      </trkpt>
      <trkpt lat="47.25791" lon="-2.32436">
        <ele>-6.4000000953674</ele>
        <time>2022-04-10T10:30:50.000Z</time>
      </trkpt>
      <trkpt lat="47.25799" lon="-2.32448">
        <ele>-6.4000000953674</ele>
        <time>2022-04-10T10:30:52.000Z</time>
      </trkpt>
      <trkpt lat="47.25819" lon="-2.32462">
        <ele>-6.4000000953674</ele>
        <time>2022-04-10T10:30:56.000Z</time>
      </trkpt>
      <trkpt lat="47.25836" lon="-2.32472">
        <ele>-6.4000000953674</ele>
        <time>2022-04-10T10:30:59.000Z</time>
      </trkpt>
      <trkpt lat="47.25847" lon="-2.32475">
        <ele>-6.4000000953674</ele>
        <time>2022-04-10T10:31:01.000Z</time>
      </trkpt>
      <trkpt lat="47.25859" lon="-2.32476">
        <ele>-6.4000000953674</ele>
        <time>2022-04-10T10:31:03.000Z</time>
      </trkpt>
      <trkpt lat="47.2587" lon="-2.32474">
        <ele>-6.4000000953674</ele>
        <time>2022-04-10T10:31:05.000Z</time>
      </trkpt>
      <trkpt lat="47.25875" lon="-2.32473">
        <ele>-6.4000000953674</ele>
        <time>2022-04-10T10:31:06.000Z</time>
      </trkpt>
      <trkpt lat="47.25886" lon="-2.3247">
        <ele>-6.4000000953674</ele>
        <time>2022-04-10T10:31:08.000Z</time>
      </trkpt>
      <trkpt lat="47.25897" lon="-2.32465">
        <ele>-6.4000000953674</ele>
        <time>2022-04-10T10:31:10.000Z</time>
      </trkpt>
      <trkpt lat="47.25915" lon="-2.32444">
        <ele>-6.4000000953674</ele>
        <time>2022-04-10T10:31:14.000Z</time>
      </trkpt>
      <trkpt lat="47.25923" lon="-2.32433">
        <ele>-6.8000001907349</ele>
        <time>2022-04-10T10:31:16.000Z</time>
      </trkpt>
      <trkpt lat="47.25927" lon="-2.32427">
        <ele>-7.1999998092651</ele>
        <time>2022-04-10T10:31:17.000Z</time>
      </trkpt>
      <trkpt lat="47.25931" lon="-2.32422">
        <ele>-7.5999999046326</ele>
        <time>2022-04-10T10:31:18.000Z</time>
      </trkpt>
      <trkpt lat="47.25936" lon="-2.32416">
        <ele>-8</ele>
        <time>2022-04-10T10:31:19.000Z</time>
      </trkpt>
      <trkpt lat="47.2594" lon="-2.32411">
        <ele>-8.3999996185303</ele>
        <time>2022-04-10T10:31:20.000Z</time>
      </trkpt>
      <trkpt lat="47.25968" lon="-2.32373">
        <ele>-8.3999996185303</ele>
        <time>2022-04-10T10:31:27.000Z</time>
      </trkpt>
      <trkpt lat="47.26004" lon="-2.32327">
        <ele>-8.3999996185303</ele>
        <time>2022-04-10T10:31:36.000Z</time>
      </trkpt>
      <trkpt lat="47.26032" lon="-2.32294">
        <ele>-8.3999996185303</ele>
        <time>2022-04-10T10:31:43.000Z</time>
      </trkpt>
      <trkpt lat="47.26063" lon="-2.32255">
        <ele>-8.3999996185303</ele>
        <time>2022-04-10T10:31:51.000Z</time>
      </trkpt>
      <trkpt lat="47.26086" lon="-2.32227">
        <ele>-8.3999996185303</ele>
        <time>2022-04-10T10:31:57.000Z</time>
      </trkpt>
      <trkpt lat="47.26106" lon="-2.32192">
        <ele>-8.3999996185303</ele>
        <time>2022-04-10T10:32:03.000Z</time>
      </trkpt>
      <trkpt lat="47.26109" lon="-2.32186">
        <ele>-8.3999996185303</ele>
        <time>2022-04-10T10:32:04.000Z</time>
      </trkpt>
      <trkpt lat="47.26129" lon="-2.32134">
        <ele>-8.3999996185303</ele>
        <time>2022-04-10T10:32:12.000Z</time>
      </trkpt>
      <trkpt lat="47.26139" lon="-2.32091">
        <ele>-8.3999996185303</ele>
        <time>2022-04-10T10:32:18.000Z</time>
      </trkpt>
      <trkpt lat="47.26155" lon="-2.32038">
        <ele>-8.3999996185303</ele>
        <time>2022-04-10T10:32:26.000Z</time>
      </trkpt>
      <trkpt lat="47.26157" lon="-2.32033">
        <ele>-8.3999996185303</ele>
        <time>2022-04-10T10:32:27.000Z</time>
      </trkpt>
      <trkpt lat="47.26166" lon="-2.32022">
        <ele>-8.3999996185303</ele>
        <time>2022-04-10T10:32:30.000Z</time>
      </trkpt>
      <trkpt lat="47.26181" lon="-2.32021">
        <ele>-8.3999996185303</ele>
        <time>2022-04-10T10:32:34.000Z</time>
      </trkpt>
      <trkpt lat="47.26192" lon="-2.32026">
        <ele>-8.3999996185303</ele>
        <time>2022-04-10T10:32:38.000Z</time>
      </trkpt>
      <trkpt lat="47.26199" lon="-2.3202">
        <ele>-8.3999996185303</ele>
        <time>2022-04-10T10:32:43.000Z</time>
      </trkpt>
      <trkpt lat="47.262" lon="-2.32011">
        <ele>-8.3999996185303</ele>
        <time>2022-04-10T10:32:47.000Z</time>
      </trkpt>
      <trkpt lat="47.26204" lon="-2.32006">
        <ele>-8.3999996185303</ele>
        <time>2022-04-10T10:32:57.000Z</time>
      </trkpt>
      <trkpt lat="47.26214" lon="-2.31994">
        <ele>-8.3999996185303</ele>
        <time>2022-04-10T10:33:01.000Z</time>
      </trkpt>
      <trkpt lat="47.26222" lon="-2.31983">
        <ele>-8.3999996185303</ele>
        <time>2022-04-10T10:33:04.000Z</time>
      </trkpt>
      <trkpt lat="47.26225" lon="-2.31982">
        <ele>-8.3999996185303</ele>
        <time>2022-04-10T10:33:05.000Z</time>
      </trkpt>
      <trkpt lat="47.26229" lon="-2.31982">
        <ele>-8.3999996185303</ele>
        <time>2022-04-10T10:33:06.000Z</time>
      </trkpt>
      <trkpt lat="47.26241" lon="-2.3197">
        <ele>-8.3999996185303</ele>
        <time>2022-04-10T10:33:10.000Z</time>
      </trkpt>
      <trkpt lat="47.26245" lon="-2.3196">
        <ele>-8.3999996185303</ele>
        <time>2022-04-10T10:33:12.000Z</time>
      </trkpt>
      <trkpt lat="47.26254" lon="-2.31943">
        <ele>-8.3999996185303</ele>
        <time>2022-04-10T10:33:16.000Z</time>
      </trkpt>
      <trkpt lat="47.26273" lon="-2.31914">
        <ele>-8.3999996185303</ele>
        <time>2022-04-10T10:33:23.000Z</time>
      </trkpt>
      <trkpt lat="47.26296" lon="-2.31893">
        <ele>-8.3999996185303</ele>
        <time>2022-04-10T10:33:28.000Z</time>
      </trkpt>
      <trkpt lat="47.263" lon="-2.31878">
        <ele>-8.3999996185303</ele>
        <time>2022-04-10T10:33:31.000Z</time>
      </trkpt>
      <trkpt lat="47.263" lon="-2.31873">
        <ele>-8.3999996185303</ele>
        <time>2022-04-10T10:33:32.000Z</time>
      </trkpt>
      <trkpt lat="47.26303" lon="-2.31834">
        <ele>-8.3999996185303</ele>
        <time>2022-04-10T10:33:38.000Z</time>
      </trkpt>
      <trkpt lat="47.26306" lon="-2.31797">
        <ele>-8.3999996185303</ele>
        <time>2022-04-10T10:33:44.000Z</time>
      </trkpt>
      <trkpt lat="47.26306" lon="-2.31769">
        <ele>-8.3999996185303</ele>
        <time>2022-04-10T10:33:49.000Z</time>
      </trkpt>
      <trkpt lat="47.26304" lon="-2.31734">
        <ele>-8.3999996185303</ele>
        <time>2022-04-10T10:33:55.000Z</time>
      </trkpt>
      <trkpt lat="47.26311" lon="-2.31714">
        <ele>-8.3999996185303</ele>
        <time>2022-04-10T10:33:59.000Z</time>
      </trkpt>
      <trkpt lat="47.2633" lon="-2.31705">
        <ele>-8</ele>
        <time>2022-04-10T10:34:04.000Z</time>
      </trkpt>
      <trkpt lat="47.26333" lon="-2.31702">
        <ele>-7.5999999046326</ele>
        <time>2022-04-10T10:34:05.000Z</time>
      </trkpt>
      <trkpt lat="47.26334" lon="-2.31698">
        <ele>-7.1999998092651</ele>
        <time>2022-04-10T10:34:06.000Z</time>
      </trkpt>
      <trkpt lat="47.26335" lon="-2.31694">
        <ele>-6.8000001907349</ele>
        <time>2022-04-10T10:34:07.000Z</time>
      </trkpt>
      <trkpt lat="47.26337" lon="-2.31689">
        <ele>-6.4000000953674</ele>
        <time>2022-04-10T10:34:08.000Z</time>
      </trkpt>
      <trkpt lat="47.2634" lon="-2.31688">
        <ele>-6.4000000953674</ele>
        <time>2022-04-10T10:34:09.000Z</time>
      </trkpt>
      <trkpt lat="47.26345" lon="-2.31685">
        <ele>-6.4000000953674</ele>
        <time>2022-04-10T10:34:11.000Z</time>
      </trkpt>
      <trkpt lat="47.26357" lon="-2.31676">
        <ele>-6</ele>
        <time>2022-04-10T10:34:15.000Z</time>
      </trkpt>
      <trkpt lat="47.2636" lon="-2.31675">
        <ele>-5.5999999046326</ele>
        <time>2022-04-10T10:34:16.000Z</time>
      </trkpt>
      <trkpt lat="47.26363" lon="-2.31673">
        <ele>-5.1999998092651</ele>
        <time>2022-04-10T10:34:17.000Z</time>
      </trkpt>
      <trkpt lat="47.26365" lon="-2.31672">
        <ele>-4.8000001907349</ele>
        <time>2022-04-10T10:34:18.000Z</time>
      </trkpt>
      <trkpt lat="47.26369" lon="-2.31671">
        <ele>-4.4000000953674</ele>
        <time>2022-04-10T10:34:19.000Z</time>
      </trkpt>
      <trkpt lat="47.26377" lon="-2.31668">
        <ele>-4.4000000953674</ele>
        <time>2022-04-10T10:34:21.000Z</time>
      </trkpt>
      <trkpt lat="47.26395" lon="-2.31658">
        <ele>-4.4000000953674</ele>
        <time>2022-04-10T10:34:27.000Z</time>
      </trkpt>
      <trkpt lat="47.26411" lon="-2.31643">
        <ele>-4.4000000953674</ele>
        <time>2022-04-10T10:34:33.000Z</time>
      </trkpt>
      <trkpt lat="47.26413" lon="-2.31636">
        <ele>-4.4000000953674</ele>
        <time>2022-04-10T10:34:35.000Z</time>
      </trkpt>
      <trkpt lat="47.26413" lon="-2.31632">
        <ele>-4.4000000953674</ele>
        <time>2022-04-10T10:34:36.000Z</time>
      </trkpt>
      <trkpt lat="47.26413" lon="-2.31627">
        <ele>-4</ele>
        <time>2022-04-10T10:34:37.000Z</time>
      </trkpt>
      <trkpt lat="47.26412" lon="-2.31622">
        <ele>-3.5999999046326</ele>
        <time>2022-04-10T10:34:38.000Z</time>
      </trkpt>
      <trkpt lat="47.26413" lon="-2.31616">
        <ele>-3</ele>
        <time>2022-04-10T10:34:39.000Z</time>
      </trkpt>
      <trkpt lat="47.26412" lon="-2.3161">
        <ele>-2.5999999046326</ele>
        <time>2022-04-10T10:34:40.000Z</time>
      </trkpt>
      <trkpt lat="47.26412" lon="-2.31605">
        <ele>-2.2000000476837</ele>
        <time>2022-04-10T10:34:41.000Z</time>
      </trkpt>
      <trkpt lat="47.26412" lon="-2.3159">
        <ele>-2.2000000476837</ele>
        <time>2022-04-10T10:34:44.000Z</time>
      </trkpt>
      <trkpt lat="47.26411" lon="-2.31574">
        <ele>-2.2000000476837</ele>
        <time>2022-04-10T10:34:47.000Z</time>
      </trkpt>
      <trkpt lat="47.26413" lon="-2.31551">
        <ele>-2.2000000476837</ele>
        <time>2022-04-10T10:34:53.000Z</time>
      </trkpt>
      <trkpt lat="47.26417" lon="-2.31552">
        <ele>-2.2000000476837</ele>
        <time>2022-04-10T10:34:56.000Z</time>
      </trkpt>
      <trkpt lat="47.26418" lon="-2.31553">
        <ele>-2.2000000476837</ele>
        <time>2022-04-10T10:34:58.000Z</time>
      </trkpt>
      <trkpt lat="47.26426" lon="-2.31553">
        <ele>-2.2000000476837</ele>
        <time>2022-04-10T10:35:17.000Z</time>
      </trkpt>
      <trkpt lat="47.26427" lon="-2.31553">
        <ele>-2.2000000476837</ele>
        <time>2022-04-10T10:35:18.000Z</time>
      </trkpt>
      <trkpt lat="47.26432" lon="-2.31553">
        <ele>-2.2000000476837</ele>
        <time>2022-04-10T10:35:22.000Z</time>
      </trkpt>
      <trkpt lat="47.26432" lon="-2.31553">
        <ele>-2.2000000476837</ele>
        <time>2022-04-10T10:35:23.000Z</time>
      </trkpt>
      <trkpt lat="47.26432" lon="-2.31555">
        <ele>-2.2000000476837</ele>
        <time>2022-04-10T10:35:24.000Z</time>
      </trkpt>
      <trkpt lat="47.26433" lon="-2.31556">
        <ele>-1.7999999523163</ele>
        <time>2022-04-10T10:35:25.000Z</time>
      </trkpt>
      <trkpt lat="47.26432" lon="-2.31554">
        <ele>-1.3999999761581</ele>
        <time>2022-04-10T10:35:26.000Z</time>
      </trkpt>
      <trkpt lat="47.26432" lon="-2.31554">
        <ele>-1</ele>
        <time>2022-04-10T10:35:27.000Z</time>
      </trkpt>
      <trkpt lat="47.26431" lon="-2.31554">
        <ele>-0.60000002384186</ele>
        <time>2022-04-10T10:35:28.000Z</time>
      </trkpt>
    </trkseg>
  </trk>
</gpx>